<?xml version='1.0' encoding='UTF-8'?><gpx version="1.1" creator="JPX - https://github.com/jenetics/jpx" xmlns="http://www.topografix.com/GPX/1/1"><trk><trkseg><trkpt lat="42.15977175024366" lon="-7.976608428026359"><ele>683.6666666666666</ele><time>2026-04-30T10:07:00Z</time></trkpt><trkpt lat="42.15978763011458" lon="-7.9767368237054"><ele>684.3333333333333</ele><time>2026-04-30T10:07:03Z</time></trkpt><trkpt lat="42.15980742864884" lon="-7.976823984307959"><ele>685.0</ele><time>2026-04-30T10:07:05Z</time></trkpt><trkpt lat="42.159877975693306" lon="-7.976855648344742"><ele>685.6666666666666</ele><time>2026-04-30T10:07:07Z</time></trkpt><trkpt lat="42.15994151078476" lon="-7.976797842657112"><ele>686.3333333333334</ele><time>2026-04-30T10:07:09Z</time></trkpt><trkpt lat="42.16001542702729" lon="-7.976742754503351"><ele>687.0</ele><time>2026-04-30T10:07:11Z</time></trkpt><trkpt lat="42.160080481080115" lon="-7.976661863413357"><ele>687.0</ele><time>2026-04-30T10:07:13Z</time></trkpt><trkpt lat="42.160146162379014" lon="-7.976592115351202"><ele>687.0</ele><time>2026-04-30T10:07:15Z</time></trkpt><trkpt lat="42.160199906016885" lon="-7.976491345474065"><ele>687.0</ele><time>2026-04-30T10:07:17Z</time></trkpt><trkpt lat="42.16026957033109" lon="-7.976421906370946"><ele>687.0</ele><time>2026-04-30T10:07:18Z</time></trkpt><trkpt lat="42.16032103626317" lon="-7.9763066298840055"><ele>687.0</ele><time>2026-04-30T10:07:19Z</time></trkpt><trkpt lat="42.16032427520231" lon="-7.976184106140365"><ele>687.0</ele><time>2026-04-30T10:07:20Z</time></trkpt><trkpt lat="42.160362015145736" lon="-7.976064377810143"><ele>687.0</ele><time>2026-04-30T10:07:21Z</time></trkpt><trkpt lat="42.16041259930263" lon="-7.975947236654287"><ele>687.0</ele><time>2026-04-30T10:07:22Z</time></trkpt><trkpt lat="42.160459072808294" lon="-7.975873246107722"><ele>687.0</ele><time>2026-04-30T10:07:23Z</time></trkpt><trkpt lat="42.16047756517079" lon="-7.975691840709976"><ele>687.0</ele><time>2026-04-30T10:07:25Z</time></trkpt><trkpt lat="42.160519923221486" lon="-7.975537710318187"><ele>686.3333333333334</ele><time>2026-04-30T10:07:27Z</time></trkpt><trkpt lat="42.1605509487996" lon="-7.975459419638013"><ele>685.6666666666666</ele><time>2026-04-30T10:07:28Z</time></trkpt><trkpt lat="42.16061895156981" lon="-7.9753349535832605"><ele>685.0</ele><time>2026-04-30T10:07:30Z</time></trkpt><trkpt lat="42.1606714620977" lon="-7.975253891184875"><ele>684.3333333333333</ele><time>2026-04-30T10:07:31Z</time></trkpt><trkpt lat="42.16074468324795" lon="-7.9751726368004405"><ele>683.6666666666666</ele><time>2026-04-30T10:07:32Z</time></trkpt><trkpt lat="42.160825513040834" lon="-7.9751162239708"><ele>683.0</ele><time>2026-04-30T10:07:33Z</time></trkpt><trkpt lat="42.160878121688086" lon="-7.975061835581408"><ele>682.4</ele><time>2026-04-30T10:07:34Z</time></trkpt><trkpt lat="42.160946623824174" lon="-7.975012638425911"><ele>681.8</ele><time>2026-04-30T10:07:36Z</time></trkpt><trkpt lat="42.160994224637385" lon="-7.974952911144548"><ele>681.2</ele><time>2026-04-30T10:07:38Z</time></trkpt><trkpt lat="42.16108035150482" lon="-7.974879014063737"><ele>680.6</ele><time>2026-04-30T10:07:41Z</time></trkpt><trkpt lat="42.16115655637374" lon="-7.974948877596724"><ele>680.0</ele><time>2026-04-30T10:07:42Z</time></trkpt><trkpt lat="42.16123558803408" lon="-7.975071448398821"><ele>681.8333333333333</ele><time>2026-04-30T10:07:44Z</time></trkpt><trkpt lat="42.1612593553965" lon="-7.975153805091773"><ele>683.6666666666666</ele><time>2026-04-30T10:07:57.001Z</time></trkpt><trkpt lat="42.16134344002889" lon="-7.975239845124319"><ele>685.5</ele><time>2026-04-30T10:10:31Z</time></trkpt><trkpt lat="42.16145154488514" lon="-7.97532387477428"><ele>687.3333333333334</ele><time>2026-04-30T10:10:33Z</time></trkpt><trkpt lat="42.161517721900154" lon="-7.975346950449187"><ele>689.1666666666667</ele><time>2026-04-30T10:10:34Z</time></trkpt><trkpt lat="42.16158696074685" lon="-7.975339586264624"><ele>691.0</ele><time>2026-04-30T10:10:35Z</time></trkpt><trkpt lat="42.16165858909892" lon="-7.975363194151946"><ele>691.6666666666667</ele><time>2026-04-30T10:10:36Z</time></trkpt><trkpt lat="42.16173697353837" lon="-7.975357002312135"><ele>692.3333333333334</ele><time>2026-04-30T10:10:37Z</time></trkpt><trkpt lat="42.16181996773373" lon="-7.975345233744914"><ele>693.0</ele><time>2026-04-30T10:10:38Z</time></trkpt><trkpt lat="42.161902542402316" lon="-7.975308132253533"><ele>693.6666666666666</ele><time>2026-04-30T10:10:39Z</time></trkpt><trkpt lat="42.16198805697036" lon="-7.975287114733221"><ele>694.3333333333333</ele><time>2026-04-30T10:10:40Z</time></trkpt><trkpt lat="42.16207015644612" lon="-7.975288912807435"><ele>695.0</ele><time>2026-04-30T10:10:41Z</time></trkpt><trkpt lat="42.162157752118794" lon="-7.975274099800408"><ele>695.0</ele><time>2026-04-30T10:10:42Z</time></trkpt><trkpt lat="42.162221129319065" lon="-7.975295829629917"><ele>695.0</ele><time>2026-04-30T10:10:43Z</time></trkpt><trkpt lat="42.16232059569813" lon="-7.975409863751487"><ele>695.0</ele><time>2026-04-30T10:10:45Z</time></trkpt><trkpt lat="42.16238402566431" lon="-7.975464764757898"><ele>695.0</ele><time>2026-04-30T10:10:46Z</time></trkpt><trkpt lat="42.162461047089394" lon="-7.975483862497507"><ele>695.0</ele><time>2026-04-30T10:10:47Z</time></trkpt><trkpt lat="42.16254220176177" lon="-7.975489405106397"><ele>695.0</ele><time>2026-04-30T10:10:48Z</time></trkpt><trkpt lat="42.16262498198119" lon="-7.975494846384293"><ele>695.1666666666666</ele><time>2026-04-30T10:10:49Z</time></trkpt><trkpt lat="42.162706558211546" lon="-7.975508058429995"><ele>695.3333333333333</ele><time>2026-04-30T10:10:50Z</time></trkpt><trkpt lat="42.162791030853064" lon="-7.975526772149267"><ele>695.5</ele><time>2026-04-30T10:10:51Z</time></trkpt><trkpt lat="42.16287451464388" lon="-7.9755552021976195"><ele>695.6666666666666</ele><time>2026-04-30T10:10:52Z</time></trkpt><trkpt lat="42.162947956857835" lon="-7.975578679319155"><ele>695.8333333333334</ele><time>2026-04-30T10:10:53Z</time></trkpt><trkpt lat="42.16302423480726" lon="-7.975627297893905"><ele>696.0</ele><time>2026-04-30T10:10:55Z</time></trkpt><trkpt lat="42.16295632558799" lon="-7.97618609020367"><ele>696.0</ele><time>2026-04-30T10:10:56Z</time></trkpt><trkpt lat="42.16297386297331" lon="-7.976297708092517"><ele>696.0</ele><time>2026-04-30T10:10:57Z</time></trkpt><trkpt lat="42.162976808565276" lon="-7.976488310979909"><ele>696.0</ele><time>2026-04-30T10:10:59Z</time></trkpt><trkpt lat="42.16293595840693" lon="-7.97657086999862"><ele>696.0</ele><time>2026-04-30T10:11:00Z</time></trkpt><trkpt lat="42.16288409483485" lon="-7.976622972215133"><ele>696.0</ele><time>2026-04-30T10:11:01Z</time></trkpt><trkpt lat="42.16282089143196" lon="-7.976684936322413"><ele>696.0</ele><time>2026-04-30T10:11:02Z</time></trkpt><trkpt lat="42.162753655463696" lon="-7.976750778935699"><ele>695.5</ele><time>2026-04-30T10:11:03Z</time></trkpt><trkpt lat="42.16267438642016" lon="-7.976827775568333"><ele>695.0</ele><time>2026-04-30T10:11:04Z</time></trkpt><trkpt lat="42.1626129107306" lon="-7.976862238050531"><ele>694.5</ele><time>2026-04-30T10:11:05Z</time></trkpt><trkpt lat="42.1625439069404" lon="-7.976940265943574"><ele>694.0</ele><time>2026-04-30T10:11:07Z</time></trkpt><trkpt lat="42.16251046122764" lon="-7.9770149705995586"><ele>693.5</ele><time>2026-04-30T10:11:08Z</time></trkpt><trkpt lat="42.1624539025107" lon="-7.977140389608291"><ele>693.0</ele><time>2026-04-30T10:11:10Z</time></trkpt><trkpt lat="42.16239465455897" lon="-7.977235388215836"><ele>694.5</ele><time>2026-04-30T10:11:12Z</time></trkpt><trkpt lat="42.16233180221484" lon="-7.9773298430429955"><ele>696.0</ele><time>2026-04-30T10:11:15Z</time></trkpt><trkpt lat="42.16234178012714" lon="-7.977416866511959"><ele>697.5</ele><time>2026-04-30T10:11:18Z</time></trkpt><trkpt lat="42.16235231491602" lon="-7.977552606589465"><ele>699.0</ele><time>2026-04-30T10:11:21Z</time></trkpt><trkpt lat="42.16236666274417" lon="-7.977649061461838"><ele>700.5</ele><time>2026-04-30T10:11:22Z</time></trkpt><trkpt lat="42.16238397852818" lon="-7.9777881244070405"><ele>702.0</ele><time>2026-04-30T10:11:23Z</time></trkpt><trkpt lat="42.162396197323645" lon="-7.977900136237456"><ele>702.0</ele><time>2026-04-30T10:11:24Z</time></trkpt><trkpt lat="42.16239134191196" lon="-7.978004090935452"><ele>702.0</ele><time>2026-04-30T10:11:25Z</time></trkpt><trkpt lat="42.1623734155351" lon="-7.978176000645673"><ele>702.0</ele><time>2026-04-30T10:11:26Z</time></trkpt><trkpt lat="42.16233848938655" lon="-7.9783420079296725"><ele>702.0</ele><time>2026-04-30T10:11:27Z</time></trkpt><trkpt lat="42.16231814767946" lon="-7.9784560570401695"><ele>702.0</ele><time>2026-04-30T10:11:28Z</time></trkpt><trkpt lat="42.16227940171224" lon="-7.978562261096984"><ele>698.0</ele><time>2026-04-30T10:11:29Z</time></trkpt><trkpt lat="42.16221366225066" lon="-7.9786741060305015"><ele>694.0</ele><time>2026-04-30T10:11:30Z</time></trkpt><trkpt lat="42.16213634762314" lon="-7.978769739855691"><ele>690.0</ele><time>2026-04-30T10:11:31Z</time></trkpt><trkpt lat="42.1620551567661" lon="-7.978865201499368"><ele>686.0</ele><time>2026-04-30T10:11:32Z</time></trkpt><trkpt lat="42.16196476036724" lon="-7.97895451565677"><ele>682.0</ele><time>2026-04-30T10:11:33Z</time></trkpt><trkpt lat="42.16186800872803" lon="-7.979038288469115"><ele>682.0</ele><time>2026-04-30T10:11:34Z</time></trkpt><trkpt lat="42.161774320680465" lon="-7.9791133139272565"><ele>682.0</ele><time>2026-04-30T10:11:35Z</time></trkpt><trkpt lat="42.16166541905544" lon="-7.97917647190722"><ele>682.0</ele><time>2026-04-30T10:11:36Z</time></trkpt><trkpt lat="42.16156667223427" lon="-7.979257557001095"><ele>682.0</ele><time>2026-04-30T10:11:37Z</time></trkpt><trkpt lat="42.16147025052703" lon="-7.979321177430391"><ele>680.8</ele><time>2026-04-30T10:11:38Z</time></trkpt><trkpt lat="42.16137573632432" lon="-7.979378816308569"><ele>679.6</ele><time>2026-04-30T10:11:39Z</time></trkpt><trkpt lat="42.161306742563944" lon="-7.979411356181398"><ele>678.4</ele><time>2026-04-30T10:11:40Z</time></trkpt><trkpt lat="42.16122870922625" lon="-7.979454465973953"><ele>677.1999999999999</ele><time>2026-04-30T10:11:41Z</time></trkpt><trkpt lat="42.16112466003073" lon="-7.979440894452909"><ele>676.0</ele><time>2026-04-30T10:11:42Z</time></trkpt><trkpt lat="42.16101433541312" lon="-7.979361561446941"><ele>676.0</ele><time>2026-04-30T10:11:43Z</time></trkpt><trkpt lat="42.160934369270436" lon="-7.979268699816066"><ele>676.0</ele><time>2026-04-30T10:11:44Z</time></trkpt><trkpt lat="42.16083264703936" lon="-7.979275558605736"><ele>676.0</ele><time>2026-04-30T10:11:45Z</time></trkpt><trkpt lat="42.16071690170193" lon="-7.979244510853299"><ele>676.0</ele><time>2026-04-30T10:11:46Z</time></trkpt><trkpt lat="42.16060756404463" lon="-7.979242346299358"><ele>676.0</ele><time>2026-04-30T10:11:47Z</time></trkpt><trkpt lat="42.160479499443795" lon="-7.979242677217562"><ele>677.75</ele><time>2026-04-30T10:11:48Z</time></trkpt><trkpt lat="42.160375493419004" lon="-7.97923180174275"><ele>679.5</ele><time>2026-04-30T10:11:49Z</time></trkpt><trkpt lat="42.16023995726251" lon="-7.979216848524417"><ele>681.25</ele><time>2026-04-30T10:11:50Z</time></trkpt><trkpt lat="42.16011578229056" lon="-7.979194495553626"><ele>683.0</ele><time>2026-04-30T10:11:51Z</time></trkpt><trkpt lat="42.159997927346474" lon="-7.979186157810292"><ele>683.0</ele><time>2026-04-30T10:11:52Z</time></trkpt><trkpt lat="42.15991433960272" lon="-7.9792105500285375"><ele>683.0</ele><time>2026-04-30T10:11:53Z</time></trkpt><trkpt lat="42.15984517850684" lon="-7.979209047283723"><ele>683.0</ele><time>2026-04-30T10:11:54Z</time></trkpt><trkpt lat="42.15982840928746" lon="-7.97930626790551"><ele>683.0</ele><time>2026-04-30T10:11:56Z</time></trkpt><trkpt lat="42.15981308970764" lon="-7.979497382805532"><ele>683.0</ele><time>2026-04-30T10:11:58Z</time></trkpt><trkpt lat="42.1598215354949" lon="-7.979612119555969"><ele>685.0</ele><time>2026-04-30T10:11:59Z</time></trkpt><trkpt lat="42.15983276219371" lon="-7.979716654033627"><ele>687.0</ele><time>2026-04-30T10:12:00Z</time></trkpt><trkpt lat="42.15983366723199" lon="-7.979835415786873"><ele>689.0</ele><time>2026-04-30T10:12:01Z</time></trkpt><trkpt lat="42.15983646928698" lon="-7.979931424624533"><ele>691.0</ele><time>2026-04-30T10:12:02Z</time></trkpt><trkpt lat="42.159844103556466" lon="-7.9800391719094685"><ele>693.0</ele><time>2026-04-30T10:12:03Z</time></trkpt><trkpt lat="42.15983743903294" lon="-7.980172602301709"><ele>695.0</ele><time>2026-04-30T10:12:04Z</time></trkpt><trkpt lat="42.1598345375315" lon="-7.980302890836923"><ele>695.0</ele><time>2026-04-30T10:12:05Z</time></trkpt><trkpt lat="42.15984065152101" lon="-7.980393799644575"><ele>695.0</ele><time>2026-04-30T10:12:06Z</time></trkpt><trkpt lat="42.15982880278565" lon="-7.980520999360695"><ele>695.0</ele><time>2026-04-30T10:12:08Z</time></trkpt><trkpt lat="42.159715084606454" lon="-7.980570288497161"><ele>695.0</ele><time>2026-04-30T10:12:10Z</time></trkpt><trkpt lat="42.15962725277983" lon="-7.980556289473565"><ele>695.0</ele><time>2026-04-30T10:12:11Z</time></trkpt><trkpt lat="42.1595133246199" lon="-7.980543642387573"><ele>695.0</ele><time>2026-04-30T10:12:12Z</time></trkpt><trkpt lat="42.159413978019884" lon="-7.980544583172813"><ele>695.0</ele><time>2026-04-30T10:12:13Z</time></trkpt><trkpt lat="42.15931243500773" lon="-7.980553659563736"><ele>695.0</ele><time>2026-04-30T10:12:14Z</time></trkpt><trkpt lat="42.1591918176938" lon="-7.980568044958356"><ele>695.0</ele><time>2026-04-30T10:12:15Z</time></trkpt><trkpt lat="42.15906858313332" lon="-7.98057704712651"><ele>695.0</ele><time>2026-04-30T10:12:16Z</time></trkpt><trkpt lat="42.1589231430585" lon="-7.98059231657049"><ele>698.25</ele><time>2026-04-30T10:12:17Z</time></trkpt><trkpt lat="42.15879044515076" lon="-7.980605082437403"><ele>701.5</ele><time>2026-04-30T10:12:18Z</time></trkpt><trkpt lat="42.15861525720258" lon="-7.980609662646789"><ele>704.75</ele><time>2026-04-30T10:12:19Z</time></trkpt><trkpt lat="42.15848908206849" lon="-7.980620649345886"><ele>708.0</ele><time>2026-04-30T10:12:20Z</time></trkpt><trkpt lat="42.15839790856526" lon="-7.980644928271046"><ele>708.0</ele><time>2026-04-30T10:12:21Z</time></trkpt><trkpt lat="42.158303323017805" lon="-7.980655435841316"><ele>708.0</ele><time>2026-04-30T10:12:22Z</time></trkpt><trkpt lat="42.15822594339639" lon="-7.980659510497473"><ele>708.0</ele><time>2026-04-30T10:12:23Z</time></trkpt><trkpt lat="42.158132448251905" lon="-7.98065116795576"><ele>708.0</ele><time>2026-04-30T10:12:25Z</time></trkpt><trkpt lat="42.15808091750036" lon="-7.980547043879616"><ele>708.0</ele><time>2026-04-30T10:12:28Z</time></trkpt><trkpt lat="42.158075394123465" lon="-7.980450580642943"><ele>708.0</ele><time>2026-04-30T10:12:29Z</time></trkpt><trkpt lat="42.15806866203225" lon="-7.980357513821962"><ele>710.8333333333334</ele><time>2026-04-30T10:12:30Z</time></trkpt><trkpt lat="42.15807606583785" lon="-7.980217153535967"><ele>713.6666666666666</ele><time>2026-04-30T10:12:32Z</time></trkpt><trkpt lat="42.15807738465372" lon="-7.980111251657262"><ele>716.5</ele><time>2026-04-30T10:12:34Z</time></trkpt><trkpt lat="42.15809086820173" lon="-7.980026853921705"><ele>719.3333333333333</ele><time>2026-04-30T10:12:37Z</time></trkpt><trkpt lat="42.158025506876484" lon="-7.980074613569256"><ele>722.1666666666666</ele><time>2026-04-30T10:12:41Z</time></trkpt><trkpt lat="42.15795905811433" lon="-7.980185081512507"><ele>725.0</ele><time>2026-04-30T10:12:43Z</time></trkpt><trkpt lat="42.15789456010059" lon="-7.980312249991868"><ele>725.0</ele><time>2026-04-30T10:12:45Z</time></trkpt><trkpt lat="42.1578109720414" lon="-7.9804447648631145"><ele>725.0</ele><time>2026-04-30T10:12:47Z</time></trkpt><trkpt lat="42.15777388909326" lon="-7.980521457864482"><ele>725.0</ele><time>2026-04-30T10:12:48Z</time></trkpt><trkpt lat="42.15772167048378" lon="-7.980637589635922"><ele>725.0</ele><time>2026-04-30T10:12:49Z</time></trkpt><trkpt lat="42.15764828708246" lon="-7.980683287913072"><ele>725.0</ele><time>2026-04-30T10:12:50Z</time></trkpt><trkpt lat="42.157560598819245" lon="-7.9807401370269595"><ele>725.25</ele><time>2026-04-30T10:12:51Z</time></trkpt><trkpt lat="42.15747905997764" lon="-7.980895530933988"><ele>725.5</ele><time>2026-04-30T10:12:52Z</time></trkpt><trkpt lat="42.15742500021182" lon="-7.98098877993853"><ele>725.75</ele><time>2026-04-30T10:12:53Z</time></trkpt><trkpt lat="42.157321692028944" lon="-7.9810733108124685"><ele>726.0</ele><time>2026-04-30T10:12:54Z</time></trkpt><trkpt lat="42.1572086967341" lon="-7.981168392419723"><ele>727.5</ele><time>2026-04-30T10:12:55Z</time></trkpt><trkpt lat="42.15710408786204" lon="-7.981284589837897"><ele>729.0</ele><time>2026-04-30T10:12:56Z</time></trkpt><trkpt lat="42.156980037647365" lon="-7.981417178038525"><ele>730.5</ele><time>2026-04-30T10:12:57Z</time></trkpt><trkpt lat="42.15690594697593" lon="-7.981509582528327"><ele>732.0</ele><time>2026-04-30T10:12:58Z</time></trkpt><trkpt lat="42.15684205343782" lon="-7.981617002832593"><ele>732.1666666666666</ele><time>2026-04-30T10:13:00Z</time></trkpt><trkpt lat="42.15684771020759" lon="-7.981704920254635"><ele>732.3333333333334</ele><time>2026-04-30T10:13:02Z</time></trkpt><trkpt lat="42.15694683241285" lon="-7.981791983830781"><ele>732.5</ele><time>2026-04-30T10:13:04Z</time></trkpt><trkpt lat="42.15700868663899" lon="-7.98183799653667"><ele>732.6666666666667</ele><time>2026-04-30T10:13:05Z</time></trkpt><trkpt lat="42.15706649870941" lon="-7.981894289147809"><ele>732.8333333333334</ele><time>2026-04-30T10:13:06Z</time></trkpt><trkpt lat="42.15710946775488" lon="-7.981961073863988"><ele>733.0</ele><time>2026-04-30T10:13:07Z</time></trkpt><trkpt lat="42.15712484134617" lon="-7.982055635932632"><ele>733.0</ele><time>2026-04-30T10:13:08Z</time></trkpt><trkpt lat="42.15713136789517" lon="-7.982171686439548"><ele>733.0</ele><time>2026-04-30T10:13:09Z</time></trkpt><trkpt lat="42.15712742387818" lon="-7.982268686178545"><ele>733.0</ele><time>2026-04-30T10:13:10Z</time></trkpt><trkpt lat="42.15713410412557" lon="-7.982385972007611"><ele>733.0</ele><time>2026-04-30T10:13:11Z</time></trkpt><trkpt lat="42.157152334082305" lon="-7.982518877721932"><ele>733.0</ele><time>2026-04-30T10:13:12Z</time></trkpt><trkpt lat="42.15718767293784" lon="-7.9826351551275465"><ele>733.0</ele><time>2026-04-30T10:13:13Z</time></trkpt><trkpt lat="42.157233909271376" lon="-7.982738803081357"><ele>733.5999999999999</ele><time>2026-04-30T10:13:14Z</time></trkpt><trkpt lat="42.15727565915501" lon="-7.982835650456718"><ele>734.1999999999999</ele><time>2026-04-30T10:13:15Z</time></trkpt><trkpt lat="42.15732413409491" lon="-7.982941191877234"><ele>734.8</ele><time>2026-04-30T10:13:16Z</time></trkpt><trkpt lat="42.15737282102402" lon="-7.9830478691094395"><ele>735.4</ele><time>2026-04-30T10:13:17Z</time></trkpt><trkpt lat="42.1574054761038" lon="-7.98316423034133"><ele>736.0</ele><time>2026-04-30T10:13:18Z</time></trkpt><trkpt lat="42.15741569104721" lon="-7.983298612497353"><ele>734.4</ele><time>2026-04-30T10:13:19Z</time></trkpt><trkpt lat="42.157429160335894" lon="-7.983436937607306"><ele>732.8</ele><time>2026-04-30T10:13:20Z</time></trkpt><trkpt lat="42.15745120425197" lon="-7.983584650657797"><ele>731.1999999999999</ele><time>2026-04-30T10:13:21Z</time></trkpt><trkpt lat="42.157465136191426" lon="-7.98371602866262"><ele>729.5999999999999</ele><time>2026-04-30T10:13:22Z</time></trkpt><trkpt lat="42.15747982753689" lon="-7.983820529062213"><ele>728.0</ele><time>2026-04-30T10:13:23Z</time></trkpt><trkpt lat="42.157508944258765" lon="-7.983916343470825"><ele>728.0</ele><time>2026-04-30T10:13:24Z</time></trkpt><trkpt lat="42.15754297821505" lon="-7.984029487461337"><ele>728.0</ele><time>2026-04-30T10:13:25Z</time></trkpt><trkpt lat="42.157580847345876" lon="-7.984166303771271"><ele>728.0</ele><time>2026-04-30T10:13:26Z</time></trkpt><trkpt lat="42.15763438865686" lon="-7.984300669378637"><ele>728.0</ele><time>2026-04-30T10:13:27Z</time></trkpt><trkpt lat="42.15771318466785" lon="-7.984425937767226"><ele>728.0</ele><time>2026-04-30T10:13:28Z</time></trkpt><trkpt lat="42.15780496279184" lon="-7.984548836551287"><ele>729.0</ele><time>2026-04-30T10:13:29Z</time></trkpt><trkpt lat="42.157888607541125" lon="-7.984655810593095"><ele>730.0</ele><time>2026-04-30T10:13:30Z</time></trkpt><trkpt lat="42.15795119178281" lon="-7.98478439610262"><ele>731.0</ele><time>2026-04-30T10:13:31Z</time></trkpt><trkpt lat="42.157981624374905" lon="-7.984942618442617"><ele>732.0</ele><time>2026-04-30T10:13:32Z</time></trkpt><trkpt lat="42.15797474596151" lon="-7.985112213955607"><ele>732.4000000000001</ele><time>2026-04-30T10:13:33Z</time></trkpt><trkpt lat="42.15799037589429" lon="-7.985268610542378"><ele>732.8000000000001</ele><time>2026-04-30T10:13:34Z</time></trkpt><trkpt lat="42.15799681397822" lon="-7.98541575190591"><ele>733.2</ele><time>2026-04-30T10:13:35Z</time></trkpt><trkpt lat="42.1579893020301" lon="-7.985560628712718"><ele>733.6</ele><time>2026-04-30T10:13:36Z</time></trkpt><trkpt lat="42.157966321976204" lon="-7.985705411957822"><ele>734.0</ele><time>2026-04-30T10:13:37Z</time></trkpt><trkpt lat="42.15793143584642" lon="-7.985831640274774"><ele>733.6</ele><time>2026-04-30T10:13:38Z</time></trkpt><trkpt lat="42.15787594182076" lon="-7.985946933546827"><ele>733.2</ele><time>2026-04-30T10:13:39Z</time></trkpt><trkpt lat="42.15780390277212" lon="-7.986053224280511"><ele>732.8000000000001</ele><time>2026-04-30T10:13:40Z</time></trkpt><trkpt lat="42.157730258414496" lon="-7.986148804960945"><ele>732.4000000000001</ele><time>2026-04-30T10:13:41Z</time></trkpt><trkpt lat="42.15766376015748" lon="-7.986259752752452"><ele>732.0</ele><time>2026-04-30T10:13:42Z</time></trkpt><trkpt lat="42.15758343169141" lon="-7.986355618739158"><ele>732.0</ele><time>2026-04-30T10:13:43Z</time></trkpt><trkpt lat="42.15750018589778" lon="-7.986435696024663"><ele>732.0</ele><time>2026-04-30T10:13:44Z</time></trkpt><trkpt lat="42.1574306167084" lon="-7.986506954786458"><ele>732.0</ele><time>2026-04-30T10:13:45Z</time></trkpt><trkpt lat="42.157355026637674" lon="-7.986575358896695"><ele>732.0</ele><time>2026-04-30T10:13:46Z</time></trkpt><trkpt lat="42.15728001415725" lon="-7.9866372184458"><ele>732.0</ele><time>2026-04-30T10:13:47Z</time></trkpt><trkpt lat="42.157222301361244" lon="-7.986698542055265"><ele>732.0</ele><time>2026-04-30T10:13:48Z</time></trkpt><trkpt lat="42.15711251593431" lon="-7.986774137563674"><ele>733.0</ele><time>2026-04-30T10:13:49Z</time></trkpt><trkpt lat="42.15701162984984" lon="-7.986865420572159"><ele>734.0</ele><time>2026-04-30T10:13:50Z</time></trkpt><trkpt lat="42.15691682952904" lon="-7.986951695844883"><ele>735.0</ele><time>2026-04-30T10:13:51Z</time></trkpt><trkpt lat="42.15681634455607" lon="-7.987030928485119"><ele>736.0</ele><time>2026-04-30T10:13:52Z</time></trkpt><trkpt lat="42.15671423081304" lon="-7.987112794424939"><ele>736.0</ele><time>2026-04-30T10:13:53Z</time></trkpt><trkpt lat="42.156605894695616" lon="-7.987196239793782"><ele>736.0</ele><time>2026-04-30T10:13:54Z</time></trkpt><trkpt lat="42.156497329938084" lon="-7.987280811967457"><ele>736.0</ele><time>2026-04-30T10:13:55Z</time></trkpt><trkpt lat="42.15637536091526" lon="-7.9873490633837685"><ele>736.0</ele><time>2026-04-30T10:13:56Z</time></trkpt><trkpt lat="42.15625164123126" lon="-7.987416776303175"><ele>734.75</ele><time>2026-04-30T10:13:57Z</time></trkpt><trkpt lat="42.15613256728853" lon="-7.987503313417389"><ele>733.5</ele><time>2026-04-30T10:13:58Z</time></trkpt><trkpt lat="42.1560202645303" lon="-7.987602081750662"><ele>732.25</ele><time>2026-04-30T10:13:59Z</time></trkpt><trkpt lat="42.155897245256924" lon="-7.987700294229829"><ele>731.0</ele><time>2026-04-30T10:14:00Z</time></trkpt><trkpt lat="42.15575707418829" lon="-7.987781180631909"><ele>731.75</ele><time>2026-04-30T10:14:01Z</time></trkpt><trkpt lat="42.155617586613005" lon="-7.9878614017410845"><ele>732.5</ele><time>2026-04-30T10:14:02Z</time></trkpt><trkpt lat="42.15549252863363" lon="-7.98794834677313"><ele>733.25</ele><time>2026-04-30T10:14:03Z</time></trkpt><trkpt lat="42.15537392760044" lon="-7.988033814992419"><ele>734.0</ele><time>2026-04-30T10:14:04Z</time></trkpt><trkpt lat="42.15524558136639" lon="-7.988136122753858"><ele>734.0</ele><time>2026-04-30T10:14:05Z</time></trkpt><trkpt lat="42.155132244550984" lon="-7.988251497169647"><ele>734.0</ele><time>2026-04-30T10:14:06Z</time></trkpt><trkpt lat="42.15503454549661" lon="-7.988373108315708"><ele>734.0</ele><time>2026-04-30T10:14:07Z</time></trkpt><trkpt lat="42.15495385288807" lon="-7.988482495379357"><ele>734.0</ele><time>2026-04-30T10:14:08Z</time></trkpt><trkpt lat="42.15488462069655" lon="-7.9885978754964215"><ele>733.1666666666666</ele><time>2026-04-30T10:14:09Z</time></trkpt><trkpt lat="42.15483120370274" lon="-7.988716266703431"><ele>732.3333333333333</ele><time>2026-04-30T10:14:10Z</time></trkpt><trkpt lat="42.154801505986946" lon="-7.988842509933563"><ele>731.5</ele><time>2026-04-30T10:14:11Z</time></trkpt><trkpt lat="42.15477882671401" lon="-7.988961892178649"><ele>730.6666666666666</ele><time>2026-04-30T10:14:12Z</time></trkpt><trkpt lat="42.15474152544143" lon="-7.989061944723849"><ele>729.8333333333334</ele><time>2026-04-30T10:14:13Z</time></trkpt><trkpt lat="42.15467726638674" lon="-7.989097834322217"><ele>729.0</ele><time>2026-04-30T10:14:14Z</time></trkpt><trkpt lat="42.15457484509581" lon="-7.9891453055968755"><ele>727.5</ele><time>2026-04-30T10:14:15Z</time></trkpt><trkpt lat="42.15444763753536" lon="-7.989181255692212"><ele>726.0</ele><time>2026-04-30T10:14:16Z</time></trkpt><trkpt lat="42.15433797134909" lon="-7.9892337361003944"><ele>724.5</ele><time>2026-04-30T10:14:17Z</time></trkpt><trkpt lat="42.154231123467326" lon="-7.989322388314549"><ele>723.0</ele><time>2026-04-30T10:14:18Z</time></trkpt><trkpt lat="42.15412369500318" lon="-7.9894178461380285"><ele>725.0</ele><time>2026-04-30T10:14:19Z</time></trkpt><trkpt lat="42.15402776587022" lon="-7.989519229021888"><ele>727.0</ele><time>2026-04-30T10:14:20Z</time></trkpt><trkpt lat="42.153938332765755" lon="-7.989644470617424"><ele>729.0</ele><time>2026-04-30T10:14:21Z</time></trkpt><trkpt lat="42.15386275370358" lon="-7.98978646133364"><ele>731.0</ele><time>2026-04-30T10:14:22Z</time></trkpt><trkpt lat="42.15376357555331" lon="-7.989932394959778"><ele>729.25</ele><time>2026-04-30T10:14:23Z</time></trkpt><trkpt lat="42.1536504674293" lon="-7.990079063579652"><ele>727.5</ele><time>2026-04-30T10:14:24Z</time></trkpt><trkpt lat="42.15354916993734" lon="-7.990211246987356"><ele>725.75</ele><time>2026-04-30T10:14:25Z</time></trkpt><trkpt lat="42.15347121452643" lon="-7.990307990349374"><ele>724.0</ele><time>2026-04-30T10:14:26Z</time></trkpt><trkpt lat="42.153415516511885" lon="-7.990395611618408"><ele>724.0</ele><time>2026-04-30T10:14:27Z</time></trkpt><trkpt lat="42.15335098547442" lon="-7.990493753179243"><ele>724.0</ele><time>2026-04-30T10:14:29Z</time></trkpt><trkpt lat="42.15321368462884" lon="-7.990531147465462"><ele>724.0</ele><time>2026-04-30T10:14:31Z</time></trkpt><trkpt lat="42.15310837063734" lon="-7.990545633170106"><ele>724.0</ele><time>2026-04-30T10:14:32Z</time></trkpt><trkpt lat="42.152983227520444" lon="-7.990563902639364"><ele>725.0</ele><time>2026-04-30T10:14:33Z</time></trkpt><trkpt lat="42.15286907671999" lon="-7.990556756680548"><ele>726.0</ele><time>2026-04-30T10:14:34Z</time></trkpt><trkpt lat="42.15274763172386" lon="-7.990545037245796"><ele>727.0</ele><time>2026-04-30T10:14:35Z</time></trkpt><trkpt lat="42.152630700829455" lon="-7.9905332511056555"><ele>728.0</ele><time>2026-04-30T10:14:36Z</time></trkpt><trkpt lat="42.152487700876286" lon="-7.990564644333227"><ele>728.75</ele><time>2026-04-30T10:14:37Z</time></trkpt><trkpt lat="42.152361523858865" lon="-7.99058742063804"><ele>729.5</ele><time>2026-04-30T10:14:38Z</time></trkpt><trkpt lat="42.15223187557109" lon="-7.990594788802446"><ele>730.25</ele><time>2026-04-30T10:14:39Z</time></trkpt><trkpt lat="42.15211342456634" lon="-7.990609286420367"><ele>731.0</ele><time>2026-04-30T10:14:40Z</time></trkpt><trkpt lat="42.15199705652049" lon="-7.990608914140859"><ele>731.0</ele><time>2026-04-30T10:14:41Z</time></trkpt><trkpt lat="42.15187753586568" lon="-7.990593709686409"><ele>731.0</ele><time>2026-04-30T10:14:42Z</time></trkpt><trkpt lat="42.15176098366871" lon="-7.990574735903468"><ele>731.0</ele><time>2026-04-30T10:14:43Z</time></trkpt><trkpt lat="42.15164827172043" lon="-7.990539756464992"><ele>731.0</ele><time>2026-04-30T10:14:44Z</time></trkpt><trkpt lat="42.15153830786567" lon="-7.990502395709588"><ele>731.0</ele><time>2026-04-30T10:14:45Z</time></trkpt><trkpt lat="42.15144913313521" lon="-7.990493284946506"><ele>731.0</ele><time>2026-04-30T10:14:46Z</time></trkpt><trkpt lat="42.15137242166041" lon="-7.99049483166871"><ele>731.0</ele><time>2026-04-30T10:14:47Z</time></trkpt><trkpt lat="42.15130667206756" lon="-7.9905344809758105"><ele>731.0</ele><time>2026-04-30T10:14:48Z</time></trkpt><trkpt lat="42.15123932361196" lon="-7.990631797713923"><ele>731.0</ele><time>2026-04-30T10:14:50Z</time></trkpt><trkpt lat="42.15119459918215" lon="-7.990720094042368"><ele>731.0</ele><time>2026-04-30T10:14:53Z</time></trkpt><trkpt lat="42.151045492284204" lon="-7.990834017656011"><ele>730.8333333333333</ele><time>2026-04-30T10:14:55Z</time></trkpt><trkpt lat="42.150974339458706" lon="-7.990907910434279"><ele>730.6666666666666</ele><time>2026-04-30T10:14:56Z</time></trkpt><trkpt lat="42.150924305279105" lon="-7.9909840923893665"><ele>730.5</ele><time>2026-04-30T10:14:57Z</time></trkpt><trkpt lat="42.15087308883258" lon="-7.991061052332248"><ele>730.3333333333334</ele><time>2026-04-30T10:14:58Z</time></trkpt><trkpt lat="42.15083250398261" lon="-7.991139713135016"><ele>730.1666666666667</ele><time>2026-04-30T10:14:59Z</time></trkpt><trkpt lat="42.150768968165636" lon="-7.991254022963807"><ele>730.0</ele><time>2026-04-30T10:15:01Z</time></trkpt><trkpt lat="42.15070940426111" lon="-7.991365046381811"><ele>730.2</ele><time>2026-04-30T10:15:03Z</time></trkpt><trkpt lat="42.15065403985745" lon="-7.991420143767894"><ele>730.4</ele><time>2026-04-30T10:15:04Z</time></trkpt><trkpt lat="42.15058651963032" lon="-7.991467721232083"><ele>730.5999999999999</ele><time>2026-04-30T10:15:05Z</time></trkpt><trkpt lat="42.150508586846136" lon="-7.991542995245521"><ele>730.8</ele><time>2026-04-30T10:15:06Z</time></trkpt><trkpt lat="42.15042904904992" lon="-7.991661531860376"><ele>731.0</ele><time>2026-04-30T10:15:07Z</time></trkpt><trkpt lat="42.1503392623654" lon="-7.9917999855833886"><ele>729.75</ele><time>2026-04-30T10:15:08Z</time></trkpt><trkpt lat="42.15025927833943" lon="-7.991919604563463"><ele>728.5</ele><time>2026-04-30T10:15:09Z</time></trkpt><trkpt lat="42.150194251727214" lon="-7.992038381368283"><ele>727.25</ele><time>2026-04-30T10:15:10Z</time></trkpt><trkpt lat="42.1501415859046" lon="-7.99215198183896"><ele>726.0</ele><time>2026-04-30T10:15:11Z</time></trkpt><trkpt lat="42.15006352969305" lon="-7.992294118613016"><ele>726.0</ele><time>2026-04-30T10:15:12Z</time></trkpt><trkpt lat="42.14997607124433" lon="-7.992462244845965"><ele>726.0</ele><time>2026-04-30T10:15:13Z</time></trkpt><trkpt lat="42.149873972753944" lon="-7.992566649356069"><ele>726.0</ele><time>2026-04-30T10:15:14Z</time></trkpt><trkpt lat="42.149780868680395" lon="-7.992672529993783"><ele>726.0</ele><time>2026-04-30T10:15:15Z</time></trkpt><trkpt lat="42.149694487496205" lon="-7.992792600811319"><ele>725.8</ele><time>2026-04-30T10:15:16Z</time></trkpt><trkpt lat="42.149602603386306" lon="-7.992926108425002"><ele>725.5999999999999</ele><time>2026-04-30T10:15:17Z</time></trkpt><trkpt lat="42.149520608816154" lon="-7.993039975012744"><ele>725.4</ele><time>2026-04-30T10:15:18Z</time></trkpt><trkpt lat="42.149454238386085" lon="-7.9931281435332675"><ele>725.2</ele><time>2026-04-30T10:15:19Z</time></trkpt><trkpt lat="42.14941045592335" lon="-7.993249888212353"><ele>725.0</ele><time>2026-04-30T10:15:20Z</time></trkpt><trkpt lat="42.149379913752384" lon="-7.99340358880528"><ele>724.0</ele><time>2026-04-30T10:15:21Z</time></trkpt><trkpt lat="42.149375765850294" lon="-7.993623273516727"><ele>723.0</ele><time>2026-04-30T10:15:22Z</time></trkpt><trkpt lat="42.149379351035954" lon="-7.99383785370659"><ele>722.0</ele><time>2026-04-30T10:15:23Z</time></trkpt><trkpt lat="42.14937099269841" lon="-7.994014297612871"><ele>722.0</ele><time>2026-04-30T10:15:24Z</time></trkpt><trkpt lat="42.14938059370397" lon="-7.9941227372100645"><ele>722.0</ele><time>2026-04-30T10:15:25Z</time></trkpt><trkpt lat="42.14939830728942" lon="-7.99421744823389"><ele>722.0</ele><time>2026-04-30T10:15:26Z</time></trkpt><trkpt lat="42.149374988511546" lon="-7.994379143263682"><ele>722.0</ele><time>2026-04-30T10:15:27Z</time></trkpt><trkpt lat="42.149338015874214" lon="-7.9945707675502025"><ele>722.0</ele><time>2026-04-30T10:15:28Z</time></trkpt><trkpt lat="42.14931701744971" lon="-7.994754330245888"><ele>720.75</ele><time>2026-04-30T10:15:29Z</time></trkpt><trkpt lat="42.14927973256391" lon="-7.994913818676838"><ele>719.5</ele><time>2026-04-30T10:15:30Z</time></trkpt><trkpt lat="42.14923583690032" lon="-7.995064883730609"><ele>718.25</ele><time>2026-04-30T10:15:31Z</time></trkpt><trkpt lat="42.14919144061213" lon="-7.995206807965346"><ele>717.0</ele><time>2026-04-30T10:15:32Z</time></trkpt><trkpt lat="42.1491437523096" lon="-7.995330185939636"><ele>716.0</ele><time>2026-04-30T10:15:33Z</time></trkpt><trkpt lat="42.14908847594346" lon="-7.995488322857043"><ele>715.0</ele><time>2026-04-30T10:15:34Z</time></trkpt><trkpt lat="42.1490405661552" lon="-7.995661839800049"><ele>714.0</ele><time>2026-04-30T10:15:35Z</time></trkpt><trkpt lat="42.14900545444499" lon="-7.99584883296321"><ele>713.0</ele><time>2026-04-30T10:15:36Z</time></trkpt><trkpt lat="42.14894733091612" lon="-7.996019910260208"><ele>712.25</ele><time>2026-04-30T10:15:37Z</time></trkpt><trkpt lat="42.148898236487724" lon="-7.9961936114313135"><ele>711.5</ele><time>2026-04-30T10:15:38Z</time></trkpt><trkpt lat="42.148858673694534" lon="-7.9963554745777845"><ele>710.75</ele><time>2026-04-30T10:15:39Z</time></trkpt><trkpt lat="42.14881286395915" lon="-7.99649178783003"><ele>710.0</ele><time>2026-04-30T10:15:40Z</time></trkpt><trkpt lat="42.14873248530834" lon="-7.996627550677412"><ele>708.5</ele><time>2026-04-30T10:15:41Z</time></trkpt><trkpt lat="42.148653124750496" lon="-7.996760755608831"><ele>707.0</ele><time>2026-04-30T10:15:42Z</time></trkpt><trkpt lat="42.148576010265856" lon="-7.996864957845589"><ele>705.5</ele><time>2026-04-30T10:15:43Z</time></trkpt><trkpt lat="42.148483008299884" lon="-7.996946175454832"><ele>704.0</ele><time>2026-04-30T10:15:44Z</time></trkpt><trkpt lat="42.14838566387223" lon="-7.997017561266296"><ele>704.0</ele><time>2026-04-30T10:15:45Z</time></trkpt><trkpt lat="42.14826884522467" lon="-7.997100449569802"><ele>704.0</ele><time>2026-04-30T10:15:46Z</time></trkpt><trkpt lat="42.148150485829625" lon="-7.9971929084369"><ele>704.0</ele><time>2026-04-30T10:15:47Z</time></trkpt><trkpt lat="42.148034616811664" lon="-7.9972624931415295"><ele>704.0</ele><time>2026-04-30T10:15:48Z</time></trkpt><trkpt lat="42.14791394911858" lon="-7.997320939349384"><ele>703.5</ele><time>2026-04-30T10:15:49Z</time></trkpt><trkpt lat="42.14778775686818" lon="-7.997346711793985"><ele>703.0</ele><time>2026-04-30T10:15:50Z</time></trkpt><trkpt lat="42.14766539141357" lon="-7.9973782453029925"><ele>702.5</ele><time>2026-04-30T10:15:51Z</time></trkpt><trkpt lat="42.147546909082635" lon="-7.997411105519066"><ele>702.0</ele><time>2026-04-30T10:15:52Z</time></trkpt><trkpt lat="42.14743702046198" lon="-7.99743664004298"><ele>701.5</ele><time>2026-04-30T10:15:53Z</time></trkpt><trkpt lat="42.14730938517505" lon="-7.997457002417483"><ele>701.0</ele><time>2026-04-30T10:15:54Z</time></trkpt><trkpt lat="42.14717079564228" lon="-7.997482780772081"><ele>700.5</ele><time>2026-04-30T10:15:55Z</time></trkpt><trkpt lat="42.147037916880244" lon="-7.997518139739648"><ele>700.0</ele><time>2026-04-30T10:15:56Z</time></trkpt><trkpt lat="42.14690713440491" lon="-7.99753690471047"><ele>700.0</ele><time>2026-04-30T10:15:57Z</time></trkpt><trkpt lat="42.146776054225846" lon="-7.997581583760992"><ele>700.0</ele><time>2026-04-30T10:15:58Z</time></trkpt><trkpt lat="42.146610950670066" lon="-7.997692086752195"><ele>700.0</ele><time>2026-04-30T10:15:59Z</time></trkpt><trkpt lat="42.146466049332155" lon="-7.997802452956845"><ele>701.25</ele><time>2026-04-30T10:16:00Z</time></trkpt><trkpt lat="42.14635212538127" lon="-7.997875242540922"><ele>702.5</ele><time>2026-04-30T10:16:01Z</time></trkpt><trkpt lat="42.14624842596007" lon="-7.9979244238877145"><ele>703.75</ele><time>2026-04-30T10:16:02Z</time></trkpt><trkpt lat="42.14613407151393" lon="-7.9979616940484775"><ele>705.0</ele><time>2026-04-30T10:16:03Z</time></trkpt><trkpt lat="42.14602240310049" lon="-7.997959617241169"><ele>705.0</ele><time>2026-04-30T10:16:04Z</time></trkpt><trkpt lat="42.14587348651403" lon="-7.997937827586082"><ele>705.0</ele><time>2026-04-30T10:16:05Z</time></trkpt><trkpt lat="42.14572582134579" lon="-7.997895933767045"><ele>705.0</ele><time>2026-04-30T10:16:06Z</time></trkpt><trkpt lat="42.145571706500945" lon="-7.997849976684382"><ele>705.0</ele><time>2026-04-30T10:16:07Z</time></trkpt><trkpt lat="42.14544728031212" lon="-7.997809547811858"><ele>705.0</ele><time>2026-04-30T10:16:08Z</time></trkpt><trkpt lat="42.145344844561336" lon="-7.997799644389795"><ele>705.0</ele><time>2026-04-30T10:16:09Z</time></trkpt><trkpt lat="42.145233424505996" lon="-7.9978578167319325"><ele>705.0</ele><time>2026-04-30T10:16:10Z</time></trkpt><trkpt lat="42.14509463268526" lon="-7.9979376865216585"><ele>705.0</ele><time>2026-04-30T10:16:11Z</time></trkpt><trkpt lat="42.14497824212542" lon="-7.9979877452282775"><ele>705.0</ele><time>2026-04-30T10:16:12Z</time></trkpt><trkpt lat="42.14489027454597" lon="-7.998021535680941"><ele>705.0</ele><time>2026-04-30T10:16:13Z</time></trkpt><trkpt lat="42.14481606006649" lon="-7.99806374727849"><ele>705.0</ele><time>2026-04-30T10:16:14Z</time></trkpt><trkpt lat="42.14474348569123" lon="-7.99809145453103"><ele>705.0</ele><time>2026-04-30T10:16:15Z</time></trkpt><trkpt lat="42.14465142327402" lon="-7.998099286416974"><ele>704.8333333333334</ele><time>2026-04-30T10:16:16Z</time></trkpt><trkpt lat="42.144548367438766" lon="-7.998112236880025"><ele>704.6666666666666</ele><time>2026-04-30T10:16:17Z</time></trkpt><trkpt lat="42.14445737838283" lon="-7.998139570021678"><ele>704.5</ele><time>2026-04-30T10:16:18Z</time></trkpt><trkpt lat="42.14439300179246" lon="-7.998122074031801"><ele>704.3333333333333</ele><time>2026-04-30T10:16:19Z</time></trkpt><trkpt lat="42.1443236022109" lon="-7.99813994694485"><ele>704.1666666666666</ele><time>2026-04-30T10:16:22Z</time></trkpt><trkpt lat="42.14424614556303" lon="-7.998137083054807"><ele>704.0</ele><time>2026-04-30T10:16:25Z</time></trkpt><trkpt lat="42.14410440280379" lon="-7.9981530554238045"><ele>703.4000000000001</ele><time>2026-04-30T10:16:27Z</time></trkpt><trkpt lat="42.14398471619192" lon="-7.9981571433834295"><ele>702.8</ele><time>2026-04-30T10:16:28Z</time></trkpt><trkpt lat="42.14386757142418" lon="-7.9981020257027495"><ele>702.2</ele><time>2026-04-30T10:16:29Z</time></trkpt><trkpt lat="42.14377703561528" lon="-7.998074393680532"><ele>701.5999999999999</ele><time>2026-04-30T10:16:30Z</time></trkpt><trkpt lat="42.14368233793624" lon="-7.998047429292177"><ele>701.0</ele><time>2026-04-30T10:16:31Z</time></trkpt><trkpt lat="42.14359378073308" lon="-7.998025241082112"><ele>701.0</ele><time>2026-04-30T10:16:32Z</time></trkpt><trkpt lat="42.1434953154133" lon="-7.998006973113558"><ele>701.0</ele><time>2026-04-30T10:16:33Z</time></trkpt><trkpt lat="42.14339495842121" lon="-7.997978472369947"><ele>701.0</ele><time>2026-04-30T10:16:34Z</time></trkpt><trkpt lat="42.14330910913817" lon="-7.997951156594866"><ele>701.0</ele><time>2026-04-30T10:16:35Z</time></trkpt><trkpt lat="42.14321827752481" lon="-7.9979015418520865"><ele>701.0</ele><time>2026-04-30T10:16:36Z</time></trkpt><trkpt lat="42.143137257734466" lon="-7.997834807865844"><ele>701.1999999999999</ele><time>2026-04-30T10:16:37Z</time></trkpt><trkpt lat="42.14305486502517" lon="-7.997733629332833"><ele>701.4</ele><time>2026-04-30T10:16:38Z</time></trkpt><trkpt lat="42.142968691566864" lon="-7.997633349792935"><ele>701.6</ele><time>2026-04-30T10:16:39Z</time></trkpt><trkpt lat="42.14289605839181" lon="-7.997545499085706"><ele>701.8</ele><time>2026-04-30T10:16:40Z</time></trkpt><trkpt lat="42.14284892371125" lon="-7.997465183376476"><ele>702.0</ele><time>2026-04-30T10:16:41Z</time></trkpt><trkpt lat="42.142810956616295" lon="-7.997355224640619"><ele>702.0</ele><time>2026-04-30T10:16:42Z</time></trkpt><trkpt lat="42.142787689678535" lon="-7.997246623760675"><ele>702.0</ele><time>2026-04-30T10:16:43Z</time></trkpt><trkpt lat="42.14275054813576" lon="-7.9971743047438695"><ele>702.0</ele><time>2026-04-30T10:16:44Z</time></trkpt><trkpt lat="42.142647493891246" lon="-7.997142014134711"><ele>702.0</ele><time>2026-04-30T10:16:46Z</time></trkpt><trkpt lat="42.14256171454755" lon="-7.99721435735083"><ele>702.0</ele><time>2026-04-30T10:16:48Z</time></trkpt><trkpt lat="42.14251950739034" lon="-7.997279256858588"><ele>702.0</ele><time>2026-04-30T10:16:49Z</time></trkpt><trkpt lat="42.14247778237938" lon="-7.997361253987468"><ele>702.0</ele><time>2026-04-30T10:16:50Z</time></trkpt><trkpt lat="42.142430661076574" lon="-7.9974596543518635"><ele>702.0</ele><time>2026-04-30T10:16:51Z</time></trkpt><trkpt lat="42.14238647930757" lon="-7.997559051362553"><ele>702.0</ele><time>2026-04-30T10:16:52Z</time></trkpt><trkpt lat="42.14229594567149" lon="-7.997650564491614"><ele>702.0</ele><time>2026-04-30T10:16:54Z</time></trkpt><trkpt lat="42.14223766506504" lon="-7.997686542513237"><ele>702.0</ele><time>2026-04-30T10:16:55Z</time></trkpt><trkpt lat="42.14216637145067" lon="-7.997752329640514"><ele>702.0</ele><time>2026-04-30T10:16:57Z</time></trkpt><trkpt lat="42.142096425070505" lon="-7.997813838792885"><ele>701.2</ele><time>2026-04-30T10:16:59Z</time></trkpt><trkpt lat="42.14199011503022" lon="-7.997838720231777"><ele>700.4000000000001</ele><time>2026-04-30T10:17:01Z</time></trkpt><trkpt lat="42.14187942767" lon="-7.997809284800623"><ele>699.5999999999999</ele><time>2026-04-30T10:17:03Z</time></trkpt><trkpt lat="42.141783253830425" lon="-7.997765972420826"><ele>698.8</ele><time>2026-04-30T10:17:05Z</time></trkpt><trkpt lat="42.14173772451238" lon="-7.997696292403467"><ele>698.0</ele><time>2026-04-30T10:17:07Z</time></trkpt><trkpt lat="42.141793291879594" lon="-7.997596262517564"><ele>698.0</ele><time>2026-04-30T10:17:09Z</time></trkpt><trkpt lat="42.141927342336324" lon="-7.997558230901965"><ele>698.0</ele><time>2026-04-30T10:17:11Z</time></trkpt><trkpt lat="42.14206327562776" lon="-7.99760190027511"><ele>698.0</ele><time>2026-04-30T10:17:12Z</time></trkpt><trkpt lat="42.14215967004562" lon="-7.997639176204943"><ele>698.0</ele><time>2026-04-30T10:17:13Z</time></trkpt><trkpt lat="42.1422376431991" lon="-7.99764693625531"><ele>698.0</ele><time>2026-04-30T10:17:14Z</time></trkpt><trkpt lat="42.1423426074733" lon="-7.99760736446992"><ele>698.0</ele><time>2026-04-30T10:17:16Z</time></trkpt><trkpt lat="42.14240653531931" lon="-7.997534694422704"><ele>698.0</ele><time>2026-04-30T10:17:17Z</time></trkpt><trkpt lat="42.142453371489026" lon="-7.997391775681103"><ele>698.0</ele><time>2026-04-30T10:17:18Z</time></trkpt><trkpt lat="42.14251120223142" lon="-7.997276441310704"><ele>698.0</ele><time>2026-04-30T10:17:19Z</time></trkpt><trkpt lat="42.14255952792499" lon="-7.9971983773323885"><ele>698.1666666666666</ele><time>2026-04-30T10:17:20Z</time></trkpt><trkpt lat="42.14262303823883" lon="-7.997156712037818"><ele>698.3333333333333</ele><time>2026-04-30T10:17:21Z</time></trkpt><trkpt lat="42.14268380016103" lon="-7.997115990435332"><ele>698.5</ele><time>2026-04-30T10:17:22Z</time></trkpt><trkpt lat="42.14277605501456" lon="-7.997165669502209"><ele>698.6666666666666</ele><time>2026-04-30T10:17:24Z</time></trkpt><trkpt lat="42.14281500148389" lon="-7.997259308575608"><ele>698.8333333333334</ele><time>2026-04-30T10:17:25Z</time></trkpt><trkpt lat="42.14286106625504" lon="-7.997396483454538"><ele>699.0</ele><time>2026-04-30T10:17:26Z</time></trkpt><trkpt lat="42.14290419972188" lon="-7.997537911578897"><ele>699.0</ele><time>2026-04-30T10:17:27Z</time></trkpt><trkpt lat="42.14295107744402" lon="-7.997638334873219"><ele>699.0</ele><time>2026-04-30T10:17:28Z</time></trkpt><trkpt lat="42.14302791063641" lon="-7.997709387073681"><ele>699.0</ele><time>2026-04-30T10:17:29Z</time></trkpt><trkpt lat="42.1431425082804" lon="-7.997804039319322"><ele>699.0</ele><time>2026-04-30T10:17:30Z</time></trkpt><trkpt lat="42.143244536818464" lon="-7.997906126983189"><ele>699.0</ele><time>2026-04-30T10:17:31Z</time></trkpt><trkpt lat="42.14332882174755" lon="-7.9979858024668005"><ele>699.4000000000001</ele><time>2026-04-30T10:17:32Z</time></trkpt><trkpt lat="42.14341651436834" lon="-7.998018318153374"><ele>699.8</ele><time>2026-04-30T10:17:33Z</time></trkpt><trkpt lat="42.14353369384374" lon="-7.998021361791303"><ele>700.2</ele><time>2026-04-30T10:17:34Z</time></trkpt><trkpt lat="42.143639772239695" lon="-7.998036438280874"><ele>700.5999999999999</ele><time>2026-04-30T10:17:35Z</time></trkpt><trkpt lat="42.14370851226175" lon="-7.9980554446282435"><ele>701.0</ele><time>2026-04-30T10:17:36Z</time></trkpt><trkpt lat="42.14379576315643" lon="-7.998035391819399"><ele>701.0</ele><time>2026-04-30T10:17:38Z</time></trkpt><trkpt lat="42.14382068357444" lon="-7.99792760526491"><ele>701.0</ele><time>2026-04-30T10:17:40Z</time></trkpt><trkpt lat="42.14376866505371" lon="-7.997804273639581"><ele>701.0</ele><time>2026-04-30T10:17:42Z</time></trkpt><trkpt lat="42.14371955330831" lon="-7.997729824286902"><ele>701.0</ele><time>2026-04-30T10:17:43Z</time></trkpt><trkpt lat="42.14368117293954" lon="-7.9976205108974625"><ele>701.0</ele><time>2026-04-30T10:17:44Z</time></trkpt><trkpt lat="42.143645510063095" lon="-7.997473864399438"><ele>702.0</ele><time>2026-04-30T10:17:45Z</time></trkpt><trkpt lat="42.14361699035596" lon="-7.997266371476217"><ele>703.0</ele><time>2026-04-30T10:17:46Z</time></trkpt><trkpt lat="42.14359315046462" lon="-7.99705370240816"><ele>704.0</ele><time>2026-04-30T10:17:47Z</time></trkpt><trkpt lat="42.14358271642379" lon="-7.996860937473853"><ele>704.0</ele><time>2026-04-30T10:17:48Z</time></trkpt><trkpt lat="42.143589473523235" lon="-7.996686032171413"><ele>704.0</ele><time>2026-04-30T10:17:49Z</time></trkpt><trkpt lat="42.14359385984325" lon="-7.99653623990112"><ele>704.0</ele><time>2026-04-30T10:17:50Z</time></trkpt><trkpt lat="42.14359026097328" lon="-7.996401475490261"><ele>704.0</ele><time>2026-04-30T10:17:51Z</time></trkpt><trkpt lat="42.143586018631076" lon="-7.99627424868443"><ele>704.0</ele><time>2026-04-30T10:17:52Z</time></trkpt><trkpt lat="42.14358395407999" lon="-7.996158743803358"><ele>705.0</ele><time>2026-04-30T10:17:53Z</time></trkpt><trkpt lat="42.14358963552023" lon="-7.996057654240524"><ele>706.0</ele><time>2026-04-30T10:17:54Z</time></trkpt><trkpt lat="42.143614738220684" lon="-7.995946926352003"><ele>707.0</ele><time>2026-04-30T10:17:55Z</time></trkpt><trkpt lat="42.14366730631457" lon="-7.995820398535349"><ele>708.0</ele><time>2026-04-30T10:17:56Z</time></trkpt><trkpt lat="42.14374667310404" lon="-7.9956895015523965"><ele>709.0</ele><time>2026-04-30T10:17:57Z</time></trkpt><trkpt lat="42.143838809203174" lon="-7.99554833806909"><ele>709.0</ele><time>2026-04-30T10:17:58Z</time></trkpt><trkpt lat="42.14390004107339" lon="-7.995411860785164"><ele>709.0</ele><time>2026-04-30T10:17:59Z</time></trkpt><trkpt lat="42.14391990346073" lon="-7.995275711539877"><ele>709.0</ele><time>2026-04-30T10:18:00Z</time></trkpt><trkpt lat="42.1439267592561" lon="-7.99515924891819"><ele>709.0</ele><time>2026-04-30T10:18:01Z</time></trkpt><trkpt lat="42.14393468498274" lon="-7.995053259819987"><ele>709.0</ele><time>2026-04-30T10:18:02Z</time></trkpt><trkpt lat="42.143948689928024" lon="-7.994957891125281"><ele>708.5</ele><time>2026-04-30T10:18:03Z</time></trkpt><trkpt lat="42.14395132569248" lon="-7.994843392587076"><ele>708.0</ele><time>2026-04-30T10:18:04Z</time></trkpt><trkpt lat="42.14395363173938" lon="-7.99473131972765"><ele>707.5</ele><time>2026-04-30T10:18:05Z</time></trkpt><trkpt lat="42.143952814689136" lon="-7.994636518123541"><ele>707.0</ele><time>2026-04-30T10:18:06Z</time></trkpt><trkpt lat="42.14395811655142" lon="-7.9945209943099504"><ele>706.5</ele><time>2026-04-30T10:18:07Z</time></trkpt><trkpt lat="42.143966570691596" lon="-7.99441927597658"><ele>706.0</ele><time>2026-04-30T10:18:08Z</time></trkpt><trkpt lat="42.14397296089939" lon="-7.994307256449323"><ele>706.0</ele><time>2026-04-30T10:18:09Z</time></trkpt><trkpt lat="42.14397705398346" lon="-7.9942131634388875"><ele>706.0</ele><time>2026-04-30T10:18:10Z</time></trkpt><trkpt lat="42.14399203656165" lon="-7.99408567443869"><ele>706.0</ele><time>2026-04-30T10:18:12Z</time></trkpt><trkpt lat="42.14397844796872" lon="-7.993991133233138"><ele>706.0</ele><time>2026-04-30T10:18:14Z</time></trkpt><trkpt lat="42.14392153263924" lon="-7.993877745624261"><ele>706.0</ele><time>2026-04-30T10:18:16Z</time></trkpt><trkpt lat="42.14389408700489" lon="-7.993748852523182"><ele>706.0</ele><time>2026-04-30T10:18:18Z</time></trkpt><trkpt lat="42.14382986667387" lon="-7.993680361038724"><ele>706.1666666666667</ele><time>2026-04-30T10:18:19Z</time></trkpt><trkpt lat="42.14374604568492" lon="-7.993606230425634"><ele>706.3333333333334</ele><time>2026-04-30T10:18:21Z</time></trkpt><trkpt lat="42.14372695178421" lon="-7.993492723926232"><ele>706.5</ele><time>2026-04-30T10:18:23Z</time></trkpt><trkpt lat="42.14374880979906" lon="-7.993409877113332"><ele>706.6666666666666</ele><time>2026-04-30T10:18:24Z</time></trkpt><trkpt lat="42.14378099094744" lon="-7.993326572960182"><ele>706.8333333333333</ele><time>2026-04-30T10:18:25Z</time></trkpt><trkpt lat="42.143797637123505" lon="-7.993241168452643"><ele>707.0</ele><time>2026-04-30T10:18:27Z</time></trkpt><trkpt lat="42.1438049744078" lon="-7.9931460378983425"><ele>707.0</ele><time>2026-04-30T10:18:29Z</time></trkpt><trkpt lat="42.14375574796946" lon="-7.9930805868672214"><ele>707.0</ele><time>2026-04-30T10:18:30Z</time></trkpt><trkpt lat="42.143704028984146" lon="-7.992954746485183"><ele>707.0</ele><time>2026-04-30T10:18:33Z</time></trkpt><trkpt lat="42.1437064714293" lon="-7.992865108076237"><ele>707.0</ele><time>2026-04-30T10:18:36Z</time></trkpt><trkpt lat="42.14372593524096" lon="-7.992778054539311"><ele>707.0</ele><time>2026-04-30T10:18:39Z</time></trkpt><trkpt lat="42.14373464450541" lon="-7.992679338442258"><ele>707.0</ele><time>2026-04-30T10:18:44Z</time></trkpt><trkpt lat="42.1437232157232" lon="-7.992594815986186"><ele>707.0</ele><time>2026-04-30T10:19:15Z</time></trkpt><trkpt lat="42.143763824197855" lon="-7.992521958750397"><ele>707.0</ele><time>2026-04-30T10:19:32Z</time></trkpt><trkpt lat="42.14375241612388" lon="-7.992400929752717"><ele>707.0</ele><time>2026-04-30T10:19:38Z</time></trkpt><trkpt lat="42.14379315620721" lon="-7.992301683383313"><ele>707.0</ele><time>2026-04-30T10:19:40Z</time></trkpt><trkpt lat="42.14382923577918" lon="-7.992226199846326"><ele>707.0</ele><time>2026-04-30T10:19:42Z</time></trkpt><trkpt lat="42.143761707249546" lon="-7.992186813946055"><ele>707.0</ele><time>2026-04-30T10:19:47Z</time></trkpt><trkpt lat="42.143687317939154" lon="-7.992185494719966"><ele>707.0</ele><time>2026-04-30T10:19:49Z</time></trkpt><trkpt lat="42.143617902225174" lon="-7.992194818594464"><ele>707.0</ele><time>2026-04-30T10:19:50Z</time></trkpt><trkpt lat="42.143516739359654" lon="-7.992232050652524"><ele>707.0</ele><time>2026-04-30T10:19:51Z</time></trkpt><trkpt lat="42.14335743628466" lon="-7.99235529981101"><ele>707.0</ele><time>2026-04-30T10:19:52Z</time></trkpt><trkpt lat="42.14320766508715" lon="-7.992484702845831"><ele>706.25</ele><time>2026-04-30T10:19:53Z</time></trkpt><trkpt lat="42.14307389923313" lon="-7.992555598502033"><ele>705.5</ele><time>2026-04-30T10:19:54Z</time></trkpt><trkpt lat="42.142956750998245" lon="-7.992602065383552"><ele>704.75</ele><time>2026-04-30T10:19:55Z</time></trkpt><trkpt lat="42.142853403856584" lon="-7.99262877976993"><ele>704.0</ele><time>2026-04-30T10:19:56Z</time></trkpt><trkpt lat="42.14273711171584" lon="-7.992645862698308"><ele>704.0</ele><time>2026-04-30T10:19:57Z</time></trkpt><trkpt lat="42.14264108766806" lon="-7.992625559406171"><ele>704.0</ele><time>2026-04-30T10:19:58Z</time></trkpt><trkpt lat="42.14255139557568" lon="-7.9925648373163325"><ele>704.0</ele><time>2026-04-30T10:19:59Z</time></trkpt><trkpt lat="42.14248405981591" lon="-7.992454738595203"><ele>704.0</ele><time>2026-04-30T10:20:00Z</time></trkpt><trkpt lat="42.14241531966178" lon="-7.992350218389144"><ele>704.0</ele><time>2026-04-30T10:20:01Z</time></trkpt><trkpt lat="42.14237546106861" lon="-7.99226362360244"><ele>704.5</ele><time>2026-04-30T10:20:02Z</time></trkpt><trkpt lat="42.14235188051654" lon="-7.992183733981295"><ele>705.0</ele><time>2026-04-30T10:20:03Z</time></trkpt><trkpt lat="42.14238681890496" lon="-7.99203181864481"><ele>705.5</ele><time>2026-04-30T10:20:05Z</time></trkpt><trkpt lat="42.142411489576595" lon="-7.9918719124793185"><ele>706.0</ele><time>2026-04-30T10:20:06Z</time></trkpt><trkpt lat="42.142409676091354" lon="-7.991665327964312"><ele>706.0</ele><time>2026-04-30T10:20:07Z</time></trkpt><trkpt lat="42.142412347566" lon="-7.991484648930479"><ele>706.0</ele><time>2026-04-30T10:20:08Z</time></trkpt><trkpt lat="42.142384055121084" lon="-7.991366439091605"><ele>706.0</ele><time>2026-04-30T10:20:09Z</time></trkpt><trkpt lat="42.142354714287436" lon="-7.991234672774683"><ele>706.0</ele><time>2026-04-30T10:20:11Z</time></trkpt><trkpt lat="42.14227220431062" lon="-7.991143951874484"><ele>706.0</ele><time>2026-04-30T10:20:13Z</time></trkpt><trkpt lat="42.14219896246239" lon="-7.991072893828129"><ele>706.0</ele><time>2026-04-30T10:20:14Z</time></trkpt><trkpt lat="42.14213404899011" lon="-7.990998989127872"><ele>706.0</ele><time>2026-04-30T10:20:15Z</time></trkpt><trkpt lat="42.14204608490716" lon="-7.990911065388272"><ele>706.0</ele><time>2026-04-30T10:20:17Z</time></trkpt><trkpt lat="42.14197768895115" lon="-7.990879803072272"><ele>706.0</ele><time>2026-04-30T10:20:18Z</time></trkpt><trkpt lat="42.14192589026017" lon="-7.990805403879207"><ele>706.0</ele><time>2026-04-30T10:20:20Z</time></trkpt><trkpt lat="42.14200519632314" lon="-7.99040319306094"><ele>706.3333333333334</ele><time>2026-04-30T10:20:21Z</time></trkpt><trkpt lat="42.14200853048389" lon="-7.9901877774969154"><ele>706.6666666666666</ele><time>2026-04-30T10:20:22Z</time></trkpt><trkpt lat="42.14201212619777" lon="-7.989947679076831"><ele>707.0</ele><time>2026-04-30T10:20:23Z</time></trkpt><trkpt lat="42.142013750706326" lon="-7.989698179069063"><ele>707.6666666666666</ele><time>2026-04-30T10:20:24Z</time></trkpt><trkpt lat="42.14202128879411" lon="-7.989450663326713"><ele>708.3333333333334</ele><time>2026-04-30T10:20:25Z</time></trkpt><trkpt lat="42.14202511177834" lon="-7.989196478527159"><ele>709.0</ele><time>2026-04-30T10:20:26Z</time></trkpt><trkpt lat="42.14202494922151" lon="-7.9890166878884346"><ele>709.4000000000001</ele><time>2026-04-30T10:20:27Z</time></trkpt><trkpt lat="42.142015634513164" lon="-7.988868632175625"><ele>709.8</ele><time>2026-04-30T10:20:28Z</time></trkpt><trkpt lat="42.14201333744361" lon="-7.988780673445591"><ele>710.2</ele><time>2026-04-30T10:20:29Z</time></trkpt><trkpt lat="42.14187363787458" lon="-7.988767653718774"><ele>710.5999999999999</ele><time>2026-04-30T10:20:32Z</time></trkpt><trkpt lat="42.14177079430472" lon="-7.988780864008436"><ele>711.0</ele><time>2026-04-30T10:20:33Z</time></trkpt><trkpt lat="42.141673757625774" lon="-7.9887884139970415"><ele>711.0</ele><time>2026-04-30T10:20:34Z</time></trkpt><trkpt lat="42.141568727439164" lon="-7.988804669779462"><ele>711.0</ele><time>2026-04-30T10:20:35Z</time></trkpt><trkpt lat="42.14148400401147" lon="-7.988801928132097"><ele>711.0</ele><time>2026-04-30T10:20:36Z</time></trkpt><trkpt lat="42.1413836071122" lon="-7.988809185011464"><ele>711.0</ele><time>2026-04-30T10:20:37Z</time></trkpt><trkpt lat="42.14131116636919" lon="-7.9888091418046745"><ele>711.0</ele><time>2026-04-30T10:20:39Z</time></trkpt><trkpt lat="42.14084428767646" lon="-7.988921248281885"><ele>711.5999999999999</ele><time>2026-04-30T10:20:42Z</time></trkpt><trkpt lat="42.14069278983834" lon="-7.988926381645627"><ele>712.2</ele><time>2026-04-30T10:20:43Z</time></trkpt><trkpt lat="42.140608063529314" lon="-7.988910226813979"><ele>712.8</ele><time>2026-04-30T10:20:44Z</time></trkpt><trkpt lat="42.14053531047925" lon="-7.988930933219479"><ele>713.4000000000001</ele><time>2026-04-30T10:20:45Z</time></trkpt><trkpt lat="42.140489575126765" lon="-7.98907608310444"><ele>714.0</ele><time>2026-04-30T10:20:49Z</time></trkpt><trkpt lat="42.14047725224799" lon="-7.989191620836963"><ele>714.0</ele><time>2026-04-30T10:20:50Z</time></trkpt><trkpt lat="42.140414255751004" lon="-7.989333409785604"><ele>714.0</ele><time>2026-04-30T10:20:51Z</time></trkpt><trkpt lat="42.14038818924636" lon="-7.989434974560442"><ele>714.0</ele><time>2026-04-30T10:20:52Z</time></trkpt><trkpt lat="42.140348837608585" lon="-7.989527170590021"><ele>714.0</ele><time>2026-04-30T10:20:54Z</time></trkpt><trkpt lat="42.14029951725955" lon="-7.989592160353564"><ele>714.0</ele><time>2026-04-30T10:20:58Z</time></trkpt><trkpt lat="42.14029172152588" lon="-7.9896840409024765"><ele>714.0</ele><time>2026-04-30T10:21:01Z</time></trkpt><trkpt lat="42.14033663577451" lon="-7.989772867095612"><ele>714.0</ele><time>2026-04-30T10:21:03Z</time></trkpt><trkpt lat="42.140386690519264" lon="-7.989875424665321"><ele>714.0</ele><time>2026-04-30T10:21:06Z</time></trkpt><trkpt lat="42.140333485023724" lon="-7.99010046359267"><ele>714.0</ele><time>2026-04-30T10:21:08Z</time></trkpt><trkpt lat="42.14030184983022" lon="-7.990246070463729"><ele>714.0</ele><time>2026-04-30T10:21:09Z</time></trkpt><trkpt lat="42.140281648242265" lon="-7.990445067782183"><ele>714.5</ele><time>2026-04-30T10:21:10Z</time></trkpt><trkpt lat="42.14030097774979" lon="-7.990577279790807"><ele>715.0</ele><time>2026-04-30T10:21:11Z</time></trkpt><trkpt lat="42.140306393913775" lon="-7.99071512032931"><ele>715.5</ele><time>2026-04-30T10:21:12Z</time></trkpt><trkpt lat="42.14030682603194" lon="-7.990803345614369"><ele>716.0</ele><time>2026-04-30T10:21:13Z</time></trkpt><trkpt lat="42.14027017690473" lon="-7.990873801920348"><ele>716.5</ele><time>2026-04-30T10:21:14Z</time></trkpt><trkpt lat="42.140179820388425" lon="-7.990969162358856"><ele>717.0</ele><time>2026-04-30T10:21:15Z</time></trkpt><trkpt lat="42.14008636034681" lon="-7.991111619150329"><ele>717.0</ele><time>2026-04-30T10:21:16Z</time></trkpt><trkpt lat="42.140019625202704" lon="-7.991257896828438"><ele>717.0</ele><time>2026-04-30T10:21:17Z</time></trkpt><trkpt lat="42.13998179268407" lon="-7.991449708833443"><ele>717.0</ele><time>2026-04-30T10:21:18Z</time></trkpt><trkpt lat="42.139946290721085" lon="-7.991650390387981"><ele>717.0</ele><time>2026-04-30T10:21:19Z</time></trkpt><trkpt lat="42.13993780416626" lon="-7.991810863167812"><ele>717.0</ele><time>2026-04-30T10:21:20Z</time></trkpt><trkpt lat="42.13995248999345" lon="-7.991923086217311"><ele>717.0</ele><time>2026-04-30T10:21:21Z</time></trkpt><trkpt lat="42.1399396613876" lon="-7.992024450928726"><ele>717.0</ele><time>2026-04-30T10:21:22Z</time></trkpt><trkpt lat="42.13990995929056" lon="-7.9921276516094615"><ele>717.0</ele><time>2026-04-30T10:21:23Z</time></trkpt><trkpt lat="42.13985360170552" lon="-7.992242004424177"><ele>717.0</ele><time>2026-04-30T10:21:24Z</time></trkpt><trkpt lat="42.13977964131621" lon="-7.992347831448209"><ele>718.8</ele><time>2026-04-30T10:21:25Z</time></trkpt><trkpt lat="42.13971186275637" lon="-7.992416786727352"><ele>720.6</ele><time>2026-04-30T10:21:26Z</time></trkpt><trkpt lat="42.13960777644369" lon="-7.992470439096626"><ele>722.4</ele><time>2026-04-30T10:21:28Z</time></trkpt><trkpt lat="42.13951198152774" lon="-7.992461741943128"><ele>724.1999999999999</ele><time>2026-04-30T10:21:29Z</time></trkpt><trkpt lat="42.13939462997698" lon="-7.992466521744627"><ele>726.0</ele><time>2026-04-30T10:21:30Z</time></trkpt><trkpt lat="42.13926657652676" lon="-7.992482420960616"><ele>726.75</ele><time>2026-04-30T10:21:31Z</time></trkpt><trkpt lat="42.13914921358245" lon="-7.992506326819064"><ele>727.5</ele><time>2026-04-30T10:21:32Z</time></trkpt><trkpt lat="42.13901873385103" lon="-7.992531000669301"><ele>728.25</ele><time>2026-04-30T10:21:33Z</time></trkpt><trkpt lat="42.13890836066272" lon="-7.9925541585209405"><ele>729.0</ele><time>2026-04-30T10:21:34Z</time></trkpt><trkpt lat="42.13877399363938" lon="-7.992597519744156"><ele>729.0</ele><time>2026-04-30T10:21:35Z</time></trkpt><trkpt lat="42.138645583328596" lon="-7.992635245361746"><ele>729.0</ele><time>2026-04-30T10:21:36Z</time></trkpt><trkpt lat="42.13856750347703" lon="-7.992653597799722"><ele>729.0</ele><time>2026-04-30T10:21:37Z</time></trkpt><trkpt lat="42.13850586361306" lon="-7.99262422105423"><ele>729.0</ele><time>2026-04-30T10:21:38Z</time></trkpt><trkpt lat="42.13844396269838" lon="-7.992588884143639"><ele>729.0</ele><time>2026-04-30T10:21:39Z</time></trkpt><trkpt lat="42.13835373451305" lon="-7.9926885181777285"><ele>729.0</ele><time>2026-04-30T10:21:41Z</time></trkpt><trkpt lat="42.138302851019596" lon="-7.992757419456655"><ele>729.0</ele><time>2026-04-30T10:21:42Z</time></trkpt><trkpt lat="42.138216141010105" lon="-7.992851460147393"><ele>729.0</ele><time>2026-04-30T10:21:44Z</time></trkpt><trkpt lat="42.13815171454339" lon="-7.992881433597336"><ele>729.0</ele><time>2026-04-30T10:21:45Z</time></trkpt><trkpt lat="42.13808371261508" lon="-7.992942163076265"><ele>729.0</ele><time>2026-04-30T10:21:46Z</time></trkpt><trkpt lat="42.13802544224323" lon="-7.993032253966942"><ele>729.0</ele><time>2026-04-30T10:21:47Z</time></trkpt><trkpt lat="42.13793617355368" lon="-7.993091476089161"><ele>729.1666666666666</ele><time>2026-04-30T10:21:48Z</time></trkpt><trkpt lat="42.137864052401184" lon="-7.993113761311545"><ele>729.3333333333334</ele><time>2026-04-30T10:21:49Z</time></trkpt><trkpt lat="42.137802126106706" lon="-7.99314784936268"><ele>729.5</ele><time>2026-04-30T10:21:50Z</time></trkpt><trkpt lat="42.137721997812626" lon="-7.993205678085634"><ele>729.6666666666667</ele><time>2026-04-30T10:21:51Z</time></trkpt><trkpt lat="42.137600641254444" lon="-7.993244360557235"><ele>729.8333333333334</ele><time>2026-04-30T10:21:53Z</time></trkpt><trkpt lat="42.13752083685792" lon="-7.993269860576028"><ele>730.0</ele><time>2026-04-30T10:21:54Z</time></trkpt><trkpt lat="42.13744709347949" lon="-7.993287774070643"><ele>730.0</ele><time>2026-04-30T10:21:55Z</time></trkpt><trkpt lat="42.13732768733234" lon="-7.993308240087157"><ele>730.0</ele><time>2026-04-30T10:21:57Z</time></trkpt><trkpt lat="42.13726457660643" lon="-7.993312038828846"><ele>730.0</ele><time>2026-04-30T10:21:58Z</time></trkpt><trkpt lat="42.137148400141626" lon="-7.993359894760152"><ele>730.0</ele><time>2026-04-30T10:22:00Z</time></trkpt><trkpt lat="42.13703678256725" lon="-7.993399015314054"><ele>730.0</ele><time>2026-04-30T10:22:02Z</time></trkpt><trkpt lat="42.13692766852866" lon="-7.993441955340454"><ele>730.0</ele><time>2026-04-30T10:22:04Z</time></trkpt><trkpt lat="42.13686595744725" lon="-7.993468729701463"><ele>730.0</ele><time>2026-04-30T10:22:05Z</time></trkpt><trkpt lat="42.1368064544496" lon="-7.993502159478952"><ele>730.0</ele><time>2026-04-30T10:22:06Z</time></trkpt><trkpt lat="42.136693752002294" lon="-7.993556547906317"><ele>730.0</ele><time>2026-04-30T10:22:08Z</time></trkpt><trkpt lat="42.13658031025465" lon="-7.99359187105732"><ele>730.0</ele><time>2026-04-30T10:22:10Z</time></trkpt><trkpt lat="42.13645866005446" lon="-7.993620415643232"><ele>731.0</ele><time>2026-04-30T10:22:12Z</time></trkpt><trkpt lat="42.136338632947435" lon="-7.9936664841649865"><ele>732.0</ele><time>2026-04-30T10:22:14Z</time></trkpt><trkpt lat="42.1362257331088" lon="-7.993747024129809"><ele>733.0</ele><time>2026-04-30T10:22:16Z</time></trkpt><trkpt lat="42.13615854340738" lon="-7.993779592612319"><ele>734.0</ele><time>2026-04-30T10:22:17Z</time></trkpt><trkpt lat="42.13605715235058" lon="-7.993804951954702"><ele>735.0</ele><time>2026-04-30T10:22:19Z</time></trkpt><trkpt lat="42.13596299584171" lon="-7.9938132747055"><ele>735.0</ele><time>2026-04-30T10:22:21Z</time></trkpt><trkpt lat="42.1358987325021" lon="-7.993809956526454"><ele>735.0</ele><time>2026-04-30T10:22:22Z</time></trkpt><trkpt lat="42.135795454100744" lon="-7.993837352334368"><ele>735.0</ele><time>2026-04-30T10:22:24Z</time></trkpt><trkpt lat="42.13573210189631" lon="-7.993858801117922"><ele>735.0</ele><time>2026-04-30T10:22:26Z</time></trkpt><trkpt lat="42.13565274123782" lon="-7.9938748757306435"><ele>735.0</ele><time>2026-04-30T10:22:28Z</time></trkpt><trkpt lat="42.135567786060605" lon="-7.99386373259438"><ele>735.0</ele><time>2026-04-30T10:22:30Z</time></trkpt><trkpt lat="42.13550131906297" lon="-7.993789627055772"><ele>735.2</ele><time>2026-04-30T10:22:32Z</time></trkpt><trkpt lat="42.13543543939404" lon="-7.993709816973088"><ele>735.4</ele><time>2026-04-30T10:22:34Z</time></trkpt><trkpt lat="42.13541826789105" lon="-7.993589015920686"><ele>735.5999999999999</ele><time>2026-04-30T10:22:36Z</time></trkpt><trkpt lat="42.135421396598254" lon="-7.993471324846778"><ele>735.8</ele><time>2026-04-30T10:22:38Z</time></trkpt><trkpt lat="42.13539125057849" lon="-7.993336020255348"><ele>736.0</ele><time>2026-04-30T10:22:40Z</time></trkpt><trkpt lat="42.13533616097237" lon="-7.993226011661891"><ele>737.1666666666667</ele><time>2026-04-30T10:22:42Z</time></trkpt><trkpt lat="42.13526135667041" lon="-7.993127662724888"><ele>738.3333333333334</ele><time>2026-04-30T10:22:45Z</time></trkpt><trkpt lat="42.13519777358041" lon="-7.993055058394056"><ele>739.5</ele><time>2026-04-30T10:22:48Z</time></trkpt><trkpt lat="42.135133672704015" lon="-7.993021207909297"><ele>740.6666666666666</ele><time>2026-04-30T10:22:51Z</time></trkpt><trkpt lat="42.1350655923142" lon="-7.99301540404609"><ele>741.8333333333333</ele><time>2026-04-30T10:22:52Z</time></trkpt><trkpt lat="42.13501329442617" lon="-7.992944595302914"><ele>743.0</ele><time>2026-04-30T10:22:58Z</time></trkpt><trkpt lat="42.134949643705596" lon="-7.992928679581649"><ele>744.3333333333333</ele><time>2026-04-30T10:23:20Z</time></trkpt><trkpt lat="42.134875793691045" lon="-7.992986775243774"><ele>745.6666666666666</ele><time>2026-04-30T10:23:22Z</time></trkpt><trkpt lat="42.13483080504447" lon="-7.993056705497175"><ele>747.0</ele><time>2026-04-30T10:23:23Z</time></trkpt><trkpt lat="42.13474568473628" lon="-7.993100692071097"><ele>748.3333333333334</ele><time>2026-04-30T10:23:25Z</time></trkpt><trkpt lat="42.134676415878495" lon="-7.993153556352975"><ele>749.6666666666667</ele><time>2026-04-30T10:23:27Z</time></trkpt><trkpt lat="42.13460211723816" lon="-7.993141168482477"><ele>751.0</ele><time>2026-04-30T10:23:28Z</time></trkpt><trkpt lat="42.13453847702238" lon="-7.993192913753236"><ele>751.0</ele><time>2026-04-30T10:23:29Z</time></trkpt><trkpt lat="42.1344645622104" lon="-7.993242903118808"><ele>751.0</ele><time>2026-04-30T10:23:31Z</time></trkpt><trkpt lat="42.13434911316054" lon="-7.993205271913839"><ele>751.0</ele><time>2026-04-30T10:23:33Z</time></trkpt><trkpt lat="42.13428111436034" lon="-7.993175465342736"><ele>751.0</ele><time>2026-04-30T10:23:34Z</time></trkpt><trkpt lat="42.13421484812056" lon="-7.993171931794621"><ele>751.0</ele><time>2026-04-30T10:23:35Z</time></trkpt><trkpt lat="42.13411845886152" lon="-7.993161950066809"><ele>751.0</ele><time>2026-04-30T10:23:37Z</time></trkpt><trkpt lat="42.13408379132534" lon="-7.993242976157787"><ele>751.5999999999999</ele><time>2026-04-30T10:23:38Z</time></trkpt><trkpt lat="42.134088961288796" lon="-7.9934077867007725"><ele>752.2</ele><time>2026-04-30T10:23:40Z</time></trkpt><trkpt lat="42.13408404073365" lon="-7.993583863475069"><ele>752.8</ele><time>2026-04-30T10:23:42Z</time></trkpt><trkpt lat="42.13408669254516" lon="-7.99367719587629"><ele>753.4000000000001</ele><time>2026-04-30T10:23:43Z</time></trkpt><trkpt lat="42.13408902889773" lon="-7.9937941127790735"><ele>754.0</ele><time>2026-04-30T10:23:45Z</time></trkpt><trkpt lat="42.13400903778145" lon="-7.99376918608039"><ele>754.0</ele><time>2026-04-30T10:23:48Z</time></trkpt><trkpt lat="42.13393046590529" lon="-7.993643805794803"><ele>754.0</ele><time>2026-04-30T10:23:50Z</time></trkpt><trkpt lat="42.1339194472516" lon="-7.993547492080654"><ele>754.0</ele><time>2026-04-30T10:23:51Z</time></trkpt><trkpt lat="42.13392814895127" lon="-7.993432779566285"><ele>754.0</ele><time>2026-04-30T10:23:52Z</time></trkpt><trkpt lat="42.13394742629133" lon="-7.99329517699766"><ele>754.0</ele><time>2026-04-30T10:23:53Z</time></trkpt><trkpt lat="42.133928941764154" lon="-7.9931763245716505"><ele>756.0</ele><time>2026-04-30T10:23:54Z</time></trkpt><trkpt lat="42.133880870328575" lon="-7.993033561037376"><ele>758.0</ele><time>2026-04-30T10:23:55Z</time></trkpt><trkpt lat="42.13383233814548" lon="-7.992893717199987"><ele>760.0</ele><time>2026-04-30T10:23:56Z</time></trkpt><trkpt lat="42.13381342982183" lon="-7.992756065671086"><ele>762.0</ele><time>2026-04-30T10:23:57Z</time></trkpt><trkpt lat="42.13382114107633" lon="-7.992603043874948"><ele>764.0</ele><time>2026-04-30T10:23:58Z</time></trkpt><trkpt lat="42.133852684983125" lon="-7.992406250985079"><ele>766.0</ele><time>2026-04-30T10:23:59Z</time></trkpt><trkpt lat="42.13388931350488" lon="-7.99221736368798"><ele>768.0</ele><time>2026-04-30T10:24:00Z</time></trkpt><trkpt lat="42.13392488818059" lon="-7.992032228276451"><ele>770.0</ele><time>2026-04-30T10:24:01Z</time></trkpt><trkpt lat="42.13396241201682" lon="-7.991873897349918"><ele>772.0</ele><time>2026-04-30T10:24:02Z</time></trkpt><trkpt lat="42.13399014175422" lon="-7.991749878562553"><ele>772.8</ele><time>2026-04-30T10:24:03Z</time></trkpt><trkpt lat="42.13399916554596" lon="-7.99166121072881"><ele>773.6</ele><time>2026-04-30T10:24:04Z</time></trkpt><trkpt lat="42.133963246486" lon="-7.991566012824323"><ele>774.4</ele><time>2026-04-30T10:24:05Z</time></trkpt><trkpt lat="42.13390654055675" lon="-7.991419663451164"><ele>775.1999999999999</ele><time>2026-04-30T10:24:06Z</time></trkpt><trkpt lat="42.13384440574991" lon="-7.991281050215633"><ele>776.0</ele><time>2026-04-30T10:24:07Z</time></trkpt><trkpt lat="42.1338162167927" lon="-7.991129833657001"><ele>776.0</ele><time>2026-04-30T10:24:08Z</time></trkpt><trkpt lat="42.13379064377585" lon="-7.990937584817592"><ele>776.0</ele><time>2026-04-30T10:24:09Z</time></trkpt><trkpt lat="42.133749330950536" lon="-7.990759905337822"><ele>776.0</ele><time>2026-04-30T10:24:10Z</time></trkpt><trkpt lat="42.13371990342833" lon="-7.990608581846587"><ele>776.0</ele><time>2026-04-30T10:24:11Z</time></trkpt><trkpt lat="42.13367413192614" lon="-7.9904684146358385"><ele>775.75</ele><time>2026-04-30T10:24:12Z</time></trkpt><trkpt lat="42.13361095341592" lon="-7.990344341046367"><ele>775.5</ele><time>2026-04-30T10:24:13Z</time></trkpt><trkpt lat="42.133539213970934" lon="-7.990232723674255"><ele>775.25</ele><time>2026-04-30T10:24:14Z</time></trkpt><trkpt lat="42.133464229897946" lon="-7.990126402562045"><ele>775.0</ele><time>2026-04-30T10:24:15Z</time></trkpt><trkpt lat="42.1333831814988" lon="-7.989990921124394"><ele>774.8</ele><time>2026-04-30T10:24:16Z</time></trkpt><trkpt lat="42.13330887027103" lon="-7.989880863589428"><ele>774.6</ele><time>2026-04-30T10:24:17Z</time></trkpt><trkpt lat="42.133231195475574" lon="-7.989870278543802"><ele>774.4000000000001</ele><time>2026-04-30T10:24:18Z</time></trkpt><trkpt lat="42.13311582286683" lon="-7.989853797948763"><ele>774.2</ele><time>2026-04-30T10:24:19Z</time></trkpt><trkpt lat="42.133001378377834" lon="-7.989847587832023"><ele>774.0</ele><time>2026-04-30T10:24:20Z</time></trkpt><trkpt lat="42.1328851947157" lon="-7.9899036704296735"><ele>777.0</ele><time>2026-04-30T10:24:21Z</time></trkpt><trkpt lat="42.13277893069794" lon="-7.990026929432358"><ele>780.0</ele><time>2026-04-30T10:24:22Z</time></trkpt><trkpt lat="42.13266596113495" lon="-7.990115026069315"><ele>783.0</ele><time>2026-04-30T10:24:23Z</time></trkpt><trkpt lat="42.13252538786879" lon="-7.990173898610433"><ele>786.0</ele><time>2026-04-30T10:24:24Z</time></trkpt><trkpt lat="42.132389516954674" lon="-7.990241167876218"><ele>788.0</ele><time>2026-04-30T10:24:25Z</time></trkpt><trkpt lat="42.13227010472202" lon="-7.990294323068312"><ele>790.0</ele><time>2026-04-30T10:24:26Z</time></trkpt><trkpt lat="42.132160577419945" lon="-7.9903666270655"><ele>792.0</ele><time>2026-04-30T10:24:27Z</time></trkpt><trkpt lat="42.13205088313245" lon="-7.990408945548052"><ele>794.0</ele><time>2026-04-30T10:24:28Z</time></trkpt><trkpt lat="42.13194756008329" lon="-7.9904674183079605"><ele>794.0</ele><time>2026-04-30T10:24:29Z</time></trkpt><trkpt lat="42.131838777790534" lon="-7.990502664681745"><ele>794.0</ele><time>2026-04-30T10:24:30Z</time></trkpt><trkpt lat="42.131720669346194" lon="-7.990553675998819"><ele>794.0</ele><time>2026-04-30T10:24:31Z</time></trkpt><trkpt lat="42.13160993545788" lon="-7.990576764894394"><ele>794.0</ele><time>2026-04-30T10:24:32Z</time></trkpt><trkpt lat="42.13150516343069" lon="-7.990660286119885"><ele>794.8000000000001</ele><time>2026-04-30T10:24:33Z</time></trkpt><trkpt lat="42.13140744326132" lon="-7.99069978565864"><ele>795.6</ele><time>2026-04-30T10:24:34Z</time></trkpt><trkpt lat="42.13131389167158" lon="-7.990722298077847"><ele>796.4</ele><time>2026-04-30T10:24:35Z</time></trkpt><trkpt lat="42.13124055058943" lon="-7.990730395761548"><ele>797.2</ele><time>2026-04-30T10:24:36Z</time></trkpt><trkpt lat="42.13115842956866" lon="-7.99073984427105"><ele>798.0</ele><time>2026-04-30T10:24:37Z</time></trkpt><trkpt lat="42.1310353280313" lon="-7.990771255205704"><ele>798.0</ele><time>2026-04-30T10:24:39Z</time></trkpt><trkpt lat="42.1309557967362" lon="-7.990804436327393"><ele>798.0</ele><time>2026-04-30T10:24:41Z</time></trkpt><trkpt lat="42.130887341474704" lon="-7.990808010863292"><ele>798.0</ele><time>2026-04-30T10:24:43Z</time></trkpt><trkpt lat="42.13080847905731" lon="-7.990819386820755"><ele>798.0</ele><time>2026-04-30T10:24:46Z</time></trkpt><trkpt lat="42.1306413458425" lon="-7.990812865782463"><ele>798.0</ele><time>2026-04-30T10:24:48Z</time></trkpt><trkpt lat="42.13055529404685" lon="-7.990793671886507"><ele>798.8</ele><time>2026-04-30T10:24:49Z</time></trkpt><trkpt lat="42.130434219508494" lon="-7.9907774801905695"><ele>799.5999999999999</ele><time>2026-04-30T10:24:50Z</time></trkpt><trkpt lat="42.13035050630121" lon="-7.9907593595068"><ele>800.4000000000001</ele><time>2026-04-30T10:24:51Z</time></trkpt><trkpt lat="42.13025811863652" lon="-7.990742065880491"><ele>801.2</ele><time>2026-04-30T10:24:53Z</time></trkpt><trkpt lat="42.130170187171885" lon="-7.990727027213314"><ele>802.0</ele><time>2026-04-30T10:24:55Z</time></trkpt><trkpt lat="42.130095801788805" lon="-7.990700923479227"><ele>802.0</ele><time>2026-04-30T10:24:57Z</time></trkpt><trkpt lat="42.13000102032814" lon="-7.990666231418149"><ele>802.0</ele><time>2026-04-30T10:24:59Z</time></trkpt><trkpt lat="42.12991989817929" lon="-7.990618710091111"><ele>802.0</ele><time>2026-04-30T10:25:07Z</time></trkpt><trkpt lat="42.13011822924503" lon="-7.990683742599982"><ele>802.0</ele><time>2026-04-30T10:25:14Z</time></trkpt><trkpt lat="42.13020071304209" lon="-7.990696111159982"><ele>802.0</ele><time>2026-04-30T10:25:15Z</time></trkpt><trkpt lat="42.13029387816186" lon="-7.990740950798877"><ele>802.0</ele><time>2026-04-30T10:25:16Z</time></trkpt><trkpt lat="42.130407200597354" lon="-7.990753716708323"><ele>802.0</ele><time>2026-04-30T10:25:17Z</time></trkpt><trkpt lat="42.130497364647354" lon="-7.9907654941605"><ele>802.0</ele><time>2026-04-30T10:25:18Z</time></trkpt><trkpt lat="42.13056855192168" lon="-7.990779344180405"><ele>802.0</ele><time>2026-04-30T10:25:19Z</time></trkpt><trkpt lat="42.130658056680495" lon="-7.990804306252122"><ele>803.8</ele><time>2026-04-30T10:25:21Z</time></trkpt><trkpt lat="42.1306265477132" lon="-7.990916320584338"><ele>805.6</ele><time>2026-04-30T10:25:24Z</time></trkpt><trkpt lat="42.130558586481925" lon="-7.990949047081045"><ele>807.4</ele><time>2026-04-30T10:25:25Z</time></trkpt><trkpt lat="42.13044834635274" lon="-7.990993348217032"><ele>809.1999999999999</ele><time>2026-04-30T10:25:26Z</time></trkpt><trkpt lat="42.13032108689981" lon="-7.991047057709413"><ele>811.0</ele><time>2026-04-30T10:25:27Z</time></trkpt><trkpt lat="42.13018615525733" lon="-7.991137123837422"><ele>811.0</ele><time>2026-04-30T10:25:28Z</time></trkpt><trkpt lat="42.13006530459976" lon="-7.991196242592697"><ele>811.0</ele><time>2026-04-30T10:25:29Z</time></trkpt><trkpt lat="42.129941602682386" lon="-7.99126191683025"><ele>811.0</ele><time>2026-04-30T10:25:30Z</time></trkpt><trkpt lat="42.129824276491696" lon="-7.9913395292072735"><ele>811.0</ele><time>2026-04-30T10:25:31Z</time></trkpt><trkpt lat="42.12969470951742" lon="-7.991431539762831"><ele>811.6666666666666</ele><time>2026-04-30T10:25:32Z</time></trkpt><trkpt lat="42.129546095450124" lon="-7.99151525091273"><ele>812.3333333333333</ele><time>2026-04-30T10:25:33Z</time></trkpt><trkpt lat="42.12939948884631" lon="-7.991623331420041"><ele>813.0</ele><time>2026-04-30T10:25:34Z</time></trkpt><trkpt lat="42.12925035988984" lon="-7.9917607696473265"><ele>813.75</ele><time>2026-04-30T10:25:35Z</time></trkpt><trkpt lat="42.12914618455523" lon="-7.9918733416065395"><ele>814.5</ele><time>2026-04-30T10:25:36Z</time></trkpt><trkpt lat="42.129078738245106" lon="-7.9919658647570815"><ele>815.25</ele><time>2026-04-30T10:25:37Z</time></trkpt><trkpt lat="42.129023534350644" lon="-7.992092076665941"><ele>816.0</ele><time>2026-04-30T10:25:38Z</time></trkpt><trkpt lat="42.12896502328602" lon="-7.992249051367631"><ele>816.0</ele><time>2026-04-30T10:25:39Z</time></trkpt><trkpt lat="42.12893326094355" lon="-7.992387971482603"><ele>816.0</ele><time>2026-04-30T10:25:40Z</time></trkpt><trkpt lat="42.12891157623859" lon="-7.992538655021549"><ele>816.0</ele><time>2026-04-30T10:25:41Z</time></trkpt><trkpt lat="42.12890365541822" lon="-7.992684104052636"><ele>816.0</ele><time>2026-04-30T10:25:42Z</time></trkpt><trkpt lat="42.1289026322446" lon="-7.992802860457181"><ele>816.0</ele><time>2026-04-30T10:25:43Z</time></trkpt><trkpt lat="42.128912896925016" lon="-7.992921116232678"><ele>816.3333333333334</ele><time>2026-04-30T10:25:44Z</time></trkpt><trkpt lat="42.128924326126814" lon="-7.99302110516745"><ele>816.6666666666667</ele><time>2026-04-30T10:25:45Z</time></trkpt><trkpt lat="42.128891008367795" lon="-7.993135567532189"><ele>817.0</ele><time>2026-04-30T10:25:47Z</time></trkpt><trkpt lat="42.128816593370374" lon="-7.993206735605362"><ele>817.3333333333334</ele><time>2026-04-30T10:25:49Z</time></trkpt><trkpt lat="42.128754388603625" lon="-7.99326043781461"><ele>817.6666666666667</ele><time>2026-04-30T10:25:51Z</time></trkpt><trkpt lat="42.12871900241186" lon="-7.993340164549171"><ele>818.0</ele><time>2026-04-30T10:26:18Z</time></trkpt><trkpt lat="42.12865788702471" lon="-7.993405747228783"><ele>817.2</ele><time>2026-04-30T10:26:32Z</time></trkpt><trkpt lat="42.12857682721617" lon="-7.993467857988086"><ele>816.4</ele><time>2026-04-30T10:26:34Z</time></trkpt><trkpt lat="42.12851640842466" lon="-7.993536982594815"><ele>815.6</ele><time>2026-04-30T10:26:35Z</time></trkpt><trkpt lat="42.12843206908408" lon="-7.993644938225267"><ele>814.8000000000001</ele><time>2026-04-30T10:26:36Z</time></trkpt><trkpt lat="42.128340713660414" lon="-7.993772662864197"><ele>814.0</ele><time>2026-04-30T10:26:37Z</time></trkpt><trkpt lat="42.12826750252193" lon="-7.9939009121471605"><ele>814.6</ele><time>2026-04-30T10:26:38Z</time></trkpt><trkpt lat="42.12820967369248" lon="-7.994022551433481"><ele>815.2</ele><time>2026-04-30T10:26:39Z</time></trkpt><trkpt lat="42.12815600105828" lon="-7.994165951772809"><ele>815.8000000000001</ele><time>2026-04-30T10:26:40Z</time></trkpt><trkpt lat="42.128101801697206" lon="-7.99429928415233"><ele>816.4000000000001</ele><time>2026-04-30T10:26:41Z</time></trkpt><trkpt lat="42.12804512108422" lon="-7.994407415365155"><ele>817.0</ele><time>2026-04-30T10:26:42Z</time></trkpt><trkpt lat="42.12794563772964" lon="-7.99449397316866"><ele>814.5</ele><time>2026-04-30T10:26:43Z</time></trkpt><trkpt lat="42.127831221570446" lon="-7.994599583591628"><ele>812.0</ele><time>2026-04-30T10:26:44Z</time></trkpt><trkpt lat="42.12772183214018" lon="-7.994691097184853"><ele>809.5</ele><time>2026-04-30T10:26:45Z</time></trkpt><trkpt lat="42.127625207295885" lon="-7.9947632925017755"><ele>807.0</ele><time>2026-04-30T10:26:46Z</time></trkpt><trkpt lat="42.127545525184345" lon="-7.9948530880149375"><ele>807.0</ele><time>2026-04-30T10:26:47Z</time></trkpt><trkpt lat="42.127476556559856" lon="-7.994941230163118"><ele>807.0</ele><time>2026-04-30T10:26:48Z</time></trkpt><trkpt lat="42.127393881811706" lon="-7.995013017172201"><ele>807.0</ele><time>2026-04-30T10:26:49Z</time></trkpt><trkpt lat="42.12731441114777" lon="-7.9950799914339346"><ele>807.0</ele><time>2026-04-30T10:26:50Z</time></trkpt><trkpt lat="42.127261760561694" lon="-7.9951649563393214"><ele>807.0</ele><time>2026-04-30T10:26:51Z</time></trkpt><trkpt lat="42.127228797890666" lon="-7.995285761010963"><ele>805.5</ele><time>2026-04-30T10:26:52Z</time></trkpt><trkpt lat="42.12720371297334" lon="-7.99544702761179"><ele>804.0</ele><time>2026-04-30T10:26:53Z</time></trkpt><trkpt lat="42.127179694252284" lon="-7.9956393438969835"><ele>802.5</ele><time>2026-04-30T10:26:54Z</time></trkpt><trkpt lat="42.127166759689224" lon="-7.995829344841714"><ele>801.0</ele><time>2026-04-30T10:26:55Z</time></trkpt><trkpt lat="42.127141348975265" lon="-7.995994243729689"><ele>800.4</ele><time>2026-04-30T10:26:56Z</time></trkpt><trkpt lat="42.12712190313431" lon="-7.996132454982692"><ele>799.8</ele><time>2026-04-30T10:26:57Z</time></trkpt><trkpt lat="42.127122573069364" lon="-7.996260335160796"><ele>799.1999999999999</ele><time>2026-04-30T10:26:58Z</time></trkpt><trkpt lat="42.127170573518946" lon="-7.996402094124601"><ele>798.5999999999999</ele><time>2026-04-30T10:26:59Z</time></trkpt><trkpt lat="42.12723175088453" lon="-7.996543663952814"><ele>798.0</ele><time>2026-04-30T10:27:00Z</time></trkpt><trkpt lat="42.12731776847816" lon="-7.996654126375985"><ele>798.0</ele><time>2026-04-30T10:27:01Z</time></trkpt><trkpt lat="42.127446621429016" lon="-7.9967765542102764"><ele>798.0</ele><time>2026-04-30T10:27:02Z</time></trkpt><trkpt lat="42.12757967320361" lon="-7.996890502053977"><ele>798.0</ele><time>2026-04-30T10:27:03Z</time></trkpt><trkpt lat="42.12769030199705" lon="-7.997002861880015"><ele>798.0</ele><time>2026-04-30T10:27:04Z</time></trkpt><trkpt lat="42.12778768843525" lon="-7.997140321194889"><ele>798.0</ele><time>2026-04-30T10:27:05Z</time></trkpt><trkpt lat="42.12786996515163" lon="-7.99726283026833"><ele>798.0</ele><time>2026-04-30T10:27:06Z</time></trkpt><trkpt lat="42.12795544631331" lon="-7.997360910167923"><ele>798.0</ele><time>2026-04-30T10:27:07Z</time></trkpt><trkpt lat="42.12806782530036" lon="-7.99744829303149"><ele>796.0</ele><time>2026-04-30T10:27:08Z</time></trkpt><trkpt lat="42.12820648195471" lon="-7.997551869666943"><ele>794.0</ele><time>2026-04-30T10:27:09Z</time></trkpt><trkpt lat="42.12833058116259" lon="-7.997648626244954"><ele>792.0</ele><time>2026-04-30T10:27:10Z</time></trkpt><trkpt lat="42.128448318500034" lon="-7.997708536294131"><ele>790.0</ele><time>2026-04-30T10:27:11Z</time></trkpt><trkpt lat="42.128571963933766" lon="-7.997767024905309"><ele>789.4</ele><time>2026-04-30T10:27:12Z</time></trkpt><trkpt lat="42.12867881345813" lon="-7.997818163018665"><ele>788.8</ele><time>2026-04-30T10:27:13Z</time></trkpt><trkpt lat="42.12875089001814" lon="-7.997873076030661"><ele>788.2</ele><time>2026-04-30T10:27:14Z</time></trkpt><trkpt lat="42.12875432382887" lon="-7.997983632739254"><ele>787.6</ele><time>2026-04-30T10:27:16Z</time></trkpt><trkpt lat="42.12872098639123" lon="-7.998085653501699"><ele>787.0</ele><time>2026-04-30T10:27:18Z</time></trkpt><trkpt lat="42.12860082049846" lon="-7.998165285801181"><ele>787.0</ele><time>2026-04-30T10:27:20Z</time></trkpt><trkpt lat="42.128490463004546" lon="-7.998220441701248"><ele>787.0</ele><time>2026-04-30T10:27:21Z</time></trkpt><trkpt lat="42.128408566568375" lon="-7.998297194471942"><ele>787.0</ele><time>2026-04-30T10:27:22Z</time></trkpt><trkpt lat="42.12834443172486" lon="-7.998417348684438"><ele>787.0</ele><time>2026-04-30T10:27:23Z</time></trkpt><trkpt lat="42.1282819311995" lon="-7.998587267648261"><ele>785.25</ele><time>2026-04-30T10:27:24Z</time></trkpt><trkpt lat="42.128232789962915" lon="-7.9987271801910005"><ele>783.5</ele><time>2026-04-30T10:27:25Z</time></trkpt><trkpt lat="42.12814335797318" lon="-7.9988384918321405"><ele>781.75</ele><time>2026-04-30T10:27:26Z</time></trkpt><trkpt lat="42.128040077682975" lon="-7.998946305630883"><ele>780.0</ele><time>2026-04-30T10:27:27Z</time></trkpt><trkpt lat="42.12790317056149" lon="-7.999056164679837"><ele>780.0</ele><time>2026-04-30T10:27:28Z</time></trkpt><trkpt lat="42.127772901901494" lon="-7.999138472651387"><ele>780.0</ele><time>2026-04-30T10:27:29Z</time></trkpt><trkpt lat="42.12768572209078" lon="-7.999234460062868"><ele>780.0</ele><time>2026-04-30T10:27:30Z</time></trkpt><trkpt lat="42.12762908931553" lon="-7.9993231967076746"><ele>780.0</ele><time>2026-04-30T10:27:31Z</time></trkpt><trkpt lat="42.12761036771724" lon="-7.999413696894294"><ele>780.0</ele><time>2026-04-30T10:27:32Z</time></trkpt><trkpt lat="42.127604408937955" lon="-7.9995612403545895"><ele>779.2</ele><time>2026-04-30T10:27:34Z</time></trkpt><trkpt lat="42.12753214223073" lon="-7.999655583027474"><ele>778.4</ele><time>2026-04-30T10:27:36Z</time></trkpt><trkpt lat="42.127488323697385" lon="-7.999725712072067"><ele>777.5999999999999</ele><time>2026-04-30T10:27:37Z</time></trkpt><trkpt lat="42.127450563044114" lon="-7.999821366919874"><ele>776.8</ele><time>2026-04-30T10:27:38Z</time></trkpt><trkpt lat="42.127383707538414" lon="-7.999911562672291"><ele>776.0</ele><time>2026-04-30T10:27:40Z</time></trkpt><trkpt lat="42.127273591171566" lon="-7.9998900214748945"><ele>776.0</ele><time>2026-04-30T10:27:42Z</time></trkpt><trkpt lat="42.127200227808004" lon="-7.999823836741315"><ele>776.0</ele><time>2026-04-30T10:27:43Z</time></trkpt><trkpt lat="42.12714680492428" lon="-7.999772694876497"><ele>776.0</ele><time>2026-04-30T10:27:44Z</time></trkpt><trkpt lat="42.12705362826599" lon="-7.999836253888134"><ele>776.0</ele><time>2026-04-30T10:27:46Z</time></trkpt><trkpt lat="42.126954528941305" lon="-8.00005090555326"><ele>776.0</ele><time>2026-04-30T10:27:48Z</time></trkpt><trkpt lat="42.126867918882546" lon="-8.000251964485045"><ele>776.0</ele><time>2026-04-30T10:27:49Z</time></trkpt><trkpt lat="42.12680653568131" lon="-8.000357486268868"><ele>776.0</ele><time>2026-04-30T10:27:50Z</time></trkpt><trkpt lat="42.12669194205593" lon="-8.000461294761077"><ele>776.0</ele><time>2026-04-30T10:27:52Z</time></trkpt><trkpt lat="42.12664529741268" lon="-8.000540749195064"><ele>776.0</ele><time>2026-04-30T10:27:53Z</time></trkpt><trkpt lat="42.12656114319421" lon="-8.00060910448014"><ele>776.0</ele><time>2026-04-30T10:27:55Z</time></trkpt><trkpt lat="42.12648414154429" lon="-8.000541331174452"><ele>775.5</ele><time>2026-04-30T10:27:58Z</time></trkpt><trkpt lat="42.126441911354085" lon="-8.000475109791624"><ele>775.0</ele><time>2026-04-30T10:27:59Z</time></trkpt><trkpt lat="42.126386892845275" lon="-8.00029843640264"><ele>774.5</ele><time>2026-04-30T10:28:01Z</time></trkpt><trkpt lat="42.126335950901" lon="-8.000142526480602"><ele>774.0</ele><time>2026-04-30T10:28:02Z</time></trkpt><trkpt lat="42.126287536315644" lon="-7.999948808825642"><ele>774.0</ele><time>2026-04-30T10:28:03Z</time></trkpt><trkpt lat="42.12625653342022" lon="-7.999803292312751"><ele>774.0</ele><time>2026-04-30T10:28:04Z</time></trkpt><trkpt lat="42.12621498398321" lon="-7.999665576025205"><ele>774.0</ele><time>2026-04-30T10:28:05Z</time></trkpt><trkpt lat="42.1261824061599" lon="-7.9995362993916705"><ele>774.0</ele><time>2026-04-30T10:28:06Z</time></trkpt><trkpt lat="42.126136082431856" lon="-7.999422458121303"><ele>774.0</ele><time>2026-04-30T10:28:07Z</time></trkpt><trkpt lat="42.12611656975224" lon="-7.999249418432947"><ele>775.0</ele><time>2026-04-30T10:28:08Z</time></trkpt><trkpt lat="42.12609322920608" lon="-7.999060865337333"><ele>776.0</ele><time>2026-04-30T10:28:09Z</time></trkpt><trkpt lat="42.126121454208686" lon="-7.9989145687911885"><ele>777.0</ele><time>2026-04-30T10:28:10Z</time></trkpt><trkpt lat="42.12600499289337" lon="-7.9987905697293575"><ele>778.0</ele><time>2026-04-30T10:28:11Z</time></trkpt><trkpt lat="42.12591375252028" lon="-7.998664453160702"><ele>778.0</ele><time>2026-04-30T10:28:12Z</time></trkpt><trkpt lat="42.12583651256937" lon="-7.998556605291172"><ele>778.0</ele><time>2026-04-30T10:28:13Z</time></trkpt><trkpt lat="42.12578259026791" lon="-7.998459400174867"><ele>778.0</ele><time>2026-04-30T10:28:14Z</time></trkpt><trkpt lat="42.1257284723694" lon="-7.998353287801547"><ele>778.0</ele><time>2026-04-30T10:28:15Z</time></trkpt><trkpt lat="42.1256781086656" lon="-7.99823878547602"><ele>778.0</ele><time>2026-04-30T10:28:16Z</time></trkpt><trkpt lat="42.125622451039156" lon="-7.998149684901629"><ele>779.0</ele><time>2026-04-30T10:28:17Z</time></trkpt><trkpt lat="42.12555709308411" lon="-7.99807389229783"><ele>780.0</ele><time>2026-04-30T10:28:18Z</time></trkpt><trkpt lat="42.125485219311415" lon="-7.997989436113787"><ele>781.0</ele><time>2026-04-30T10:28:19Z</time></trkpt><trkpt lat="42.12541120716319" lon="-7.997903533810044"><ele>782.0</ele><time>2026-04-30T10:28:20Z</time></trkpt><trkpt lat="42.12534047634218" lon="-7.997822730947335"><ele>783.0</ele><time>2026-04-30T10:28:21Z</time></trkpt><trkpt lat="42.12526838282438" lon="-7.997728847565396"><ele>783.0</ele><time>2026-04-30T10:28:22Z</time></trkpt><trkpt lat="42.125193749516285" lon="-7.997616255464112"><ele>783.0</ele><time>2026-04-30T10:28:23Z</time></trkpt><trkpt lat="42.12511495104352" lon="-7.997502953194977"><ele>783.0</ele><time>2026-04-30T10:28:24Z</time></trkpt><trkpt lat="42.125043025140315" lon="-7.997390910091506"><ele>783.0</ele><time>2026-04-30T10:28:25Z</time></trkpt><trkpt lat="42.12496906320537" lon="-7.997277363257593"><ele>783.0</ele><time>2026-04-30T10:28:26Z</time></trkpt><trkpt lat="42.1248927499573" lon="-7.997171739895957"><ele>783.8</ele><time>2026-04-30T10:28:27Z</time></trkpt><trkpt lat="42.12481441514127" lon="-7.997084850205014"><ele>784.5999999999999</ele><time>2026-04-30T10:28:28Z</time></trkpt><trkpt lat="42.12473223314104" lon="-7.997001243033151"><ele>785.4000000000001</ele><time>2026-04-30T10:28:29Z</time></trkpt><trkpt lat="42.1246639386665" lon="-7.996934492893016"><ele>786.2</ele><time>2026-04-30T10:28:30Z</time></trkpt><trkpt lat="42.12457939900646" lon="-7.996839206296902"><ele>787.0</ele><time>2026-04-30T10:28:31Z</time></trkpt><trkpt lat="42.12449501122255" lon="-7.9967340543261605"><ele>787.1666666666666</ele><time>2026-04-30T10:28:32Z</time></trkpt><trkpt lat="42.12442464539459" lon="-7.996650919037634"><ele>787.3333333333333</ele><time>2026-04-30T10:28:33Z</time></trkpt><trkpt lat="42.12435267100698" lon="-7.996598495697556"><ele>787.5</ele><time>2026-04-30T10:28:34Z</time></trkpt><trkpt lat="42.12427701967417" lon="-7.996556457637833"><ele>787.6666666666667</ele><time>2026-04-30T10:28:35Z</time></trkpt><trkpt lat="42.124197745280945" lon="-7.996524536601291"><ele>787.8333333333334</ele><time>2026-04-30T10:28:36Z</time></trkpt><trkpt lat="42.124115503946086" lon="-7.996502625646208"><ele>788.0</ele><time>2026-04-30T10:28:37Z</time></trkpt><trkpt lat="42.12401700326151" lon="-7.996474402293383"><ele>787.0</ele><time>2026-04-30T10:28:38Z</time></trkpt><trkpt lat="42.12391160181692" lon="-7.996438210538139"><ele>786.0</ele><time>2026-04-30T10:28:39Z</time></trkpt><trkpt lat="42.12380926662192" lon="-7.9963919325609725"><ele>785.0</ele><time>2026-04-30T10:28:40Z</time></trkpt><trkpt lat="42.12371367296764" lon="-7.996345490705967"><ele>784.0</ele><time>2026-04-30T10:28:41Z</time></trkpt><trkpt lat="42.12363693132439" lon="-7.9963142741357425"><ele>783.0</ele><time>2026-04-30T10:28:42Z</time></trkpt><trkpt lat="42.12357013194405" lon="-7.996291865336629"><ele>783.0</ele><time>2026-04-30T10:28:43Z</time></trkpt><trkpt lat="42.12345301026498" lon="-7.996257846087664"><ele>783.0</ele><time>2026-04-30T10:28:45Z</time></trkpt><trkpt lat="42.123375453967334" lon="-7.996267354259887"><ele>783.0</ele><time>2026-04-30T10:28:46Z</time></trkpt><trkpt lat="42.12327832210009" lon="-7.99625932479582"><ele>783.0</ele><time>2026-04-30T10:28:47Z</time></trkpt><trkpt lat="42.12316769183994" lon="-7.996241459419055"><ele>783.0</ele><time>2026-04-30T10:28:48Z</time></trkpt><trkpt lat="42.123053885619505" lon="-7.996226842411173"><ele>782.0</ele><time>2026-04-30T10:28:49Z</time></trkpt><trkpt lat="42.122948441980384" lon="-7.996216597953934"><ele>781.0</ele><time>2026-04-30T10:28:50Z</time></trkpt><trkpt lat="42.12284926602872" lon="-7.99620944764923"><ele>780.0</ele><time>2026-04-30T10:28:51Z</time></trkpt><trkpt lat="42.122770228020634" lon="-7.996227997602907"><ele>779.0</ele><time>2026-04-30T10:28:52Z</time></trkpt><trkpt lat="42.122682570240734" lon="-7.996266316795973"><ele>778.0</ele><time>2026-04-30T10:28:53Z</time></trkpt><trkpt lat="42.12261476452139" lon="-7.996284092155495"><ele>777.0</ele><time>2026-04-30T10:28:54Z</time></trkpt><trkpt lat="42.122553182282715" lon="-7.9962605020980595"><ele>777.0</ele><time>2026-04-30T10:28:55Z</time></trkpt><trkpt lat="42.12248563333681" lon="-7.996218416116252"><ele>777.0</ele><time>2026-04-30T10:28:56Z</time></trkpt><trkpt lat="42.12242713431636" lon="-7.9961750162851795"><ele>777.0</ele><time>2026-04-30T10:28:57Z</time></trkpt><trkpt lat="42.12225366446256" lon="-7.9962437418181"><ele>777.0</ele><time>2026-04-30T10:28:59Z</time></trkpt><trkpt lat="42.12220405290152" lon="-7.996181361894876"><ele>777.0</ele><time>2026-04-30T10:29:02Z</time></trkpt><trkpt lat="42.12215017768527" lon="-7.9961205727307805"><ele>776.8</ele><time>2026-04-30T10:29:05.999Z</time></trkpt><trkpt lat="42.122087935562156" lon="-7.996066825711041"><ele>776.6</ele><time>2026-04-30T10:29:12Z</time></trkpt><trkpt lat="42.12212196255469" lon="-7.995983287714162"><ele>776.4</ele><time>2026-04-30T10:29:14Z</time></trkpt><trkpt lat="42.12229339265277" lon="-7.995955708237741"><ele>776.1999999999999</ele><time>2026-04-30T10:31:33Z</time></trkpt><trkpt lat="42.122341177867696" lon="-7.9958569593979965"><ele>776.0</ele><time>2026-04-30T10:31:35Z</time></trkpt><trkpt lat="42.12236267154677" lon="-7.995774897189257"><ele>776.0</ele><time>2026-04-30T10:31:36Z</time></trkpt><trkpt lat="42.1223859526542" lon="-7.995651657745054"><ele>776.0</ele><time>2026-04-30T10:31:37Z</time></trkpt><trkpt lat="42.12242931722496" lon="-7.995513628357101"><ele>776.0</ele><time>2026-04-30T10:31:38Z</time></trkpt><trkpt lat="42.12246836653693" lon="-7.995388594440069"><ele>776.0</ele><time>2026-04-30T10:31:39Z</time></trkpt><trkpt lat="42.1225098809363" lon="-7.995253796364622"><ele>776.0</ele><time>2026-04-30T10:31:40Z</time></trkpt><trkpt lat="42.12254599379408" lon="-7.995131793234175"><ele>776.8333333333334</ele><time>2026-04-30T10:31:41Z</time></trkpt><trkpt lat="42.122573254430094" lon="-7.995036302034257"><ele>777.6666666666667</ele><time>2026-04-30T10:31:42Z</time></trkpt><trkpt lat="42.12260515458037" lon="-7.994924566464281"><ele>778.5</ele><time>2026-04-30T10:31:43Z</time></trkpt><trkpt lat="42.12265527219004" lon="-7.994822318193178"><ele>779.3333333333333</ele><time>2026-04-30T10:31:44Z</time></trkpt><trkpt lat="42.12268875142161" lon="-7.994717528652717"><ele>780.1666666666666</ele><time>2026-04-30T10:31:45Z</time></trkpt><trkpt lat="42.122720870792804" lon="-7.994618886178266"><ele>781.0</ele><time>2026-04-30T10:31:46Z</time></trkpt><trkpt lat="42.12277383769195" lon="-7.994538751345394"><ele>783.5</ele><time>2026-04-30T10:31:47Z</time></trkpt><trkpt lat="42.12283589833057" lon="-7.99442302962256"><ele>786.0</ele><time>2026-04-30T10:31:48Z</time></trkpt><trkpt lat="42.12287834127697" lon="-7.994298951484292"><ele>788.5</ele><time>2026-04-30T10:31:49Z</time></trkpt><trkpt lat="42.122927842770046" lon="-7.994151247058058"><ele>791.0</ele><time>2026-04-30T10:31:50Z</time></trkpt><trkpt lat="42.12298728957785" lon="-7.993996622071293"><ele>794.75</ele><time>2026-04-30T10:31:51Z</time></trkpt><trkpt lat="42.12304037154865" lon="-7.993862113735489"><ele>798.5</ele><time>2026-04-30T10:31:52Z</time></trkpt><trkpt lat="42.12309221823583" lon="-7.993733799786018"><ele>802.25</ele><time>2026-04-30T10:31:53Z</time></trkpt><trkpt lat="42.12315113020661" lon="-7.993586889814839"><ele>806.0</ele><time>2026-04-30T10:31:54Z</time></trkpt><trkpt lat="42.12320793176718" lon="-7.993440505887446"><ele>807.0</ele><time>2026-04-30T10:31:55Z</time></trkpt><trkpt lat="42.12326398712182" lon="-7.99328069018458"><ele>808.0</ele><time>2026-04-30T10:31:56Z</time></trkpt><trkpt lat="42.12332031303719" lon="-7.9931248123823115"><ele>809.0</ele><time>2026-04-30T10:31:57Z</time></trkpt><trkpt lat="42.12336157902558" lon="-7.993011324256305"><ele>810.0</ele><time>2026-04-30T10:31:58Z</time></trkpt><trkpt lat="42.1234058732458" lon="-7.992835967200404"><ele>810.0</ele><time>2026-04-30T10:32:00Z</time></trkpt><trkpt lat="42.123417040862584" lon="-7.992725571733344"><ele>810.0</ele><time>2026-04-30T10:32:01Z</time></trkpt><trkpt lat="42.12344164752555" lon="-7.992607124830217"><ele>810.0</ele><time>2026-04-30T10:32:02Z</time></trkpt><trkpt lat="42.123461633000694" lon="-7.992489731770283"><ele>810.0</ele><time>2026-04-30T10:32:03Z</time></trkpt><trkpt lat="42.1234701173702" lon="-7.992362412641286"><ele>810.0</ele><time>2026-04-30T10:32:04Z</time></trkpt><trkpt lat="42.12347340586883" lon="-7.992240948607334"><ele>810.0</ele><time>2026-04-30T10:32:05Z</time></trkpt><trkpt lat="42.12347746804351" lon="-7.992130378434559"><ele>810.5</ele><time>2026-04-30T10:32:06Z</time></trkpt><trkpt lat="42.12347631460149" lon="-7.992045479901285"><ele>811.0</ele><time>2026-04-30T10:32:07Z</time></trkpt><trkpt lat="42.12348695268872" lon="-7.9919046781274625"><ele>811.5</ele><time>2026-04-30T10:32:09Z</time></trkpt><trkpt lat="42.12349137979938" lon="-7.991815225133549"><ele>812.0</ele><time>2026-04-30T10:32:10Z</time></trkpt><trkpt lat="42.123494863816276" lon="-7.9917288003789615"><ele>812.5</ele><time>2026-04-30T10:32:11Z</time></trkpt><trkpt lat="42.12349807969526" lon="-7.991640441523189"><ele>813.0</ele><time>2026-04-30T10:32:12Z</time></trkpt><trkpt lat="42.123504026342914" lon="-7.991499963198202"><ele>813.0</ele><time>2026-04-30T10:32:14Z</time></trkpt><trkpt lat="42.123506382284056" lon="-7.9913719297437655"><ele>813.0</ele><time>2026-04-30T10:32:16Z</time></trkpt><trkpt lat="42.12353083130398" lon="-7.99128402651127"><ele>813.0</ele><time>2026-04-30T10:32:19Z</time></trkpt><trkpt lat="42.1235908790373" lon="-7.9912527825919994"><ele>813.0</ele><time>2026-04-30T10:32:22Z</time></trkpt><trkpt lat="42.12361333348616" lon="-7.99149115185282"><ele>813.0</ele><time>2026-04-30T10:32:27Z</time></trkpt><trkpt lat="42.12360959888011" lon="-7.991604418965616"><ele>813.2</ele><time>2026-04-30T10:32:28Z</time></trkpt><trkpt lat="42.123607248224936" lon="-7.991705594844287"><ele>813.4</ele><time>2026-04-30T10:32:29Z</time></trkpt><trkpt lat="42.12358282655683" lon="-7.9918477719291925"><ele>813.6</ele><time>2026-04-30T10:32:31Z</time></trkpt><trkpt lat="42.123542599991545" lon="-7.992000904937299"><ele>813.8000000000001</ele><time>2026-04-30T10:32:33Z</time></trkpt><trkpt lat="42.12353289537203" lon="-7.992093727325785"><ele>814.0</ele><time>2026-04-30T10:32:34Z</time></trkpt><trkpt lat="42.12350420098737" lon="-7.992193457066241"><ele>814.0</ele><time>2026-04-30T10:32:35.999Z</time></trkpt><trkpt lat="42.12343278081657" lon="-7.992305260829256"><ele>814.0</ele><time>2026-04-30T10:32:38.999Z</time></trkpt><trkpt lat="42.123348661342675" lon="-7.992369502741295"><ele>814.0</ele><time>2026-04-30T10:32:39.999Z</time></trkpt><trkpt lat="42.12323011349017" lon="-7.992459623220975"><ele>814.0</ele><time>2026-04-30T10:32:40.999Z</time></trkpt><trkpt lat="42.1231068713114" lon="-7.992582743638236"><ele>814.2</ele><time>2026-04-30T10:32:41.999Z</time></trkpt><trkpt lat="42.12301905414937" lon="-7.9926754948787195"><ele>814.4000000000001</ele><time>2026-04-30T10:32:42.999Z</time></trkpt><trkpt lat="42.12295691287384" lon="-7.992757622356477"><ele>814.6</ele><time>2026-04-30T10:32:43.999Z</time></trkpt><trkpt lat="42.12290122874073" lon="-7.99283735926353"><ele>814.8</ele><time>2026-04-30T10:32:44.999Z</time></trkpt><trkpt lat="42.12282992428514" lon="-7.992920967529706"><ele>815.0</ele><time>2026-04-30T10:32:45.999Z</time></trkpt><trkpt lat="42.12275558522282" lon="-7.993008790914136"><ele>815.0000000000001</ele><time>2026-04-30T10:32:46.999Z</time></trkpt><trkpt lat="42.122681870455224" lon="-7.99307739062139"><ele>815.0</ele><time>2026-04-30T10:32:47.999Z</time></trkpt><trkpt lat="42.12261363574527" lon="-7.993115589168914"><ele>815.0</ele><time>2026-04-30T10:32:48.999Z</time></trkpt><trkpt lat="42.1225462779956" lon="-7.99313447666525"><ele>815.0</ele><time>2026-04-30T10:32:49.999Z</time></trkpt><trkpt lat="42.1224648030194" lon="-7.9931489448701605"><ele>815.0000000000001</ele><time>2026-04-30T10:32:50.999Z</time></trkpt><trkpt lat="42.12237964824695" lon="-7.993140734092692"><ele>815.0</ele><time>2026-04-30T10:32:51.999Z</time></trkpt><trkpt lat="42.12230234763985" lon="-7.9931129369205305"><ele>813.75</ele><time>2026-04-30T10:32:52.999Z</time></trkpt><trkpt lat="42.12221571044006" lon="-7.99306593450495"><ele>812.5</ele><time>2026-04-30T10:32:53.999Z</time></trkpt><trkpt lat="42.12211241191151" lon="-7.992973882149433"><ele>811.25</ele><time>2026-04-30T10:32:54.999Z</time></trkpt><trkpt lat="42.1219980920882" lon="-7.992876736909472"><ele>810.0</ele><time>2026-04-30T10:32:55.999Z</time></trkpt><trkpt lat="42.12190850616136" lon="-7.9927975505015505"><ele>810.0</ele><time>2026-04-30T10:32:56.999Z</time></trkpt><trkpt lat="42.12179601515574" lon="-7.99274812076548"><ele>810.0</ele><time>2026-04-30T10:32:57.999Z</time></trkpt><trkpt lat="42.12168807681842" lon="-7.992698170411779"><ele>810.0</ele><time>2026-04-30T10:32:58.999Z</time></trkpt><trkpt lat="42.12157860258242" lon="-7.992631344406752"><ele>810.0</ele><time>2026-04-30T10:32:59.999Z</time></trkpt><trkpt lat="42.121472914429006" lon="-7.9925581604479214"><ele>810.6</ele><time>2026-04-30T10:33:00.999Z</time></trkpt><trkpt lat="42.12137321364691" lon="-7.992494940322809"><ele>811.2</ele><time>2026-04-30T10:33:01.999Z</time></trkpt><trkpt lat="42.121283046640954" lon="-7.992451407195183"><ele>811.8</ele><time>2026-04-30T10:33:02.999Z</time></trkpt><trkpt lat="42.12121645871428" lon="-7.992406002473463"><ele>812.4</ele><time>2026-04-30T10:33:03.999Z</time></trkpt><trkpt lat="42.12116075765868" lon="-7.9923349957553365"><ele>813.0</ele><time>2026-04-30T10:33:04.999Z</time></trkpt><trkpt lat="42.12111259507871" lon="-7.992200752515227"><ele>813.0</ele><time>2026-04-30T10:33:05.999Z</time></trkpt><trkpt lat="42.12105826703991" lon="-7.99199250036535"><ele>813.0</ele><time>2026-04-30T10:33:06.999Z</time></trkpt><trkpt lat="42.121012330624204" lon="-7.99177286731518"><ele>813.0</ele><time>2026-04-30T10:33:07.999Z</time></trkpt><trkpt lat="42.120966338985966" lon="-7.991636918972917"><ele>813.0</ele><time>2026-04-30T10:33:08.999Z</time></trkpt><trkpt lat="42.12093211370119" lon="-7.991541731904811"><ele>813.5999999999999</ele><time>2026-04-30T10:33:09.999Z</time></trkpt><trkpt lat="42.120914486834906" lon="-7.9914591863077336"><ele>814.1999999999999</ele><time>2026-04-30T10:33:10.999Z</time></trkpt><trkpt lat="42.12090134815053" lon="-7.991371085153083"><ele>814.8</ele><time>2026-04-30T10:33:11.999Z</time></trkpt><trkpt lat="42.12090550612817" lon="-7.991223784001901"><ele>815.4</ele><time>2026-04-30T10:33:12.999Z</time></trkpt><trkpt lat="42.12090710164563" lon="-7.991076372367125"><ele>816.0</ele><time>2026-04-30T10:33:13.999Z</time></trkpt><trkpt lat="42.12091409437452" lon="-7.990918354424443"><ele>815.25</ele><time>2026-04-30T10:33:14.999Z</time></trkpt><trkpt lat="42.1209177150635" lon="-7.990751119957348"><ele>814.5</ele><time>2026-04-30T10:33:15.999Z</time></trkpt><trkpt lat="42.120929472893756" lon="-7.99058471487609"><ele>813.75</ele><time>2026-04-30T10:33:16.999Z</time></trkpt><trkpt lat="42.12093542678529" lon="-7.990417520307664"><ele>813.0</ele><time>2026-04-30T10:33:17.999Z</time></trkpt><trkpt lat="42.12093854240822" lon="-7.990256831463265"><ele>813.0</ele><time>2026-04-30T10:33:18.999Z</time></trkpt><trkpt lat="42.12093835417169" lon="-7.990113455802638"><ele>813.0</ele><time>2026-04-30T10:33:19.999Z</time></trkpt><trkpt lat="42.12093700975522" lon="-7.990015338383916"><ele>813.0</ele><time>2026-04-30T10:33:21Z</time></trkpt><trkpt lat="42.120926207214666" lon="-7.989923094177781"><ele>813.0</ele><time>2026-04-30T10:33:23Z</time></trkpt><trkpt lat="42.12082128397203" lon="-7.98988205391793"><ele>813.0</ele><time>2026-04-30T10:33:26Z</time></trkpt><trkpt lat="42.1207406277765" lon="-7.989927720498925"><ele>813.0</ele><time>2026-04-30T10:33:27Z</time></trkpt><trkpt lat="42.12064941421077" lon="-7.989993205826034"><ele>811.3333333333333</ele><time>2026-04-30T10:33:28Z</time></trkpt><trkpt lat="42.12050636254322" lon="-7.990045897645699"><ele>809.6666666666666</ele><time>2026-04-30T10:33:29Z</time></trkpt><trkpt lat="42.12034441118243" lon="-7.99010031855804"><ele>808.0</ele><time>2026-04-30T10:33:30Z</time></trkpt><trkpt lat="42.120157206884215" lon="-7.990178043652736"><ele>808.0</ele><time>2026-04-30T10:33:31Z</time></trkpt><trkpt lat="42.120005048241865" lon="-7.990247873075701"><ele>808.0</ele><time>2026-04-30T10:33:32Z</time></trkpt><trkpt lat="42.119849641987265" lon="-7.990315508952695"><ele>808.0</ele><time>2026-04-30T10:33:33Z</time></trkpt><trkpt lat="42.11969643671434" lon="-7.990378249014352"><ele>807.0</ele><time>2026-04-30T10:33:34Z</time></trkpt><trkpt lat="42.11954810533037" lon="-7.990446380163713"><ele>806.0</ele><time>2026-04-30T10:33:35Z</time></trkpt><trkpt lat="42.11940259004955" lon="-7.990507626525466"><ele>805.0</ele><time>2026-04-30T10:33:36Z</time></trkpt><trkpt lat="42.119255989079704" lon="-7.990557646058862"><ele>805.0</ele><time>2026-04-30T10:33:37Z</time></trkpt><trkpt lat="42.119123371931394" lon="-7.990619957386373"><ele>805.0</ele><time>2026-04-30T10:33:38Z</time></trkpt><trkpt lat="42.11899212214997" lon="-7.990701728325389"><ele>805.0</ele><time>2026-04-30T10:33:39Z</time></trkpt><trkpt lat="42.11887139613354" lon="-7.990791723460994"><ele>805.0</ele><time>2026-04-30T10:33:40Z</time></trkpt><trkpt lat="42.11875698698263" lon="-7.9908884840167085"><ele>804.4</ele><time>2026-04-30T10:33:41Z</time></trkpt><trkpt lat="42.1186595368658" lon="-7.990977706618056"><ele>803.8</ele><time>2026-04-30T10:33:42Z</time></trkpt><trkpt lat="42.11858851609498" lon="-7.991067972281962"><ele>803.2</ele><time>2026-04-30T10:33:43Z</time></trkpt><trkpt lat="42.11854105822163" lon="-7.991150945493825"><ele>802.6</ele><time>2026-04-30T10:33:44Z</time></trkpt><trkpt lat="42.118508420961845" lon="-7.991302160468302"><ele>802.0</ele><time>2026-04-30T10:33:46Z</time></trkpt><trkpt lat="42.11846655015754" lon="-7.99139536922853"><ele>802.0</ele><time>2026-04-30T10:33:47Z</time></trkpt><trkpt lat="42.118416243798755" lon="-7.991488187465292"><ele>802.0</ele><time>2026-04-30T10:33:48Z</time></trkpt><trkpt lat="42.1183566980113" lon="-7.991582466768898"><ele>802.0</ele><time>2026-04-30T10:33:49Z</time></trkpt><trkpt lat="42.11830382463993" lon="-7.991728155009725"><ele>802.0</ele><time>2026-04-30T10:33:50Z</time></trkpt><trkpt lat="42.11826335802285" lon="-7.9919181674992075"><ele>802.0</ele><time>2026-04-30T10:33:51Z</time></trkpt><trkpt lat="42.11821374171906" lon="-7.992086210777688"><ele>801.5</ele><time>2026-04-30T10:33:52Z</time></trkpt><trkpt lat="42.11815229847868" lon="-7.992230809206886"><ele>801.0</ele><time>2026-04-30T10:33:53Z</time></trkpt><trkpt lat="42.1180874627083" lon="-7.99235634315105"><ele>800.5</ele><time>2026-04-30T10:33:54Z</time></trkpt><trkpt lat="42.118003559877515" lon="-7.992499968597191"><ele>800.0</ele><time>2026-04-30T10:33:55Z</time></trkpt><trkpt lat="42.117896232438966" lon="-7.992680871262467"><ele>799.5</ele><time>2026-04-30T10:33:56Z</time></trkpt><trkpt lat="42.11783201307766" lon="-7.992863190251242"><ele>799.0</ele><time>2026-04-30T10:33:57Z</time></trkpt><trkpt lat="42.11779606073494" lon="-7.993052147657273"><ele>798.5</ele><time>2026-04-30T10:33:58Z</time></trkpt><trkpt lat="42.11774768451033" lon="-7.993213571022148"><ele>798.0</ele><time>2026-04-30T10:33:59Z</time></trkpt><trkpt lat="42.11765871145824" lon="-7.993378838120774"><ele>797.5999999999999</ele><time>2026-04-30T10:34:00Z</time></trkpt><trkpt lat="42.11757992233277" lon="-7.993513299494006"><ele>797.1999999999999</ele><time>2026-04-30T10:34:01Z</time></trkpt><trkpt lat="42.117512275240294" lon="-7.993622505462115"><ele>796.8</ele><time>2026-04-30T10:34:02Z</time></trkpt><trkpt lat="42.11744586529453" lon="-7.993692006754103"><ele>796.4</ele><time>2026-04-30T10:34:03Z</time></trkpt><trkpt lat="42.117345299700474" lon="-7.9937384688946915"><ele>796.0</ele><time>2026-04-30T10:34:04Z</time></trkpt><trkpt lat="42.1172490732978" lon="-7.993763399994967"><ele>796.0</ele><time>2026-04-30T10:34:05Z</time></trkpt><trkpt lat="42.11715337855912" lon="-7.993878645000699"><ele>796.0</ele><time>2026-04-30T10:34:06Z</time></trkpt><trkpt lat="42.11705639055686" lon="-7.994016273631202"><ele>796.0</ele><time>2026-04-30T10:34:07Z</time></trkpt><trkpt lat="42.116979591761776" lon="-7.994147032744101"><ele>796.0</ele><time>2026-04-30T10:34:08Z</time></trkpt><trkpt lat="42.116908919010285" lon="-7.99424293714726"><ele>795.5999999999999</ele><time>2026-04-30T10:34:09Z</time></trkpt><trkpt lat="42.116837424472074" lon="-7.994352294008579"><ele>795.2</ele><time>2026-04-30T10:34:10Z</time></trkpt><trkpt lat="42.11675390396931" lon="-7.994476803265855"><ele>794.8</ele><time>2026-04-30T10:34:11Z</time></trkpt><trkpt lat="42.116675409657425" lon="-7.994574504300512"><ele>794.4000000000001</ele><time>2026-04-30T10:34:12Z</time></trkpt><trkpt lat="42.11662836468479" lon="-7.994669430515208"><ele>794.0</ele><time>2026-04-30T10:34:14Z</time></trkpt><trkpt lat="42.11656835790823" lon="-7.994710269376001"><ele>794.0</ele><time>2026-04-30T10:34:19Z</time></trkpt><trkpt lat="42.116659957307085" lon="-7.99465290033599"><ele>794.0</ele><time>2026-04-30T10:34:27Z</time></trkpt><trkpt lat="42.11672084089337" lon="-7.994511689701687"><ele>794.0</ele><time>2026-04-30T10:34:29Z</time></trkpt><trkpt lat="42.11678276958249" lon="-7.994418406204393"><ele>794.0</ele><time>2026-04-30T10:34:31Z</time></trkpt><trkpt lat="42.11683820017485" lon="-7.994356325240467"><ele>794.0</ele><time>2026-04-30T10:34:33Z</time></trkpt><trkpt lat="42.116902119399015" lon="-7.99423922239996"><ele>794.0000000000001</ele><time>2026-04-30T10:34:35Z</time></trkpt><trkpt lat="42.116949205564026" lon="-7.994176773383286"><ele>794.0</ele><time>2026-04-30T10:34:36Z</time></trkpt><trkpt lat="42.116989427314735" lon="-7.994102808752131"><ele>794.0</ele><time>2026-04-30T10:34:38Z</time></trkpt><trkpt lat="42.11706092907518" lon="-7.994013983640691"><ele>794.0</ele><time>2026-04-30T10:34:41Z</time></trkpt><trkpt lat="42.11713600670586" lon="-7.993901891251267"><ele>794.0000000000001</ele><time>2026-04-30T10:34:43Z</time></trkpt><trkpt lat="42.11718634702828" lon="-7.99383594423345"><ele>794.0</ele><time>2026-04-30T10:34:44Z</time></trkpt><trkpt lat="42.117249018185795" lon="-7.993758077144878"><ele>794.2</ele><time>2026-04-30T10:34:45Z</time></trkpt><trkpt lat="42.11735215015602" lon="-7.9936658853061395"><ele>794.4000000000001</ele><time>2026-04-30T10:34:46Z</time></trkpt><trkpt lat="42.117462639943994" lon="-7.993603236017409"><ele>794.6</ele><time>2026-04-30T10:34:47Z</time></trkpt><trkpt lat="42.117539989734134" lon="-7.993579320168389"><ele>794.8</ele><time>2026-04-30T10:34:48Z</time></trkpt><trkpt lat="42.1175969552687" lon="-7.9934889934120665"><ele>795.0</ele><time>2026-04-30T10:34:49Z</time></trkpt><trkpt lat="42.117663029852004" lon="-7.9933333182757735"><ele>795.75</ele><time>2026-04-30T10:34:50Z</time></trkpt><trkpt lat="42.117743942505854" lon="-7.993175238038184"><ele>796.5</ele><time>2026-04-30T10:34:51Z</time></trkpt><trkpt lat="42.11781081441606" lon="-7.993044803296971"><ele>797.25</ele><time>2026-04-30T10:34:52Z</time></trkpt><trkpt lat="42.117849313984564" lon="-7.992928392667683"><ele>798.0</ele><time>2026-04-30T10:34:53Z</time></trkpt><trkpt lat="42.11788662675912" lon="-7.992768216948369"><ele>798.0</ele><time>2026-04-30T10:34:54Z</time></trkpt><trkpt lat="42.11792829598569" lon="-7.9926103231190035"><ele>798.0</ele><time>2026-04-30T10:34:55Z</time></trkpt><trkpt lat="42.11798871334639" lon="-7.992474397774404"><ele>798.0</ele><time>2026-04-30T10:34:56Z</time></trkpt><trkpt lat="42.11805954766248" lon="-7.992335725869856"><ele>798.0</ele><time>2026-04-30T10:34:57Z</time></trkpt><trkpt lat="42.11813617614291" lon="-7.992198231088451"><ele>798.5</ele><time>2026-04-30T10:34:58Z</time></trkpt><trkpt lat="42.11821097256749" lon="-7.992063336778253"><ele>799.0</ele><time>2026-04-30T10:34:59Z</time></trkpt><trkpt lat="42.11827421291909" lon="-7.991909983644458"><ele>799.5</ele><time>2026-04-30T10:35:00Z</time></trkpt><trkpt lat="42.11831881145254" lon="-7.991744588706321"><ele>800.0</ele><time>2026-04-30T10:35:01Z</time></trkpt><trkpt lat="42.11835468991167" lon="-7.991579387690496"><ele>800.4</ele><time>2026-04-30T10:35:02Z</time></trkpt><trkpt lat="42.11840485764323" lon="-7.991426649854069"><ele>800.8</ele><time>2026-04-30T10:35:03Z</time></trkpt><trkpt lat="42.11849002268156" lon="-7.991313379408753"><ele>801.2</ele><time>2026-04-30T10:35:04Z</time></trkpt><trkpt lat="42.11856185476953" lon="-7.99120552358005"><ele>801.6</ele><time>2026-04-30T10:35:05Z</time></trkpt><trkpt lat="42.118592561249045" lon="-7.991097869769618"><ele>802.0</ele><time>2026-04-30T10:35:06Z</time></trkpt><trkpt lat="42.11859280221633" lon="-7.990971218521981"><ele>801.9999999999999</ele><time>2026-04-30T10:35:08Z</time></trkpt><trkpt lat="42.11854971408179" lon="-7.990875797967109"><ele>802.0</ele><time>2026-04-30T10:35:10Z</time></trkpt><trkpt lat="42.118495682437214" lon="-7.990724525400215"><ele>802.0</ele><time>2026-04-30T10:35:12Z</time></trkpt><trkpt lat="42.118481284300046" lon="-7.990626028176796"><ele>802.0</ele><time>2026-04-30T10:35:13Z</time></trkpt><trkpt lat="42.1184670924256" lon="-7.990529292582831"><ele>801.9999999999999</ele><time>2026-04-30T10:35:14Z</time></trkpt><trkpt lat="42.11843109852386" lon="-7.990429200054659"><ele>802.0</ele><time>2026-04-30T10:35:15Z</time></trkpt><trkpt lat="42.11838912190465" lon="-7.99032711373771"><ele>801.9999999999999</ele><time>2026-04-30T10:35:16Z</time></trkpt><trkpt lat="42.11835822459485" lon="-7.990226193751346"><ele>802.0</ele><time>2026-04-30T10:35:17Z</time></trkpt><trkpt lat="42.11832306942252" lon="-7.990125471835134"><ele>802.0</ele><time>2026-04-30T10:35:18Z</time></trkpt><trkpt lat="42.11828232590728" lon="-7.990012491834833"><ele>802.0</ele><time>2026-04-30T10:35:19Z</time></trkpt><trkpt lat="42.118250783065974" lon="-7.989909848501766"><ele>801.9999999999999</ele><time>2026-04-30T10:35:20Z</time></trkpt><trkpt lat="42.11821807489528" lon="-7.9898080590363625"><ele>802.0</ele><time>2026-04-30T10:35:21Z</time></trkpt><trkpt lat="42.11818929773772" lon="-7.989721996665351"><ele>801.4999999999999</ele><time>2026-04-30T10:35:22Z</time></trkpt><trkpt lat="42.118156799365586" lon="-7.989631314782444"><ele>801.0</ele><time>2026-04-30T10:35:23Z</time></trkpt><trkpt lat="42.11812182542622" lon="-7.989549941046806"><ele>800.5</ele><time>2026-04-30T10:35:24Z</time></trkpt><trkpt lat="42.118068865886855" lon="-7.989393381781536"><ele>800.0</ele><time>2026-04-30T10:35:26Z</time></trkpt><trkpt lat="42.11804303730833" lon="-7.989310210277816"><ele>799.4999999999999</ele><time>2026-04-30T10:35:27Z</time></trkpt><trkpt lat="42.11800071307982" lon="-7.989178222217423"><ele>799.0</ele><time>2026-04-30T10:35:29Z</time></trkpt><trkpt lat="42.117984191748896" lon="-7.989095502427391"><ele>798.6</ele><time>2026-04-30T10:35:31Z</time></trkpt><trkpt lat="42.11796349675136" lon="-7.989178214666406"><ele>798.2</ele><time>2026-04-30T10:35:39Z</time></trkpt><trkpt lat="42.11800516044987" lon="-7.98925718168458"><ele>797.8000000000001</ele><time>2026-04-30T10:35:40Z</time></trkpt><trkpt lat="42.11811266667448" lon="-7.989520252563741"><ele>797.4000000000001</ele><time>2026-04-30T10:35:43Z</time></trkpt><trkpt lat="42.118142608963964" lon="-7.9896273485744125"><ele>797.0</ele><time>2026-04-30T10:35:44Z</time></trkpt><trkpt lat="42.11816535791605" lon="-7.98971271832208"><ele>797.0</ele><time>2026-04-30T10:35:45Z</time></trkpt><trkpt lat="42.118218811722855" lon="-7.989854189111354"><ele>797.0</ele><time>2026-04-30T10:35:47Z</time></trkpt><trkpt lat="42.11826441926038" lon="-7.989995967718159"><ele>797.0</ele><time>2026-04-30T10:35:49Z</time></trkpt><trkpt lat="42.11833749464074" lon="-7.990144436398287"><ele>797.0</ele><time>2026-04-30T10:35:51Z</time></trkpt><trkpt lat="42.11837286442544" lon="-7.990285853804849"><ele>798.0</ele><time>2026-04-30T10:35:52Z</time></trkpt><trkpt lat="42.11842004615199" lon="-7.990445966140721"><ele>799.0</ele><time>2026-04-30T10:35:53Z</time></trkpt><trkpt lat="42.11846182373727" lon="-7.9905636043249295"><ele>800.0</ele><time>2026-04-30T10:35:54Z</time></trkpt><trkpt lat="42.118491118476776" lon="-7.990670641247111"><ele>801.0</ele><time>2026-04-30T10:35:55Z</time></trkpt><trkpt lat="42.11849899611564" lon="-7.9907792622227305"><ele>802.0</ele><time>2026-04-30T10:35:56Z</time></trkpt><trkpt lat="42.11852991660601" lon="-7.990889773923327"><ele>801.9999999999999</ele><time>2026-04-30T10:35:57Z</time></trkpt><trkpt lat="42.11855902470768" lon="-7.990970240560062"><ele>802.0</ele><time>2026-04-30T10:35:58Z</time></trkpt><trkpt lat="42.11859227127979" lon="-7.991076202186304"><ele>802.0</ele><time>2026-04-30T10:36:01Z</time></trkpt><trkpt lat="42.11857913827227" lon="-7.991164176029524"><ele>802.0</ele><time>2026-04-30T10:36:06Z</time></trkpt><trkpt lat="42.11853458032103" lon="-7.9912437010456845"><ele>801.9999999999999</ele><time>2026-04-30T10:36:09Z</time></trkpt><trkpt lat="42.118493224736056" lon="-7.991316832165198"><ele>802.0</ele><time>2026-04-30T10:36:12Z</time></trkpt><trkpt lat="42.118440664472594" lon="-7.991429274699647"><ele>801.9999999999999</ele><time>2026-04-30T10:36:15Z</time></trkpt><trkpt lat="42.11836764185624" lon="-7.991554024564609"><ele>802.0</ele><time>2026-04-30T10:36:17Z</time></trkpt><trkpt lat="42.11833968531694" lon="-7.99163787363257"><ele>802.0</ele><time>2026-04-30T10:36:18Z</time></trkpt><trkpt lat="42.118320132996196" lon="-7.9917215038093135"><ele>802.0</ele><time>2026-04-30T10:36:19Z</time></trkpt><trkpt lat="42.11828120189511" lon="-7.991872099030692"><ele>801.9999999999999</ele><time>2026-04-30T10:36:21Z</time></trkpt><trkpt lat="42.11826172740952" lon="-7.991960281186463"><ele>802.0</ele><time>2026-04-30T10:36:22Z</time></trkpt><trkpt lat="42.118211179884966" lon="-7.992094990483443"><ele>801.6</ele><time>2026-04-30T10:36:24Z</time></trkpt><trkpt lat="42.11817485880354" lon="-7.992169359987187"><ele>801.2</ele><time>2026-04-30T10:36:25Z</time></trkpt><trkpt lat="42.11813574455521" lon="-7.992240855728622"><ele>800.8</ele><time>2026-04-30T10:36:26Z</time></trkpt><trkpt lat="42.118093647903606" lon="-7.992314177006765"><ele>800.4</ele><time>2026-04-30T10:36:27Z</time></trkpt><trkpt lat="42.118031861489904" lon="-7.992435372356626"><ele>800.0</ele><time>2026-04-30T10:36:28Z</time></trkpt><trkpt lat="42.11794765327558" lon="-7.992601886780872"><ele>799.5</ele><time>2026-04-30T10:36:29Z</time></trkpt><trkpt lat="42.11787514486981" lon="-7.992780569571696"><ele>799.0</ele><time>2026-04-30T10:36:30Z</time></trkpt><trkpt lat="42.1178334807549" lon="-7.99294488591888"><ele>798.5</ele><time>2026-04-30T10:36:31Z</time></trkpt><trkpt lat="42.1178056182665" lon="-7.993094463352926"><ele>798.0</ele><time>2026-04-30T10:36:32Z</time></trkpt><trkpt lat="42.11775014380508" lon="-7.993235633253425"><ele>797.4</ele><time>2026-04-30T10:36:33Z</time></trkpt><trkpt lat="42.117674732229446" lon="-7.99335835168828"><ele>796.8</ele><time>2026-04-30T10:36:34Z</time></trkpt><trkpt lat="42.11760770440979" lon="-7.993466304439323"><ele>796.2</ele><time>2026-04-30T10:36:35Z</time></trkpt><trkpt lat="42.117555534936116" lon="-7.993548516875033"><ele>795.6</ele><time>2026-04-30T10:36:36Z</time></trkpt><trkpt lat="42.11751180537012" lon="-7.9936130074826774"><ele>795.0</ele><time>2026-04-30T10:36:37Z</time></trkpt><trkpt lat="42.117421454779894" lon="-7.993693202212602"><ele>795.2</ele><time>2026-04-30T10:36:39Z</time></trkpt><trkpt lat="42.11735612188497" lon="-7.993726715620135"><ele>795.4</ele><time>2026-04-30T10:36:41Z</time></trkpt><trkpt lat="42.1172713401667" lon="-7.993780870065271"><ele>795.5999999999999</ele><time>2026-04-30T10:39:53Z</time></trkpt><trkpt lat="42.11719573613747" lon="-7.9938245504287195"><ele>795.8</ele><time>2026-04-30T10:39:55Z</time></trkpt><trkpt lat="42.11710697169003" lon="-7.993952061512449"><ele>796.0</ele><time>2026-04-30T10:39:57Z</time></trkpt><trkpt lat="42.117040479904716" lon="-7.994056541579476"><ele>796.0</ele><time>2026-04-30T10:39:58Z</time></trkpt><trkpt lat="42.116961686773394" lon="-7.994166623044455"><ele>796.0</ele><time>2026-04-30T10:39:59Z</time></trkpt><trkpt lat="42.11688727174694" lon="-7.994270082517474"><ele>796.0</ele><time>2026-04-30T10:40:00Z</time></trkpt><trkpt lat="42.116821158016634" lon="-7.994360928725916"><ele>796.0</ele><time>2026-04-30T10:40:01Z</time></trkpt><trkpt lat="42.11676741424092" lon="-7.99445998814036"><ele>796.0</ele><time>2026-04-30T10:40:02Z</time></trkpt><trkpt lat="42.11671656622673" lon="-7.994532816237254"><ele>795.6666666666666</ele><time>2026-04-30T10:40:03Z</time></trkpt><trkpt lat="42.116661970161054" lon="-7.9946193115067965"><ele>795.3333333333333</ele><time>2026-04-30T10:40:05Z</time></trkpt><trkpt lat="42.116596727668444" lon="-7.9947096470444015"><ele>795.0</ele><time>2026-04-30T10:40:08Z</time></trkpt><trkpt lat="42.11647604008391" lon="-7.994728432016171"><ele>794.6666666666667</ele><time>2026-04-30T10:40:10Z</time></trkpt><trkpt lat="42.116405569963206" lon="-7.994742183383822"><ele>794.3333333333334</ele><time>2026-04-30T10:40:11Z</time></trkpt><trkpt lat="42.11633697227016" lon="-7.994769023368129"><ele>794.0</ele><time>2026-04-30T10:40:12Z</time></trkpt><trkpt lat="42.116268366220986" lon="-7.994803945768014"><ele>793.8000000000001</ele><time>2026-04-30T10:40:13Z</time></trkpt><trkpt lat="42.11620086225504" lon="-7.994856040852741"><ele>793.6</ele><time>2026-04-30T10:40:14Z</time></trkpt><trkpt lat="42.116137513127114" lon="-7.994938139941394"><ele>793.4</ele><time>2026-04-30T10:40:15Z</time></trkpt><trkpt lat="42.11607186701813" lon="-7.995020311597476"><ele>793.2</ele><time>2026-04-30T10:40:16Z</time></trkpt><trkpt lat="42.115994346739676" lon="-7.995103040741494"><ele>793.0</ele><time>2026-04-30T10:40:17Z</time></trkpt><trkpt lat="42.11593252172893" lon="-7.995221983776297"><ele>793.0</ele><time>2026-04-30T10:40:18Z</time></trkpt><trkpt lat="42.11585185637718" lon="-7.995319875634419"><ele>793.0</ele><time>2026-04-30T10:40:19Z</time></trkpt><trkpt lat="42.11577583368132" lon="-7.995375985525908"><ele>793.0</ele><time>2026-04-30T10:40:20Z</time></trkpt><trkpt lat="42.11570669219908" lon="-7.995459089054206"><ele>793.0</ele><time>2026-04-30T10:40:21Z</time></trkpt><trkpt lat="42.115611620789956" lon="-7.995513659254306"><ele>793.0</ele><time>2026-04-30T10:40:22Z</time></trkpt><trkpt lat="42.11551803814657" lon="-7.995524359287044"><ele>793.0</ele><time>2026-04-30T10:40:23Z</time></trkpt><trkpt lat="42.11542876834765" lon="-7.995565217646486"><ele>793.0</ele><time>2026-04-30T10:40:24Z</time></trkpt><trkpt lat="42.11531825220018" lon="-7.9955825252430826"><ele>793.0</ele><time>2026-04-30T10:40:25Z</time></trkpt><trkpt lat="42.115192049583335" lon="-7.995617756881684"><ele>793.0</ele><time>2026-04-30T10:40:26Z</time></trkpt><trkpt lat="42.115071489663535" lon="-7.995642842444933"><ele>793.0</ele><time>2026-04-30T10:40:27Z</time></trkpt><trkpt lat="42.114971480742014" lon="-7.995666666830268"><ele>793.0</ele><time>2026-04-30T10:40:28Z</time></trkpt><trkpt lat="42.11487017561693" lon="-7.995685294225554"><ele>793.0</ele><time>2026-04-30T10:40:29Z</time></trkpt><trkpt lat="42.114769302176065" lon="-7.995716670432958"><ele>793.0</ele><time>2026-04-30T10:40:30Z</time></trkpt><trkpt lat="42.11467028930939" lon="-7.995733703123606"><ele>793.0</ele><time>2026-04-30T10:40:31Z</time></trkpt><trkpt lat="42.11457132604546" lon="-7.995756800621532"><ele>794.8</ele><time>2026-04-30T10:40:32Z</time></trkpt><trkpt lat="42.114476400768744" lon="-7.995764997642292"><ele>796.5999999999999</ele><time>2026-04-30T10:40:33Z</time></trkpt><trkpt lat="42.114376119505025" lon="-7.995779586918489"><ele>798.4000000000001</ele><time>2026-04-30T10:40:34Z</time></trkpt><trkpt lat="42.11427890845053" lon="-7.995789385332425"><ele>800.2</ele><time>2026-04-30T10:40:35Z</time></trkpt><trkpt lat="42.11418641784782" lon="-7.995821802958113"><ele>802.0</ele><time>2026-04-30T10:40:36Z</time></trkpt><trkpt lat="42.11408403223185" lon="-7.995818951067735"><ele>803.4000000000001</ele><time>2026-04-30T10:40:37Z</time></trkpt><trkpt lat="42.113982960396605" lon="-7.995800627351939"><ele>804.8000000000001</ele><time>2026-04-30T10:40:38Z</time></trkpt><trkpt lat="42.113883833262555" lon="-7.995778518978923"><ele>806.2</ele><time>2026-04-30T10:40:39Z</time></trkpt><trkpt lat="42.113787589790604" lon="-7.995747042193035"><ele>807.6</ele><time>2026-04-30T10:40:40Z</time></trkpt><trkpt lat="42.11369257838571" lon="-7.995713022118776"><ele>809.0</ele><time>2026-04-30T10:40:41Z</time></trkpt><trkpt lat="42.11359677275667" lon="-7.995682929444644"><ele>809.0</ele><time>2026-04-30T10:40:42Z</time></trkpt><trkpt lat="42.11349984234436" lon="-7.995659008342708"><ele>809.0</ele><time>2026-04-30T10:40:43Z</time></trkpt><trkpt lat="42.11339990821577" lon="-7.995654330104474"><ele>809.0</ele><time>2026-04-30T10:40:44Z</time></trkpt><trkpt lat="42.11330378313288" lon="-7.995673774860237"><ele>809.0</ele><time>2026-04-30T10:40:45Z</time></trkpt><trkpt lat="42.11320749727702" lon="-7.995710422009751"><ele>809.0</ele><time>2026-04-30T10:40:46Z</time></trkpt><trkpt lat="42.11311598220014" lon="-7.9957562182154795"><ele>809.0</ele><time>2026-04-30T10:40:47Z</time></trkpt><trkpt lat="42.11302043894883" lon="-7.99580547754416"><ele>809.0</ele><time>2026-04-30T10:40:48Z</time></trkpt><trkpt lat="42.112929634367696" lon="-7.995845606308513"><ele>809.0</ele><time>2026-04-30T10:40:49Z</time></trkpt><trkpt lat="42.112839885573635" lon="-7.995907304747406"><ele>809.0</ele><time>2026-04-30T10:40:50Z</time></trkpt><trkpt lat="42.112752172750454" lon="-7.995970748008788"><ele>809.0</ele><time>2026-04-30T10:40:51Z</time></trkpt><trkpt lat="42.11266318134332" lon="-7.9960439488339"><ele>809.0</ele><time>2026-04-30T10:40:52Z</time></trkpt><trkpt lat="42.11257349677286" lon="-7.996116933200423"><ele>809.0</ele><time>2026-04-30T10:40:53Z</time></trkpt><trkpt lat="42.11248284138896" lon="-7.99617680413207"><ele>809.0</ele><time>2026-04-30T10:40:54Z</time></trkpt><trkpt lat="42.11238749646642" lon="-7.996240139410207"><ele>809.0</ele><time>2026-04-30T10:40:55Z</time></trkpt><trkpt lat="42.112292825955194" lon="-7.996289422733989"><ele>809.0</ele><time>2026-04-30T10:40:56Z</time></trkpt><trkpt lat="42.11219688387797" lon="-7.996326977886365"><ele>810.0</ele><time>2026-04-30T10:40:57Z</time></trkpt><trkpt lat="42.112101711920644" lon="-7.996351873858969"><ele>811.0</ele><time>2026-04-30T10:40:58Z</time></trkpt><trkpt lat="42.112002355246055" lon="-7.996382757354087"><ele>812.0</ele><time>2026-04-30T10:40:59Z</time></trkpt><trkpt lat="42.111903412255984" lon="-7.996425282952414"><ele>813.0</ele><time>2026-04-30T10:41:00Z</time></trkpt><trkpt lat="42.11180519510443" lon="-7.996450477982196"><ele>814.0</ele><time>2026-04-30T10:41:01Z</time></trkpt><trkpt lat="42.111712260058" lon="-7.996474923347466"><ele>813.9999999999999</ele><time>2026-04-30T10:41:02Z</time></trkpt><trkpt lat="42.111622424291674" lon="-7.996498273083576"><ele>814.0</ele><time>2026-04-30T10:41:03Z</time></trkpt><trkpt lat="42.11153783769784" lon="-7.996519711969642"><ele>814.0</ele><time>2026-04-30T10:41:04Z</time></trkpt><trkpt lat="42.11145791701671" lon="-7.996545982166477"><ele>814.0</ele><time>2026-04-30T10:41:05Z</time></trkpt><trkpt lat="42.11137987647548" lon="-7.996581686721526"><ele>813.9999999999999</ele><time>2026-04-30T10:41:06Z</time></trkpt><trkpt lat="42.11130173877791" lon="-7.9966303769803435"><ele>814.0</ele><time>2026-04-30T10:41:07Z</time></trkpt><trkpt lat="42.11122455064913" lon="-7.996678159339483"><ele>813.8333333333333</ele><time>2026-04-30T10:41:08Z</time></trkpt><trkpt lat="42.111146093871284" lon="-7.99672308019644"><ele>813.6666666666666</ele><time>2026-04-30T10:41:09Z</time></trkpt><trkpt lat="42.111061599128114" lon="-7.996774839234262"><ele>813.5</ele><time>2026-04-30T10:41:10Z</time></trkpt><trkpt lat="42.11097872333766" lon="-7.996825756511653"><ele>813.3333333333333</ele><time>2026-04-30T10:41:11Z</time></trkpt><trkpt lat="42.11089766204311" lon="-7.9968743376481966"><ele>813.1666666666666</ele><time>2026-04-30T10:41:12Z</time></trkpt><trkpt lat="42.11081678940064" lon="-7.996919029000742"><ele>813.0</ele><time>2026-04-30T10:41:13Z</time></trkpt><trkpt lat="42.11073617582853" lon="-7.996961677163395"><ele>813.0</ele><time>2026-04-30T10:41:14Z</time></trkpt><trkpt lat="42.110654966192755" lon="-7.997004896595778"><ele>813.0</ele><time>2026-04-30T10:41:15Z</time></trkpt><trkpt lat="42.110585068367335" lon="-7.997051234876863"><ele>813.0</ele><time>2026-04-30T10:41:16Z</time></trkpt><trkpt lat="42.110527524038346" lon="-7.997087755054156"><ele>813.0</ele><time>2026-04-30T10:41:17Z</time></trkpt><trkpt lat="42.1104312410964" lon="-7.997162911858842"><ele>813.0</ele><time>2026-04-30T10:41:19Z</time></trkpt><trkpt lat="42.11034197253388" lon="-7.997250962000995"><ele>813.0</ele><time>2026-04-30T10:41:21Z</time></trkpt><trkpt lat="42.11025056612262" lon="-7.997314709503067"><ele>813.0</ele><time>2026-04-30T10:41:23Z</time></trkpt><trkpt lat="42.110131257817756" lon="-7.997366270749277"><ele>813.0</ele><time>2026-04-30T10:41:25Z</time></trkpt><trkpt lat="42.1100651587434" lon="-7.997400781935322"><ele>813.0</ele><time>2026-04-30T10:41:26Z</time></trkpt><trkpt lat="42.10999996207451" lon="-7.997431930653558"><ele>813.0</ele><time>2026-04-30T10:41:27Z</time></trkpt><trkpt lat="42.109930527543696" lon="-7.997463253996142"><ele>813.0</ele><time>2026-04-30T10:41:28Z</time></trkpt><trkpt lat="42.10985838794626" lon="-7.997498351621422"><ele>811.0</ele><time>2026-04-30T10:41:29Z</time></trkpt><trkpt lat="42.10978123948" lon="-7.997536503055087"><ele>809.0</ele><time>2026-04-30T10:41:30Z</time></trkpt><trkpt lat="42.10970493653837" lon="-7.997578393193032"><ele>807.0</ele><time>2026-04-30T10:41:31Z</time></trkpt><trkpt lat="42.10962699652018" lon="-7.997611228221465"><ele>805.0</ele><time>2026-04-30T10:41:32Z</time></trkpt><trkpt lat="42.10955059116579" lon="-7.997637673005295"><ele>803.0</ele><time>2026-04-30T10:41:33Z</time></trkpt><trkpt lat="42.1094781106098" lon="-7.997689607110131"><ele>801.0</ele><time>2026-04-30T10:41:34Z</time></trkpt><trkpt lat="42.10940099434889" lon="-7.997704375070913"><ele>801.0</ele><time>2026-04-30T10:41:35Z</time></trkpt><trkpt lat="42.109327773588326" lon="-7.997750181257238"><ele>801.0</ele><time>2026-04-30T10:41:36Z</time></trkpt><trkpt lat="42.109268345513186" lon="-7.997809219220984"><ele>801.0</ele><time>2026-04-30T10:41:37Z</time></trkpt><trkpt lat="42.10921231004167" lon="-7.997862204025005"><ele>801.0</ele><time>2026-04-30T10:41:38Z</time></trkpt><trkpt lat="42.109101920254936" lon="-7.9979145921537915"><ele>801.0</ele><time>2026-04-30T10:41:40Z</time></trkpt><trkpt lat="42.108985625928085" lon="-7.997852320748316"><ele>800.8571428571429</ele><time>2026-04-30T10:41:42Z</time></trkpt><trkpt lat="42.10892836328897" lon="-7.997807691091352"><ele>800.7142857142857</ele><time>2026-04-30T10:41:43Z</time></trkpt><trkpt lat="42.10885507647525" lon="-7.997804687862533"><ele>800.5714285714287</ele><time>2026-04-30T10:41:44Z</time></trkpt><trkpt lat="42.10878347794755" lon="-7.997798100542858"><ele>800.4285714285714</ele><time>2026-04-30T10:41:45Z</time></trkpt><trkpt lat="42.10871217055147" lon="-7.997802334914263"><ele>800.2857142857143</ele><time>2026-04-30T10:41:46Z</time></trkpt><trkpt lat="42.108636644593425" lon="-7.997816959011638"><ele>800.1428571428572</ele><time>2026-04-30T10:41:47Z</time></trkpt><trkpt lat="42.108566399558555" lon="-7.997843745002747"><ele>800.0</ele><time>2026-04-30T10:41:48Z</time></trkpt><trkpt lat="42.10850422002339" lon="-7.997876248123653"><ele>800.0000000000001</ele><time>2026-04-30T10:41:49Z</time></trkpt><trkpt lat="42.10844278057165" lon="-7.99790644005536"><ele>800.0</ele><time>2026-04-30T10:41:50Z</time></trkpt><trkpt lat="42.10837591498648" lon="-7.997939298607617"><ele>800.0</ele><time>2026-04-30T10:41:51Z</time></trkpt><trkpt lat="42.108304974774846" lon="-7.997951579188975"><ele>800.0</ele><time>2026-04-30T10:41:52Z</time></trkpt><trkpt lat="42.108241511571705" lon="-7.9979864619944685"><ele>800.0000000000001</ele><time>2026-04-30T10:41:53Z</time></trkpt><trkpt lat="42.10812686872218" lon="-7.99803973970315"><ele>800.0</ele><time>2026-04-30T10:41:55Z</time></trkpt><trkpt lat="42.10800785030722" lon="-7.998074554080456"><ele>799.8333333333334</ele><time>2026-04-30T10:41:57Z</time></trkpt><trkpt lat="42.107942408950095" lon="-7.998085066320315"><ele>799.6666666666667</ele><time>2026-04-30T10:41:58Z</time></trkpt><trkpt lat="42.107877657419316" lon="-7.998086181322057"><ele>799.5</ele><time>2026-04-30T10:41:59Z</time></trkpt><trkpt lat="42.10781387257237" lon="-7.998087318728243"><ele>799.3333333333333</ele><time>2026-04-30T10:42:00Z</time></trkpt><trkpt lat="42.10768724931511" lon="-7.998087222600582"><ele>799.1666666666666</ele><time>2026-04-30T10:42:02Z</time></trkpt><trkpt lat="42.10756135838229" lon="-7.998088370756385"><ele>799.0</ele><time>2026-04-30T10:42:04Z</time></trkpt><trkpt lat="42.107498365690795" lon="-7.99808929342208"><ele>799.0</ele><time>2026-04-30T10:42:05Z</time></trkpt><trkpt lat="42.10742641170636" lon="-7.9980906664621685"><ele>799.0</ele><time>2026-04-30T10:42:06Z</time></trkpt><trkpt lat="42.10735287427124" lon="-7.998083740269785"><ele>799.0</ele><time>2026-04-30T10:42:07Z</time></trkpt><trkpt lat="42.10727557694507" lon="-7.998081626594675"><ele>799.0</ele><time>2026-04-30T10:42:08Z</time></trkpt><trkpt lat="42.10719865583602" lon="-7.998082095568412"><ele>799.0</ele><time>2026-04-30T10:42:09Z</time></trkpt><trkpt lat="42.10712837570447" lon="-7.998097506994178"><ele>799.0</ele><time>2026-04-30T10:42:10Z</time></trkpt><trkpt lat="42.10706262440072" lon="-7.998131165971116"><ele>799.0</ele><time>2026-04-30T10:42:11Z</time></trkpt><trkpt lat="42.10700612451278" lon="-7.998183309438912"><ele>799.4999999999999</ele><time>2026-04-30T10:42:12Z</time></trkpt><trkpt lat="42.10696148154213" lon="-7.9982523863884225"><ele>800.0</ele><time>2026-04-30T10:42:13Z</time></trkpt><trkpt lat="42.10692856298769" lon="-7.998329139006256"><ele>800.5</ele><time>2026-04-30T10:42:14Z</time></trkpt><trkpt lat="42.10690082145662" lon="-7.99841349543875"><ele>801.0</ele><time>2026-04-30T10:42:15Z</time></trkpt><trkpt lat="42.10688019042302" lon="-7.998496552913434"><ele>801.4999999999999</ele><time>2026-04-30T10:42:16Z</time></trkpt><trkpt lat="42.10683725701888" lon="-7.998655130759012"><ele>802.0</ele><time>2026-04-30T10:42:18Z</time></trkpt><trkpt lat="42.10681014100476" lon="-7.9987358350052356"><ele>802.25</ele><time>2026-04-30T10:42:19Z</time></trkpt><trkpt lat="42.106763439932685" lon="-7.998838281507555"><ele>802.5</ele><time>2026-04-30T10:42:21Z</time></trkpt><trkpt lat="42.10661890037659" lon="-7.998717722707177"><ele>802.75</ele><time>2026-04-30T10:42:25Z</time></trkpt><trkpt lat="42.10653718686376" lon="-7.998578572644623"><ele>803.0</ele><time>2026-04-30T10:42:27Z</time></trkpt><trkpt lat="42.106487401708144" lon="-7.998512431406209"><ele>803.6666666666667</ele><time>2026-04-30T10:42:28Z</time></trkpt><trkpt lat="42.10642836621564" lon="-7.998450720462588"><ele>804.3333333333334</ele><time>2026-04-30T10:42:29Z</time></trkpt><trkpt lat="42.1063753376289" lon="-7.998379828505067"><ele>805.0</ele><time>2026-04-30T10:42:30Z</time></trkpt><trkpt lat="42.10631882168322" lon="-7.998325613200363"><ele>805.6666666666667</ele><time>2026-04-30T10:42:31Z</time></trkpt><trkpt lat="42.106206818773956" lon="-7.998303410966314"><ele>806.3333333333334</ele><time>2026-04-30T10:42:33Z</time></trkpt><trkpt lat="42.10612827532152" lon="-7.998275202103173"><ele>807.0</ele><time>2026-04-30T10:42:34Z</time></trkpt><trkpt lat="42.10605086235146" lon="-7.998227421381936"><ele>807.0</ele><time>2026-04-30T10:42:35Z</time></trkpt><trkpt lat="42.105957122154145" lon="-7.998148424181943"><ele>807.0</ele><time>2026-04-30T10:42:36Z</time></trkpt><trkpt lat="42.105859507117685" lon="-7.998063663408651"><ele>807.0</ele><time>2026-04-30T10:42:37Z</time></trkpt><trkpt lat="42.10578906259235" lon="-7.997991678796939"><ele>807.0</ele><time>2026-04-30T10:42:38Z</time></trkpt><trkpt lat="42.105741827532206" lon="-7.997905923880113"><ele>807.0</ele><time>2026-04-30T10:42:39Z</time></trkpt><trkpt lat="42.10568616826699" lon="-7.997804709887374"><ele>808.8333333333334</ele><time>2026-04-30T10:42:40Z</time></trkpt><trkpt lat="42.105617825874425" lon="-7.9977135897846745"><ele>810.6666666666667</ele><time>2026-04-30T10:42:41Z</time></trkpt><trkpt lat="42.10555592896153" lon="-7.997603105496014"><ele>812.5</ele><time>2026-04-30T10:42:42Z</time></trkpt><trkpt lat="42.10552689996929" lon="-7.997500048613177"><ele>814.3333333333334</ele><time>2026-04-30T10:42:43Z</time></trkpt><trkpt lat="42.10548105078233" lon="-7.997385011844246"><ele>816.1666666666667</ele><time>2026-04-30T10:42:44Z</time></trkpt><trkpt lat="42.10546363765237" lon="-7.997296254586426"><ele>818.0</ele><time>2026-04-30T10:42:45Z</time></trkpt><trkpt lat="42.1055080380807" lon="-7.997138038418801"><ele>818.0</ele><time>2026-04-30T10:42:47Z</time></trkpt><trkpt lat="42.105568025261675" lon="-7.997035647580747"><ele>818.0</ele><time>2026-04-30T10:42:48Z</time></trkpt><trkpt lat="42.10559450221085" lon="-7.996920826989424"><ele>818.0</ele><time>2026-04-30T10:42:49Z</time></trkpt><trkpt lat="42.105611412777755" lon="-7.996718245635656"><ele>818.0</ele><time>2026-04-30T10:42:50Z</time></trkpt><trkpt lat="42.10565304813211" lon="-7.99651731285428"><ele>817.4</ele><time>2026-04-30T10:42:51Z</time></trkpt><trkpt lat="42.10569576557926" lon="-7.996357185679286"><ele>816.8</ele><time>2026-04-30T10:42:52Z</time></trkpt><trkpt lat="42.10573017554739" lon="-7.996215331512647"><ele>816.2</ele><time>2026-04-30T10:42:53Z</time></trkpt><trkpt lat="42.105789126324055" lon="-7.9960867399739"><ele>815.6</ele><time>2026-04-30T10:42:54Z</time></trkpt><trkpt lat="42.1058184882447" lon="-7.995977542291162"><ele>815.0</ele><time>2026-04-30T10:42:55Z</time></trkpt><trkpt lat="42.10585400567047" lon="-7.995888139020719"><ele>816.6</ele><time>2026-04-30T10:42:56Z</time></trkpt><trkpt lat="42.10588928406242" lon="-7.995791427623034"><ele>818.2</ele><time>2026-04-30T10:42:58Z</time></trkpt><trkpt lat="42.105945731793554" lon="-7.995704811282366"><ele>819.8</ele><time>2026-04-30T10:43:00Z</time></trkpt><trkpt lat="42.10599817014563" lon="-7.995588602997019"><ele>821.4</ele><time>2026-04-30T10:43:02Z</time></trkpt><trkpt lat="42.10606188243682" lon="-7.995422575572514"><ele>823.0</ele><time>2026-04-30T10:43:04Z</time></trkpt><trkpt lat="42.106050626723665" lon="-7.995290318026255"><ele>823.0</ele><time>2026-04-30T10:43:06Z</time></trkpt><trkpt lat="42.106047059081014" lon="-7.995394888297796"><ele>823.0</ele><time>2026-04-30T10:43:12Z</time></trkpt><trkpt lat="42.106014225416835" lon="-7.995516420833557"><ele>823.0</ele><time>2026-04-30T10:43:13Z</time></trkpt><trkpt lat="42.105980828743625" lon="-7.995640759546403"><ele>823.0</ele><time>2026-04-30T10:43:14Z</time></trkpt><trkpt lat="42.10593852790364" lon="-7.995759178392343"><ele>823.0</ele><time>2026-04-30T10:43:15Z</time></trkpt><trkpt lat="42.10589647154212" lon="-7.995860170058678"><ele>822.9999999999999</ele><time>2026-04-30T10:43:16Z</time></trkpt><trkpt lat="42.10586678558838" lon="-7.995937567658302"><ele>823.0</ele><time>2026-04-30T10:43:17Z</time></trkpt><trkpt lat="42.105806634464635" lon="-7.996003014988115"><ele>823.0</ele><time>2026-04-30T10:43:19Z</time></trkpt><trkpt lat="42.10571559927258" lon="-7.996043313382097"><ele>823.0</ele><time>2026-04-30T10:43:21Z</time></trkpt><trkpt lat="42.10567202958703" lon="-7.996105241678224"><ele>822.9999999999999</ele><time>2026-04-30T10:43:22Z</time></trkpt><trkpt lat="42.10561096391803" lon="-7.996166429648514"><ele>823.0</ele><time>2026-04-30T10:43:23Z</time></trkpt><trkpt lat="42.105523013299056" lon="-7.9962505277594245"><ele>823.0</ele><time>2026-04-30T10:43:25Z</time></trkpt><trkpt lat="42.10540555086245" lon="-7.996334127604721"><ele>823.0</ele><time>2026-04-30T10:43:27Z</time></trkpt><trkpt lat="42.105311405794424" lon="-7.996384209199428"><ele>823.0</ele><time>2026-04-30T10:43:28Z</time></trkpt><trkpt lat="42.10523284530387" lon="-7.996439102333959"><ele>823.0</ele><time>2026-04-30T10:43:29Z</time></trkpt><trkpt lat="42.1051439667441" lon="-7.996493552806429"><ele>823.0</ele><time>2026-04-30T10:43:30Z</time></trkpt><trkpt lat="42.1050521833729" lon="-7.996496760731326"><ele>823.0</ele><time>2026-04-30T10:43:31Z</time></trkpt><trkpt lat="42.104945345854276" lon="-7.99653890840469"><ele>823.0</ele><time>2026-04-30T10:43:32Z</time></trkpt><trkpt lat="42.104829853082066" lon="-7.996573284122869"><ele>823.0</ele><time>2026-04-30T10:43:33Z</time></trkpt><trkpt lat="42.104716313265406" lon="-7.996640827734466"><ele>823.0</ele><time>2026-04-30T10:43:34Z</time></trkpt><trkpt lat="42.1046166913098" lon="-7.996732773634639"><ele>823.2</ele><time>2026-04-30T10:43:35Z</time></trkpt><trkpt lat="42.1045251494972" lon="-7.996816925706414"><ele>823.4</ele><time>2026-04-30T10:43:36Z</time></trkpt><trkpt lat="42.104431857978945" lon="-7.996892767997134"><ele>823.6</ele><time>2026-04-30T10:43:37Z</time></trkpt><trkpt lat="42.104356465673526" lon="-7.996945319159561"><ele>823.8000000000001</ele><time>2026-04-30T10:43:38Z</time></trkpt><trkpt lat="42.10428897480146" lon="-7.996987528354483"><ele>824.0</ele><time>2026-04-30T10:43:39Z</time></trkpt><trkpt lat="42.104229072751814" lon="-7.997047755626389"><ele>824.0000000000001</ele><time>2026-04-30T10:43:40Z</time></trkpt><trkpt lat="42.10414351661098" lon="-7.997115316506988"><ele>824.0</ele><time>2026-04-30T10:43:42Z</time></trkpt><trkpt lat="42.1040732496518" lon="-7.997197239950515"><ele>824.0</ele><time>2026-04-30T10:43:44Z</time></trkpt><trkpt lat="42.10399090924756" lon="-7.997243337344841"><ele>824.0</ele><time>2026-04-30T10:43:47Z</time></trkpt><trkpt lat="42.10394065181536" lon="-7.997299732853391"><ele>824.0000000000001</ele><time>2026-04-30T10:43:50Z</time></trkpt><trkpt lat="42.10402719367403" lon="-7.997243933134109"><ele>824.0</ele><time>2026-04-30T10:43:56Z</time></trkpt><trkpt lat="42.104109233900395" lon="-7.997182298657758"><ele>824.0000000000001</ele><time>2026-04-30T10:43:58Z</time></trkpt><trkpt lat="42.10416895887094" lon="-7.99710667601334"><ele>824.0</ele><time>2026-04-30T10:44:00Z</time></trkpt><trkpt lat="42.10424700493545" lon="-7.997040831326443"><ele>824.0</ele><time>2026-04-30T10:44:02Z</time></trkpt><trkpt lat="42.104321960825" lon="-7.997022705532597"><ele>824.0</ele><time>2026-04-30T10:44:03Z</time></trkpt><trkpt lat="42.10438153090461" lon="-7.9969802153835206"><ele>824.0000000000001</ele><time>2026-04-30T10:44:04Z</time></trkpt><trkpt lat="42.10445143279285" lon="-7.996909225664196"><ele>824.0</ele><time>2026-04-30T10:44:06Z</time></trkpt><trkpt lat="42.10453409604581" lon="-7.996856995592584"><ele>824.0</ele><time>2026-04-30T10:44:08Z</time></trkpt><trkpt lat="42.10461942492208" lon="-7.996790781752279"><ele>824.0</ele><time>2026-04-30T10:44:10Z</time></trkpt><trkpt lat="42.10469145179694" lon="-7.99673958502002"><ele>824.0</ele><time>2026-04-30T10:44:14Z</time></trkpt><trkpt lat="42.104568790203366" lon="-7.996802293826414"><ele>824.0</ele><time>2026-04-30T10:44:25Z</time></trkpt><trkpt lat="42.10451162853362" lon="-7.996855982009824"><ele>824.0</ele><time>2026-04-30T10:44:26Z</time></trkpt><trkpt lat="42.10442609885258" lon="-7.996933879291147"><ele>824.0000000000001</ele><time>2026-04-30T10:44:27Z</time></trkpt><trkpt lat="42.10433654307885" lon="-7.996970848761042"><ele>824.0</ele><time>2026-04-30T10:44:29Z</time></trkpt><trkpt lat="42.10424175041048" lon="-7.996906196556345"><ele>824.0</ele><time>2026-04-30T10:44:32Z</time></trkpt><trkpt lat="42.1041790606633" lon="-7.996878013481636"><ele>824.0</ele><time>2026-04-30T10:44:33Z</time></trkpt><trkpt lat="42.10411585626119" lon="-7.9968145920775"><ele>824.0000000000001</ele><time>2026-04-30T10:44:36Z</time></trkpt><trkpt lat="42.10405247211165" lon="-7.9968140273863835"><ele>824.0</ele><time>2026-04-30T10:44:37Z</time></trkpt><trkpt lat="42.1039679401448" lon="-7.996847239292658"><ele>826.1428571428571</ele><time>2026-04-30T10:44:40Z</time></trkpt><trkpt lat="42.10390645190872" lon="-7.996877281343549"><ele>828.2857142857142</ele><time>2026-04-30T10:44:42Z</time></trkpt><trkpt lat="42.10384637997743" lon="-7.99690687056542"><ele>830.4285714285713</ele><time>2026-04-30T10:44:45Z</time></trkpt><trkpt lat="42.10376214895217" lon="-7.996929111713988"><ele>832.5714285714286</ele><time>2026-04-30T10:44:49Z</time></trkpt><trkpt lat="42.10369606247356" lon="-7.996927585937917"><ele>834.7142857142858</ele><time>2026-04-30T10:44:58Z</time></trkpt><trkpt lat="42.103653204351296" lon="-7.997006025377105"><ele>836.8571428571428</ele><time>2026-04-30T10:45:03Z</time></trkpt><trkpt lat="42.1036433808365" lon="-7.996914486267576"><ele>839.0</ele><time>2026-04-30T10:45:14Z</time></trkpt><trkpt lat="42.10377857500474" lon="-7.996905742873041"><ele>839.0000000000001</ele><time>2026-04-30T10:45:23Z</time></trkpt><trkpt lat="42.103852141589186" lon="-7.996865511974707"><ele>839.0</ele><time>2026-04-30T10:45:27Z</time></trkpt><trkpt lat="42.103915313851644" lon="-7.996837116909117"><ele>839.0</ele><time>2026-04-30T10:45:30Z</time></trkpt><trkpt lat="42.10397888891697" lon="-7.996813980599391"><ele>839.0</ele><time>2026-04-30T10:45:32Z</time></trkpt><trkpt lat="42.10408935108173" lon="-7.996851338499475"><ele>839.0000000000001</ele><time>2026-04-30T10:45:36Z</time></trkpt><trkpt lat="42.10418152130499" lon="-7.996856430065828"><ele>839.0</ele><time>2026-04-30T10:45:38Z</time></trkpt><trkpt lat="42.10424757662918" lon="-7.996871547235533"><ele>834.0</ele><time>2026-04-30T10:45:40Z</time></trkpt><trkpt lat="42.10448656766514" lon="-7.996800532991883"><ele>829.0</ele><time>2026-04-30T10:45:45Z</time></trkpt><trkpt lat="42.104597870607904" lon="-7.996736587751476"><ele>824.0</ele><time>2026-04-30T10:45:46Z</time></trkpt><trkpt lat="42.10472022296023" lon="-7.9966905263960255"><ele>824.0</ele><time>2026-04-30T10:45:47Z</time></trkpt><trkpt lat="42.104797279536626" lon="-7.996690710583903"><ele>824.0</ele><time>2026-04-30T10:45:48Z</time></trkpt><trkpt lat="42.10489532546726" lon="-7.996605927418356"><ele>824.0</ele><time>2026-04-30T10:45:49Z</time></trkpt><trkpt lat="42.10496908320129" lon="-7.996584754490531"><ele>824.0</ele><time>2026-04-30T10:45:50Z</time></trkpt><trkpt lat="42.105078497378855" lon="-7.99653749048112"><ele>824.0</ele><time>2026-04-30T10:45:51Z</time></trkpt><trkpt lat="42.10515552737114" lon="-7.996474184494528"><ele>823.8333333333334</ele><time>2026-04-30T10:45:52Z</time></trkpt><trkpt lat="42.1052278986647" lon="-7.996452374533612"><ele>823.6666666666667</ele><time>2026-04-30T10:45:53Z</time></trkpt><trkpt lat="42.10530206136228" lon="-7.99640139530491"><ele>823.5</ele><time>2026-04-30T10:45:54Z</time></trkpt><trkpt lat="42.105378294398996" lon="-7.996363591266556"><ele>823.3333333333333</ele><time>2026-04-30T10:45:55Z</time></trkpt><trkpt lat="42.105459624311784" lon="-7.996279534415972"><ele>823.1666666666666</ele><time>2026-04-30T10:45:56Z</time></trkpt><trkpt lat="42.10552862062001" lon="-7.996220608460221"><ele>823.0</ele><time>2026-04-30T10:45:57Z</time></trkpt><trkpt lat="42.10559359910916" lon="-7.996184921128034"><ele>822.9999999999999</ele><time>2026-04-30T10:45:58Z</time></trkpt><trkpt lat="42.1056423496405" lon="-7.996117421749722"><ele>823.0</ele><time>2026-04-30T10:46:02Z</time></trkpt><trkpt lat="42.10558715122835" lon="-7.996043741991029"><ele>823.0</ele><time>2026-04-30T10:46:06Z</time></trkpt><trkpt lat="42.105509834438244" lon="-7.99599111795906"><ele>823.0</ele><time>2026-04-30T10:46:09Z</time></trkpt><trkpt lat="42.1055191091457" lon="-7.995899175358115"><ele>822.9999999999999</ele><time>2026-04-30T10:46:11Z</time></trkpt><trkpt lat="42.105563759037814" lon="-7.995767837853473"><ele>823.0</ele><time>2026-04-30T10:46:13Z</time></trkpt><trkpt lat="42.10559567030034" lon="-7.995647321319198"><ele>826.2</ele><time>2026-04-30T10:46:14Z</time></trkpt><trkpt lat="42.105628061176546" lon="-7.995522074902473"><ele>829.4</ele><time>2026-04-30T10:46:15Z</time></trkpt><trkpt lat="42.10567452860566" lon="-7.995390246189192"><ele>832.6</ele><time>2026-04-30T10:46:17Z</time></trkpt><trkpt lat="42.10570852034764" lon="-7.995246871812673"><ele>835.8000000000001</ele><time>2026-04-30T10:46:19Z</time></trkpt><trkpt lat="42.10572706505422" lon="-7.99516524272888"><ele>839.0</ele><time>2026-04-30T10:46:20Z</time></trkpt><trkpt lat="42.105742192102376" lon="-7.995072941372579"><ele>838.1666666666667</ele><time>2026-04-30T10:46:21Z</time></trkpt><trkpt lat="42.105750449761715" lon="-7.994975988137274"><ele>837.3333333333334</ele><time>2026-04-30T10:46:22Z</time></trkpt><trkpt lat="42.10575252021327" lon="-7.994871657484713"><ele>836.5</ele><time>2026-04-30T10:46:23Z</time></trkpt><trkpt lat="42.105735540637156" lon="-7.994778380735296"><ele>835.6666666666667</ele><time>2026-04-30T10:46:24Z</time></trkpt><trkpt lat="42.105704426707184" lon="-7.994672957966035"><ele>834.8333333333334</ele><time>2026-04-30T10:46:25Z</time></trkpt><trkpt lat="42.10565563706463" lon="-7.994538819358457"><ele>834.0</ele><time>2026-04-30T10:46:26Z</time></trkpt><trkpt lat="42.10560314271765" lon="-7.994409751993576"><ele>837.4000000000001</ele><time>2026-04-30T10:46:27Z</time></trkpt><trkpt lat="42.105566185835876" lon="-7.994301210972048"><ele>840.8</ele><time>2026-04-30T10:46:28Z</time></trkpt><trkpt lat="42.10554082736476" lon="-7.994179695674316"><ele>844.2</ele><time>2026-04-30T10:46:30Z</time></trkpt><trkpt lat="42.105462592536895" lon="-7.9941859013387235"><ele>847.5999999999999</ele><time>2026-04-30T10:46:33Z</time></trkpt><trkpt lat="42.1053552215931" lon="-7.994304016560437"><ele>851.0</ele><time>2026-04-30T10:46:35Z</time></trkpt><trkpt lat="42.105255402172624" lon="-7.994402738621633"><ele>851.0</ele><time>2026-04-30T10:46:36Z</time></trkpt><trkpt lat="42.105140592020376" lon="-7.994505415443161"><ele>851.0</ele><time>2026-04-30T10:46:37Z</time></trkpt><trkpt lat="42.10504118236393" lon="-7.994561134836887"><ele>851.0</ele><time>2026-04-30T10:46:38Z</time></trkpt><trkpt lat="42.104930813650284" lon="-7.9945970327485085"><ele>851.0</ele><time>2026-04-30T10:46:39Z</time></trkpt><trkpt lat="42.104810802351594" lon="-7.9946151994288766"><ele>854.5</ele><time>2026-04-30T10:46:40Z</time></trkpt><trkpt lat="42.10468163848174" lon="-7.994599351600591"><ele>858.0</ele><time>2026-04-30T10:46:41Z</time></trkpt><trkpt lat="42.10458902085529" lon="-7.994592144507843"><ele>861.5</ele><time>2026-04-30T10:46:42Z</time></trkpt><trkpt lat="42.10447593448955" lon="-7.9947288009443165"><ele>865.0</ele><time>2026-04-30T10:46:44Z</time></trkpt><trkpt lat="42.10440897719217" lon="-7.9948774550666"><ele>865.0</ele><time>2026-04-30T10:46:45Z</time></trkpt><trkpt lat="42.10433965153039" lon="-7.994989310872284"><ele>865.0</ele><time>2026-04-30T10:46:46Z</time></trkpt><trkpt lat="42.10428065470916" lon="-7.99511965948576"><ele>865.0</ele><time>2026-04-30T10:46:48Z</time></trkpt><trkpt lat="42.10427079437758" lon="-7.995246635421452"><ele>865.0</ele><time>2026-04-30T10:46:49Z</time></trkpt><trkpt lat="42.10423926387308" lon="-7.995360103221031"><ele>865.0</ele><time>2026-04-30T10:46:50Z</time></trkpt><trkpt lat="42.104206937426824" lon="-7.995437986799197"><ele>864.4</ele><time>2026-04-30T10:46:51Z</time></trkpt><trkpt lat="42.104135882287224" lon="-7.99552444788114"><ele>863.8</ele><time>2026-04-30T10:46:52Z</time></trkpt><trkpt lat="42.10405625429535" lon="-7.995601661552587"><ele>863.2</ele><time>2026-04-30T10:46:53Z</time></trkpt><trkpt lat="42.103963772126505" lon="-7.995684055997218"><ele>862.6</ele><time>2026-04-30T10:46:54Z</time></trkpt><trkpt lat="42.10387753425672" lon="-7.995745573507655"><ele>862.0</ele><time>2026-04-30T10:46:55Z</time></trkpt><trkpt lat="42.10382056469606" lon="-7.995789825239839"><ele>862.0</ele><time>2026-04-30T10:46:56Z</time></trkpt><trkpt lat="42.10375572676744" lon="-7.9958016437235075"><ele>862.0</ele><time>2026-04-30T10:46:57Z</time></trkpt><trkpt lat="42.1036237491804" lon="-7.9957276277768745"><ele>862.0</ele><time>2026-04-30T10:46:59Z</time></trkpt><trkpt lat="42.1035013054844" lon="-7.995616305225673"><ele>862.0</ele><time>2026-04-30T10:47:00Z</time></trkpt><trkpt lat="42.10337577030513" lon="-7.995530330213057"><ele>862.0</ele><time>2026-04-30T10:47:01Z</time></trkpt><trkpt lat="42.103288684143216" lon="-7.99549120702844"><ele>862.0</ele><time>2026-04-30T10:47:02Z</time></trkpt><trkpt lat="42.103190889718434" lon="-7.995482639269058"><ele>862.0</ele><time>2026-04-30T10:47:03Z</time></trkpt><trkpt lat="42.10305368532591" lon="-7.995480173015648"><ele>862.0</ele><time>2026-04-30T10:47:04Z</time></trkpt><trkpt lat="42.102964805736434" lon="-7.995480934982433"><ele>862.0</ele><time>2026-04-30T10:47:05Z</time></trkpt><trkpt lat="42.102886403600344" lon="-7.995510244415986"><ele>863.0</ele><time>2026-04-30T10:47:07Z</time></trkpt><trkpt lat="42.10280058267133" lon="-7.995558750933982"><ele>864.0</ele><time>2026-04-30T10:47:08Z</time></trkpt><trkpt lat="42.102698831343645" lon="-7.995620630223837"><ele>865.0</ele><time>2026-04-30T10:47:09Z</time></trkpt><trkpt lat="42.10260258326386" lon="-7.995651730198189"><ele>866.0</ele><time>2026-04-30T10:47:10Z</time></trkpt><trkpt lat="42.10251422696508" lon="-7.995674480942895"><ele>867.0</ele><time>2026-04-30T10:47:11Z</time></trkpt><trkpt lat="42.10240597708398" lon="-7.9957404514920665"><ele>867.0</ele><time>2026-04-30T10:47:12Z</time></trkpt><trkpt lat="42.10227115375715" lon="-7.995804396347424"><ele>867.0</ele><time>2026-04-30T10:47:13Z</time></trkpt><trkpt lat="42.102161027047806" lon="-7.995823273294723"><ele>867.0</ele><time>2026-04-30T10:47:14Z</time></trkpt><trkpt lat="42.10203908823081" lon="-7.995886075876202"><ele>867.0</ele><time>2026-04-30T10:47:16Z</time></trkpt><trkpt lat="42.1019685116256" lon="-7.995891869133988"><ele>867.0</ele><time>2026-04-30T10:47:17Z</time></trkpt><trkpt lat="42.10188482543262" lon="-7.995857559181532"><ele>867.0</ele><time>2026-04-30T10:47:18Z</time></trkpt><trkpt lat="42.101757662129316" lon="-7.995779148986488"><ele>867.0</ele><time>2026-04-30T10:47:19Z</time></trkpt><trkpt lat="42.10161750582839" lon="-7.995676763211285"><ele>867.0</ele><time>2026-04-30T10:47:20Z</time></trkpt><trkpt lat="42.10150153915421" lon="-7.995579313902049"><ele>868.8333333333334</ele><time>2026-04-30T10:47:21Z</time></trkpt><trkpt lat="42.10139503884766" lon="-7.995530986234282"><ele>870.6666666666667</ele><time>2026-04-30T10:47:22Z</time></trkpt><trkpt lat="42.10132123779259" lon="-7.995501923632866"><ele>872.5</ele><time>2026-04-30T10:47:23Z</time></trkpt><trkpt lat="42.1012248088443" lon="-7.995516211076342"><ele>874.3333333333334</ele><time>2026-04-30T10:47:25Z</time></trkpt><trkpt lat="42.101162563842564" lon="-7.995568683605842"><ele>876.1666666666667</ele><time>2026-04-30T10:47:27Z</time></trkpt><trkpt lat="42.101147846174854" lon="-7.995652612798503"><ele>878.0</ele><time>2026-04-30T10:47:28Z</time></trkpt><trkpt lat="42.10115276866232" lon="-7.995752779126195"><ele>877.2</ele><time>2026-04-30T10:47:29Z</time></trkpt><trkpt lat="42.1011427712645" lon="-7.995857514836697"><ele>876.4</ele><time>2026-04-30T10:47:30Z</time></trkpt><trkpt lat="42.10112405860581" lon="-7.995978527642692"><ele>875.6000000000001</ele><time>2026-04-30T10:47:31Z</time></trkpt><trkpt lat="42.101121276079205" lon="-7.996068384825436"><ele>874.8000000000001</ele><time>2026-04-30T10:47:32Z</time></trkpt><trkpt lat="42.101120104529066" lon="-7.996230379521"><ele>874.0</ele><time>2026-04-30T10:47:33Z</time></trkpt><trkpt lat="42.10111073271882" lon="-7.996371352569118"><ele>874.0</ele><time>2026-04-30T10:47:34Z</time></trkpt><trkpt lat="42.10107808769778" lon="-7.996510279078826"><ele>874.0000000000001</ele><time>2026-04-30T10:47:35Z</time></trkpt><trkpt lat="42.10102634111872" lon="-7.996686810781562"><ele>874.0000000000001</ele><time>2026-04-30T10:47:36Z</time></trkpt><trkpt lat="42.10100473484241" lon="-7.996814537483659"><ele>874.0</ele><time>2026-04-30T10:47:37Z</time></trkpt><trkpt lat="42.10099090500609" lon="-7.996901602798859"><ele>874.0</ele><time>2026-04-30T10:47:38Z</time></trkpt><trkpt lat="42.10101567427772" lon="-7.996999008508205"><ele>873.9999999999999</ele><time>2026-04-30T10:47:40Z</time></trkpt><trkpt lat="42.10106911408093" lon="-7.997081049352892"><ele>874.0</ele><time>2026-04-30T10:47:41Z</time></trkpt><trkpt lat="42.10112870725207" lon="-7.997169391369074"><ele>874.0</ele><time>2026-04-30T10:47:42Z</time></trkpt><trkpt lat="42.1011794455678" lon="-7.997256115653902"><ele>874.0</ele><time>2026-04-30T10:47:43Z</time></trkpt><trkpt lat="42.1012394069158" lon="-7.9973377803052585"><ele>873.9999999999999</ele><time>2026-04-30T10:47:44Z</time></trkpt><trkpt lat="42.101278037217405" lon="-7.9974350409111326"><ele>874.0</ele><time>2026-04-30T10:47:45Z</time></trkpt><trkpt lat="42.10129152565063" lon="-7.997550853444025"><ele>873.0</ele><time>2026-04-30T10:47:46Z</time></trkpt><trkpt lat="42.101286023443755" lon="-7.997643521428702"><ele>872.0000000000001</ele><time>2026-04-30T10:47:47Z</time></trkpt><trkpt lat="42.101255734043" lon="-7.997744692412199"><ele>871.0000000000001</ele><time>2026-04-30T10:47:49Z</time></trkpt><trkpt lat="42.101215178370836" lon="-7.99790076881344"><ele>870.0</ele><time>2026-04-30T10:47:51Z</time></trkpt><trkpt lat="42.10113174424659" lon="-7.9980093787703215"><ele>869.0</ele><time>2026-04-30T10:47:52Z</time></trkpt><trkpt lat="42.10109574142763" lon="-7.998161096171461"><ele>867.25</ele><time>2026-04-30T10:47:54Z</time></trkpt><trkpt lat="42.10105603549393" lon="-7.998428979568026"><ele>865.5</ele><time>2026-04-30T10:47:56Z</time></trkpt><trkpt lat="42.1010323039297" lon="-7.998560795001"><ele>863.75</ele><time>2026-04-30T10:47:57Z</time></trkpt><trkpt lat="42.10099068844685" lon="-7.998677131582998"><ele>862.0</ele><time>2026-04-30T10:47:59Z</time></trkpt><trkpt lat="42.10097940918488" lon="-7.9987943000542945"><ele>862.0</ele><time>2026-04-30T10:48:00Z</time></trkpt><trkpt lat="42.10095056884499" lon="-7.998959507099659"><ele>862.0</ele><time>2026-04-30T10:48:01Z</time></trkpt><trkpt lat="42.10091210497343" lon="-7.999050464525099"><ele>862.0</ele><time>2026-04-30T10:48:02Z</time></trkpt><trkpt lat="42.10086693449102" lon="-7.999201379935362"><ele>862.0</ele><time>2026-04-30T10:48:03Z</time></trkpt><trkpt lat="42.10082889552295" lon="-7.999289282138056"><ele>862.0</ele><time>2026-04-30T10:48:04Z</time></trkpt><trkpt lat="42.10074581146998" lon="-7.999379446274001"><ele>864.0</ele><time>2026-04-30T10:48:05Z</time></trkpt><trkpt lat="42.100648442284935" lon="-7.999518551577955"><ele>866.0</ele><time>2026-04-30T10:48:06Z</time></trkpt><trkpt lat="42.10060639099805" lon="-7.999684513713753"><ele>868.0</ele><time>2026-04-30T10:48:07Z</time></trkpt><trkpt lat="42.10055863199717" lon="-7.99978274116933"><ele>870.0</ele><time>2026-04-30T10:48:08Z</time></trkpt><trkpt lat="42.100538849483044" lon="-7.999979141112837"><ele>870.0</ele><time>2026-04-30T10:48:10Z</time></trkpt><trkpt lat="42.10051621332447" lon="-8.000090347997125"><ele>870.0</ele><time>2026-04-30T10:48:11Z</time></trkpt><trkpt lat="42.10051827345496" lon="-8.000191723843953"><ele>870.0</ele><time>2026-04-30T10:48:13Z</time></trkpt><trkpt lat="42.100563599285074" lon="-8.000272934710454"><ele>870.0</ele><time>2026-04-30T10:48:15Z</time></trkpt><trkpt lat="42.100578054700186" lon="-8.000378425558532"><ele>870.0</ele><time>2026-04-30T10:48:18Z</time></trkpt><trkpt lat="42.10048753107208" lon="-8.000541688243583"><ele>870.0</ele><time>2026-04-30T10:48:20Z</time></trkpt><trkpt lat="42.100408876929116" lon="-8.000627270719729"><ele>870.0</ele><time>2026-04-30T10:48:21Z</time></trkpt><trkpt lat="42.10033020906012" lon="-8.000625196108905"><ele>870.0</ele><time>2026-04-30T10:48:23Z</time></trkpt><trkpt lat="42.10029903976068" lon="-8.000532259881835"><ele>870.0</ele><time>2026-04-30T10:48:26Z</time></trkpt><trkpt lat="42.100256567004756" lon="-8.000408608367986"><ele>870.0</ele><time>2026-04-30T10:48:28Z</time></trkpt><trkpt lat="42.10018566944537" lon="-8.000360448785315"><ele>870.0</ele><time>2026-04-30T10:48:29Z</time></trkpt><trkpt lat="42.10011211077037" lon="-8.000320518934945"><ele>870.0</ele><time>2026-04-30T10:48:30Z</time></trkpt><trkpt lat="42.10002126377188" lon="-8.000258517314748"><ele>870.0</ele><time>2026-04-30T10:48:31Z</time></trkpt><trkpt lat="42.099906239193096" lon="-8.000186502581741"><ele>870.0</ele><time>2026-04-30T10:48:32Z</time></trkpt><trkpt lat="42.09976560082799" lon="-8.000115308293829"><ele>870.0</ele><time>2026-04-30T10:48:33Z</time></trkpt><trkpt lat="42.09963336070206" lon="-8.000059494754604"><ele>872.8</ele><time>2026-04-30T10:48:34Z</time></trkpt><trkpt lat="42.09953302669108" lon="-8.000008972179163"><ele>875.6</ele><time>2026-04-30T10:48:35Z</time></trkpt><trkpt lat="42.09943747903379" lon="-7.999987520395619"><ele>878.4000000000001</ele><time>2026-04-30T10:48:36Z</time></trkpt><trkpt lat="42.09933215447438" lon="-7.999989612242821"><ele>881.2</ele><time>2026-04-30T10:48:37Z</time></trkpt><trkpt lat="42.09920578771255" lon="-7.9999829160899445"><ele>884.0</ele><time>2026-04-30T10:48:38Z</time></trkpt><trkpt lat="42.099062624946846" lon="-7.9999474591585615"><ele>885.5</ele><time>2026-04-30T10:48:39Z</time></trkpt><trkpt lat="42.098927972553255" lon="-7.999880293339403"><ele>887.0</ele><time>2026-04-30T10:48:40Z</time></trkpt><trkpt lat="42.098815787614015" lon="-7.9998506220452725"><ele>888.5</ele><time>2026-04-30T10:48:41Z</time></trkpt><trkpt lat="42.09868162471917" lon="-7.999803497475908"><ele>890.0</ele><time>2026-04-30T10:48:42Z</time></trkpt><trkpt lat="42.09853961633178" lon="-7.99977196032352"><ele>890.0</ele><time>2026-04-30T10:48:43Z</time></trkpt><trkpt lat="42.09844878946415" lon="-7.9997378042302305"><ele>890.0</ele><time>2026-04-30T10:48:44Z</time></trkpt><trkpt lat="42.09835569914714" lon="-7.999676010957238"><ele>890.0</ele><time>2026-04-30T10:48:45Z</time></trkpt><trkpt lat="42.098253517813404" lon="-7.999568209303329"><ele>890.0</ele><time>2026-04-30T10:48:46Z</time></trkpt><trkpt lat="42.098171263831176" lon="-7.999464975893644"><ele>890.0</ele><time>2026-04-30T10:48:47Z</time></trkpt><trkpt lat="42.09809471796731" lon="-7.9993321504799315"><ele>890.6</ele><time>2026-04-30T10:48:48Z</time></trkpt><trkpt lat="42.09800930537753" lon="-7.999170590984063"><ele>891.2</ele><time>2026-04-30T10:48:49Z</time></trkpt><trkpt lat="42.0979398869909" lon="-7.999064415926649"><ele>891.8</ele><time>2026-04-30T10:48:50Z</time></trkpt><trkpt lat="42.09787181754165" lon="-7.9989884088249426"><ele>892.4</ele><time>2026-04-30T10:48:51Z</time></trkpt><trkpt lat="42.097803212030875" lon="-7.9989178008924755"><ele>893.0</ele><time>2026-04-30T10:48:52Z</time></trkpt><trkpt lat="42.097727112211814" lon="-7.9988178250932815"><ele>897.25</ele><time>2026-04-30T10:48:53Z</time></trkpt><trkpt lat="42.09765142154279" lon="-7.998699437665364"><ele>901.5</ele><time>2026-04-30T10:48:54Z</time></trkpt><trkpt lat="42.09755641610252" lon="-7.998633145911273"><ele>905.75</ele><time>2026-04-30T10:48:55Z</time></trkpt><trkpt lat="42.09743493562177" lon="-7.998593474351995"><ele>910.0</ele><time>2026-04-30T10:48:56Z</time></trkpt><trkpt lat="42.097286822419" lon="-7.998551114604945"><ele>910.8</ele><time>2026-04-30T10:48:57Z</time></trkpt><trkpt lat="42.09715492154981" lon="-7.998503358077"><ele>911.6</ele><time>2026-04-30T10:48:58Z</time></trkpt><trkpt lat="42.097075961131814" lon="-7.99848224984833"><ele>912.4000000000001</ele><time>2026-04-30T10:48:59Z</time></trkpt><trkpt lat="42.09697492255654" lon="-7.998459807577522"><ele>913.2</ele><time>2026-04-30T10:49:01Z</time></trkpt><trkpt lat="42.09692596594568" lon="-7.998406343070106"><ele>914.0</ele><time>2026-04-30T10:49:04Z</time></trkpt><trkpt lat="42.09685501736125" lon="-7.9983685112425045"><ele>914.0000000000001</ele><time>2026-04-30T10:49:06Z</time></trkpt><trkpt lat="42.096787593580274" lon="-7.99833983389304"><ele>914.0</ele><time>2026-04-30T10:49:09Z</time></trkpt><trkpt lat="42.096864873597355" lon="-7.9983537471281325"><ele>914.0</ele><time>2026-04-30T10:49:22Z</time></trkpt><trkpt lat="42.09694052882234" lon="-7.998412762838587"><ele>914.0</ele><time>2026-04-30T10:49:25Z</time></trkpt><trkpt lat="42.096997018192205" lon="-7.998461681827671"><ele>914.0000000000001</ele><time>2026-04-30T10:49:27Z</time></trkpt><trkpt lat="42.09708954313848" lon="-7.99848735024085"><ele>914.0</ele><time>2026-04-30T10:49:30Z</time></trkpt><trkpt lat="42.09716313046564" lon="-7.998503139254744"><ele>914.0000000000001</ele><time>2026-04-30T10:49:34Z</time></trkpt><trkpt lat="42.097231410356265" lon="-7.998504839270268"><ele>914.0</ele><time>2026-04-30T10:49:37Z</time></trkpt><trkpt lat="42.097306313136954" lon="-7.998550958937505"><ele>914.0</ele><time>2026-04-30T10:53:24Z</time></trkpt><trkpt lat="42.09737495413" lon="-7.998590911121637"><ele>914.0</ele><time>2026-04-30T10:53:26Z</time></trkpt><trkpt lat="42.09743599154749" lon="-7.998615613358554"><ele>914.0000000000001</ele><time>2026-04-30T10:53:33Z</time></trkpt><trkpt lat="42.09733525727857" lon="-7.998550225193241"><ele>914.0</ele><time>2026-04-30T10:53:36.999Z</time></trkpt><trkpt lat="42.09725785971606" lon="-7.998537400897829"><ele>914.0000000000001</ele><time>2026-04-30T10:53:37.999Z</time></trkpt><trkpt lat="42.097192615446545" lon="-7.998517873664904"><ele>914.0</ele><time>2026-04-30T10:53:38.999Z</time></trkpt><trkpt lat="42.09712166746017" lon="-7.99849243326969"><ele>914.0</ele><time>2026-04-30T10:53:39.999Z</time></trkpt><trkpt lat="42.09704592991347" lon="-7.998535625623831"><ele>914.0</ele><time>2026-04-30T10:53:42.999Z</time></trkpt><trkpt lat="42.09696842050299" lon="-7.998582343065547"><ele>914.0000000000001</ele><time>2026-04-30T10:53:45.999Z</time></trkpt><trkpt lat="42.09688876317926" lon="-7.998619486330635"><ele>914.0</ele><time>2026-04-30T10:53:47.999Z</time></trkpt><trkpt lat="42.09680793749734" lon="-7.998674722670798"><ele>914.0000000000001</ele><time>2026-04-30T10:53:50.999Z</time></trkpt><trkpt lat="42.096755626283716" lon="-7.9987358185453115"><ele>914.0</ele><time>2026-04-30T10:53:52.999Z</time></trkpt><trkpt lat="42.09666982211458" lon="-7.998792970018551"><ele>914.0</ele><time>2026-04-30T10:53:54.999Z</time></trkpt><trkpt lat="42.096596038593006" lon="-7.9988155752149686"><ele>914.0</ele><time>2026-04-30T10:53:57.999Z</time></trkpt><trkpt lat="42.0965343824213" lon="-7.998890431962925"><ele>914.0000000000001</ele><time>2026-04-30T10:54:00.999Z</time></trkpt><trkpt lat="42.09649693714016" lon="-7.999009545144451"><ele>914.0</ele><time>2026-04-30T10:54:03.999Z</time></trkpt><trkpt lat="42.0964652173175" lon="-7.999107756279205"><ele>914.6</ele><time>2026-04-30T10:54:06.999Z</time></trkpt><trkpt lat="42.096410491998334" lon="-7.999214137377658"><ele>915.2</ele><time>2026-04-30T10:54:08.999Z</time></trkpt><trkpt lat="42.096348612537994" lon="-7.999322077825596"><ele>915.8000000000001</ele><time>2026-04-30T10:54:11.999Z</time></trkpt><trkpt lat="42.09625977006894" lon="-7.9993969890675665"><ele>916.4000000000001</ele><time>2026-04-30T10:54:14.999Z</time></trkpt><trkpt lat="42.096191550891234" lon="-7.999475022757847"><ele>917.0</ele><time>2026-04-30T10:54:17.999Z</time></trkpt><trkpt lat="42.09618406943351" lon="-7.999592713312193"><ele>917.0</ele><time>2026-04-30T10:54:21.999Z</time></trkpt><trkpt lat="42.09623477012444" lon="-7.999643896368292"><ele>917.0</ele><time>2026-04-30T10:54:23.999Z</time></trkpt><trkpt lat="42.09633796008981" lon="-7.9996792614326"><ele>917.0</ele><time>2026-04-30T10:54:26.999Z</time></trkpt><trkpt lat="42.096403037036794" lon="-7.999662820290767"><ele>917.0</ele><time>2026-04-30T10:54:27.999Z</time></trkpt><trkpt lat="42.096466131194845" lon="-7.999659453930729"><ele>917.0</ele><time>2026-04-30T10:54:28.999Z</time></trkpt><trkpt lat="42.09663939888145" lon="-7.999637127623191"><ele>911.6666666666667</ele><time>2026-04-30T10:54:31.999Z</time></trkpt><trkpt lat="42.096778589979714" lon="-7.999613112360853"><ele>906.3333333333333</ele><time>2026-04-30T10:54:33.999Z</time></trkpt><trkpt lat="42.09699716999418" lon="-7.999611453432446"><ele>901.0</ele><time>2026-04-30T10:54:37.999Z</time></trkpt><trkpt lat="42.097105493615395" lon="-7.999628923195548"><ele>901.0</ele><time>2026-04-30T10:54:38.999Z</time></trkpt><trkpt lat="42.09718275479234" lon="-7.999604102375855"><ele>900.9999999999999</ele><time>2026-04-30T10:54:39.999Z</time></trkpt><trkpt lat="42.097280663363776" lon="-7.999598830805201"><ele>900.9999999999999</ele><time>2026-04-30T10:54:40.999Z</time></trkpt><trkpt lat="42.09737032433369" lon="-7.9996130600761886"><ele>901.0</ele><time>2026-04-30T10:54:41.999Z</time></trkpt><trkpt lat="42.09746441260771" lon="-7.999614267133758"><ele>901.0</ele><time>2026-04-30T10:54:43Z</time></trkpt><trkpt lat="42.097570715628365" lon="-7.99962955056529"><ele>899.6666666666666</ele><time>2026-04-30T10:54:44Z</time></trkpt><trkpt lat="42.09766358720316" lon="-7.99966504606373"><ele>898.3333333333333</ele><time>2026-04-30T10:54:45Z</time></trkpt><trkpt lat="42.09775273692896" lon="-7.999701925363922"><ele>897.0</ele><time>2026-04-30T10:54:46Z</time></trkpt><trkpt lat="42.09779467566514" lon="-7.9997945874984016"><ele>895.6666666666667</ele><time>2026-04-30T10:54:48Z</time></trkpt><trkpt lat="42.097891579022956" lon="-7.999810295796118"><ele>894.3333333333334</ele><time>2026-04-30T10:54:49Z</time></trkpt><trkpt lat="42.09796552855416" lon="-7.999835847125733"><ele>893.0</ele><time>2026-04-30T10:54:50Z</time></trkpt><trkpt lat="42.09808245398892" lon="-7.9997848904720135"><ele>893.0000000000001</ele><time>2026-04-30T10:54:52Z</time></trkpt><trkpt lat="42.098164508615106" lon="-7.999771688958834"><ele>893.0</ele><time>2026-04-30T10:54:53Z</time></trkpt><trkpt lat="42.098253767820154" lon="-7.9998447705378055"><ele>893.0</ele><time>2026-04-30T10:54:54Z</time></trkpt><trkpt lat="42.09831366860069" lon="-7.999903933472892"><ele>893.0</ele><time>2026-04-30T10:54:56Z</time></trkpt><trkpt lat="42.098378654205185" lon="-7.999962815829517"><ele>893.0000000000001</ele><time>2026-04-30T10:54:59Z</time></trkpt><trkpt lat="42.098447409469706" lon="-7.999988446738279"><ele>893.0</ele><time>2026-04-30T10:55:01Z</time></trkpt><trkpt lat="42.09856036065637" lon="-8.000041807643663"><ele>892.0</ele><time>2026-04-30T10:55:03Z</time></trkpt><trkpt lat="42.098654228823285" lon="-8.000031462774988"><ele>891.0</ele><time>2026-04-30T10:55:05Z</time></trkpt><trkpt lat="42.09898262344968" lon="-8.000038226485444"><ele>890.0</ele><time>2026-04-30T10:55:10Z</time></trkpt><trkpt lat="42.099098215215676" lon="-8.000043922187917"><ele>888.5</ele><time>2026-04-30T10:55:11Z</time></trkpt><trkpt lat="42.09932955318245" lon="-8.000059483047062"><ele>887.0</ele><time>2026-04-30T10:55:12Z</time></trkpt><trkpt lat="42.09939555453815" lon="-7.999989290909907"><ele>885.5</ele><time>2026-04-30T10:55:14Z</time></trkpt><trkpt lat="42.09946440389052" lon="-7.999984078679001"><ele>884.0</ele><time>2026-04-30T10:55:16Z</time></trkpt><trkpt lat="42.099565766049565" lon="-8.000009158118134"><ele>884.0</ele><time>2026-04-30T10:55:18Z</time></trkpt><trkpt lat="42.09963830965691" lon="-7.999978142586095"><ele>884.0000000000001</ele><time>2026-04-30T10:55:21Z</time></trkpt><trkpt lat="42.099693657534466" lon="-8.000030345700878"><ele>884.0000000000001</ele><time>2026-04-30T10:55:24Z</time></trkpt><trkpt lat="42.099620987332464" lon="-8.000058077284057"><ele>884.0</ele><time>2026-04-30T10:55:27Z</time></trkpt><trkpt lat="42.099405147050454" lon="-7.999990845477256"><ele>884.0</ele><time>2026-04-30T10:55:30Z</time></trkpt><trkpt lat="42.09930216951473" lon="-8.000051852913282"><ele>884.0</ele><time>2026-04-30T10:55:31Z</time></trkpt><trkpt lat="42.09919884858931" lon="-8.000056562451794"><ele>884.0000000000001</ele><time>2026-04-30T10:55:32Z</time></trkpt><trkpt lat="42.099045210073285" lon="-8.000063249255035"><ele>884.0000000000001</ele><time>2026-04-30T10:55:33Z</time></trkpt><trkpt lat="42.09895493520335" lon="-8.000071001885164"><ele>884.0</ele><time>2026-04-30T10:55:34Z</time></trkpt><trkpt lat="42.098872370720905" lon="-8.00006983943706"><ele>884.0</ele><time>2026-04-30T10:55:35Z</time></trkpt><trkpt lat="42.09879296646502" lon="-8.000073365447745"><ele>885.0000000000001</ele><time>2026-04-30T10:55:36Z</time></trkpt><trkpt lat="42.0987271517256" lon="-8.000090626889513"><ele>886.0</ele><time>2026-04-30T10:55:37Z</time></trkpt><trkpt lat="42.09865384373784" lon="-8.000072236471715"><ele>887.0</ele><time>2026-04-30T10:55:38Z</time></trkpt><trkpt lat="42.09857631855339" lon="-8.000051749238475"><ele>888.0</ele><time>2026-04-30T10:55:39Z</time></trkpt><trkpt lat="42.09849932184623" lon="-7.999992077186757"><ele>889.0000000000001</ele><time>2026-04-30T10:55:41Z</time></trkpt><trkpt lat="42.09844005266671" lon="-7.99993754335478"><ele>890.0</ele><time>2026-04-30T10:55:44Z</time></trkpt><trkpt lat="42.098336626581855" lon="-7.9998796309848395"><ele>890.75</ele><time>2026-04-30T10:55:47Z</time></trkpt><trkpt lat="42.098241141346584" lon="-7.99980092271579"><ele>891.5</ele><time>2026-04-30T10:55:49Z</time></trkpt><trkpt lat="42.09814882734413" lon="-7.999788918474715"><ele>892.25</ele><time>2026-04-30T10:55:50Z</time></trkpt><trkpt lat="42.09800469791745" lon="-7.999740730239183"><ele>893.0</ele><time>2026-04-30T10:55:52Z</time></trkpt><trkpt lat="42.097898048807664" lon="-7.99971946145846"><ele>893.0</ele><time>2026-04-30T10:55:53Z</time></trkpt><trkpt lat="42.09777702030441" lon="-7.999696637493172"><ele>893.0</ele><time>2026-04-30T10:55:54Z</time></trkpt><trkpt lat="42.09764781488189" lon="-7.99967160693541"><ele>893.0</ele><time>2026-04-30T10:55:55Z</time></trkpt><trkpt lat="42.097538503113384" lon="-7.999652966950349"><ele>893.0</ele><time>2026-04-30T10:55:56Z</time></trkpt><trkpt lat="42.0974249268531" lon="-7.99964081325825"><ele>894.5999999999999</ele><time>2026-04-30T10:55:57Z</time></trkpt><trkpt lat="42.097309208684266" lon="-7.999628612513164"><ele>896.1999999999999</ele><time>2026-04-30T10:55:58Z</time></trkpt><trkpt lat="42.09719496786718" lon="-7.99962859697544"><ele>897.8</ele><time>2026-04-30T10:55:59Z</time></trkpt><trkpt lat="42.097101535515485" lon="-7.999644454039835"><ele>899.4</ele><time>2026-04-30T10:56:00Z</time></trkpt><trkpt lat="42.0970016728531" lon="-7.999671829281853"><ele>901.0</ele><time>2026-04-30T10:56:01Z</time></trkpt><trkpt lat="42.096924021492384" lon="-7.999676661678624"><ele>901.0</ele><time>2026-04-30T10:56:02Z</time></trkpt><trkpt lat="42.09685639430957" lon="-7.999690049629663"><ele>900.9999999999999</ele><time>2026-04-30T10:56:03Z</time></trkpt><trkpt lat="42.09678303713377" lon="-7.999677366106378"><ele>900.9999999999999</ele><time>2026-04-30T10:56:04Z</time></trkpt><trkpt lat="42.0966969491558" lon="-7.999631848699611"><ele>901.0</ele><time>2026-04-30T10:56:05Z</time></trkpt><trkpt lat="42.09656668184149" lon="-7.999638460824816"><ele>901.0</ele><time>2026-04-30T10:56:06Z</time></trkpt><trkpt lat="42.096452103956146" lon="-7.999676227641968"><ele>904.1999999999999</ele><time>2026-04-30T10:56:07Z</time></trkpt><trkpt lat="42.09637547569301" lon="-7.999707314865683"><ele>907.3999999999999</ele><time>2026-04-30T10:56:08Z</time></trkpt><trkpt lat="42.09630207119147" lon="-7.999717728413359"><ele>910.6</ele><time>2026-04-30T10:56:09Z</time></trkpt><trkpt lat="42.09619341200039" lon="-7.999663824805958"><ele>913.8</ele><time>2026-04-30T10:56:11Z</time></trkpt><trkpt lat="42.09611986285086" lon="-7.999548029867388"><ele>917.0</ele><time>2026-04-30T10:56:12.999Z</time></trkpt><trkpt lat="42.09599327856199" lon="-7.999581149292872"><ele>917.0000000000001</ele><time>2026-04-30T10:56:14.999Z</time></trkpt><trkpt lat="42.09589592324242" lon="-7.999606359989769"><ele>917.0</ele><time>2026-04-30T10:56:15.999Z</time></trkpt><trkpt lat="42.09580916812646" lon="-7.999613966992105"><ele>917.0</ele><time>2026-04-30T10:56:16.999Z</time></trkpt><trkpt lat="42.09573829566794" lon="-7.999608876366774"><ele>917.0</ele><time>2026-04-30T10:56:17.999Z</time></trkpt><trkpt lat="42.09564084097056" lon="-7.999608963972526"><ele>917.0000000000001</ele><time>2026-04-30T10:56:19.999Z</time></trkpt><trkpt lat="42.09556017071285" lon="-7.999588378208776"><ele>917.0</ele><time>2026-04-30T10:56:21.999Z</time></trkpt><trkpt lat="42.09546261415772" lon="-7.99965511939144"><ele>920.4000000000001</ele><time>2026-04-30T10:56:23.999Z</time></trkpt><trkpt lat="42.09537180469271" lon="-7.999680528209876"><ele>923.8000000000001</ele><time>2026-04-30T10:56:27Z</time></trkpt><trkpt lat="42.09525266006473" lon="-7.999662577873722"><ele>927.2</ele><time>2026-04-30T10:56:29Z</time></trkpt><trkpt lat="42.09516473278327" lon="-7.999613788111592"><ele>930.6</ele><time>2026-04-30T10:56:30Z</time></trkpt><trkpt lat="42.09508801638256" lon="-7.999555845542944"><ele>934.0</ele><time>2026-04-30T10:56:31Z</time></trkpt><trkpt lat="42.09500487992474" lon="-7.999521812286018"><ele>933.9999999999999</ele><time>2026-04-30T10:56:33Z</time></trkpt><trkpt lat="42.0949415816632" lon="-7.999484167237237"><ele>934.0</ele><time>2026-04-30T10:56:34Z</time></trkpt><trkpt lat="42.09484188921195" lon="-7.999463419383877"><ele>934.0</ele><time>2026-04-30T10:56:35Z</time></trkpt><trkpt lat="42.094756206925396" lon="-7.999441231132808"><ele>934.0</ele><time>2026-04-30T10:56:36Z</time></trkpt><trkpt lat="42.09466792153848" lon="-7.9994439373165145"><ele>933.9999999999999</ele><time>2026-04-30T10:56:37Z</time></trkpt><trkpt lat="42.094602418504785" lon="-7.999434091943651"><ele>934.0</ele><time>2026-04-30T10:56:38Z</time></trkpt><trkpt lat="42.09448058319329" lon="-7.999423791157391"><ele>936.9999999999999</ele><time>2026-04-30T10:56:40Z</time></trkpt><trkpt lat="42.09441076934512" lon="-7.99941521579452"><ele>940.0</ele><time>2026-04-30T10:56:41Z</time></trkpt><trkpt lat="42.094340541100536" lon="-7.999404694311363"><ele>943.0</ele><time>2026-04-30T10:56:42Z</time></trkpt><trkpt lat="42.09427195737686" lon="-7.99939620336712"><ele>946.0</ele><time>2026-04-30T10:56:43Z</time></trkpt><trkpt lat="42.09420165402103" lon="-7.9993863302437775"><ele>948.9999999999999</ele><time>2026-04-30T10:56:44Z</time></trkpt><trkpt lat="42.094097073672174" lon="-7.999373720027948"><ele>952.0</ele><time>2026-04-30T10:56:46Z</time></trkpt><trkpt lat="42.094076938864056" lon="-7.999473983159369"><ele>952.0</ele><time>2026-04-30T10:56:50Z</time></trkpt><trkpt lat="42.09414180959224" lon="-7.999636662891683"><ele>952.0</ele><time>2026-04-30T10:56:52Z</time></trkpt><trkpt lat="42.09418766789432" lon="-7.999714059303643"><ele>952.0</ele><time>2026-04-30T10:56:53Z</time></trkpt><trkpt lat="42.094258587476766" lon="-7.9997951916074665"><ele>952.0</ele><time>2026-04-30T10:56:54Z</time></trkpt><trkpt lat="42.094318731966965" lon="-7.999858750028824"><ele>952.0</ele><time>2026-04-30T10:56:55Z</time></trkpt><trkpt lat="42.0943921956367" lon="-7.999921417413143"><ele>951.9999999999999</ele><time>2026-04-30T10:56:56Z</time></trkpt><trkpt lat="42.09449529181098" lon="-7.999997574377494"><ele>952.0</ele><time>2026-04-30T10:56:58Z</time></trkpt><trkpt lat="42.09455879019617" lon="-8.0000891274634"><ele>952.0</ele><time>2026-04-30T10:57:00Z</time></trkpt><trkpt lat="42.094604562767294" lon="-8.000158183786853"><ele>952.0</ele><time>2026-04-30T10:57:01Z</time></trkpt><trkpt lat="42.09466688860975" lon="-8.00021259546138"><ele>951.9999999999999</ele><time>2026-04-30T10:57:02Z</time></trkpt><trkpt lat="42.09472160974846" lon="-8.000259313823388"><ele>952.0</ele><time>2026-04-30T10:57:03Z</time></trkpt><trkpt lat="42.09479840395144" lon="-8.000382546987666"><ele>951.9999999999999</ele><time>2026-04-30T10:57:05Z</time></trkpt><trkpt lat="42.09483490730654" lon="-8.000465552195818"><ele>952.0</ele><time>2026-04-30T10:57:06Z</time></trkpt><trkpt lat="42.09487789632015" lon="-8.00056447798238"><ele>952.0</ele><time>2026-04-30T10:57:07Z</time></trkpt><trkpt lat="42.0949133512983" lon="-8.000667853624511"><ele>952.0</ele><time>2026-04-30T10:57:08Z</time></trkpt><trkpt lat="42.09495146578686" lon="-8.000761436587537"><ele>951.9999999999999</ele><time>2026-04-30T10:57:09Z</time></trkpt><trkpt lat="42.09498684657932" lon="-8.000835080904713"><ele>952.0</ele><time>2026-04-30T10:57:10Z</time></trkpt><trkpt lat="42.09504465171069" lon="-8.000933158415949"><ele>949.2</ele><time>2026-04-30T10:57:12Z</time></trkpt><trkpt lat="42.09512979147972" lon="-8.000939973526194"><ele>946.4000000000001</ele><time>2026-04-30T10:57:14Z</time></trkpt><trkpt lat="42.095225356995215" lon="-8.000984065308613"><ele>943.5999999999999</ele><time>2026-04-30T10:57:16Z</time></trkpt><trkpt lat="42.09528660586772" lon="-8.001015371153501"><ele>940.8</ele><time>2026-04-30T10:57:17Z</time></trkpt><trkpt lat="42.09540302496611" lon="-8.00110745987355"><ele>938.0</ele><time>2026-04-30T10:57:19Z</time></trkpt><trkpt lat="42.0954688767929" lon="-8.001158698742229"><ele>938.0000000000001</ele><time>2026-04-30T10:57:20Z</time></trkpt><trkpt lat="42.095532939568734" lon="-8.001197770236018"><ele>938.0</ele><time>2026-04-30T10:57:21Z</time></trkpt><trkpt lat="42.09559868049686" lon="-8.001222129218641"><ele>938.0</ele><time>2026-04-30T10:57:22Z</time></trkpt><trkpt lat="42.09570198141188" lon="-8.001272030681346"><ele>938.0</ele><time>2026-04-30T10:57:24Z</time></trkpt><trkpt lat="42.095760442820506" lon="-8.0013142826648"><ele>938.0000000000001</ele><time>2026-04-30T10:57:26Z</time></trkpt><trkpt lat="42.095789712997" lon="-8.001402227909407"><ele>938.0</ele><time>2026-04-30T10:57:29Z</time></trkpt><trkpt lat="42.095772986011355" lon="-8.001511834988264"><ele>938.0</ele><time>2026-04-30T10:57:32Z</time></trkpt><trkpt lat="42.095749986557074" lon="-8.001626119876095"><ele>938.0</ele><time>2026-04-30T10:57:34Z</time></trkpt><trkpt lat="42.095741658307944" lon="-8.00174290486272"><ele>938.0</ele><time>2026-04-30T10:57:35Z</time></trkpt><trkpt lat="42.09573161359922" lon="-8.001876306298463"><ele>938.0</ele><time>2026-04-30T10:57:36Z</time></trkpt><trkpt lat="42.09573226962791" lon="-8.002010960497643"><ele>938.0</ele><time>2026-04-30T10:57:37Z</time></trkpt><trkpt lat="42.095731655719916" lon="-8.002130268177503"><ele>936.8333333333334</ele><time>2026-04-30T10:57:38Z</time></trkpt><trkpt lat="42.09573767379061" lon="-8.00223513744937"><ele>935.6666666666667</ele><time>2026-04-30T10:57:39Z</time></trkpt><trkpt lat="42.0957519808231" lon="-8.002349398573969"><ele>934.5</ele><time>2026-04-30T10:57:40Z</time></trkpt><trkpt lat="42.09576331163385" lon="-8.00247787486284"><ele>933.3333333333333</ele><time>2026-04-30T10:57:41Z</time></trkpt><trkpt lat="42.09577049631461" lon="-8.002601279509154"><ele>932.1666666666666</ele><time>2026-04-30T10:57:42Z</time></trkpt><trkpt lat="42.09578628574298" lon="-8.00272935312848"><ele>931.0</ele><time>2026-04-30T10:57:43Z</time></trkpt><trkpt lat="42.09579973093299" lon="-8.002854765187683"><ele>926.8333333333333</ele><time>2026-04-30T10:57:44Z</time></trkpt><trkpt lat="42.095812455711695" lon="-8.00298327851196"><ele>922.6666666666666</ele><time>2026-04-30T10:57:45Z</time></trkpt><trkpt lat="42.095830479659945" lon="-8.003100631018182"><ele>918.5</ele><time>2026-04-30T10:57:46Z</time></trkpt><trkpt lat="42.095844373378156" lon="-8.00321762800013"><ele>914.3333333333333</ele><time>2026-04-30T10:57:47Z</time></trkpt><trkpt lat="42.09586767698171" lon="-8.003324039679235"><ele>910.1666666666666</ele><time>2026-04-30T10:57:48Z</time></trkpt><trkpt lat="42.095882498003775" lon="-8.003410404395913"><ele>906.0</ele><time>2026-04-30T10:57:49Z</time></trkpt><trkpt lat="42.0958731385416" lon="-8.003537460341093"><ele>905.0</ele><time>2026-04-30T10:57:51Z</time></trkpt><trkpt lat="42.095833016455124" lon="-8.00362811942059"><ele>904.0</ele><time>2026-04-30T10:57:54Z</time></trkpt><trkpt lat="42.09585916461152" lon="-8.003713503757384"><ele>903.0</ele><time>2026-04-30T10:57:57Z</time></trkpt><trkpt lat="42.09593564234408" lon="-8.003744225804068"><ele>902.0</ele><time>2026-04-30T10:57:59Z</time></trkpt><trkpt lat="42.09591706131162" lon="-8.003858619565982"><ele>901.0</ele><time>2026-04-30T10:58:02Z</time></trkpt><trkpt lat="42.09584840291957" lon="-8.003883904059483"><ele>900.0</ele><time>2026-04-30T10:58:29Z</time></trkpt><trkpt lat="42.09578510246981" lon="-8.003969487068256"><ele>899.8</ele><time>2026-04-30T10:58:31Z</time></trkpt><trkpt lat="42.09573561952362" lon="-8.004142677935516"><ele>899.6</ele><time>2026-04-30T10:58:33Z</time></trkpt><trkpt lat="42.0957102903003" lon="-8.004247815106151"><ele>899.4000000000001</ele><time>2026-04-30T10:58:34Z</time></trkpt><trkpt lat="42.09565800429721" lon="-8.004364101326269"><ele>899.2</ele><time>2026-04-30T10:58:35Z</time></trkpt><trkpt lat="42.09559487202594" lon="-8.004442059541143"><ele>899.0</ele><time>2026-04-30T10:58:36Z</time></trkpt><trkpt lat="42.09552634794746" lon="-8.004499992782002"><ele>899.0</ele><time>2026-04-30T10:58:37Z</time></trkpt><trkpt lat="42.09544743717899" lon="-8.004553747595718"><ele>899.0</ele><time>2026-04-30T10:58:39Z</time></trkpt><trkpt lat="42.095370482075865" lon="-8.004587065636441"><ele>899.0</ele><time>2026-04-30T10:58:41Z</time></trkpt><trkpt lat="42.09515928177405" lon="-8.004623516675002"><ele>899.0</ele><time>2026-04-30T10:58:47Z</time></trkpt><trkpt lat="42.095071565297225" lon="-8.004625547586217"><ele>899.0000000000001</ele><time>2026-04-30T10:58:48Z</time></trkpt><trkpt lat="42.09498073152545" lon="-8.004629894587845"><ele>899.0</ele><time>2026-04-30T10:58:49Z</time></trkpt><trkpt lat="42.09490348995859" lon="-8.00463113580451"><ele>899.0</ele><time>2026-04-30T10:58:50Z</time></trkpt><trkpt lat="42.094821225224514" lon="-8.004638844794876"><ele>899.0</ele><time>2026-04-30T10:58:51Z</time></trkpt><trkpt lat="42.09474215294378" lon="-8.004626073696457"><ele>899.0000000000001</ele><time>2026-04-30T10:58:52Z</time></trkpt><trkpt lat="42.094631212692384" lon="-8.004638857796516"><ele>899.0</ele><time>2026-04-30T10:58:53Z</time></trkpt><trkpt lat="42.094533995674425" lon="-8.004648864621169"><ele>899.2</ele><time>2026-04-30T10:58:54Z</time></trkpt><trkpt lat="42.094433256838805" lon="-8.004666293760602"><ele>899.4000000000001</ele><time>2026-04-30T10:58:55Z</time></trkpt><trkpt lat="42.09434243910367" lon="-8.004696783175188"><ele>899.6</ele><time>2026-04-30T10:58:56Z</time></trkpt><trkpt lat="42.09423987979299" lon="-8.004721943208166"><ele>899.8</ele><time>2026-04-30T10:58:57Z</time></trkpt><trkpt lat="42.09414970654869" lon="-8.004721833770317"><ele>900.0</ele><time>2026-04-30T10:58:58Z</time></trkpt><trkpt lat="42.09407906984869" lon="-8.004720714571969"><ele>900.4</ele><time>2026-04-30T10:58:59Z</time></trkpt><trkpt lat="42.09396438890958" lon="-8.004692537126383"><ele>900.8</ele><time>2026-04-30T10:59:01Z</time></trkpt><trkpt lat="42.09384031364962" lon="-8.004722790228413"><ele>901.2</ele><time>2026-04-30T10:59:03Z</time></trkpt><trkpt lat="42.093737921055904" lon="-8.004735846966037"><ele>901.6</ele><time>2026-04-30T10:59:05Z</time></trkpt><trkpt lat="42.093659728099986" lon="-8.004718071129114"><ele>902.0</ele><time>2026-04-30T10:59:07Z</time></trkpt><trkpt lat="42.093580235140244" lon="-8.004764531875034"><ele>902.0</ele><time>2026-04-30T10:59:08Z</time></trkpt><trkpt lat="42.09351011349848" lon="-8.00478114991842"><ele>902.0</ele><time>2026-04-30T10:59:09Z</time></trkpt><trkpt lat="42.093421264138364" lon="-8.00484842963562"><ele>902.0</ele><time>2026-04-30T10:59:11Z</time></trkpt><trkpt lat="42.09333385458161" lon="-8.004837595936928"><ele>902.0</ele><time>2026-04-30T10:59:13Z</time></trkpt><trkpt lat="42.0932688213226" lon="-8.004846370119719"><ele>902.0</ele><time>2026-04-30T10:59:17Z</time></trkpt><trkpt lat="42.09342959207717" lon="-8.004843347857499"><ele>902.0</ele><time>2026-04-30T10:59:59Z</time></trkpt><trkpt lat="42.09354633034517" lon="-8.004840126851386"><ele>902.0</ele><time>2026-04-30T11:00:01Z</time></trkpt><trkpt lat="42.09367298644173" lon="-8.00483026214066"><ele>902.0</ele><time>2026-04-30T11:00:03Z</time></trkpt><trkpt lat="42.09375740246557" lon="-8.00479577157081"><ele>902.0</ele><time>2026-04-30T11:00:05Z</time></trkpt><trkpt lat="42.09387356785701" lon="-8.004813364157192"><ele>902.0</ele><time>2026-04-30T11:00:06Z</time></trkpt><trkpt lat="42.094020972664964" lon="-8.004840939538395"><ele>901.5</ele><time>2026-04-30T11:00:07Z</time></trkpt><trkpt lat="42.094162762515154" lon="-8.004762918322722"><ele>901.0</ele><time>2026-04-30T11:00:08Z</time></trkpt><trkpt lat="42.094307519585875" lon="-8.004736838368196"><ele>900.5</ele><time>2026-04-30T11:00:09Z</time></trkpt><trkpt lat="42.09443679121856" lon="-8.004705321106817"><ele>900.0</ele><time>2026-04-30T11:00:10Z</time></trkpt><trkpt lat="42.094556674773706" lon="-8.004656780009432"><ele>900.0</ele><time>2026-04-30T11:00:11Z</time></trkpt><trkpt lat="42.094652160127616" lon="-8.004662029978798"><ele>900.0</ele><time>2026-04-30T11:00:12Z</time></trkpt><trkpt lat="42.094749156848394" lon="-8.004670275154453"><ele>900.0</ele><time>2026-04-30T11:00:13Z</time></trkpt><trkpt lat="42.09484232628429" lon="-8.004682579296079"><ele>900.0</ele><time>2026-04-30T11:00:14Z</time></trkpt><trkpt lat="42.094951014488835" lon="-8.004690655590322"><ele>900.0</ele><time>2026-04-30T11:00:15Z</time></trkpt><trkpt lat="42.09505783380187" lon="-8.004693360195619"><ele>899.8</ele><time>2026-04-30T11:00:16Z</time></trkpt><trkpt lat="42.0951659773381" lon="-8.004687151015188"><ele>899.6</ele><time>2026-04-30T11:00:17Z</time></trkpt><trkpt lat="42.0952368562995" lon="-8.004685989140977"><ele>899.4000000000001</ele><time>2026-04-30T11:00:18Z</time></trkpt><trkpt lat="42.095325178488444" lon="-8.004785928384521"><ele>899.2</ele><time>2026-04-30T11:00:20Z</time></trkpt><trkpt lat="42.095395662084584" lon="-8.004879470136462"><ele>899.0</ele><time>2026-04-30T11:00:21Z</time></trkpt><trkpt lat="42.09547901005972" lon="-8.004960882159141"><ele>899.0000000000001</ele><time>2026-04-30T11:00:22Z</time></trkpt><trkpt lat="42.095550780921606" lon="-8.004995474370624"><ele>899.0</ele><time>2026-04-30T11:00:23Z</time></trkpt><trkpt lat="42.09562915600501" lon="-8.005011117966177"><ele>899.0</ele><time>2026-04-30T11:00:24Z</time></trkpt><trkpt lat="42.09569816600815" lon="-8.005016064031157"><ele>899.0</ele><time>2026-04-30T11:00:25Z</time></trkpt><trkpt lat="42.095765383364686" lon="-8.005134708981801"><ele>899.0000000000001</ele><time>2026-04-30T11:00:27Z</time></trkpt><trkpt lat="42.09574755786557" lon="-8.005247971356146"><ele>899.0</ele><time>2026-04-30T11:00:30Z</time></trkpt><trkpt lat="42.09578598334321" lon="-8.00538122138703"><ele>898.2</ele><time>2026-04-30T11:00:33Z</time></trkpt><trkpt lat="42.09582127520658" lon="-8.005485059783238"><ele>897.4000000000001</ele><time>2026-04-30T11:00:34Z</time></trkpt><trkpt lat="42.09585742657" lon="-8.005625835803688"><ele>896.6</ele><time>2026-04-30T11:00:35Z</time></trkpt><trkpt lat="42.095890208959716" lon="-8.005751387646443"><ele>895.8</ele><time>2026-04-30T11:00:36Z</time></trkpt><trkpt lat="42.09590953063678" lon="-8.005874613277662"><ele>895.0</ele><time>2026-04-30T11:00:37Z</time></trkpt><trkpt lat="42.095954322843085" lon="-8.005977146458614"><ele>893.6</ele><time>2026-04-30T11:00:38Z</time></trkpt><trkpt lat="42.09597010019621" lon="-8.00608657509159"><ele>892.2</ele><time>2026-04-30T11:00:39Z</time></trkpt><trkpt lat="42.09596384913181" lon="-8.006224099493547"><ele>890.8</ele><time>2026-04-30T11:00:40Z</time></trkpt><trkpt lat="42.095945241854906" lon="-8.00637017034091"><ele>889.4</ele><time>2026-04-30T11:00:41Z</time></trkpt><trkpt lat="42.09594618200473" lon="-8.00648063686787"><ele>888.0</ele><time>2026-04-30T11:00:42Z</time></trkpt><trkpt lat="42.09601337330359" lon="-8.006611092102235"><ele>888.0</ele><time>2026-04-30T11:00:44Z</time></trkpt><trkpt lat="42.09606608295555" lon="-8.006659001149016"><ele>888.0</ele><time>2026-04-30T11:00:45Z</time></trkpt><trkpt lat="42.09616290198835" lon="-8.00672773903306"><ele>888.0</ele><time>2026-04-30T11:00:47Z</time></trkpt><trkpt lat="42.09623082741279" lon="-8.006757626059477"><ele>888.0</ele><time>2026-04-30T11:00:50Z</time></trkpt><trkpt lat="42.096293043283396" lon="-8.006743809007572"><ele>888.0</ele><time>2026-04-30T11:00:52Z</time></trkpt><trkpt lat="42.09628866076343" lon="-8.00663383488593"><ele>888.0</ele><time>2026-04-30T11:00:55Z</time></trkpt><trkpt lat="42.09621029681503" lon="-8.006611409435232"><ele>888.0</ele><time>2026-04-30T11:00:57Z</time></trkpt><trkpt lat="42.09612237294806" lon="-8.006632365673699"><ele>888.0</ele><time>2026-04-30T11:01:00Z</time></trkpt><trkpt lat="42.09603880668979" lon="-8.00662102685424"><ele>888.0</ele><time>2026-04-30T11:01:02Z</time></trkpt><trkpt lat="42.095951501887534" lon="-8.006488619253883"><ele>888.0</ele><time>2026-04-30T11:01:04Z</time></trkpt><trkpt lat="42.09593349889962" lon="-8.006397753082002"><ele>888.0</ele><time>2026-04-30T11:01:05Z</time></trkpt><trkpt lat="42.0959416369513" lon="-8.00627566127708"><ele>888.0</ele><time>2026-04-30T11:01:06Z</time></trkpt><trkpt lat="42.09595424811088" lon="-8.006146091324483"><ele>888.0</ele><time>2026-04-30T11:01:07Z</time></trkpt><trkpt lat="42.09596725908072" lon="-8.00597988849171"><ele>888.0</ele><time>2026-04-30T11:01:08Z</time></trkpt><trkpt lat="42.09595196261261" lon="-8.005870409767278"><ele>888.0</ele><time>2026-04-30T11:01:09Z</time></trkpt><trkpt lat="42.09590955034407" lon="-8.00577357576179"><ele>888.0</ele><time>2026-04-30T11:01:10Z</time></trkpt><trkpt lat="42.095867182709334" lon="-8.00566731343108"><ele>888.4</ele><time>2026-04-30T11:01:11Z</time></trkpt><trkpt lat="42.09583312344489" lon="-8.005521194208852"><ele>888.8</ele><time>2026-04-30T11:01:12Z</time></trkpt><trkpt lat="42.0957719102925" lon="-8.005356679940478"><ele>889.2</ele><time>2026-04-30T11:01:13Z</time></trkpt><trkpt lat="42.095750302768586" lon="-8.005268081173066"><ele>889.6</ele><time>2026-04-30T11:01:14Z</time></trkpt><trkpt lat="42.09578384233381" lon="-8.005171013025194"><ele>890.0</ele><time>2026-04-30T11:01:17Z</time></trkpt><trkpt lat="42.09573632244956" lon="-8.005055971489012"><ele>891.5000000000001</ele><time>2026-04-30T11:01:19Z</time></trkpt><trkpt lat="42.09565209419344" lon="-8.004982384252816"><ele>893.0</ele><time>2026-04-30T11:01:20Z</time></trkpt><trkpt lat="42.095556824498985" lon="-8.004965597459137"><ele>894.5</ele><time>2026-04-30T11:01:21Z</time></trkpt><trkpt lat="42.0954813630427" lon="-8.004940388599628"><ele>896.0</ele><time>2026-04-30T11:01:22Z</time></trkpt><trkpt lat="42.09541191940344" lon="-8.004896020412799"><ele>897.5000000000001</ele><time>2026-04-30T11:01:23Z</time></trkpt><trkpt lat="42.095349281876054" lon="-8.00482126609889"><ele>899.0</ele><time>2026-04-30T11:01:24Z</time></trkpt><trkpt lat="42.09529457804654" lon="-8.004715940466374"><ele>899.0</ele><time>2026-04-30T11:01:26Z</time></trkpt><trkpt lat="42.09533145012951" lon="-8.00463371031037"><ele>899.0000000000001</ele><time>2026-04-30T11:01:28Z</time></trkpt><trkpt lat="42.09546114088844" lon="-8.004537919978475"><ele>899.0000000000001</ele><time>2026-04-30T11:01:30Z</time></trkpt><trkpt lat="42.09554078247682" lon="-8.00446136023802"><ele>899.0</ele><time>2026-04-30T11:01:31Z</time></trkpt><trkpt lat="42.0956257766434" lon="-8.004374646050847"><ele>899.0</ele><time>2026-04-30T11:01:32Z</time></trkpt><trkpt lat="42.09570069413874" lon="-8.004290880097699"><ele>898.8000000000001</ele><time>2026-04-30T11:01:33Z</time></trkpt><trkpt lat="42.09576506293725" lon="-8.004185168826785"><ele>898.6000000000001</ele><time>2026-04-30T11:01:34Z</time></trkpt><trkpt lat="42.095800004240424" lon="-8.004030537400412"><ele>898.4</ele><time>2026-04-30T11:01:35Z</time></trkpt><trkpt lat="42.09582891482337" lon="-8.003913280994139"><ele>898.2</ele><time>2026-04-30T11:01:36Z</time></trkpt><trkpt lat="42.09589042839508" lon="-8.003868426213593"><ele>898.0</ele><time>2026-04-30T11:01:38Z</time></trkpt><trkpt lat="42.095963292639624" lon="-8.003877084423493"><ele>898.4</ele><time>2026-04-30T11:01:41Z</time></trkpt><trkpt lat="42.09602277254979" lon="-8.003918221080792"><ele>898.8</ele><time>2026-04-30T11:01:45Z</time></trkpt><trkpt lat="42.09612499530277" lon="-8.003991796164366"><ele>899.2</ele><time>2026-04-30T11:03:47Z</time></trkpt><trkpt lat="42.09621024151362" lon="-8.004030149277526"><ele>899.6</ele><time>2026-04-30T11:03:48Z</time></trkpt><trkpt lat="42.096315369840404" lon="-8.004045127398427"><ele>900.0</ele><time>2026-04-30T11:03:49Z</time></trkpt><trkpt lat="42.09643025222974" lon="-8.004021883041947"><ele>900.0</ele><time>2026-04-30T11:03:50Z</time></trkpt><trkpt lat="42.09653014476511" lon="-8.003984189358578"><ele>900.0</ele><time>2026-04-30T11:03:51Z</time></trkpt><trkpt lat="42.09663205947358" lon="-8.003924153848264"><ele>900.0</ele><time>2026-04-30T11:03:52Z</time></trkpt><trkpt lat="42.096755953857986" lon="-8.003845577237398"><ele>900.0</ele><time>2026-04-30T11:03:53Z</time></trkpt><trkpt lat="42.096858377574094" lon="-8.003747320129989"><ele>898.75</ele><time>2026-04-30T11:03:54Z</time></trkpt><trkpt lat="42.09696288128566" lon="-8.003617511972768"><ele>897.5</ele><time>2026-04-30T11:03:55Z</time></trkpt><trkpt lat="42.09708702888569" lon="-8.003470997460216"><ele>896.25</ele><time>2026-04-30T11:03:56Z</time></trkpt><trkpt lat="42.097190097276005" lon="-8.003389012227968"><ele>895.0</ele><time>2026-04-30T11:03:57Z</time></trkpt><trkpt lat="42.097267427980896" lon="-8.00333475290273"><ele>895.1666666666666</ele><time>2026-04-30T11:03:58Z</time></trkpt><trkpt lat="42.09733652182274" lon="-8.003256661564953"><ele>895.3333333333333</ele><time>2026-04-30T11:03:59Z</time></trkpt><trkpt lat="42.09739051037613" lon="-8.003155455946358"><ele>895.5</ele><time>2026-04-30T11:04:00Z</time></trkpt><trkpt lat="42.09741354345692" lon="-8.003051802949267"><ele>895.6666666666667</ele><time>2026-04-30T11:04:01Z</time></trkpt><trkpt lat="42.09742910640261" lon="-8.00294669537279"><ele>895.8333333333334</ele><time>2026-04-30T11:04:02Z</time></trkpt><trkpt lat="42.09744731361255" lon="-8.00282900990943"><ele>896.0</ele><time>2026-04-30T11:04:03Z</time></trkpt><trkpt lat="42.09747190663364" lon="-8.00269250281958"><ele>895.4</ele><time>2026-04-30T11:04:04Z</time></trkpt><trkpt lat="42.09748552562111" lon="-8.002548112104284"><ele>894.8</ele><time>2026-04-30T11:04:05Z</time></trkpt><trkpt lat="42.097476052794676" lon="-8.00243875746503"><ele>894.1999999999999</ele><time>2026-04-30T11:04:06Z</time></trkpt><trkpt lat="42.09747210701084" lon="-8.002277008208665"><ele>893.5999999999999</ele><time>2026-04-30T11:04:07Z</time></trkpt><trkpt lat="42.097491860664405" lon="-8.002119991477665"><ele>893.0</ele><time>2026-04-30T11:04:08Z</time></trkpt><trkpt lat="42.09750123241155" lon="-8.001970463451235"><ele>891.8333333333334</ele><time>2026-04-30T11:04:09Z</time></trkpt><trkpt lat="42.097513559094004" lon="-8.001857481526987"><ele>890.6666666666667</ele><time>2026-04-30T11:04:10Z</time></trkpt><trkpt lat="42.097526912309675" lon="-8.001763566553898"><ele>889.5</ele><time>2026-04-30T11:04:11Z</time></trkpt><trkpt lat="42.097536612712716" lon="-8.001652031485493"><ele>888.3333333333333</ele><time>2026-04-30T11:04:12Z</time></trkpt><trkpt lat="42.09755641892025" lon="-8.001530148524562"><ele>887.1666666666666</ele><time>2026-04-30T11:04:13Z</time></trkpt><trkpt lat="42.097596604862034" lon="-8.001403752542977"><ele>886.0</ele><time>2026-04-30T11:04:14Z</time></trkpt><trkpt lat="42.09761721512412" lon="-8.001292506764736"><ele>885.4</ele><time>2026-04-30T11:04:15Z</time></trkpt><trkpt lat="42.097623650333986" lon="-8.001182980557184"><ele>884.8</ele><time>2026-04-30T11:04:16Z</time></trkpt><trkpt lat="42.09766438772313" lon="-8.001034235022656"><ele>884.1999999999999</ele><time>2026-04-30T11:04:18Z</time></trkpt><trkpt lat="42.09773456046265" lon="-8.000930151817098"><ele>883.5999999999999</ele><time>2026-04-30T11:04:20Z</time></trkpt><trkpt lat="42.097828960675734" lon="-8.000888382065444"><ele>883.0</ele><time>2026-04-30T11:04:22Z</time></trkpt><trkpt lat="42.09796883579903" lon="-8.00081511693805"><ele>884.75</ele><time>2026-04-30T11:04:24Z</time></trkpt><trkpt lat="42.098147653174934" lon="-8.000792107809078"><ele>886.5</ele><time>2026-04-30T11:04:32Z</time></trkpt><trkpt lat="42.09823687220702" lon="-8.000769177031131"><ele>888.25</ele><time>2026-04-30T11:04:34Z</time></trkpt><trkpt lat="42.09835794774894" lon="-8.000763698710726"><ele>890.0</ele><time>2026-04-30T11:04:38Z</time></trkpt><trkpt lat="42.098424236343845" lon="-8.000731337872136"><ele>890.0000000000001</ele><time>2026-04-30T11:04:40Z</time></trkpt><trkpt lat="42.09850134299328" lon="-8.000693316870983"><ele>890.0</ele><time>2026-04-30T11:04:42Z</time></trkpt><trkpt lat="42.09857935821232" lon="-8.000672866530415"><ele>890.0</ele><time>2026-04-30T11:04:45Z</time></trkpt><trkpt lat="42.09865418120616" lon="-8.000660801050005"><ele>890.0</ele><time>2026-04-30T11:04:47Z</time></trkpt><trkpt lat="42.0987271223334" lon="-8.000643253077708"><ele>890.0000000000001</ele><time>2026-04-30T11:04:50Z</time></trkpt><trkpt lat="42.09880845789623" lon="-8.000646360549968"><ele>890.0</ele><time>2026-04-30T11:04:53Z</time></trkpt><trkpt lat="42.09891873426203" lon="-8.000641059296663"><ele>890.0</ele><time>2026-04-30T11:04:56Z</time></trkpt><trkpt lat="42.09902424080657" lon="-8.000639997942613"><ele>890.0</ele><time>2026-04-30T11:04:58Z</time></trkpt><trkpt lat="42.09909443646072" lon="-8.000623707342998"><ele>890.0</ele><time>2026-04-30T11:04:59Z</time></trkpt><trkpt lat="42.0991975721122" lon="-8.000599004715582"><ele>890.0</ele><time>2026-04-30T11:05:01Z</time></trkpt><trkpt lat="42.09928367147777" lon="-8.000597153838575"><ele>890.0</ele><time>2026-04-30T11:05:03Z</time></trkpt><trkpt lat="42.09938051916508" lon="-8.000594453018701"><ele>888.8</ele><time>2026-04-30T11:05:04Z</time></trkpt><trkpt lat="42.09949442097478" lon="-8.000605844546078"><ele>887.6</ele><time>2026-04-30T11:05:05Z</time></trkpt><trkpt lat="42.09958138942167" lon="-8.000613956253405"><ele>886.4000000000001</ele><time>2026-04-30T11:05:06Z</time></trkpt><trkpt lat="42.09965937581847" lon="-8.00067404204561"><ele>885.2</ele><time>2026-04-30T11:05:07Z</time></trkpt><trkpt lat="42.09976206714449" lon="-8.000729334971524"><ele>884.0</ele><time>2026-04-30T11:05:08Z</time></trkpt><trkpt lat="42.09986119336994" lon="-8.000739836760694"><ele>881.6666666666667</ele><time>2026-04-30T11:05:09Z</time></trkpt><trkpt lat="42.09994701956492" lon="-8.000752694620799"><ele>879.3333333333334</ele><time>2026-04-30T11:05:10Z</time></trkpt><trkpt lat="42.100043559170295" lon="-8.000752468263485"><ele>877.0</ele><time>2026-04-30T11:05:11Z</time></trkpt><trkpt lat="42.10011896322867" lon="-8.000750044700208"><ele>874.6666666666667</ele><time>2026-04-30T11:05:12Z</time></trkpt><trkpt lat="42.10020217136799" lon="-8.000714415198695"><ele>872.3333333333334</ele><time>2026-04-30T11:05:13Z</time></trkpt><trkpt lat="42.10027778622386" lon="-8.000663710978372"><ele>870.0</ele><time>2026-04-30T11:05:14Z</time></trkpt><trkpt lat="42.10034320495869" lon="-8.000637471338228"><ele>870.0</ele><time>2026-04-30T11:05:15Z</time></trkpt><trkpt lat="42.10041709664467" lon="-8.000614305550485"><ele>870.0</ele><time>2026-04-30T11:05:16Z</time></trkpt><trkpt lat="42.10048204205229" lon="-8.000507749452963"><ele>870.0</ele><time>2026-04-30T11:05:18Z</time></trkpt><trkpt lat="42.100539579118426" lon="-8.000465709834574"><ele>870.0</ele><time>2026-04-30T11:05:20Z</time></trkpt><trkpt lat="42.100545701699865" lon="-8.000371975507745"><ele>870.0</ele><time>2026-04-30T11:05:23Z</time></trkpt><trkpt lat="42.10050471792883" lon="-8.000302891509504"><ele>870.0</ele><time>2026-04-30T11:05:26Z</time></trkpt><trkpt lat="42.10051999521622" lon="-8.000139941307362"><ele>870.0</ele><time>2026-04-30T11:05:28Z</time></trkpt><trkpt lat="42.10053468993667" lon="-8.000004984741356"><ele>870.0</ele><time>2026-04-30T11:05:29Z</time></trkpt><trkpt lat="42.10060170138187" lon="-7.999858384951949"><ele>870.0</ele><time>2026-04-30T11:05:30Z</time></trkpt><trkpt lat="42.10062156915334" lon="-7.9997510956841795"><ele>870.0</ele><time>2026-04-30T11:05:31Z</time></trkpt><trkpt lat="42.10066239241218" lon="-7.999658488649497"><ele>870.0</ele><time>2026-04-30T11:05:32Z</time></trkpt><trkpt lat="42.10073882954709" lon="-7.999566151621314"><ele>868.4</ele><time>2026-04-30T11:05:33Z</time></trkpt><trkpt lat="42.10080926619921" lon="-7.99949953437906"><ele>866.8</ele><time>2026-04-30T11:05:34Z</time></trkpt><trkpt lat="42.10085787448699" lon="-7.999406568534688"><ele>865.2</ele><time>2026-04-30T11:05:35Z</time></trkpt><trkpt lat="42.100911727496616" lon="-7.999310218598035"><ele>863.6</ele><time>2026-04-30T11:05:36Z</time></trkpt><trkpt lat="42.10099639662815" lon="-7.999170072749477"><ele>862.0</ele><time>2026-04-30T11:05:38Z</time></trkpt><trkpt lat="42.10104724265212" lon="-7.999103380245849"><ele>862.0</ele><time>2026-04-30T11:05:39Z</time></trkpt><trkpt lat="42.10099858387456" lon="-7.998916946697901"><ele>862.0</ele><time>2026-04-30T11:05:41Z</time></trkpt><trkpt lat="42.10105722082503" lon="-7.998754589560608"><ele>862.0</ele><time>2026-04-30T11:05:43Z</time></trkpt><trkpt lat="42.101096722340216" lon="-7.998633874786686"><ele>862.0</ele><time>2026-04-30T11:05:44Z</time></trkpt><trkpt lat="42.1011263013934" lon="-7.998486025916506"><ele>862.0</ele><time>2026-04-30T11:05:45Z</time></trkpt><trkpt lat="42.10112756409407" lon="-7.99838623563565"><ele>862.0</ele><time>2026-04-30T11:05:46Z</time></trkpt><trkpt lat="42.101135154526105" lon="-7.9982222084376815"><ele>862.0</ele><time>2026-04-30T11:05:48Z</time></trkpt><trkpt lat="42.101081070733855" lon="-7.998491857119107"><ele>862.0</ele><time>2026-04-30T11:05:49Z</time></trkpt><trkpt lat="42.101116395548296" lon="-7.998368356635838"><ele>865.5</ele><time>2026-04-30T11:05:51Z</time></trkpt><trkpt lat="42.10130162985784" lon="-7.997895315367277"><ele>869.0</ele><time>2026-04-30T11:05:52Z</time></trkpt><trkpt lat="42.101331186240586" lon="-7.997801154354307"><ele>869.0</ele><time>2026-04-30T11:05:53Z</time></trkpt><trkpt lat="42.101326806027174" lon="-7.997638844068595"><ele>869.0000000000001</ele><time>2026-04-30T11:05:55Z</time></trkpt><trkpt lat="42.101329837484904" lon="-7.997477816429495"><ele>869.0000000000001</ele><time>2026-04-30T11:05:57Z</time></trkpt><trkpt lat="42.10131023329529" lon="-7.997332675251498"><ele>869.0</ele><time>2026-04-30T11:05:59Z</time></trkpt><trkpt lat="42.101280540148316" lon="-7.997248870981169"><ele>869.0</ele><time>2026-04-30T11:06:00Z</time></trkpt><trkpt lat="42.10122829092312" lon="-7.9971362467673455"><ele>870.25</ele><time>2026-04-30T11:06:01Z</time></trkpt><trkpt lat="42.1010671937719" lon="-7.996975175263449"><ele>871.5</ele><time>2026-04-30T11:06:02Z</time></trkpt><trkpt lat="42.10098038780109" lon="-7.996888531843738"><ele>872.75</ele><time>2026-04-30T11:06:03Z</time></trkpt><trkpt lat="42.10092671114265" lon="-7.996817477282356"><ele>874.0</ele><time>2026-04-30T11:06:04Z</time></trkpt><trkpt lat="42.10084926705119" lon="-7.996718960493448"><ele>874.0</ele><time>2026-04-30T11:06:06Z</time></trkpt><trkpt lat="42.100817205228104" lon="-7.996601625142453"><ele>874.0</ele><time>2026-04-30T11:06:08Z</time></trkpt><trkpt lat="42.101070334171574" lon="-7.996325316060697"><ele>874.0</ele><time>2026-04-30T11:06:09Z</time></trkpt><trkpt lat="42.101113046796115" lon="-7.996140774454133"><ele>873.9999999999999</ele><time>2026-04-30T11:06:10Z</time></trkpt><trkpt lat="42.101138556986456" lon="-7.996054945472304"><ele>874.0</ele><time>2026-04-30T11:06:11Z</time></trkpt><trkpt lat="42.10114699958653" lon="-7.995874587506432"><ele>874.0</ele><time>2026-04-30T11:06:13Z</time></trkpt><trkpt lat="42.101134273287464" lon="-7.9957854846455945"><ele>874.0</ele><time>2026-04-30T11:06:14Z</time></trkpt><trkpt lat="42.1011585803355" lon="-7.995673018295617"><ele>873.9999999999999</ele><time>2026-04-30T11:06:15Z</time></trkpt><trkpt lat="42.10114751196763" lon="-7.995582655022041"><ele>874.0</ele><time>2026-04-30T11:06:16Z</time></trkpt><trkpt lat="42.10122026748348" lon="-7.995491600572449"><ele>875.0</ele><time>2026-04-30T11:06:18Z</time></trkpt><trkpt lat="42.101305966518815" lon="-7.995526500579784"><ele>876.0</ele><time>2026-04-30T11:06:20Z</time></trkpt><trkpt lat="42.10147127023242" lon="-7.995597818328555"><ele>877.0</ele><time>2026-04-30T11:06:22Z</time></trkpt><trkpt lat="42.10158173124861" lon="-7.995712942969773"><ele>878.0</ele><time>2026-04-30T11:06:23Z</time></trkpt><trkpt lat="42.10168009574064" lon="-7.995850978260685"><ele>874.0</ele><time>2026-04-30T11:06:24Z</time></trkpt><trkpt lat="42.10180836651136" lon="-7.995909773616624"><ele>870.0</ele><time>2026-04-30T11:06:25Z</time></trkpt><trkpt lat="42.101904655961796" lon="-7.995952307687584"><ele>866.0</ele><time>2026-04-30T11:06:26Z</time></trkpt><trkpt lat="42.10198792769909" lon="-7.995973509531572"><ele>862.0</ele><time>2026-04-30T11:06:27Z</time></trkpt><trkpt lat="42.1020718601084" lon="-7.995965529623113"><ele>858.0</ele><time>2026-04-30T11:06:29Z</time></trkpt><trkpt lat="42.102241071429106" lon="-7.995972544210285"><ele>858.0</ele><time>2026-04-30T11:06:31Z</time></trkpt><trkpt lat="42.10231674263376" lon="-7.99593118338277"><ele>858.0</ele><time>2026-04-30T11:06:32Z</time></trkpt><trkpt lat="42.10243647541073" lon="-7.995866578218595"><ele>858.0</ele><time>2026-04-30T11:06:33Z</time></trkpt><trkpt lat="42.10262435041868" lon="-7.995738043954015"><ele>858.0</ele><time>2026-04-30T11:06:34Z</time></trkpt><trkpt lat="42.1027579504005" lon="-7.995651669451646"><ele>860.0</ele><time>2026-04-30T11:06:35Z</time></trkpt><trkpt lat="42.10288105709086" lon="-7.995597617834462"><ele>862.0</ele><time>2026-04-30T11:06:36Z</time></trkpt><trkpt lat="42.102911961298105" lon="-7.99552331347934"><ele>864.0</ele><time>2026-04-30T11:06:37Z</time></trkpt><trkpt lat="42.10297517959751" lon="-7.995496015928024"><ele>866.0</ele><time>2026-04-30T11:06:38Z</time></trkpt><trkpt lat="42.10307835560391" lon="-7.99549008651664"><ele>868.0</ele><time>2026-04-30T11:06:39Z</time></trkpt><trkpt lat="42.10319861994085" lon="-7.995525679473308"><ele>866.8</ele><time>2026-04-30T11:06:40Z</time></trkpt><trkpt lat="42.10326607857339" lon="-7.995550207070262"><ele>865.5999999999999</ele><time>2026-04-30T11:06:41Z</time></trkpt><trkpt lat="42.103333244637284" lon="-7.995606333254853"><ele>864.4000000000001</ele><time>2026-04-30T11:06:42Z</time></trkpt><trkpt lat="42.10348559843121" lon="-7.995696042997418"><ele>863.2</ele><time>2026-04-30T11:06:43Z</time></trkpt><trkpt lat="42.10359832113201" lon="-7.995792807876696"><ele>862.0</ele><time>2026-04-30T11:06:44Z</time></trkpt><trkpt lat="42.10364815976967" lon="-7.995845508905516"><ele>862.0</ele><time>2026-04-30T11:06:45Z</time></trkpt><trkpt lat="42.10385024646803" lon="-7.995732898902496"><ele>862.0</ele><time>2026-04-30T11:06:48Z</time></trkpt><trkpt lat="42.10397124054994" lon="-7.995635746380646"><ele>862.0</ele><time>2026-04-30T11:06:49Z</time></trkpt><trkpt lat="42.10410603612644" lon="-7.995520493360949"><ele>862.75</ele><time>2026-04-30T11:06:50Z</time></trkpt><trkpt lat="42.104194015453615" lon="-7.995415688188707"><ele>863.5</ele><time>2026-04-30T11:06:51Z</time></trkpt><trkpt lat="42.104250222626796" lon="-7.995233574137072"><ele>864.25</ele><time>2026-04-30T11:06:53Z</time></trkpt><trkpt lat="42.10428160008505" lon="-7.9951160602941815"><ele>865.0</ele><time>2026-04-30T11:06:54Z</time></trkpt><trkpt lat="42.10430055915618" lon="-7.994973800048121"><ele>865.0</ele><time>2026-04-30T11:06:55Z</time></trkpt><trkpt lat="42.10435789366196" lon="-7.994860015184029"><ele>865.0</ele><time>2026-04-30T11:06:56Z</time></trkpt><trkpt lat="42.10446482100906" lon="-7.994729164540759"><ele>865.0</ele><time>2026-04-30T11:06:57Z</time></trkpt><trkpt lat="42.104537609445956" lon="-7.9946335336883285"><ele>865.0</ele><time>2026-04-30T11:06:58Z</time></trkpt><trkpt lat="42.10463205656744" lon="-7.994544288980883"><ele>865.0</ele><time>2026-04-30T11:07:00Z</time></trkpt><trkpt lat="42.10473393547262" lon="-7.994557644452143"><ele>865.0</ele><time>2026-04-30T11:07:01Z</time></trkpt><trkpt lat="42.10485726191157" lon="-7.994580101797348"><ele>865.0</ele><time>2026-04-30T11:07:02Z</time></trkpt><trkpt lat="42.104981217962035" lon="-7.9945776006368705"><ele>865.0</ele><time>2026-04-30T11:07:03Z</time></trkpt><trkpt lat="42.10508530353831" lon="-7.994537377296195"><ele>863.0</ele><time>2026-04-30T11:07:04Z</time></trkpt><trkpt lat="42.105177941419555" lon="-7.994462802862683"><ele>861.0</ele><time>2026-04-30T11:07:05Z</time></trkpt><trkpt lat="42.10528434795114" lon="-7.994367762010926"><ele>859.0</ele><time>2026-04-30T11:07:06Z</time></trkpt><trkpt lat="42.105370113730274" lon="-7.994271873785753"><ele>857.0</ele><time>2026-04-30T11:07:07Z</time></trkpt><trkpt lat="42.10544334298615" lon="-7.994201536766621"><ele>855.0</ele><time>2026-04-30T11:07:08Z</time></trkpt><trkpt lat="42.10549579757588" lon="-7.994118912479209"><ele>855.0</ele><time>2026-04-30T11:07:10Z</time></trkpt><trkpt lat="42.10550112468346" lon="-7.994027758397991"><ele>855.0</ele><time>2026-04-30T11:07:12Z</time></trkpt><trkpt lat="42.10549718567468" lon="-7.993942279211792"><ele>855.0</ele><time>2026-04-30T11:07:15Z</time></trkpt><trkpt lat="42.1054376337483" lon="-7.993897954326582"><ele>855.0</ele><time>2026-04-30T11:07:17Z</time></trkpt><trkpt lat="42.10538482007955" lon="-7.993832455719037"><ele>855.0</ele><time>2026-04-30T11:07:18Z</time></trkpt><trkpt lat="42.10530384630175" lon="-7.993682444303749"><ele>855.0</ele><time>2026-04-30T11:07:21Z</time></trkpt><trkpt lat="42.10530045205656" lon="-7.993593964636181"><ele>855.0</ele><time>2026-04-30T11:07:22Z</time></trkpt><trkpt lat="42.10526692768238" lon="-7.9935137479972855"><ele>855.0</ele><time>2026-04-30T11:07:24Z</time></trkpt><trkpt lat="42.105262522018464" lon="-7.993426440875449"><ele>855.0</ele><time>2026-04-30T11:07:25Z</time></trkpt><trkpt lat="42.1052499475794" lon="-7.9932993531296"><ele>855.0</ele><time>2026-04-30T11:07:26Z</time></trkpt><trkpt lat="42.10524187716124" lon="-7.993202309111516"><ele>855.0</ele><time>2026-04-30T11:07:27Z</time></trkpt><trkpt lat="42.10520695616897" lon="-7.99309693895982"><ele>855.0</ele><time>2026-04-30T11:07:29Z</time></trkpt><trkpt lat="42.10518470642633" lon="-7.993014193351363"><ele>856.0</ele><time>2026-04-30T11:07:30Z</time></trkpt><trkpt lat="42.10514737141379" lon="-7.992839457502703"><ele>857.0</ele><time>2026-04-30T11:07:32Z</time></trkpt><trkpt lat="42.10515726148314" lon="-7.992718372085453"><ele>858.0</ele><time>2026-04-30T11:07:33Z</time></trkpt><trkpt lat="42.10516317680003" lon="-7.992578632271762"><ele>859.0</ele><time>2026-04-30T11:07:34Z</time></trkpt><trkpt lat="42.10515914605479" lon="-7.99245567017557"><ele>860.0</ele><time>2026-04-30T11:07:35Z</time></trkpt><trkpt lat="42.105159592963204" lon="-7.99231971502499"><ele>861.8</ele><time>2026-04-30T11:07:36Z</time></trkpt><trkpt lat="42.10517424879087" lon="-7.9921800103812775"><ele>863.6</ele><time>2026-04-30T11:07:38Z</time></trkpt><trkpt lat="42.10523013148252" lon="-7.991991299907401"><ele>865.4000000000001</ele><time>2026-04-30T11:07:40Z</time></trkpt><trkpt lat="42.10524402299897" lon="-7.991868492489631"><ele>867.2</ele><time>2026-04-30T11:07:41Z</time></trkpt><trkpt lat="42.105264866210845" lon="-7.991762578132332"><ele>869.0</ele><time>2026-04-30T11:07:42Z</time></trkpt><trkpt lat="42.105288808495494" lon="-7.991645991116682"><ele>871.4000000000001</ele><time>2026-04-30T11:07:43Z</time></trkpt><trkpt lat="42.10530256130067" lon="-7.991505791035342"><ele>873.8000000000001</ele><time>2026-04-30T11:07:44Z</time></trkpt><trkpt lat="42.105310417391145" lon="-7.991368561631731"><ele>876.1999999999999</ele><time>2026-04-30T11:07:45Z</time></trkpt><trkpt lat="42.105329269182384" lon="-7.991191664645207"><ele>878.5999999999999</ele><time>2026-04-30T11:07:47Z</time></trkpt><trkpt lat="42.105299696496395" lon="-7.991079936892043"><ele>881.0</ele><time>2026-04-30T11:07:48Z</time></trkpt><trkpt lat="42.10528495680935" lon="-7.990888587365485"><ele>883.6666666666667</ele><time>2026-04-30T11:07:49Z</time></trkpt><trkpt lat="42.105263152708076" lon="-7.9907001917530875"><ele>886.3333333333333</ele><time>2026-04-30T11:07:50Z</time></trkpt><trkpt lat="42.10520482370542" lon="-7.990456847093051"><ele>889.0</ele><time>2026-04-30T11:07:51Z</time></trkpt><trkpt lat="42.105162631390556" lon="-7.990242164168847"><ele>889.0</ele><time>2026-04-30T11:07:52Z</time></trkpt><trkpt lat="42.10511989708675" lon="-7.990063055853809"><ele>889.0</ele><time>2026-04-30T11:07:53Z</time></trkpt><trkpt lat="42.10508557773407" lon="-7.989864137688594"><ele>889.0</ele><time>2026-04-30T11:07:54Z</time></trkpt><trkpt lat="42.10505957503835" lon="-7.989647419596585"><ele>889.9999999999999</ele><time>2026-04-30T11:07:55Z</time></trkpt><trkpt lat="42.10503554628205" lon="-7.989442950048442"><ele>891.0</ele><time>2026-04-30T11:07:56Z</time></trkpt><trkpt lat="42.1050165786842" lon="-7.989326021552933"><ele>892.0</ele><time>2026-04-30T11:07:57Z</time></trkpt><trkpt lat="42.10498173519399" lon="-7.989237873507261"><ele>893.0</ele><time>2026-04-30T11:07:58Z</time></trkpt><trkpt lat="42.10496304794916" lon="-7.989154342909296"><ele>893.9999999999999</ele><time>2026-04-30T11:07:59Z</time></trkpt><trkpt lat="42.10498910465639" lon="-7.989074131678595"><ele>895.0</ele><time>2026-04-30T11:08:00Z</time></trkpt><trkpt lat="42.10503867514821" lon="-7.988975598175923"><ele>895.75</ele><time>2026-04-30T11:08:01Z</time></trkpt><trkpt lat="42.10506622268861" lon="-7.988838175935708"><ele>896.5</ele><time>2026-04-30T11:08:02Z</time></trkpt><trkpt lat="42.105069635159616" lon="-7.988684542389788"><ele>897.25</ele><time>2026-04-30T11:08:03Z</time></trkpt><trkpt lat="42.10505507466876" lon="-7.988513296605245"><ele>898.0</ele><time>2026-04-30T11:08:04Z</time></trkpt><trkpt lat="42.10503675320275" lon="-7.988321794835473"><ele>899.2</ele><time>2026-04-30T11:08:05Z</time></trkpt><trkpt lat="42.10501923051095" lon="-7.988149272425672"><ele>900.4</ele><time>2026-04-30T11:08:06Z</time></trkpt><trkpt lat="42.10499885208447" lon="-7.988023985543497"><ele>901.6000000000001</ele><time>2026-04-30T11:08:07Z</time></trkpt><trkpt lat="42.104967031949016" lon="-7.987915284666995"><ele>902.8000000000001</ele><time>2026-04-30T11:08:08Z</time></trkpt><trkpt lat="42.10489691878855" lon="-7.987761306829911"><ele>904.0</ele><time>2026-04-30T11:08:09Z</time></trkpt><trkpt lat="42.104812642248966" lon="-7.987609204917598"><ele>907.0</ele><time>2026-04-30T11:08:10Z</time></trkpt><trkpt lat="42.10472079081598" lon="-7.987450457652076"><ele>910.0</ele><time>2026-04-30T11:08:11Z</time></trkpt><trkpt lat="42.104592721238674" lon="-7.987283427205797"><ele>913.0</ele><time>2026-04-30T11:08:12Z</time></trkpt><trkpt lat="42.104510144272034" lon="-7.987155049714536"><ele>913.0</ele><time>2026-04-30T11:08:13Z</time></trkpt><trkpt lat="42.10444425503205" lon="-7.987032299128981"><ele>913.0</ele><time>2026-04-30T11:08:14Z</time></trkpt><trkpt lat="42.10439552554071" lon="-7.9868953170974475"><ele>913.0</ele><time>2026-04-30T11:08:15Z</time></trkpt><trkpt lat="42.10437028992223" lon="-7.986754224586343"><ele>913.0</ele><time>2026-04-30T11:08:16Z</time></trkpt><trkpt lat="42.104356973579286" lon="-7.986636419653635"><ele>913.0</ele><time>2026-04-30T11:08:17Z</time></trkpt><trkpt lat="42.10436655122217" lon="-7.986511018366907"><ele>913.2</ele><time>2026-04-30T11:08:18Z</time></trkpt><trkpt lat="42.104398051817746" lon="-7.986409875610884"><ele>913.4</ele><time>2026-04-30T11:08:19Z</time></trkpt><trkpt lat="42.10431295759282" lon="-7.986303766056318"><ele>913.6000000000001</ele><time>2026-04-30T11:08:21Z</time></trkpt><trkpt lat="42.10421866458611" lon="-7.986261823558798"><ele>913.8000000000001</ele><time>2026-04-30T11:08:22Z</time></trkpt><trkpt lat="42.1040984800914" lon="-7.986207698165339"><ele>914.0</ele><time>2026-04-30T11:08:23Z</time></trkpt><trkpt lat="42.10398849935256" lon="-7.986110259969425"><ele>917.0</ele><time>2026-04-30T11:08:24Z</time></trkpt><trkpt lat="42.10391883459955" lon="-7.985955444990019"><ele>920.0</ele><time>2026-04-30T11:08:25Z</time></trkpt><trkpt lat="42.10383808332721" lon="-7.985787392706883"><ele>923.0</ele><time>2026-04-30T11:08:26Z</time></trkpt><trkpt lat="42.10378097226662" lon="-7.985661880573229"><ele>926.0</ele><time>2026-04-30T11:08:27Z</time></trkpt><trkpt lat="42.10372233281761" lon="-7.985526791993198"><ele>926.0</ele><time>2026-04-30T11:08:29Z</time></trkpt><trkpt lat="42.10378990919096" lon="-7.985357094813942"><ele>926.0</ele><time>2026-04-30T11:08:31Z</time></trkpt><trkpt lat="42.103847147812864" lon="-7.985174320138859"><ele>926.0</ele><time>2026-04-30T11:08:32Z</time></trkpt><trkpt lat="42.10386986717445" lon="-7.98497162315319"><ele>926.0</ele><time>2026-04-30T11:08:33Z</time></trkpt><trkpt lat="42.103875784532484" lon="-7.9847420564399645"><ele>927.6666666666667</ele><time>2026-04-30T11:08:34Z</time></trkpt><trkpt lat="42.1038767414555" lon="-7.984482843384284"><ele>929.3333333333333</ele><time>2026-04-30T11:08:35Z</time></trkpt><trkpt lat="42.103881882136015" lon="-7.984268584656324"><ele>931.0</ele><time>2026-04-30T11:08:36Z</time></trkpt><trkpt lat="42.10389634687783" lon="-7.984087828134883"><ele>932.1666666666666</ele><time>2026-04-30T11:08:37Z</time></trkpt><trkpt lat="42.10392133085819" lon="-7.983992120302951"><ele>933.3333333333333</ele><time>2026-04-30T11:08:38Z</time></trkpt><trkpt lat="42.10401628427353" lon="-7.9839487542655405"><ele>934.5</ele><time>2026-04-30T11:08:40Z</time></trkpt><trkpt lat="42.10407629172386" lon="-7.983915304646378"><ele>935.6666666666667</ele><time>2026-04-30T11:08:41Z</time></trkpt><trkpt lat="42.10416142006797" lon="-7.98388552160704"><ele>936.8333333333334</ele><time>2026-04-30T11:08:42Z</time></trkpt><trkpt lat="42.10427295485714" lon="-7.983832200662753"><ele>938.0</ele><time>2026-04-30T11:08:43Z</time></trkpt><trkpt lat="42.10438579129339" lon="-7.9837627261408395"><ele>938.0</ele><time>2026-04-30T11:08:44Z</time></trkpt><trkpt lat="42.10451024549569" lon="-7.9836957031940265"><ele>938.0</ele><time>2026-04-30T11:08:45Z</time></trkpt><trkpt lat="42.104642666218666" lon="-7.983620837772583"><ele>938.0</ele><time>2026-04-30T11:08:46Z</time></trkpt><trkpt lat="42.104770155798725" lon="-7.983545740183092"><ele>938.0</ele><time>2026-04-30T11:08:47Z</time></trkpt><trkpt lat="42.10489808267983" lon="-7.983474097957504"><ele>938.25</ele><time>2026-04-30T11:08:48Z</time></trkpt><trkpt lat="42.10503185856081" lon="-7.983404310971275"><ele>938.5</ele><time>2026-04-30T11:08:49Z</time></trkpt><trkpt lat="42.105168728744026" lon="-7.983337237853997"><ele>938.75</ele><time>2026-04-30T11:08:50Z</time></trkpt><trkpt lat="42.10531468150531" lon="-7.983270376879486"><ele>939.0</ele><time>2026-04-30T11:08:51Z</time></trkpt><trkpt lat="42.10545332622019" lon="-7.983195693570412"><ele>939.0</ele><time>2026-04-30T11:08:52Z</time></trkpt><trkpt lat="42.105597478466706" lon="-7.983124199493083"><ele>939.0</ele><time>2026-04-30T11:08:53Z</time></trkpt><trkpt lat="42.10573889148447" lon="-7.983042688508837"><ele>939.0</ele><time>2026-04-30T11:08:54Z</time></trkpt><trkpt lat="42.10589428176022" lon="-7.982960813167739"><ele>939.0</ele><time>2026-04-30T11:08:55Z</time></trkpt><trkpt lat="42.106045528565396" lon="-7.982879324806116"><ele>939.0</ele><time>2026-04-30T11:08:56Z</time></trkpt><trkpt lat="42.10618000094649" lon="-7.982830157697512"><ele>939.0</ele><time>2026-04-30T11:08:57Z</time></trkpt><trkpt lat="42.10633923169333" lon="-7.982758343564997"><ele>939.0</ele><time>2026-04-30T11:08:58Z</time></trkpt><trkpt lat="42.10646544781778" lon="-7.982684848242145"><ele>939.0</ele><time>2026-04-30T11:08:59Z</time></trkpt><trkpt lat="42.10658647395149" lon="-7.982612401468455"><ele>939.0</ele><time>2026-04-30T11:09:00Z</time></trkpt><trkpt lat="42.10671254277991" lon="-7.982539805782891"><ele>939.0</ele><time>2026-04-30T11:09:01Z</time></trkpt><trkpt lat="42.10683406017895" lon="-7.982455845022014"><ele>937.5</ele><time>2026-04-30T11:09:02Z</time></trkpt><trkpt lat="42.10695461336275" lon="-7.982374518139875"><ele>936.0</ele><time>2026-04-30T11:09:03Z</time></trkpt><trkpt lat="42.10708231064795" lon="-7.9823101956779725"><ele>934.5</ele><time>2026-04-30T11:09:04Z</time></trkpt><trkpt lat="42.10720419641667" lon="-7.982241386411569"><ele>933.0</ele><time>2026-04-30T11:09:05Z</time></trkpt><trkpt lat="42.10732823074482" lon="-7.9821641963831125"><ele>933.0</ele><time>2026-04-30T11:09:06Z</time></trkpt><trkpt lat="42.107447232040535" lon="-7.982093748069322"><ele>933.0</ele><time>2026-04-30T11:09:07Z</time></trkpt><trkpt lat="42.107524461957595" lon="-7.982045366062416"><ele>933.0</ele><time>2026-04-30T11:09:08Z</time></trkpt><trkpt lat="42.10759540033734" lon="-7.9820177926665234"><ele>933.0</ele><time>2026-04-30T11:09:09Z</time></trkpt><trkpt lat="42.10766671630897" lon="-7.9820109304543845"><ele>933.0</ele><time>2026-04-30T11:09:10Z</time></trkpt><trkpt lat="42.10775904630757" lon="-7.98203704250105"><ele>933.0</ele><time>2026-04-30T11:09:11Z</time></trkpt><trkpt lat="42.107866225147546" lon="-7.982014564567683"><ele>933.0</ele><time>2026-04-30T11:09:12Z</time></trkpt><trkpt lat="42.10799231967876" lon="-7.98196996925217"><ele>933.0</ele><time>2026-04-30T11:09:13Z</time></trkpt><trkpt lat="42.10816129350982" lon="-7.9818779320414786"><ele>933.0</ele><time>2026-04-30T11:09:14Z</time></trkpt><trkpt lat="42.10831043379064" lon="-7.981780722032799"><ele>930.75</ele><time>2026-04-30T11:09:15Z</time></trkpt><trkpt lat="42.10844209980005" lon="-7.981667605332441"><ele>928.5</ele><time>2026-04-30T11:09:16Z</time></trkpt><trkpt lat="42.10854443371222" lon="-7.98153773980783"><ele>926.25</ele><time>2026-04-30T11:09:17Z</time></trkpt><trkpt lat="42.10864693024371" lon="-7.981404568381415"><ele>924.0</ele><time>2026-04-30T11:09:18Z</time></trkpt><trkpt lat="42.1087396134295" lon="-7.981276627632588"><ele>924.0</ele><time>2026-04-30T11:09:19Z</time></trkpt><trkpt lat="42.10883114136403" lon="-7.98115055849484"><ele>924.0000000000001</ele><time>2026-04-30T11:09:20Z</time></trkpt><trkpt lat="42.10890847812102" lon="-7.981088109078931"><ele>924.0000000000001</ele><time>2026-04-30T11:09:21Z</time></trkpt><trkpt lat="42.10897379034775" lon="-7.981014690324633"><ele>924.0</ele><time>2026-04-30T11:09:23Z</time></trkpt><trkpt lat="42.108949509326095" lon="-7.98090770085313"><ele>924.0</ele><time>2026-04-30T11:09:25Z</time></trkpt><trkpt lat="42.10902581388882" lon="-7.980836697185481"><ele>922.4000000000001</ele><time>2026-04-30T11:09:27Z</time></trkpt><trkpt lat="42.109098208474656" lon="-7.98079343939876"><ele>920.8000000000001</ele><time>2026-04-30T11:09:28Z</time></trkpt><trkpt lat="42.10918513096854" lon="-7.980747650739917"><ele>919.1999999999999</ele><time>2026-04-30T11:09:29Z</time></trkpt><trkpt lat="42.109277199702845" lon="-7.980703531582342"><ele>917.5999999999999</ele><time>2026-04-30T11:09:30Z</time></trkpt><trkpt lat="42.10937068175456" lon="-7.980667058415649"><ele>916.0</ele><time>2026-04-30T11:09:31Z</time></trkpt><trkpt lat="42.109453641478794" lon="-7.9806450792905945"><ele>916.0</ele><time>2026-04-30T11:09:32Z</time></trkpt><trkpt lat="42.109539520635465" lon="-7.980622784196205"><ele>915.9999999999999</ele><time>2026-04-30T11:09:33Z</time></trkpt><trkpt lat="42.10962471250006" lon="-7.980587445620181"><ele>915.9999999999999</ele><time>2026-04-30T11:09:34Z</time></trkpt><trkpt lat="42.10970324292181" lon="-7.980564116326565"><ele>916.0</ele><time>2026-04-30T11:09:35Z</time></trkpt><trkpt lat="42.109809785175145" lon="-7.980541748643236"><ele>916.0</ele><time>2026-04-30T11:09:36Z</time></trkpt><trkpt lat="42.10991799598604" lon="-7.980508949179465"><ele>914.8333333333333</ele><time>2026-04-30T11:09:37Z</time></trkpt><trkpt lat="42.11002241294347" lon="-7.980481437527812"><ele>913.6666666666666</ele><time>2026-04-30T11:09:38Z</time></trkpt><trkpt lat="42.110086896394094" lon="-7.980459663701965"><ele>912.5</ele><time>2026-04-30T11:09:39Z</time></trkpt><trkpt lat="42.11014940251032" lon="-7.980444323926953"><ele>911.3333333333333</ele><time>2026-04-30T11:09:41Z</time></trkpt><trkpt lat="42.11019939231556" lon="-7.980371613689103"><ele>910.1666666666666</ele><time>2026-04-30T11:09:46Z</time></trkpt><trkpt lat="42.11025573429004" lon="-7.98027781162861"><ele>909.0</ele><time>2026-04-30T11:09:51Z</time></trkpt><trkpt lat="42.110269299710495" lon="-7.980189073457744"><ele>909.0</ele><time>2026-04-30T11:09:53Z</time></trkpt><trkpt lat="42.110299678243784" lon="-7.980088249364683"><ele>909.0</ele><time>2026-04-30T11:09:54Z</time></trkpt><trkpt lat="42.11033369947951" lon="-7.980009380632231"><ele>909.0</ele><time>2026-04-30T11:09:56Z</time></trkpt><trkpt lat="42.110651262825954" lon="-7.979730883814846"><ele>907.4000000000001</ele><time>2026-04-30T11:10:00Z</time></trkpt><trkpt lat="42.11065954482306" lon="-7.979597551993566"><ele>905.8000000000001</ele><time>2026-04-30T11:10:01Z</time></trkpt><trkpt lat="42.11069728941288" lon="-7.979491470703387"><ele>904.1999999999999</ele><time>2026-04-30T11:10:02Z</time></trkpt><trkpt lat="42.1107272566074" lon="-7.979386389422564"><ele>902.5999999999999</ele><time>2026-04-30T11:10:03Z</time></trkpt><trkpt lat="42.11075163247865" lon="-7.979240868243091"><ele>901.0</ele><time>2026-04-30T11:10:04Z</time></trkpt><trkpt lat="42.110787653064136" lon="-7.979110081070397"><ele>899.5</ele><time>2026-04-30T11:10:05Z</time></trkpt><trkpt lat="42.11084190540508" lon="-7.978992394928924"><ele>898.0</ele><time>2026-04-30T11:10:06Z</time></trkpt><trkpt lat="42.11095517386415" lon="-7.978914569169343"><ele>896.5</ele><time>2026-04-30T11:10:07Z</time></trkpt><trkpt lat="42.111074035369576" lon="-7.97883167787643"><ele>895.0</ele><time>2026-04-30T11:10:08Z</time></trkpt><trkpt lat="42.11118037007065" lon="-7.978699574450383"><ele>895.0</ele><time>2026-04-30T11:10:09Z</time></trkpt><trkpt lat="42.11125658838517" lon="-7.978573266632091"><ele>895.0</ele><time>2026-04-30T11:10:10Z</time></trkpt><trkpt lat="42.11131239784349" lon="-7.978389242320501"><ele>895.0</ele><time>2026-04-30T11:10:11Z</time></trkpt><trkpt lat="42.111357148809226" lon="-7.978262559568494"><ele>895.0</ele><time>2026-04-30T11:10:12Z</time></trkpt><trkpt lat="42.111399374041575" lon="-7.978138512508634"><ele>894.9999999999999</ele><time>2026-04-30T11:10:13Z</time></trkpt><trkpt lat="42.11145533417523" lon="-7.9779932872093875"><ele>895.0</ele><time>2026-04-30T11:10:15Z</time></trkpt><trkpt lat="42.111479619938706" lon="-7.9779143345980295"><ele>895.0</ele><time>2026-04-30T11:10:16Z</time></trkpt><trkpt lat="42.11146834527085" lon="-7.9778243408456255"><ele>895.0</ele><time>2026-04-30T11:10:17Z</time></trkpt><trkpt lat="42.1115019270449" lon="-7.977728466091733"><ele>894.9999999999999</ele><time>2026-04-30T11:10:19Z</time></trkpt><trkpt lat="42.111575513133126" lon="-7.977645078341299"><ele>895.0</ele><time>2026-04-30T11:10:21Z</time></trkpt><trkpt lat="42.11165008113783" lon="-7.9776475131952145"><ele>895.0</ele><time>2026-04-30T11:10:22Z</time></trkpt><trkpt lat="42.111763597900335" lon="-7.977712057700077"><ele>895.0</ele><time>2026-04-30T11:10:23Z</time></trkpt><trkpt lat="42.111887295107614" lon="-7.977754567452981"><ele>895.0</ele><time>2026-04-30T11:10:24Z</time></trkpt><trkpt lat="42.11200937990027" lon="-7.977782586807528"><ele>895.0</ele><time>2026-04-30T11:10:25Z</time></trkpt><trkpt lat="42.112124092362166" lon="-7.977799277089306"><ele>895.0</ele><time>2026-04-30T11:10:26Z</time></trkpt><trkpt lat="42.11224342558874" lon="-7.977781909566258"><ele>895.0</ele><time>2026-04-30T11:10:27Z</time></trkpt><trkpt lat="42.11235794162702" lon="-7.977726649891848"><ele>895.0</ele><time>2026-04-30T11:10:28Z</time></trkpt><trkpt lat="42.112479728680526" lon="-7.9776853906180865"><ele>895.0</ele><time>2026-04-30T11:10:29Z</time></trkpt><trkpt lat="42.11259646238107" lon="-7.977631517008512"><ele>895.0</ele><time>2026-04-30T11:10:30Z</time></trkpt><trkpt lat="42.11273489855375" lon="-7.977543804744271"><ele>895.0</ele><time>2026-04-30T11:10:31Z</time></trkpt><trkpt lat="42.11286556674731" lon="-7.977444560740592"><ele>895.0</ele><time>2026-04-30T11:10:32Z</time></trkpt><trkpt lat="42.11298874540739" lon="-7.97736129849828"><ele>895.0</ele><time>2026-04-30T11:10:33Z</time></trkpt><trkpt lat="42.113112310497186" lon="-7.977294838278467"><ele>894.25</ele><time>2026-04-30T11:10:34Z</time></trkpt><trkpt lat="42.11321934434359" lon="-7.977211473190777"><ele>893.5</ele><time>2026-04-30T11:10:35Z</time></trkpt><trkpt lat="42.11332519743943" lon="-7.977113684500726"><ele>892.75</ele><time>2026-04-30T11:10:36Z</time></trkpt><trkpt lat="42.11341883009044" lon="-7.977056630308504"><ele>892.0</ele><time>2026-04-30T11:10:37Z</time></trkpt><trkpt lat="42.11354424993507" lon="-7.9769903553683825"><ele>892.0</ele><time>2026-04-30T11:10:39Z</time></trkpt><trkpt lat="42.113634569474264" lon="-7.976955626784087"><ele>892.0</ele><time>2026-04-30T11:10:40Z</time></trkpt><trkpt lat="42.11374633249789" lon="-7.976943258199722"><ele>892.0</ele><time>2026-04-30T11:10:41Z</time></trkpt><trkpt lat="42.11388229765362" lon="-7.976947186952166"><ele>892.0</ele><time>2026-04-30T11:10:42Z</time></trkpt><trkpt lat="42.114016654656055" lon="-7.97695332703304"><ele>888.0</ele><time>2026-04-30T11:10:43Z</time></trkpt><trkpt lat="42.114161321713084" lon="-7.976922804011514"><ele>884.0</ele><time>2026-04-30T11:10:44Z</time></trkpt><trkpt lat="42.11430862202562" lon="-7.976903641899739"><ele>880.0</ele><time>2026-04-30T11:10:45Z</time></trkpt><trkpt lat="42.114466205881584" lon="-7.976886406657715"><ele>880.0</ele><time>2026-04-30T11:10:46Z</time></trkpt><trkpt lat="42.11462123692386" lon="-7.976867276051428"><ele>880.0</ele><time>2026-04-30T11:10:47Z</time></trkpt><trkpt lat="42.11477207783012" lon="-7.976846328672808"><ele>880.0</ele><time>2026-04-30T11:10:48Z</time></trkpt><trkpt lat="42.11492975883972" lon="-7.976825659220115"><ele>878.0</ele><time>2026-04-30T11:10:49Z</time></trkpt><trkpt lat="42.1150608221112" lon="-7.976830291376798"><ele>876.0</ele><time>2026-04-30T11:10:50Z</time></trkpt><trkpt lat="42.11517896424308" lon="-7.976840683632655"><ele>874.0</ele><time>2026-04-30T11:10:51Z</time></trkpt><trkpt lat="42.11528301966817" lon="-7.9768446513017635"><ele>872.0</ele><time>2026-04-30T11:10:52Z</time></trkpt><trkpt lat="42.115379768661285" lon="-7.976851253199445"><ele>872.0</ele><time>2026-04-30T11:10:53Z</time></trkpt><trkpt lat="42.11545829855095" lon="-7.976844302561364"><ele>872.0</ele><time>2026-04-30T11:10:54Z</time></trkpt><trkpt lat="42.1155808388813" lon="-7.976844436541159"><ele>872.0</ele><time>2026-04-30T11:10:56Z</time></trkpt><trkpt lat="42.11568498998308" lon="-7.976827813248411"><ele>872.0</ele><time>2026-04-30T11:10:57Z</time></trkpt><trkpt lat="42.11580286052851" lon="-7.9768248371601524"><ele>872.0</ele><time>2026-04-30T11:10:58Z</time></trkpt><trkpt lat="42.11594973428105" lon="-7.976823479808116"><ele>870.6666666666667</ele><time>2026-04-30T11:10:59Z</time></trkpt><trkpt lat="42.11613021164104" lon="-7.976828024628175"><ele>869.3333333333333</ele><time>2026-04-30T11:11:00Z</time></trkpt><trkpt lat="42.11632162609197" lon="-7.97682343659995"><ele>868.0</ele><time>2026-04-30T11:11:01Z</time></trkpt><trkpt lat="42.116478837449606" lon="-7.9768121767468365"><ele>867.1666666666666</ele><time>2026-04-30T11:11:02Z</time></trkpt><trkpt lat="42.11659555202683" lon="-7.976807810425386"><ele>866.3333333333333</ele><time>2026-04-30T11:11:03Z</time></trkpt><trkpt lat="42.11667802928245" lon="-7.976806724115516"><ele>865.5</ele><time>2026-04-30T11:11:04Z</time></trkpt><trkpt lat="42.11674590563208" lon="-7.976810310010512"><ele>864.6666666666667</ele><time>2026-04-30T11:11:05Z</time></trkpt><trkpt lat="42.11681866738625" lon="-7.97682151551919"><ele>863.8333333333334</ele><time>2026-04-30T11:11:06Z</time></trkpt><trkpt lat="42.116915238575714" lon="-7.976815768688773"><ele>863.0</ele><time>2026-04-30T11:11:07Z</time></trkpt><trkpt lat="42.11703912172331" lon="-7.9767982895573395"><ele>863.0</ele><time>2026-04-30T11:11:08Z</time></trkpt><trkpt lat="42.117209937961086" lon="-7.976770657088475"><ele>863.0</ele><time>2026-04-30T11:11:09Z</time></trkpt><trkpt lat="42.11737627222858" lon="-7.976758728362088"><ele>863.0</ele><time>2026-04-30T11:11:10Z</time></trkpt><trkpt lat="42.11750962065014" lon="-7.9767509727927886"><ele>862.6666666666667</ele><time>2026-04-30T11:11:11Z</time></trkpt><trkpt lat="42.117642655766204" lon="-7.976738882493656"><ele>862.3333333333333</ele><time>2026-04-30T11:11:12Z</time></trkpt><trkpt lat="42.117803035599024" lon="-7.976744264085636"><ele>862.0</ele><time>2026-04-30T11:11:13Z</time></trkpt><trkpt lat="42.117972412483326" lon="-7.9767605340863055"><ele>862.0</ele><time>2026-04-30T11:11:14Z</time></trkpt><trkpt lat="42.118157269672444" lon="-7.976780576955254"><ele>862.0</ele><time>2026-04-30T11:11:15Z</time></trkpt><trkpt lat="42.11833420551837" lon="-7.976781575984427"><ele>862.0</ele><time>2026-04-30T11:11:16Z</time></trkpt><trkpt lat="42.11850405985091" lon="-7.97676281890114"><ele>861.0</ele><time>2026-04-30T11:11:17Z</time></trkpt><trkpt lat="42.11868044721576" lon="-7.976735826125716"><ele>860.0</ele><time>2026-04-30T11:11:18Z</time></trkpt><trkpt lat="42.11889551024996" lon="-7.976723747510869"><ele>859.0</ele><time>2026-04-30T11:11:19Z</time></trkpt><trkpt lat="42.11909689118736" lon="-7.976714724476208"><ele>857.3333333333333</ele><time>2026-04-30T11:11:20Z</time></trkpt><trkpt lat="42.11926595404235" lon="-7.976716508817408"><ele>855.6666666666667</ele><time>2026-04-30T11:11:21Z</time></trkpt><trkpt lat="42.11942848679518" lon="-7.976701766459693"><ele>854.0</ele><time>2026-04-30T11:11:22Z</time></trkpt><trkpt lat="42.119612260284555" lon="-7.976681888400526"><ele>852.3333333333334</ele><time>2026-04-30T11:11:23Z</time></trkpt><trkpt lat="42.11983036168988" lon="-7.976674987323523"><ele>850.6666666666667</ele><time>2026-04-30T11:11:24Z</time></trkpt><trkpt lat="42.12003554839418" lon="-7.976663898985824"><ele>849.0</ele><time>2026-04-30T11:11:25Z</time></trkpt><trkpt lat="42.120185367476346" lon="-7.976655004595501"><ele>849.0</ele><time>2026-04-30T11:11:26Z</time></trkpt><trkpt lat="42.12028292066967" lon="-7.976648895447132"><ele>849.0</ele><time>2026-04-30T11:11:27Z</time></trkpt><trkpt lat="42.12034950678796" lon="-7.976647904643766"><ele>849.0</ele><time>2026-04-30T11:11:28Z</time></trkpt><trkpt lat="42.12041605573948" lon="-7.976685445389735"><ele>849.0</ele><time>2026-04-30T11:11:29Z</time></trkpt><trkpt lat="42.12049535729924" lon="-7.97676864136045"><ele>849.0</ele><time>2026-04-30T11:11:30Z</time></trkpt><trkpt lat="42.120605402528874" lon="-7.976866947792913"><ele>849.0</ele><time>2026-04-30T11:11:31Z</time></trkpt><trkpt lat="42.120677058122794" lon="-7.9769224042185565"><ele>849.0</ele><time>2026-04-30T11:11:32Z</time></trkpt><trkpt lat="42.120764084783865" lon="-7.976944982523143"><ele>849.0</ele><time>2026-04-30T11:11:34Z</time></trkpt><trkpt lat="42.12080774467917" lon="-7.977063524168764"><ele>849.0</ele><time>2026-04-30T11:11:36Z</time></trkpt><trkpt lat="42.12088151158316" lon="-7.977088604706697"><ele>849.0</ele><time>2026-04-30T11:11:38Z</time></trkpt><trkpt lat="42.12101247110478" lon="-7.977114105944335"><ele>848.6666666666666</ele><time>2026-04-30T11:11:40Z</time></trkpt><trkpt lat="42.121092437272765" lon="-7.977118980020964"><ele>848.3333333333333</ele><time>2026-04-30T11:11:41Z</time></trkpt><trkpt lat="42.12114713183597" lon="-7.977044751524386"><ele>848.0</ele><time>2026-04-30T11:11:44Z</time></trkpt><trkpt lat="42.121196650403554" lon="-7.976961804092372"><ele>847.6666666666666</ele><time>2026-04-30T11:11:48Z</time></trkpt><trkpt lat="42.12124929665977" lon="-7.976873149223235"><ele>847.3333333333333</ele><time>2026-04-30T11:11:50Z</time></trkpt><trkpt lat="42.12130551365771" lon="-7.976824990570092"><ele>847.0</ele><time>2026-04-30T11:11:51Z</time></trkpt><trkpt lat="42.121370827242636" lon="-7.9767425902352125"><ele>846.2</ele><time>2026-04-30T11:11:52Z</time></trkpt><trkpt lat="42.12141927481564" lon="-7.976684732468075"><ele>845.4000000000001</ele><time>2026-04-30T11:11:53Z</time></trkpt><trkpt lat="42.12149770251424" lon="-7.976604874853388"><ele>844.5999999999999</ele><time>2026-04-30T11:11:55Z</time></trkpt><trkpt lat="42.12158684310586" lon="-7.97659908435612"><ele>843.8</ele><time>2026-04-30T11:11:56Z</time></trkpt><trkpt lat="42.121717264006286" lon="-7.976612546967941"><ele>843.0</ele><time>2026-04-30T11:11:57Z</time></trkpt><trkpt lat="42.12182950119074" lon="-7.976610820691449"><ele>842.0</ele><time>2026-04-30T11:11:58Z</time></trkpt><trkpt lat="42.1218938830632" lon="-7.976620360047436"><ele>841.0</ele><time>2026-04-30T11:11:59Z</time></trkpt><trkpt lat="42.122013069767426" lon="-7.976579221147446"><ele>840.0</ele><time>2026-04-30T11:12:01Z</time></trkpt><trkpt lat="42.12212503736267" lon="-7.9765640837555845"><ele>839.0</ele><time>2026-04-30T11:12:03Z</time></trkpt><trkpt lat="42.12226151961479" lon="-7.976554857454895"><ele>838.0</ele><time>2026-04-30T11:12:06Z</time></trkpt><trkpt lat="42.12235104894751" lon="-7.976562730030653"><ele>836.5</ele><time>2026-04-30T11:12:07Z</time></trkpt><trkpt lat="42.12247728321259" lon="-7.976521605504498"><ele>835.0</ele><time>2026-04-30T11:12:08Z</time></trkpt><trkpt lat="42.12263396214614" lon="-7.976497744572345"><ele>833.5</ele><time>2026-04-30T11:12:09Z</time></trkpt><trkpt lat="42.1227848462947" lon="-7.976467338991375"><ele>832.0</ele><time>2026-04-30T11:12:10Z</time></trkpt><trkpt lat="42.122900403909874" lon="-7.976456083106574"><ele>832.0</ele><time>2026-04-30T11:12:11Z</time></trkpt><trkpt lat="42.1229815494094" lon="-7.9764457398777715"><ele>832.0</ele><time>2026-04-30T11:12:12Z</time></trkpt><trkpt lat="42.12305224282847" lon="-7.9764270817428855"><ele>832.0</ele><time>2026-04-30T11:12:13Z</time></trkpt><trkpt lat="42.12314080687874" lon="-7.976387976917926"><ele>832.0</ele><time>2026-04-30T11:12:15Z</time></trkpt><trkpt lat="42.12325442079594" lon="-7.976298617319681"><ele>832.0</ele><time>2026-04-30T11:12:17Z</time></trkpt><trkpt lat="42.1233277539996" lon="-7.976239486441687"><ele>832.2</ele><time>2026-04-30T11:12:18Z</time></trkpt><trkpt lat="42.123395651155775" lon="-7.9761559881539"><ele>832.4000000000001</ele><time>2026-04-30T11:12:19Z</time></trkpt><trkpt lat="42.12347279672854" lon="-7.976045607398837"><ele>832.5999999999999</ele><time>2026-04-30T11:12:20Z</time></trkpt><trkpt lat="42.12354349357712" lon="-7.975891797270842"><ele>832.8</ele><time>2026-04-30T11:12:21Z</time></trkpt><trkpt lat="42.123593233909936" lon="-7.975773833147472"><ele>833.0</ele><time>2026-04-30T11:12:22Z</time></trkpt><trkpt lat="42.123640883708376" lon="-7.975672265242478"><ele>833.0</ele><time>2026-04-30T11:12:23Z</time></trkpt><trkpt lat="42.12368241009149" lon="-7.975558003085792"><ele>833.0</ele><time>2026-04-30T11:12:24Z</time></trkpt><trkpt lat="42.12371967258102" lon="-7.975424891103976"><ele>833.0</ele><time>2026-04-30T11:12:25Z</time></trkpt><trkpt lat="42.12378241730521" lon="-7.975290043299443"><ele>833.0</ele><time>2026-04-30T11:12:26Z</time></trkpt><trkpt lat="42.123838411372155" lon="-7.975176937408905"><ele>833.0</ele><time>2026-04-30T11:12:27Z</time></trkpt><trkpt lat="42.12389091753286" lon="-7.97505635245506"><ele>833.5</ele><time>2026-04-30T11:12:28Z</time></trkpt><trkpt lat="42.123957273116844" lon="-7.974925984439376"><ele>834.0</ele><time>2026-04-30T11:12:29Z</time></trkpt><trkpt lat="42.12402461497597" lon="-7.974792563118337"><ele>834.5</ele><time>2026-04-30T11:12:30Z</time></trkpt><trkpt lat="42.12410542593422" lon="-7.974648932489278"><ele>835.0</ele><time>2026-04-30T11:12:31Z</time></trkpt><trkpt lat="42.124209424537035" lon="-7.974509201264772"><ele>835.0</ele><time>2026-04-30T11:12:32Z</time></trkpt><trkpt lat="42.12430865172754" lon="-7.9743656265288845"><ele>835.0</ele><time>2026-04-30T11:12:33Z</time></trkpt><trkpt lat="42.12440196290782" lon="-7.974205732524669"><ele>835.0</ele><time>2026-04-30T11:12:34Z</time></trkpt><trkpt lat="42.12450929242721" lon="-7.974057661393066"><ele>834.6666666666666</ele><time>2026-04-30T11:12:35Z</time></trkpt><trkpt lat="42.12461928456527" lon="-7.973911273725378"><ele>834.3333333333333</ele><time>2026-04-30T11:12:36Z</time></trkpt><trkpt lat="42.12473034081254" lon="-7.973759534586741"><ele>834.0</ele><time>2026-04-30T11:12:37Z</time></trkpt><trkpt lat="42.12484170575298" lon="-7.973615881606217"><ele>834.0</ele><time>2026-04-30T11:12:38Z</time></trkpt><trkpt lat="42.12495239812462" lon="-7.973479875810914"><ele>834.0</ele><time>2026-04-30T11:12:39Z</time></trkpt><trkpt lat="42.12506027248798" lon="-7.973333382012939"><ele>834.0</ele><time>2026-04-30T11:12:40Z</time></trkpt><trkpt lat="42.125162758521036" lon="-7.973187293768004"><ele>834.0</ele><time>2026-04-30T11:12:41Z</time></trkpt><trkpt lat="42.12526731333584" lon="-7.973045760659465"><ele>834.0</ele><time>2026-04-30T11:12:42Z</time></trkpt><trkpt lat="42.12537414775584" lon="-7.972904208122468"><ele>834.0</ele><time>2026-04-30T11:12:43Z</time></trkpt><trkpt lat="42.12547627248769" lon="-7.972774395034491"><ele>834.0</ele><time>2026-04-30T11:12:44Z</time></trkpt><trkpt lat="42.12557656839895" lon="-7.972642953606428"><ele>834.25</ele><time>2026-04-30T11:12:45Z</time></trkpt><trkpt lat="42.125678742592804" lon="-7.972509404956704"><ele>834.5</ele><time>2026-04-30T11:12:46Z</time></trkpt><trkpt lat="42.12578101534" lon="-7.972382030735581"><ele>834.75</ele><time>2026-04-30T11:12:47Z</time></trkpt><trkpt lat="42.12588539594615" lon="-7.972248146599013"><ele>835.0</ele><time>2026-04-30T11:12:48Z</time></trkpt><trkpt lat="42.125988297201324" lon="-7.972113023170934"><ele>835.5</ele><time>2026-04-30T11:12:49Z</time></trkpt><trkpt lat="42.12608383992268" lon="-7.971976406413644"><ele>836.0</ele><time>2026-04-30T11:12:50Z</time></trkpt><trkpt lat="42.126181282976574" lon="-7.971847044802024"><ele>836.5</ele><time>2026-04-30T11:12:51Z</time></trkpt><trkpt lat="42.12627327983291" lon="-7.971700581440807"><ele>837.0</ele><time>2026-04-30T11:12:52Z</time></trkpt><trkpt lat="42.12636680458995" lon="-7.971564342796354"><ele>837.25</ele><time>2026-04-30T11:12:53Z</time></trkpt><trkpt lat="42.12646487142989" lon="-7.971429795272833"><ele>837.5</ele><time>2026-04-30T11:12:54Z</time></trkpt><trkpt lat="42.1265547591964" lon="-7.971298164079561"><ele>837.75</ele><time>2026-04-30T11:12:55Z</time></trkpt><trkpt lat="42.12661692577918" lon="-7.971159178689893"><ele>838.0</ele><time>2026-04-30T11:12:56Z</time></trkpt><trkpt lat="42.12666899607164" lon="-7.971000530740107"><ele>837.8</ele><time>2026-04-30T11:12:57Z</time></trkpt><trkpt lat="42.12670230827097" lon="-7.970834164201388"><ele>837.5999999999999</ele><time>2026-04-30T11:12:58Z</time></trkpt><trkpt lat="42.126730054472795" lon="-7.9706839062088966"><ele>837.4000000000001</ele><time>2026-04-30T11:12:59Z</time></trkpt><trkpt lat="42.126760879405694" lon="-7.970544283171119"><ele>837.2</ele><time>2026-04-30T11:13:00Z</time></trkpt><trkpt lat="42.12677440099561" lon="-7.970416954267529"><ele>837.0</ele><time>2026-04-30T11:13:01Z</time></trkpt><trkpt lat="42.12678670574352" lon="-7.970317700606721"><ele>837.0</ele><time>2026-04-30T11:13:02Z</time></trkpt><trkpt lat="42.126799651793746" lon="-7.97021145502633"><ele>837.0</ele><time>2026-04-30T11:13:03Z</time></trkpt><trkpt lat="42.126836470985104" lon="-7.970086304613678"><ele>837.0</ele><time>2026-04-30T11:13:05Z</time></trkpt><trkpt lat="42.12692113684128" lon="-7.97002627729937"><ele>837.0</ele><time>2026-04-30T11:13:07Z</time></trkpt><trkpt lat="42.12700295983837" lon="-7.97002627365929"><ele>837.0</ele><time>2026-04-30T11:13:08Z</time></trkpt><trkpt lat="42.12710089318091" lon="-7.970060659616689"><ele>837.0</ele><time>2026-04-30T11:13:09Z</time></trkpt><trkpt lat="42.1272206970303" lon="-7.97007900721608"><ele>837.0</ele><time>2026-04-30T11:13:10Z</time></trkpt><trkpt lat="42.12733047536794" lon="-7.970079684275054"><ele>837.0</ele><time>2026-04-30T11:13:11Z</time></trkpt><trkpt lat="42.12740900581238" lon="-7.970062639110547"><ele>837.0</ele><time>2026-04-30T11:13:12Z</time></trkpt><trkpt lat="42.1275208411373" lon="-7.970008186270565"><ele>837.0</ele><time>2026-04-30T11:13:13Z</time></trkpt><trkpt lat="42.12764764519024" lon="-7.969972743524911"><ele>838.75</ele><time>2026-04-30T11:13:14Z</time></trkpt><trkpt lat="42.12778810298505" lon="-7.969929019969257"><ele>840.5</ele><time>2026-04-30T11:13:15Z</time></trkpt><trkpt lat="42.12789244643686" lon="-7.969878531335754"><ele>842.25</ele><time>2026-04-30T11:13:16Z</time></trkpt><trkpt lat="42.12797797896615" lon="-7.969812864626511"><ele>844.0</ele><time>2026-04-30T11:13:17Z</time></trkpt><trkpt lat="42.12805740150574" lon="-7.969730229724854"><ele>844.0</ele><time>2026-04-30T11:13:18Z</time></trkpt><trkpt lat="42.12813890441667" lon="-7.969653783786128"><ele>844.0</ele><time>2026-04-30T11:13:19Z</time></trkpt><trkpt lat="42.12824818265664" lon="-7.969581733077584"><ele>844.0</ele><time>2026-04-30T11:13:20Z</time></trkpt><trkpt lat="42.12837615065846" lon="-7.969532833775355"><ele>844.0</ele><time>2026-04-30T11:13:21Z</time></trkpt><trkpt lat="42.12850531117904" lon="-7.969492480673158"><ele>844.4000000000001</ele><time>2026-04-30T11:13:22Z</time></trkpt><trkpt lat="42.128617581257124" lon="-7.969466889835803"><ele>844.8</ele><time>2026-04-30T11:13:23Z</time></trkpt><trkpt lat="42.128724556804514" lon="-7.969436801690914"><ele>845.2</ele><time>2026-04-30T11:13:24Z</time></trkpt><trkpt lat="42.128831632672686" lon="-7.969397389580588"><ele>845.5999999999999</ele><time>2026-04-30T11:13:25Z</time></trkpt><trkpt lat="42.12892894520731" lon="-7.969360768445169"><ele>846.0</ele><time>2026-04-30T11:13:26Z</time></trkpt><trkpt lat="42.129002551038695" lon="-7.969329922679193"><ele>844.3333333333334</ele><time>2026-04-30T11:13:27Z</time></trkpt><trkpt lat="42.129129627586394" lon="-7.969278893545379"><ele>842.6666666666667</ele><time>2026-04-30T11:13:29Z</time></trkpt><trkpt lat="42.12919089793216" lon="-7.96923932744981"><ele>841.0</ele><time>2026-04-30T11:13:30Z</time></trkpt><trkpt lat="42.12927566128143" lon="-7.969190569240706"><ele>839.3333333333334</ele><time>2026-04-30T11:13:31Z</time></trkpt><trkpt lat="42.12934091899113" lon="-7.969171802905919"><ele>837.6666666666667</ele><time>2026-04-30T11:13:33Z</time></trkpt><trkpt lat="42.129403294438596" lon="-7.969147081507633"><ele>836.0</ele><time>2026-04-30T11:13:36Z</time></trkpt><trkpt lat="42.12948845129867" lon="-7.969136564376291"><ele>834.1999999999999</ele><time>2026-04-30T11:14:12Z</time></trkpt><trkpt lat="42.129582794301136" lon="-7.969129813393923"><ele>832.4</ele><time>2026-04-30T11:14:15Z</time></trkpt><trkpt lat="42.1296745343043" lon="-7.969105249822275"><ele>830.6</ele><time>2026-04-30T11:14:17Z</time></trkpt><trkpt lat="42.12974806027917" lon="-7.969066123216259"><ele>828.8</ele><time>2026-04-30T11:14:19Z</time></trkpt><trkpt lat="42.12986304668542" lon="-7.969017237242373"><ele>827.0</ele><time>2026-04-30T11:14:21Z</time></trkpt><trkpt lat="42.12996384644785" lon="-7.968969296167174"><ele>824.8333333333334</ele><time>2026-04-30T11:14:22Z</time></trkpt><trkpt lat="42.13007969899896" lon="-7.968926017169152"><ele>822.6666666666667</ele><time>2026-04-30T11:14:23Z</time></trkpt><trkpt lat="42.130171796254174" lon="-7.9688929328187434"><ele>820.5</ele><time>2026-04-30T11:14:24Z</time></trkpt><trkpt lat="42.13023110246047" lon="-7.968863251245319"><ele>818.3333333333333</ele><time>2026-04-30T11:14:25Z</time></trkpt><trkpt lat="42.13029241967801" lon="-7.968830095148417"><ele>816.1666666666666</ele><time>2026-04-30T11:14:26Z</time></trkpt><trkpt lat="42.13035811933382" lon="-7.968744714657168"><ele>814.0</ele><time>2026-04-30T11:14:28Z</time></trkpt><trkpt lat="42.130430566174084" lon="-7.968641494059207"><ele>814.0</ele><time>2026-04-30T11:14:30Z</time></trkpt><trkpt lat="42.13045527781217" lon="-7.968560191208009"><ele>814.0</ele><time>2026-04-30T11:14:31Z</time></trkpt><trkpt lat="42.13043317061295" lon="-7.968423272739401"><ele>814.0</ele><time>2026-04-30T11:14:33Z</time></trkpt><trkpt lat="42.13039198196231" lon="-7.968304266250463"><ele>814.0</ele><time>2026-04-30T11:14:34Z</time></trkpt><trkpt lat="42.13034962571409" lon="-7.968152605077701"><ele>814.0</ele><time>2026-04-30T11:14:35Z</time></trkpt><trkpt lat="42.13032955587096" lon="-7.967961608317722"><ele>812.6</ele><time>2026-04-30T11:14:36Z</time></trkpt><trkpt lat="42.13032402878348" lon="-7.9677618726583"><ele>811.2</ele><time>2026-04-30T11:14:37Z</time></trkpt><trkpt lat="42.13031690585473" lon="-7.967658163210373"><ele>809.8000000000001</ele><time>2026-04-30T11:14:38Z</time></trkpt><trkpt lat="42.130306116544695" lon="-7.967550077748288"><ele>808.4000000000001</ele><time>2026-04-30T11:14:39Z</time></trkpt><trkpt lat="42.13028391158901" lon="-7.967438239051967"><ele>807.0</ele><time>2026-04-30T11:14:40Z</time></trkpt><trkpt lat="42.13025341751928" lon="-7.967305063087898"><ele>806.5</ele><time>2026-04-30T11:14:41Z</time></trkpt><trkpt lat="42.13022846981622" lon="-7.967130553675287"><ele>806.0</ele><time>2026-04-30T11:14:42Z</time></trkpt><trkpt lat="42.13020323412652" lon="-7.966990846403989"><ele>805.5</ele><time>2026-04-30T11:14:43Z</time></trkpt><trkpt lat="42.1301592276622" lon="-7.96683151984803"><ele>805.0</ele><time>2026-04-30T11:14:44Z</time></trkpt><trkpt lat="42.13011573041142" lon="-7.966681551256193"><ele>803.9999999999999</ele><time>2026-04-30T11:14:45Z</time></trkpt><trkpt lat="42.13008997150763" lon="-7.966547338279161"><ele>803.0</ele><time>2026-04-30T11:14:46Z</time></trkpt><trkpt lat="42.130067640266724" lon="-7.966412821921564"><ele>802.0</ele><time>2026-04-30T11:14:47Z</time></trkpt><trkpt lat="42.13004333604311" lon="-7.96631584208444"><ele>801.0</ele><time>2026-04-30T11:14:48Z</time></trkpt><trkpt lat="42.130028234402836" lon="-7.966207833111703"><ele>799.9999999999999</ele><time>2026-04-30T11:14:49Z</time></trkpt><trkpt lat="42.13004027576564" lon="-7.966097033931269"><ele>799.0</ele><time>2026-04-30T11:14:50Z</time></trkpt><trkpt lat="42.130066698207294" lon="-7.965977117724198"><ele>799.0</ele><time>2026-04-30T11:14:51Z</time></trkpt><trkpt lat="42.13007310700901" lon="-7.965864038891506"><ele>799.0</ele><time>2026-04-30T11:14:52Z</time></trkpt><trkpt lat="42.130070018977655" lon="-7.965759789396522"><ele>799.0</ele><time>2026-04-30T11:14:53Z</time></trkpt><trkpt lat="42.13003621041434" lon="-7.965583983624956"><ele>799.0</ele><time>2026-04-30T11:14:54Z</time></trkpt><trkpt lat="42.13001047084244" lon="-7.965388387226727"><ele>799.0</ele><time>2026-04-30T11:14:55Z</time></trkpt><trkpt lat="42.12999723072886" lon="-7.965215650607574"><ele>797.8000000000001</ele><time>2026-04-30T11:14:56Z</time></trkpt><trkpt lat="42.12997026483612" lon="-7.965021888386816"><ele>796.6</ele><time>2026-04-30T11:14:57Z</time></trkpt><trkpt lat="42.12994576388292" lon="-7.964858107852704"><ele>795.4</ele><time>2026-04-30T11:14:58Z</time></trkpt><trkpt lat="42.129925466978996" lon="-7.96476305979189"><ele>794.2</ele><time>2026-04-30T11:14:59Z</time></trkpt><trkpt lat="42.129905683509016" lon="-7.96467750317294"><ele>793.0</ele><time>2026-04-30T11:15:00Z</time></trkpt><trkpt lat="42.129904151034836" lon="-7.964567828114273"><ele>793.0</ele><time>2026-04-30T11:15:02Z</time></trkpt><trkpt lat="42.12987625721796" lon="-7.964383356097711"><ele>793.0</ele><time>2026-04-30T11:15:04Z</time></trkpt><trkpt lat="42.12984470317812" lon="-7.964300847051003"><ele>793.0</ele><time>2026-04-30T11:15:05Z</time></trkpt><trkpt lat="42.129927952466545" lon="-7.964312295306538"><ele>793.0</ele><time>2026-04-30T11:15:12Z</time></trkpt><trkpt lat="42.13011443075465" lon="-7.964417497844125"><ele>793.0</ele><time>2026-04-30T11:15:14Z</time></trkpt><trkpt lat="42.13017125833328" lon="-7.964506748375783"><ele>793.0</ele><time>2026-04-30T11:15:15Z</time></trkpt><trkpt lat="42.13022902130977" lon="-7.964600461489724"><ele>793.0</ele><time>2026-04-30T11:15:16Z</time></trkpt><trkpt lat="42.13027212230156" lon="-7.96470171121772"><ele>793.0</ele><time>2026-04-30T11:15:16.999Z</time></trkpt><trkpt lat="42.13028247033349" lon="-7.964913694780561"><ele>793.0</ele><time>2026-04-30T11:15:17.999Z</time></trkpt><trkpt lat="42.13031624070004" lon="-7.965050417179814"><ele>794.6666666666666</ele><time>2026-04-30T11:15:18.999Z</time></trkpt><trkpt lat="42.130387333366265" lon="-7.965376601116273"><ele>796.3333333333333</ele><time>2026-04-30T11:15:19.999Z</time></trkpt><trkpt lat="42.130468649813494" lon="-7.965582557104356"><ele>798.0</ele><time>2026-04-30T11:15:21Z</time></trkpt><trkpt lat="42.13047085656093" lon="-7.965706505680163"><ele>798.3333333333333</ele><time>2026-04-30T11:15:22Z</time></trkpt><trkpt lat="42.13054521410665" lon="-7.9659744498653735"><ele>798.6666666666666</ele><time>2026-04-30T11:15:23Z</time></trkpt><trkpt lat="42.13057288194466" lon="-7.966202643689451"><ele>799.0</ele><time>2026-04-30T11:15:24Z</time></trkpt><trkpt lat="42.13061527780232" lon="-7.966395971152947"><ele>799.0</ele><time>2026-04-30T11:15:25Z</time></trkpt><trkpt lat="42.1307012284514" lon="-7.966631038909076"><ele>799.0</ele><time>2026-04-30T11:15:26Z</time></trkpt><trkpt lat="42.13078392500945" lon="-7.966901674890182"><ele>799.0</ele><time>2026-04-30T11:15:27Z</time></trkpt><trkpt lat="42.13087355729666" lon="-7.967146632023094"><ele>796.6666666666666</ele><time>2026-04-30T11:15:28Z</time></trkpt><trkpt lat="42.13095979501552" lon="-7.967363064983801"><ele>794.3333333333333</ele><time>2026-04-30T11:15:29Z</time></trkpt><trkpt lat="42.131012611850956" lon="-7.967546208736112"><ele>792.0</ele><time>2026-04-30T11:15:30Z</time></trkpt><trkpt lat="42.13111891097555" lon="-7.967696944999213"><ele>792.0</ele><time>2026-04-30T11:15:31Z</time></trkpt><trkpt lat="42.13124427434173" lon="-7.967885597736959"><ele>792.0</ele><time>2026-04-30T11:15:32Z</time></trkpt><trkpt lat="42.13128773996137" lon="-7.9680913323735725"><ele>792.0</ele><time>2026-04-30T11:15:33Z</time></trkpt><trkpt lat="42.13139510825769" lon="-7.968243651490737"><ele>793.2</ele><time>2026-04-30T11:15:34Z</time></trkpt><trkpt lat="42.13147101382074" lon="-7.968363771035753"><ele>794.4000000000001</ele><time>2026-04-30T11:15:35Z</time></trkpt><trkpt lat="42.131508597153164" lon="-7.968444425236224"><ele>795.5999999999999</ele><time>2026-04-30T11:15:36Z</time></trkpt><trkpt lat="42.131527008277914" lon="-7.968592906154275"><ele>796.8</ele><time>2026-04-30T11:15:37Z</time></trkpt><trkpt lat="42.13152326021715" lon="-7.968773365709885"><ele>798.0</ele><time>2026-04-30T11:15:38Z</time></trkpt><trkpt lat="42.131541798241756" lon="-7.968916537796103"><ele>794.0</ele><time>2026-04-30T11:15:39Z</time></trkpt><trkpt lat="42.13160196230346" lon="-7.96906418248142"><ele>790.0</ele><time>2026-04-30T11:15:40Z</time></trkpt><trkpt lat="42.13170303160385" lon="-7.969219348749031"><ele>786.0</ele><time>2026-04-30T11:15:41Z</time></trkpt><trkpt lat="42.13179848529374" lon="-7.9694171955294015"><ele>786.0</ele><time>2026-04-30T11:15:42Z</time></trkpt><trkpt lat="42.13186852589404" lon="-7.969595722901176"><ele>786.0</ele><time>2026-04-30T11:15:43Z</time></trkpt><trkpt lat="42.13192191632692" lon="-7.969720827641033"><ele>786.0</ele><time>2026-04-30T11:15:44Z</time></trkpt><trkpt lat="42.13198403883819" lon="-7.969818340047551"><ele>786.0</ele><time>2026-04-30T11:15:45Z</time></trkpt><trkpt lat="42.132050677942495" lon="-7.969912236101657"><ele>786.0</ele><time>2026-04-30T11:15:46Z</time></trkpt><trkpt lat="42.132102966219804" lon="-7.970018122301976"><ele>787.0</ele><time>2026-04-30T11:15:47Z</time></trkpt><trkpt lat="42.132125207464846" lon="-7.970142380908646"><ele>788.0</ele><time>2026-04-30T11:15:48Z</time></trkpt><trkpt lat="42.13217071409081" lon="-7.970264561882753"><ele>789.0</ele><time>2026-04-30T11:15:49Z</time></trkpt><trkpt lat="42.13222753043648" lon="-7.9703953073913505"><ele>790.0</ele><time>2026-04-30T11:15:50Z</time></trkpt><trkpt lat="42.13229722649655" lon="-7.970544773822443"><ele>791.0</ele><time>2026-04-30T11:15:51Z</time></trkpt><trkpt lat="42.1323519710202" lon="-7.970700074825815"><ele>785.0</ele><time>2026-04-30T11:15:52Z</time></trkpt><trkpt lat="42.132391658648714" lon="-7.970811178114189"><ele>779.0</ele><time>2026-04-30T11:15:53Z</time></trkpt><trkpt lat="42.13241930377418" lon="-7.97091456088495"><ele>773.0</ele><time>2026-04-30T11:15:54Z</time></trkpt><trkpt lat="42.132473459942126" lon="-7.971045913092313"><ele>767.0</ele><time>2026-04-30T11:15:55Z</time></trkpt><trkpt lat="42.13253557715484" lon="-7.971173580150956"><ele>761.0</ele><time>2026-04-30T11:15:56Z</time></trkpt><trkpt lat="42.13259387279435" lon="-7.971318623313153"><ele>761.0</ele><time>2026-04-30T11:15:57Z</time></trkpt><trkpt lat="42.132651543733374" lon="-7.971458194104365"><ele>761.0</ele><time>2026-04-30T11:15:58Z</time></trkpt><trkpt lat="42.13270767234721" lon="-7.971598072142155"><ele>761.0</ele><time>2026-04-30T11:15:59Z</time></trkpt><trkpt lat="42.13276866457338" lon="-7.971728964561186"><ele>761.0</ele><time>2026-04-30T11:16:00Z</time></trkpt><trkpt lat="42.132822492898406" lon="-7.97186197531357"><ele>762.0</ele><time>2026-04-30T11:16:01Z</time></trkpt><trkpt lat="42.132881573451506" lon="-7.972012082461494"><ele>763.0</ele><time>2026-04-30T11:16:02Z</time></trkpt><trkpt lat="42.13291067649626" lon="-7.972172392498605"><ele>764.0</ele><time>2026-04-30T11:16:03Z</time></trkpt><trkpt lat="42.13293586988192" lon="-7.972308738420572"><ele>765.0</ele><time>2026-04-30T11:16:04Z</time></trkpt><trkpt lat="42.13296566313124" lon="-7.9724298595061995"><ele>766.0</ele><time>2026-04-30T11:16:05Z</time></trkpt><trkpt lat="42.13302163594659" lon="-7.972545775721332"><ele>767.5</ele><time>2026-04-30T11:16:06Z</time></trkpt><trkpt lat="42.133088807388226" lon="-7.972645560799946"><ele>769.0</ele><time>2026-04-30T11:16:07Z</time></trkpt><trkpt lat="42.13317256059879" lon="-7.972725252852781"><ele>770.5</ele><time>2026-04-30T11:16:08Z</time></trkpt><trkpt lat="42.13328180853821" lon="-7.972791745862449"><ele>772.0</ele><time>2026-04-30T11:16:09Z</time></trkpt><trkpt lat="42.13340243636356" lon="-7.972868618456059"><ele>763.75</ele><time>2026-04-30T11:16:10Z</time></trkpt><trkpt lat="42.133508585017005" lon="-7.97295939602606"><ele>755.5</ele><time>2026-04-30T11:16:11Z</time></trkpt><trkpt lat="42.13361121989603" lon="-7.973079894951169"><ele>747.25</ele><time>2026-04-30T11:16:12Z</time></trkpt><trkpt lat="42.13370615192837" lon="-7.973219613121543"><ele>739.0</ele><time>2026-04-30T11:16:13Z</time></trkpt><trkpt lat="42.133788884308224" lon="-7.973355037102163"><ele>740.75</ele><time>2026-04-30T11:16:14Z</time></trkpt><trkpt lat="42.13385956739358" lon="-7.973490349453221"><ele>742.5</ele><time>2026-04-30T11:16:15Z</time></trkpt><trkpt lat="42.133910527358125" lon="-7.973620369688205"><ele>744.25</ele><time>2026-04-30T11:16:16Z</time></trkpt><trkpt lat="42.133937155501336" lon="-7.973721543959607"><ele>746.0</ele><time>2026-04-30T11:16:17Z</time></trkpt><trkpt lat="42.134057235559155" lon="-7.9738431620638766"><ele>741.8</ele><time>2026-04-30T11:16:19Z</time></trkpt><trkpt lat="42.13412438886224" lon="-7.973833352385738"><ele>737.5999999999999</ele><time>2026-04-30T11:16:20Z</time></trkpt><trkpt lat="42.13424265785202" lon="-7.9737705594567005"><ele>733.4</ele><time>2026-04-30T11:16:22Z</time></trkpt><trkpt lat="42.13430591334215" lon="-7.973689950429228"><ele>729.2</ele><time>2026-04-30T11:16:23Z</time></trkpt><trkpt lat="42.13437729264682" lon="-7.973583670034406"><ele>725.0</ele><time>2026-04-30T11:16:24Z</time></trkpt><trkpt lat="42.13444774299991" lon="-7.973529641961131"><ele>725.0</ele><time>2026-04-30T11:16:25Z</time></trkpt><trkpt lat="42.134554181835576" lon="-7.973501831584567"><ele>725.0</ele><time>2026-04-30T11:16:26Z</time></trkpt><trkpt lat="42.134702102446965" lon="-7.973509499537831"><ele>725.0</ele><time>2026-04-30T11:16:27Z</time></trkpt><trkpt lat="42.13484302601451" lon="-7.973531578567525"><ele>725.0</ele><time>2026-04-30T11:16:28Z</time></trkpt><trkpt lat="42.13495842529386" lon="-7.973557478930982"><ele>723.5</ele><time>2026-04-30T11:16:29Z</time></trkpt><trkpt lat="42.135074027381876" lon="-7.97359603201959"><ele>722.0</ele><time>2026-04-30T11:16:30Z</time></trkpt><trkpt lat="42.13514200436009" lon="-7.973634612640306"><ele>720.5</ele><time>2026-04-30T11:16:31Z</time></trkpt><trkpt lat="42.135200885043766" lon="-7.973691815349434"><ele>719.0</ele><time>2026-04-30T11:16:32Z</time></trkpt><trkpt lat="42.13525078332476" lon="-7.973763119765238"><ele>717.5</ele><time>2026-04-30T11:16:33Z</time></trkpt><trkpt lat="42.135303881358006" lon="-7.973882078667269"><ele>716.0</ele><time>2026-04-30T11:16:34Z</time></trkpt><trkpt lat="42.13534515627641" lon="-7.973990168331392"><ele>716.0</ele><time>2026-04-30T11:16:35Z</time></trkpt><trkpt lat="42.13536580903421" lon="-7.974100495133427"><ele>716.0</ele><time>2026-04-30T11:16:37Z</time></trkpt><trkpt lat="42.13545866207556" lon="-7.974134665742518"><ele>716.0</ele><time>2026-04-30T11:16:39Z</time></trkpt><trkpt lat="42.13554346836055" lon="-7.974099107781597"><ele>716.0</ele><time>2026-04-30T11:16:39.999Z</time></trkpt><trkpt lat="42.13563922952066" lon="-7.974088170385953"><ele>716.0</ele><time>2026-04-30T11:16:40.999Z</time></trkpt><trkpt lat="42.1357625263006" lon="-7.974052014981204"><ele>714.75</ele><time>2026-04-30T11:16:41.999Z</time></trkpt><trkpt lat="42.1358620790029" lon="-7.974018839866313"><ele>713.5</ele><time>2026-04-30T11:16:42.999Z</time></trkpt><trkpt lat="42.13596294425403" lon="-7.97396221254501"><ele>712.25</ele><time>2026-04-30T11:16:43.999Z</time></trkpt><trkpt lat="42.136063652152856" lon="-7.9739307799829335"><ele>711.0</ele><time>2026-04-30T11:16:44.999Z</time></trkpt><trkpt lat="42.136235628963775" lon="-7.973984742923328"><ele>711.0</ele><time>2026-04-30T11:16:45.999Z</time></trkpt><trkpt lat="42.13636858420522" lon="-7.974054376771773"><ele>711.0</ele><time>2026-04-30T11:16:46.999Z</time></trkpt><trkpt lat="42.13648300010108" lon="-7.974111038162283"><ele>711.0</ele><time>2026-04-30T11:16:47.999Z</time></trkpt><trkpt lat="42.13659587990833" lon="-7.974173243436021"><ele>711.0</ele><time>2026-04-30T11:16:48.999Z</time></trkpt><trkpt lat="42.136698436304165" lon="-7.974222483202773"><ele>711.0</ele><time>2026-04-30T11:16:49.999Z</time></trkpt><trkpt lat="42.136785779642494" lon="-7.974268171393463"><ele>711.0</ele><time>2026-04-30T11:16:50.999Z</time></trkpt><trkpt lat="42.136855664798716" lon="-7.97427471635822"><ele>711.0</ele><time>2026-04-30T11:16:51.999Z</time></trkpt><trkpt lat="42.136908113291625" lon="-7.974158558395243"><ele>711.0</ele><time>2026-04-30T11:16:52.999Z</time></trkpt><trkpt lat="42.137008706457934" lon="-7.974048564597376"><ele>711.0</ele><time>2026-04-30T11:16:53.999Z</time></trkpt><trkpt lat="42.13708831574337" lon="-7.973933537468131"><ele>711.0</ele><time>2026-04-30T11:16:54.999Z</time></trkpt><trkpt lat="42.13714660057642" lon="-7.973845133786463"><ele>711.0</ele><time>2026-04-30T11:16:55.999Z</time></trkpt><trkpt lat="42.137312497431246" lon="-7.974021548561897"><ele>711.0</ele><time>2026-04-30T11:17:00.999Z</time></trkpt><trkpt lat="42.13735804921396" lon="-7.974120735439179"><ele>711.0</ele><time>2026-04-30T11:17:01.999Z</time></trkpt><trkpt lat="42.13736892604381" lon="-7.974207987842082"><ele>713.0</ele><time>2026-04-30T11:17:02.999Z</time></trkpt><trkpt lat="42.137347334128165" lon="-7.974309661938418"><ele>715.0</ele><time>2026-04-30T11:17:03.999Z</time></trkpt><trkpt lat="42.13732198021219" lon="-7.974421532278474"><ele>717.0</ele><time>2026-04-30T11:17:04.999Z</time></trkpt><trkpt lat="42.13728293196306" lon="-7.974534219348242"><ele>719.0</ele><time>2026-04-30T11:17:05.999Z</time></trkpt><trkpt lat="42.137259686859664" lon="-7.974616785596829"><ele>721.0</ele><time>2026-04-30T11:17:06.999Z</time></trkpt><trkpt lat="42.13726413326063" lon="-7.974759823183012"><ele>723.0</ele><time>2026-04-30T11:17:07.999Z</time></trkpt><trkpt lat="42.13722275763062" lon="-7.974895160538911"><ele>723.0000000000001</ele><time>2026-04-30T11:17:09.999Z</time></trkpt><trkpt lat="42.137281047692014" lon="-7.974996464960924"><ele>723.0</ele><time>2026-04-30T11:17:11.999Z</time></trkpt><trkpt lat="42.13731051035682" lon="-7.975072233892306"><ele>723.0</ele><time>2026-04-30T11:17:12.999Z</time></trkpt><trkpt lat="42.137320093419724" lon="-7.975164064367463"><ele>723.0</ele><time>2026-04-30T11:17:13.999Z</time></trkpt><trkpt lat="42.137306651295525" lon="-7.975257644479243"><ele>723.0</ele><time>2026-04-30T11:17:14.999Z</time></trkpt><trkpt lat="42.13725594813996" lon="-7.975346897014813"><ele>723.0000000000001</ele><time>2026-04-30T11:17:15.999Z</time></trkpt><trkpt lat="42.137241984957946" lon="-7.9754330757926555"><ele>723.0</ele><time>2026-04-30T11:17:16.999Z</time></trkpt><trkpt lat="42.13724839739155" lon="-7.975566437677871"><ele>715.0</ele><time>2026-04-30T11:17:18.999Z</time></trkpt><trkpt lat="42.137886891075055" lon="-7.975645154307582"><ele>715.0</ele><time>2026-04-30T11:17:24.999Z</time></trkpt><trkpt lat="42.138040488790054" lon="-7.975652028278542"><ele>715.0</ele><time>2026-04-30T11:17:26Z</time></trkpt><trkpt lat="42.138166500893036" lon="-7.975659491630095"><ele>715.0</ele><time>2026-04-30T11:17:27Z</time></trkpt><trkpt lat="42.138274963007795" lon="-7.975666425753752"><ele>715.0</ele><time>2026-04-30T11:17:28Z</time></trkpt><trkpt lat="42.1383780241405" lon="-7.975648585714377"><ele>713.0</ele><time>2026-04-30T11:17:29Z</time></trkpt><trkpt lat="42.13849691928183" lon="-7.975635816102768"><ele>711.0</ele><time>2026-04-30T11:17:30Z</time></trkpt><trkpt lat="42.13861707766686" lon="-7.975595660853079"><ele>709.0</ele><time>2026-04-30T11:17:31Z</time></trkpt><trkpt lat="42.138758677690646" lon="-7.975537251228349"><ele>707.0</ele><time>2026-04-30T11:17:32Z</time></trkpt><trkpt lat="42.13887507368645" lon="-7.975492756324959"><ele>707.0</ele><time>2026-04-30T11:17:33Z</time></trkpt><trkpt lat="42.139001595106215" lon="-7.975419538467195"><ele>707.0</ele><time>2026-04-30T11:17:34Z</time></trkpt><trkpt lat="42.13915156710363" lon="-7.9753665138094645"><ele>707.0</ele><time>2026-04-30T11:17:35Z</time></trkpt><trkpt lat="42.13926953058547" lon="-7.975309518828848"><ele>707.0</ele><time>2026-04-30T11:17:36Z</time></trkpt><trkpt lat="42.13940009489028" lon="-7.9752832871539825"><ele>704.25</ele><time>2026-04-30T11:17:37Z</time></trkpt><trkpt lat="42.139521699681474" lon="-7.975256940647397"><ele>701.5</ele><time>2026-04-30T11:17:38Z</time></trkpt><trkpt lat="42.13966355567746" lon="-7.975218570506249"><ele>698.75</ele><time>2026-04-30T11:17:39Z</time></trkpt><trkpt lat="42.13979035202183" lon="-7.975182453395723"><ele>696.0</ele><time>2026-04-30T11:17:40Z</time></trkpt><trkpt lat="42.13989247031498" lon="-7.975110823589158"><ele>695.1666666666666</ele><time>2026-04-30T11:17:41Z</time></trkpt><trkpt lat="42.13996321140033" lon="-7.97505945365874"><ele>694.3333333333334</ele><time>2026-04-30T11:17:42Z</time></trkpt><trkpt lat="42.14003776735564" lon="-7.974984761700443"><ele>693.5</ele><time>2026-04-30T11:17:44Z</time></trkpt><trkpt lat="42.140100697200474" lon="-7.974999028372479"><ele>692.6666666666667</ele><time>2026-04-30T11:17:47Z</time></trkpt><trkpt lat="42.14007966311331" lon="-7.975082339253234"><ele>691.8333333333334</ele><time>2026-04-30T11:17:48Z</time></trkpt><trkpt lat="42.140078386002784" lon="-7.975183435411384"><ele>691.0</ele><time>2026-04-30T11:17:49Z</time></trkpt><trkpt lat="42.14006591979289" lon="-7.975335954676666"><ele>690.3333333333334</ele><time>2026-04-30T11:17:50Z</time></trkpt><trkpt lat="42.1400426523323" lon="-7.975559783861304"><ele>689.6666666666666</ele><time>2026-04-30T11:17:51Z</time></trkpt><trkpt lat="42.14005023934079" lon="-7.975834423718259"><ele>689.0</ele><time>2026-04-30T11:17:52Z</time></trkpt><trkpt lat="42.140045891636305" lon="-7.976100992960713"><ele>690.0</ele><time>2026-04-30T11:17:53Z</time></trkpt><trkpt lat="42.14003495619361" lon="-7.976312840705886"><ele>691.0</ele><time>2026-04-30T11:17:54Z</time></trkpt><trkpt lat="42.1400117086677" lon="-7.97649758328272"><ele>692.0</ele><time>2026-04-30T11:17:55Z</time></trkpt><trkpt lat="42.14003552522923" lon="-7.976691253577839"><ele>693.0</ele><time>2026-04-30T11:17:56Z</time></trkpt><trkpt lat="42.140072467813276" lon="-7.976872790936825"><ele>694.5</ele><time>2026-04-30T11:17:57Z</time></trkpt><trkpt lat="42.14009569039365" lon="-7.9770406470839665"><ele>696.0</ele><time>2026-04-30T11:17:58Z</time></trkpt><trkpt lat="42.14012194963268" lon="-7.977164934846209"><ele>697.5</ele><time>2026-04-30T11:17:59Z</time></trkpt><trkpt lat="42.140188670820564" lon="-7.977294718683169"><ele>699.0</ele><time>2026-04-30T11:18:00Z</time></trkpt><trkpt lat="42.14027161090399" lon="-7.977403266972842"><ele>699.0</ele><time>2026-04-30T11:18:01Z</time></trkpt><trkpt lat="42.140359750693975" lon="-7.977511679459067"><ele>699.0</ele><time>2026-04-30T11:18:02Z</time></trkpt><trkpt lat="42.140447990473454" lon="-7.977568504665582"><ele>699.0</ele><time>2026-04-30T11:18:03Z</time></trkpt><trkpt lat="42.140538081785635" lon="-7.9775457203952165"><ele>699.0</ele><time>2026-04-30T11:18:04Z</time></trkpt><trkpt lat="42.14062079790228" lon="-7.977500941724773"><ele>699.0</ele><time>2026-04-30T11:18:06Z</time></trkpt><trkpt lat="42.14066049407848" lon="-7.977579538871564"><ele>701.75</ele><time>2026-04-30T11:18:10Z</time></trkpt><trkpt lat="42.140621643617294" lon="-7.977687122420726"><ele>704.5</ele><time>2026-04-30T11:18:12Z</time></trkpt><trkpt lat="42.14056420871758" lon="-7.977904565046026"><ele>707.25</ele><time>2026-04-30T11:18:14Z</time></trkpt><trkpt lat="42.140583033784154" lon="-7.978050499853295"><ele>710.0</ele><time>2026-04-30T11:18:16Z</time></trkpt><trkpt lat="42.140519771834086" lon="-7.978128178460367"><ele>710.0</ele><time>2026-04-30T11:18:18Z</time></trkpt><trkpt lat="42.140369986161524" lon="-7.978156866218691"><ele>710.0</ele><time>2026-04-30T11:18:20Z</time></trkpt><trkpt lat="42.14029025677861" lon="-7.978197398479503"><ele>710.0</ele><time>2026-04-30T11:18:21Z</time></trkpt><trkpt lat="42.14020648445795" lon="-7.978228797650011"><ele>710.0</ele><time>2026-04-30T11:18:22Z</time></trkpt><trkpt lat="42.14007541111793" lon="-7.9782219435533275"><ele>710.0</ele><time>2026-04-30T11:18:23Z</time></trkpt><trkpt lat="42.13993668049697" lon="-7.9782505494175355"><ele>710.0</ele><time>2026-04-30T11:18:24Z</time></trkpt><trkpt lat="42.139800723249046" lon="-7.978324761718783"><ele>710.0</ele><time>2026-04-30T11:18:25Z</time></trkpt><trkpt lat="42.139671925184054" lon="-7.9783279831626945"><ele>710.0</ele><time>2026-04-30T11:18:26Z</time></trkpt><trkpt lat="42.139528207629965" lon="-7.978279778978552"><ele>711.75</ele><time>2026-04-30T11:18:27Z</time></trkpt><trkpt lat="42.1394039093885" lon="-7.978259181775009"><ele>713.5</ele><time>2026-04-30T11:18:28Z</time></trkpt><trkpt lat="42.13929530836599" lon="-7.978259044391542"><ele>715.25</ele><time>2026-04-30T11:18:29Z</time></trkpt><trkpt lat="42.139209783519256" lon="-7.978304287907997"><ele>717.0</ele><time>2026-04-30T11:18:30Z</time></trkpt><trkpt lat="42.139090821130054" lon="-7.978400261559017"><ele>720.5</ele><time>2026-04-30T11:18:31Z</time></trkpt><trkpt lat="42.13897457104173" lon="-7.978533474251615"><ele>724.0</ele><time>2026-04-30T11:18:32Z</time></trkpt><trkpt lat="42.13885318433349" lon="-7.978626720909701"><ele>727.5</ele><time>2026-04-30T11:18:33Z</time></trkpt><trkpt lat="42.13874334969565" lon="-7.978689561213161"><ele>731.0</ele><time>2026-04-30T11:18:34Z</time></trkpt><trkpt lat="42.13870641940346" lon="-7.978761617028754"><ele>731.0</ele><time>2026-04-30T11:18:35Z</time></trkpt><trkpt lat="42.138702538400736" lon="-7.9788782755798175"><ele>731.0</ele><time>2026-04-30T11:18:37Z</time></trkpt><trkpt lat="42.13871429390408" lon="-7.978963029864687"><ele>731.0</ele><time>2026-04-30T11:18:38Z</time></trkpt><trkpt lat="42.13866418267851" lon="-7.979042244021032"><ele>731.0</ele><time>2026-04-30T11:18:39Z</time></trkpt><trkpt lat="42.13864409392242" lon="-7.97913172831092"><ele>731.0</ele><time>2026-04-30T11:18:40Z</time></trkpt><trkpt lat="42.13864806373598" lon="-7.979276531810095"><ele>731.0</ele><time>2026-04-30T11:18:42Z</time></trkpt><trkpt lat="42.13869384213084" lon="-7.979446546889846"><ele>732.8</ele><time>2026-04-30T11:18:44Z</time></trkpt><trkpt lat="42.138723113635535" lon="-7.979548569420595"><ele>734.5999999999999</ele><time>2026-04-30T11:18:45Z</time></trkpt><trkpt lat="42.13876207696507" lon="-7.979636556884162"><ele>736.4</ele><time>2026-04-30T11:18:46Z</time></trkpt><trkpt lat="42.13880970791562" lon="-7.9796936104867875"><ele>738.2</ele><time>2026-04-30T11:18:47Z</time></trkpt><trkpt lat="42.13889547477956" lon="-7.9798644170007265"><ele>740.0</ele><time>2026-04-30T11:18:49Z</time></trkpt><trkpt lat="42.13896045952021" lon="-7.97996281841956"><ele>739.6666666666666</ele><time>2026-04-30T11:18:50Z</time></trkpt><trkpt lat="42.13901588276631" lon="-7.9800617125223114"><ele>739.3333333333333</ele><time>2026-04-30T11:18:51Z</time></trkpt><trkpt lat="42.139063926163395" lon="-7.980200189635497"><ele>739.0</ele><time>2026-04-30T11:18:52.999Z</time></trkpt><trkpt lat="42.1391247466295" lon="-7.98024743041393"><ele>738.6666666666666</ele><time>2026-04-30T11:18:54.999Z</time></trkpt><trkpt lat="42.139193562825376" lon="-7.980254517655591"><ele>738.3333333333334</ele><time>2026-04-30T11:18:55.999Z</time></trkpt><trkpt lat="42.13926583546436" lon="-7.98027429489614"><ele>738.0</ele><time>2026-04-30T11:18:56.999Z</time></trkpt><trkpt lat="42.1393711338663" lon="-7.980266241853212"><ele>738.0</ele><time>2026-04-30T11:18:58.999Z</time></trkpt><trkpt lat="42.13945497648255" lon="-7.980196270815461"><ele>738.0</ele><time>2026-04-30T11:19:01.999Z</time></trkpt><trkpt lat="42.139598848337435" lon="-7.980101136498134"><ele>738.0</ele><time>2026-04-30T11:19:02.999Z</time></trkpt><trkpt lat="42.13964764721692" lon="-7.980023212717287"><ele>738.0</ele><time>2026-04-30T11:19:03.999Z</time></trkpt><trkpt lat="42.13982835915151" lon="-7.979893037803961"><ele>739.2</ele><time>2026-04-30T11:19:05.999Z</time></trkpt><trkpt lat="42.13993702144486" lon="-7.979808748871279"><ele>740.4</ele><time>2026-04-30T11:19:06.999Z</time></trkpt><trkpt lat="42.14002658370836" lon="-7.979744946031543"><ele>741.6</ele><time>2026-04-30T11:19:07.999Z</time></trkpt><trkpt lat="42.140102856772465" lon="-7.979743782742624"><ele>742.8000000000001</ele><time>2026-04-30T11:19:08.999Z</time></trkpt><trkpt lat="42.140208815642694" lon="-7.979731313661802"><ele>744.0</ele><time>2026-04-30T11:19:09.999Z</time></trkpt><trkpt lat="42.14029417800306" lon="-7.979749279646373"><ele>744.0</ele><time>2026-04-30T11:19:12.999Z</time></trkpt><trkpt lat="42.1403701242962" lon="-7.979850106018168"><ele>744.0</ele><time>2026-04-30T11:19:14.999Z</time></trkpt><trkpt lat="42.140435620224906" lon="-7.97993836151837"><ele>744.0</ele><time>2026-04-30T11:19:15.999Z</time></trkpt><trkpt lat="42.14050524509658" lon="-7.9800685238502576"><ele>744.0</ele><time>2026-04-30T11:19:16.999Z</time></trkpt><trkpt lat="42.140605604144405" lon="-7.980169057527007"><ele>744.0</ele><time>2026-04-30T11:19:17.999Z</time></trkpt><trkpt lat="42.14068546499256" lon="-7.980236081443745"><ele>744.2</ele><time>2026-04-30T11:19:18.999Z</time></trkpt><trkpt lat="42.14076211336939" lon="-7.980318016044127"><ele>744.4000000000001</ele><time>2026-04-30T11:19:19.999Z</time></trkpt><trkpt lat="42.14084239745316" lon="-7.980410677014294"><ele>744.6</ele><time>2026-04-30T11:19:20.999Z</time></trkpt><trkpt lat="42.14090215520603" lon="-7.980499342702162"><ele>744.8</ele><time>2026-04-30T11:19:21.999Z</time></trkpt><trkpt lat="42.14097386375176" lon="-7.980577754005944"><ele>745.0</ele><time>2026-04-30T11:19:22.999Z</time></trkpt><trkpt lat="42.14104427074174" lon="-7.98060741895035"><ele>745.0</ele><time>2026-04-30T11:19:24.999Z</time></trkpt><trkpt lat="42.14112992643781" lon="-7.9806584805669445"><ele>745.0</ele><time>2026-04-30T11:19:25.999Z</time></trkpt><trkpt lat="42.14122280837952" lon="-7.980682450126849"><ele>745.0</ele><time>2026-04-30T11:19:26.999Z</time></trkpt><trkpt lat="42.14130851245995" lon="-7.98078625863268"><ele>745.0</ele><time>2026-04-30T11:19:27.999Z</time></trkpt><trkpt lat="42.14140737244103" lon="-7.980888657620436"><ele>745.0</ele><time>2026-04-30T11:19:28.999Z</time></trkpt><trkpt lat="42.141500210438295" lon="-7.9809471162494505"><ele>745.3333333333334</ele><time>2026-04-30T11:19:29.999Z</time></trkpt><trkpt lat="42.141570940886616" lon="-7.98097316524206"><ele>745.6666666666667</ele><time>2026-04-30T11:19:30.999Z</time></trkpt><trkpt lat="42.14164505812312" lon="-7.980948969326922"><ele>746.0</ele><time>2026-04-30T11:19:33Z</time></trkpt><trkpt lat="42.141666894393204" lon="-7.981033162865923"><ele>746.3333333333334</ele><time>2026-04-30T11:19:37Z</time></trkpt><trkpt lat="42.14166440061752" lon="-7.981130753915582"><ele>746.6666666666666</ele><time>2026-04-30T11:19:38Z</time></trkpt><trkpt lat="42.1416342540073" lon="-7.981218574546131"><ele>747.0</ele><time>2026-04-30T11:19:39Z</time></trkpt><trkpt lat="42.14152731351112" lon="-7.981337873323726"><ele>747.0</ele><time>2026-04-30T11:19:40Z</time></trkpt><trkpt lat="42.141462267654894" lon="-7.981484789986528"><ele>747.0</ele><time>2026-04-30T11:19:41Z</time></trkpt><trkpt lat="42.141447520909395" lon="-7.9816016764467985"><ele>747.0</ele><time>2026-04-30T11:19:42Z</time></trkpt><trkpt lat="42.1414421669574" lon="-7.98171275501939"><ele>747.0</ele><time>2026-04-30T11:19:43Z</time></trkpt><trkpt lat="42.14146897232691" lon="-7.981817165000529"><ele>747.0</ele><time>2026-04-30T11:19:44Z</time></trkpt><trkpt lat="42.141478448922534" lon="-7.981911033077303"><ele>747.0</ele><time>2026-04-30T11:19:45Z</time></trkpt><trkpt lat="42.141447828982756" lon="-7.98199663463371"><ele>747.5</ele><time>2026-04-30T11:19:46Z</time></trkpt><trkpt lat="42.14150218465858" lon="-7.982123825921011"><ele>748.0</ele><time>2026-04-30T11:19:48Z</time></trkpt><trkpt lat="42.14157676454098" lon="-7.98214543168475"><ele>748.5</ele><time>2026-04-30T11:19:50Z</time></trkpt><trkpt lat="42.14172396072799" lon="-7.9821549660232"><ele>749.0</ele><time>2026-04-30T11:19:52Z</time></trkpt><trkpt lat="42.1418547756278" lon="-7.9821193384410325"><ele>747.4000000000001</ele><time>2026-04-30T11:19:53Z</time></trkpt><trkpt lat="42.14199682054853" lon="-7.98209510109522"><ele>745.8</ele><time>2026-04-30T11:19:54Z</time></trkpt><trkpt lat="42.14209416696952" lon="-7.982066077209073"><ele>744.2</ele><time>2026-04-30T11:19:55Z</time></trkpt><trkpt lat="42.1421809915147" lon="-7.982039751027895"><ele>742.5999999999999</ele><time>2026-04-30T11:19:56Z</time></trkpt><trkpt lat="42.14226523600124" lon="-7.982028679641295"><ele>741.0</ele><time>2026-04-30T11:19:57Z</time></trkpt><trkpt lat="42.142340196462335" lon="-7.982028139829881"><ele>739.0</ele><time>2026-04-30T11:19:58Z</time></trkpt><trkpt lat="42.142412266279464" lon="-7.982038468738853"><ele>737.0</ele><time>2026-04-30T11:19:59Z</time></trkpt><trkpt lat="42.142528192877755" lon="-7.9820969358085865"><ele>735.0</ele><time>2026-04-30T11:20:02Z</time></trkpt><trkpt lat="42.1425718277652" lon="-7.982161485992753"><ele>733.0</ele><time>2026-04-30T11:20:03Z</time></trkpt><trkpt lat="42.14251198134495" lon="-7.982296957480604"><ele>731.0</ele><time>2026-04-30T11:20:06Z</time></trkpt><trkpt lat="42.14248610519351" lon="-7.982423741861508"><ele>731.1999999999999</ele><time>2026-04-30T11:20:07Z</time></trkpt><trkpt lat="42.142463228629694" lon="-7.982537045774697"><ele>731.4</ele><time>2026-04-30T11:20:08Z</time></trkpt><trkpt lat="42.142457630807215" lon="-7.98265071332852"><ele>731.6</ele><time>2026-04-30T11:20:09Z</time></trkpt><trkpt lat="42.14251988822967" lon="-7.982771118291684"><ele>731.8</ele><time>2026-04-30T11:20:10Z</time></trkpt><trkpt lat="42.14253091320259" lon="-7.982880085378597"><ele>732.0</ele><time>2026-04-30T11:20:12Z</time></trkpt><trkpt lat="42.1425083444053" lon="-7.983007850612661"><ele>732.0</ele><time>2026-04-30T11:20:26Z</time></trkpt><trkpt lat="42.14251426781142" lon="-7.983095062414736"><ele>732.0</ele><time>2026-04-30T11:20:27Z</time></trkpt><trkpt lat="42.142459069250236" lon="-7.983267230375003"><ele>732.0</ele><time>2026-04-30T11:20:29Z</time></trkpt><trkpt lat="42.14246593596966" lon="-7.983394104635026"><ele>732.0</ele><time>2026-04-30T11:20:32Z</time></trkpt><trkpt lat="42.14252530292583" lon="-7.983470966920113"><ele>732.0</ele><time>2026-04-30T11:20:34Z</time></trkpt><trkpt lat="42.142605661356924" lon="-7.9833794984440365"><ele>732.0</ele><time>2026-04-30T11:20:36Z</time></trkpt><trkpt lat="42.14267123432632" lon="-7.983295738291428"><ele>732.0</ele><time>2026-04-30T11:20:37Z</time></trkpt><trkpt lat="42.14272037444447" lon="-7.983230939741946"><ele>732.0</ele><time>2026-04-30T11:20:38Z</time></trkpt><trkpt lat="42.14280661436617" lon="-7.983238956494713"><ele>732.0</ele><time>2026-04-30T11:20:40Z</time></trkpt><trkpt lat="42.14286921546103" lon="-7.983321906821219"><ele>732.0</ele><time>2026-04-30T11:20:42Z</time></trkpt><trkpt lat="42.142920576360645" lon="-7.983420591017652"><ele>732.0</ele><time>2026-04-30T11:20:44Z</time></trkpt><trkpt lat="42.14303755769225" lon="-7.983476075574339"><ele>732.0</ele><time>2026-04-30T11:20:46Z</time></trkpt><trkpt lat="42.14313407830547" lon="-7.983563087948604"><ele>732.0</ele><time>2026-04-30T11:20:48Z</time></trkpt><trkpt lat="42.14320968101797" lon="-7.983637448755455"><ele>732.0</ele><time>2026-04-30T11:20:49Z</time></trkpt><trkpt lat="42.143288091790225" lon="-7.983729112619619"><ele>732.0</ele><time>2026-04-30T11:20:50Z</time></trkpt><trkpt lat="42.143361495119606" lon="-7.983806544863157"><ele>732.0</ele><time>2026-04-30T11:20:51Z</time></trkpt><trkpt lat="42.14343980605045" lon="-7.9838783149089885"><ele>730.75</ele><time>2026-04-30T11:20:52Z</time></trkpt><trkpt lat="42.14351618393472" lon="-7.983955193320451"><ele>729.5</ele><time>2026-04-30T11:20:53Z</time></trkpt><trkpt lat="42.14358975728285" lon="-7.984038963589036"><ele>728.25</ele><time>2026-04-30T11:20:54Z</time></trkpt><trkpt lat="42.143692628409674" lon="-7.984144106896462"><ele>727.0</ele><time>2026-04-30T11:20:55Z</time></trkpt><trkpt lat="42.14380164953143" lon="-7.9842560409136425"><ele>727.0</ele><time>2026-04-30T11:20:56Z</time></trkpt><trkpt lat="42.1438713977945" lon="-7.984333776603436"><ele>727.0</ele><time>2026-04-30T11:20:57Z</time></trkpt><trkpt lat="42.143945551649225" lon="-7.984380833329628"><ele>727.0</ele><time>2026-04-30T11:20:59Z</time></trkpt><trkpt lat="42.14399234666341" lon="-7.98425681366287"><ele>727.0</ele><time>2026-04-30T11:21:01Z</time></trkpt><trkpt lat="42.144016844478585" lon="-7.984113934951405"><ele>727.0</ele><time>2026-04-30T11:21:02Z</time></trkpt><trkpt lat="42.14405796866947" lon="-7.98392291437224"><ele>726.3333333333334</ele><time>2026-04-30T11:21:03Z</time></trkpt><trkpt lat="42.14408713235385" lon="-7.9838143904548"><ele>725.6666666666666</ele><time>2026-04-30T11:21:04Z</time></trkpt><trkpt lat="42.14436808528136" lon="-7.983509222706913"><ele>725.0</ele><time>2026-04-30T11:21:10.999Z</time></trkpt><trkpt lat="42.14439947631857" lon="-7.983337482799461"><ele>724.25</ele><time>2026-04-30T11:21:11.999Z</time></trkpt><trkpt lat="42.14445315805289" lon="-7.983192451072018"><ele>723.5</ele><time>2026-04-30T11:21:12.999Z</time></trkpt><trkpt lat="42.14452408142076" lon="-7.983020899998908"><ele>722.75</ele><time>2026-04-30T11:21:13.999Z</time></trkpt><trkpt lat="42.1445947391533" lon="-7.982874713500461"><ele>722.0</ele><time>2026-04-30T11:21:14.999Z</time></trkpt><trkpt lat="42.14466716335325" lon="-7.982786006164723"><ele>722.0</ele><time>2026-04-30T11:21:15.999Z</time></trkpt><trkpt lat="42.14472314434855" lon="-7.9826699227706595"><ele>722.0</ele><time>2026-04-30T11:21:16.999Z</time></trkpt><trkpt lat="42.14477454857869" lon="-7.982559592605872"><ele>722.0</ele><time>2026-04-30T11:21:17.999Z</time></trkpt><trkpt lat="42.14481905484608" lon="-7.982469232546988"><ele>722.0</ele><time>2026-04-30T11:21:18.999Z</time></trkpt><trkpt lat="42.14492547737648" lon="-7.982319684165794"><ele>722.0</ele><time>2026-04-30T11:21:20.999Z</time></trkpt><trkpt lat="42.144980505932665" lon="-7.982227063184648"><ele>719.75</ele><time>2026-04-30T11:21:21.999Z</time></trkpt><trkpt lat="42.145038140454915" lon="-7.9821187020741124"><ele>717.5</ele><time>2026-04-30T11:21:22.999Z</time></trkpt><trkpt lat="42.145116942841575" lon="-7.982000301937682"><ele>715.25</ele><time>2026-04-30T11:21:23.999Z</time></trkpt><trkpt lat="42.14519218202303" lon="-7.981887144257338"><ele>713.0</ele><time>2026-04-30T11:21:24.999Z</time></trkpt><trkpt lat="42.14526459839859" lon="-7.9817476657351625"><ele>712.25</ele><time>2026-04-30T11:21:25.999Z</time></trkpt><trkpt lat="42.14532983157178" lon="-7.9816121726702685"><ele>711.5</ele><time>2026-04-30T11:21:26.999Z</time></trkpt><trkpt lat="42.14538603314025" lon="-7.981476515652222"><ele>710.75</ele><time>2026-04-30T11:21:27.999Z</time></trkpt><trkpt lat="42.1454416704365" lon="-7.981323912094867"><ele>710.0</ele><time>2026-04-30T11:21:28.999Z</time></trkpt><trkpt lat="42.1454793506363" lon="-7.9811558311546955"><ele>710.0</ele><time>2026-04-30T11:21:29.999Z</time></trkpt><trkpt lat="42.14551144570589" lon="-7.980995037164802"><ele>710.0</ele><time>2026-04-30T11:21:30.999Z</time></trkpt><trkpt lat="42.14553194762107" lon="-7.98083877241011"><ele>710.0</ele><time>2026-04-30T11:21:31.999Z</time></trkpt><trkpt lat="42.14553691625493" lon="-7.980695448555201"><ele>710.0</ele><time>2026-04-30T11:21:32.999Z</time></trkpt><trkpt lat="42.145557708620515" lon="-7.980542370093281"><ele>709.0</ele><time>2026-04-30T11:21:33.999Z</time></trkpt><trkpt lat="42.1455827174648" lon="-7.980384310933286"><ele>708.0</ele><time>2026-04-30T11:21:34.999Z</time></trkpt><trkpt lat="42.145601323745424" lon="-7.98022977473584"><ele>707.0</ele><time>2026-04-30T11:21:35.999Z</time></trkpt><trkpt lat="42.14562292040371" lon="-7.980087489824408"><ele>706.0</ele><time>2026-04-30T11:21:36.999Z</time></trkpt><trkpt lat="42.14564337613515" lon="-7.9799456263001876"><ele>705.0</ele><time>2026-04-30T11:21:38Z</time></trkpt><trkpt lat="42.145674457362816" lon="-7.979804376444318"><ele>704.0</ele><time>2026-04-30T11:21:39Z</time></trkpt><trkpt lat="42.145715382626754" lon="-7.97966188927842"><ele>703.0</ele><time>2026-04-30T11:21:40Z</time></trkpt><trkpt lat="42.145773512402975" lon="-7.9795159453874005"><ele>702.0</ele><time>2026-04-30T11:21:41Z</time></trkpt><trkpt lat="42.145847288896256" lon="-7.97936692995529"><ele>701.75</ele><time>2026-04-30T11:21:42Z</time></trkpt><trkpt lat="42.14594174417848" lon="-7.979236755845558"><ele>701.5</ele><time>2026-04-30T11:21:43Z</time></trkpt><trkpt lat="42.14605801557634" lon="-7.979118005080148"><ele>701.25</ele><time>2026-04-30T11:21:44Z</time></trkpt><trkpt lat="42.14618348207" lon="-7.979023800161247"><ele>701.0</ele><time>2026-04-30T11:21:45Z</time></trkpt><trkpt lat="42.146320741108866" lon="-7.978960596037099"><ele>700.0</ele><time>2026-04-30T11:21:46Z</time></trkpt><trkpt lat="42.146464473105" lon="-7.97892117438849"><ele>699.0</ele><time>2026-04-30T11:21:47Z</time></trkpt><trkpt lat="42.146613809802325" lon="-7.978898553454319"><ele>698.0</ele><time>2026-04-30T11:21:48Z</time></trkpt><trkpt lat="42.14675684683531" lon="-7.978884167781263"><ele>697.0</ele><time>2026-04-30T11:21:49Z</time></trkpt><trkpt lat="42.146903694875874" lon="-7.978863846164872"><ele>696.0</ele><time>2026-04-30T11:21:50Z</time></trkpt><trkpt lat="42.14704828027902" lon="-7.978838267056845"><ele>695.0</ele><time>2026-04-30T11:21:51Z</time></trkpt><trkpt lat="42.147194301626676" lon="-7.978812475149129"><ele>694.0</ele><time>2026-04-30T11:21:52Z</time></trkpt><trkpt lat="42.147337186596324" lon="-7.978790915777072"><ele>693.0</ele><time>2026-04-30T11:21:53Z</time></trkpt><trkpt lat="42.147475499421155" lon="-7.978772561465679"><ele>692.75</ele><time>2026-04-30T11:21:54Z</time></trkpt><trkpt lat="42.147623979078304" lon="-7.97875240536352"><ele>692.5</ele><time>2026-04-30T11:21:55Z</time></trkpt><trkpt lat="42.147761500053264" lon="-7.978727145191204"><ele>692.25</ele><time>2026-04-30T11:21:56Z</time></trkpt><trkpt lat="42.14790154405796" lon="-7.978707634291183"><ele>692.0</ele><time>2026-04-30T11:21:57Z</time></trkpt><trkpt lat="42.14803732790417" lon="-7.97868639791091"><ele>692.0</ele><time>2026-04-30T11:21:58Z</time></trkpt><trkpt lat="42.14818256969667" lon="-7.978649532377006"><ele>692.0</ele><time>2026-04-30T11:21:59Z</time></trkpt><trkpt lat="42.14831464351915" lon="-7.978587509882924"><ele>692.0</ele><time>2026-04-30T11:22:00Z</time></trkpt><trkpt lat="42.14842992871399" lon="-7.978508275562194"><ele>692.0</ele><time>2026-04-30T11:22:01Z</time></trkpt><trkpt lat="42.148531732545194" lon="-7.978415778468256"><ele>691.2</ele><time>2026-04-30T11:22:02Z</time></trkpt><trkpt lat="42.148616529661474" lon="-7.97834258303427"><ele>690.4000000000001</ele><time>2026-04-30T11:22:03Z</time></trkpt><trkpt lat="42.14870411755077" lon="-7.978252442523664"><ele>689.5999999999999</ele><time>2026-04-30T11:22:04Z</time></trkpt><trkpt lat="42.1487749907591" lon="-7.978180465952461"><ele>688.8</ele><time>2026-04-30T11:22:05Z</time></trkpt><trkpt lat="42.148841617123686" lon="-7.978120887926372"><ele>688.0</ele><time>2026-04-30T11:22:06Z</time></trkpt><trkpt lat="42.14890807594191" lon="-7.978058226960905"><ele>688.0</ele><time>2026-04-30T11:22:07Z</time></trkpt><trkpt lat="42.148955310870505" lon="-7.977982791170159"><ele>688.0</ele><time>2026-04-30T11:22:08Z</time></trkpt><trkpt lat="42.14901309950204" lon="-7.9779093473566505"><ele>688.0</ele><time>2026-04-30T11:22:09Z</time></trkpt><trkpt lat="42.14907336687192" lon="-7.9778221591812475"><ele>688.0</ele><time>2026-04-30T11:22:10Z</time></trkpt><trkpt lat="42.14913514907235" lon="-7.977728929581013"><ele>688.0</ele><time>2026-04-30T11:22:11Z</time></trkpt><trkpt lat="42.14919100215849" lon="-7.977628338896337"><ele>688.0</ele><time>2026-04-30T11:22:12Z</time></trkpt><trkpt lat="42.14923835035389" lon="-7.977545463459289"><ele>689.5</ele><time>2026-04-30T11:22:13Z</time></trkpt><trkpt lat="42.14928689465342" lon="-7.977460494445546"><ele>691.0</ele><time>2026-04-30T11:22:14Z</time></trkpt><trkpt lat="42.14974889324929" lon="-7.977797189225337"><ele>691.0</ele><time>2026-04-30T11:22:16Z</time></trkpt><trkpt lat="42.14986663671075" lon="-7.977805283455929"><ele>691.0</ele><time>2026-04-30T11:22:17Z</time></trkpt><trkpt lat="42.149980478749505" lon="-7.9777899279028555"><ele>691.0</ele><time>2026-04-30T11:22:18Z</time></trkpt><trkpt lat="42.150113994682236" lon="-7.977736732700624"><ele>691.0</ele><time>2026-04-30T11:22:19Z</time></trkpt><trkpt lat="42.15023191729888" lon="-7.977674611317721"><ele>691.75</ele><time>2026-04-30T11:22:20Z</time></trkpt><trkpt lat="42.15033571555717" lon="-7.97759353811656"><ele>692.5</ele><time>2026-04-30T11:22:21Z</time></trkpt><trkpt lat="42.15042675705651" lon="-7.977498833800979"><ele>693.25</ele><time>2026-04-30T11:22:22Z</time></trkpt><trkpt lat="42.15046672400713" lon="-7.977382521829767"><ele>694.0</ele><time>2026-04-30T11:22:23Z</time></trkpt><trkpt lat="42.15055223588461" lon="-7.977215735276003"><ele>692.0</ele><time>2026-04-30T11:22:24Z</time></trkpt><trkpt lat="42.1506404388669" lon="-7.9770380541068855"><ele>690.0</ele><time>2026-04-30T11:22:25Z</time></trkpt><trkpt lat="42.1506978252095" lon="-7.97686907965339"><ele>688.0</ele><time>2026-04-30T11:22:26Z</time></trkpt><trkpt lat="42.15074529956397" lon="-7.976715888709032"><ele>686.0</ele><time>2026-04-30T11:22:27Z</time></trkpt><trkpt lat="42.15077912687222" lon="-7.976565050813935"><ele>684.0</ele><time>2026-04-30T11:22:28Z</time></trkpt><trkpt lat="42.15078709914682" lon="-7.976437875437267"><ele>682.0</ele><time>2026-04-30T11:22:29Z</time></trkpt><trkpt lat="42.150820761514964" lon="-7.9763436373850745"><ele>680.0</ele><time>2026-04-30T11:22:30Z</time></trkpt><trkpt lat="42.1508610436592" lon="-7.97626828304158"><ele>678.0</ele><time>2026-04-30T11:22:31Z</time></trkpt><trkpt lat="42.15106155911069" lon="-7.976304641896298"><ele>676.0</ele><time>2026-04-30T11:22:33Z</time></trkpt><trkpt lat="42.15120756418611" lon="-7.97637541863784"><ele>676.0</ele><time>2026-04-30T11:22:34Z</time></trkpt><trkpt lat="42.151320893539605" lon="-7.976428530885998"><ele>676.0</ele><time>2026-04-30T11:22:35Z</time></trkpt><trkpt lat="42.15139775278246" lon="-7.976440811613251"><ele>676.0</ele><time>2026-04-30T11:22:36Z</time></trkpt><trkpt lat="42.15146948542781" lon="-7.976385725571884"><ele>676.0</ele><time>2026-04-30T11:22:37Z</time></trkpt><trkpt lat="42.151572094706495" lon="-7.976270218830112"><ele>676.0</ele><time>2026-04-30T11:22:38Z</time></trkpt><trkpt lat="42.1517027122111" lon="-7.976143462150662"><ele>677.0</ele><time>2026-04-30T11:22:39Z</time></trkpt><trkpt lat="42.1518329681292" lon="-7.975983252083024"><ele>678.0</ele><time>2026-04-30T11:22:40Z</time></trkpt><trkpt lat="42.151910337636345" lon="-7.9758045251087095"><ele>679.0</ele><time>2026-04-30T11:22:41Z</time></trkpt><trkpt lat="42.15198342856" lon="-7.975642570681981"><ele>678.0</ele><time>2026-04-30T11:22:42Z</time></trkpt><trkpt lat="42.15207151471697" lon="-7.975486624447076"><ele>677.0</ele><time>2026-04-30T11:22:43Z</time></trkpt><trkpt lat="42.15216502545686" lon="-7.975357023080086"><ele>676.0</ele><time>2026-04-30T11:22:44Z</time></trkpt><trkpt lat="42.15226222511936" lon="-7.975243038166475"><ele>675.0</ele><time>2026-04-30T11:22:45Z</time></trkpt><trkpt lat="42.15238841884903" lon="-7.975142381655535"><ele>675.0</ele><time>2026-04-30T11:22:46Z</time></trkpt><trkpt lat="42.15251622523037" lon="-7.975076907940294"><ele>675.0</ele><time>2026-04-30T11:22:47Z</time></trkpt><trkpt lat="42.15262941144188" lon="-7.9750472430543695"><ele>675.0</ele><time>2026-04-30T11:22:48Z</time></trkpt><trkpt lat="42.15271410650335" lon="-7.975017796921233"><ele>675.0</ele><time>2026-04-30T11:22:49Z</time></trkpt><trkpt lat="42.15277870302114" lon="-7.9749988263212295"><ele>675.0</ele><time>2026-04-30T11:22:50Z</time></trkpt><trkpt lat="42.15286609390634" lon="-7.974986732753428"><ele>674.4</ele><time>2026-04-30T11:22:52Z</time></trkpt><trkpt lat="42.15298158758174" lon="-7.974972713364959"><ele>673.8</ele><time>2026-04-30T11:22:54Z</time></trkpt><trkpt lat="42.15306462688593" lon="-7.974953322209826"><ele>673.2</ele><time>2026-04-30T11:22:55Z</time></trkpt><trkpt lat="42.153174690243006" lon="-7.97495128102696"><ele>672.6</ele><time>2026-04-30T11:22:56Z</time></trkpt><trkpt lat="42.15328329418391" lon="-7.974952492631868"><ele>672.0</ele><time>2026-04-30T11:22:57Z</time></trkpt><trkpt lat="42.153406724295756" lon="-7.974952815811073"><ele>671.75</ele><time>2026-04-30T11:22:58Z</time></trkpt><trkpt lat="42.15353261721171" lon="-7.974945785321107"><ele>671.5</ele><time>2026-04-30T11:22:59Z</time></trkpt><trkpt lat="42.153660825084316" lon="-7.974944701816878"><ele>671.25</ele><time>2026-04-30T11:23:00Z</time></trkpt><trkpt lat="42.153790288004295" lon="-7.974912986352667"><ele>671.0</ele><time>2026-04-30T11:23:01Z</time></trkpt><trkpt lat="42.153917145135665" lon="-7.97485798829015"><ele>670.75</ele><time>2026-04-30T11:23:02Z</time></trkpt><trkpt lat="42.15405325376182" lon="-7.974788810219539"><ele>670.5</ele><time>2026-04-30T11:23:03Z</time></trkpt><trkpt lat="42.15418519260417" lon="-7.9747060684504305"><ele>670.25</ele><time>2026-04-30T11:23:04Z</time></trkpt><trkpt lat="42.154317728368724" lon="-7.974659450790435"><ele>670.0</ele><time>2026-04-30T11:23:05Z</time></trkpt><trkpt lat="42.15447059864322" lon="-7.974656026399176"><ele>670.0</ele><time>2026-04-30T11:23:06Z</time></trkpt><trkpt lat="42.154629891754745" lon="-7.974667558904996"><ele>670.0</ele><time>2026-04-30T11:23:07Z</time></trkpt><trkpt lat="42.15477947129693" lon="-7.974685999818288"><ele>670.0</ele><time>2026-04-30T11:23:08Z</time></trkpt><trkpt lat="42.1549313325535" lon="-7.974691366340634"><ele>670.25</ele><time>2026-04-30T11:23:09Z</time></trkpt><trkpt lat="42.155086814519805" lon="-7.974710928684029"><ele>670.5</ele><time>2026-04-30T11:23:10Z</time></trkpt><trkpt lat="42.15522587450724" lon="-7.974724967925464"><ele>670.75</ele><time>2026-04-30T11:23:11Z</time></trkpt><trkpt lat="42.15531394050989" lon="-7.974691190217923"><ele>671.0</ele><time>2026-04-30T11:23:12Z</time></trkpt><trkpt lat="42.1554351289359" lon="-7.974586567656802"><ele>671.0</ele><time>2026-04-30T11:23:13Z</time></trkpt><trkpt lat="42.155555068064665" lon="-7.974489911562317"><ele>671.0</ele><time>2026-04-30T11:23:14Z</time></trkpt><trkpt lat="42.15568185629083" lon="-7.9743995363812585"><ele>671.0</ele><time>2026-04-30T11:23:15Z</time></trkpt><trkpt lat="42.155775206559056" lon="-7.974350651280378"><ele>671.0</ele><time>2026-04-30T11:23:16Z</time></trkpt><trkpt lat="42.1558700231503" lon="-7.974292485091827"><ele>671.8</ele><time>2026-04-30T11:23:17.999Z</time></trkpt><trkpt lat="42.15598036090588" lon="-7.974311137430028"><ele>672.5999999999999</ele><time>2026-04-30T11:23:19.999Z</time></trkpt><trkpt lat="42.15609014110586" lon="-7.974377479518349"><ele>673.4</ele><time>2026-04-30T11:23:20.999Z</time></trkpt><trkpt lat="42.15620184765312" lon="-7.974412047080988"><ele>674.2</ele><time>2026-04-30T11:23:21.999Z</time></trkpt><trkpt lat="42.15629621022184" lon="-7.974427934145691"><ele>675.0</ele><time>2026-04-30T11:23:22.999Z</time></trkpt><trkpt lat="42.15640311618023" lon="-7.974446577771963"><ele>675.0</ele><time>2026-04-30T11:23:23.999Z</time></trkpt><trkpt lat="42.156514660170146" lon="-7.974472154735562"><ele>675.0</ele><time>2026-04-30T11:23:24.999Z</time></trkpt><trkpt lat="42.15662722668493" lon="-7.974489398650912"><ele>675.0</ele><time>2026-04-30T11:23:25.999Z</time></trkpt><trkpt lat="42.156728159619945" lon="-7.97452023590419"><ele>675.0</ele><time>2026-04-30T11:23:26.999Z</time></trkpt><trkpt lat="42.1568175494077" lon="-7.974552102074932"><ele>675.0</ele><time>2026-04-30T11:23:27.999Z</time></trkpt><trkpt lat="42.15688612695116" lon="-7.9745785005105265"><ele>675.8333333333334</ele><time>2026-04-30T11:23:28.999Z</time></trkpt><trkpt lat="42.156985258243246" lon="-7.974585788375457"><ele>676.6666666666666</ele><time>2026-04-30T11:23:30.999Z</time></trkpt><trkpt lat="42.15704840477997" lon="-7.974570739685068"><ele>677.5</ele><time>2026-04-30T11:23:31.999Z</time></trkpt><trkpt lat="42.157115298336144" lon="-7.97455815290262"><ele>678.3333333333333</ele><time>2026-04-30T11:23:32.999Z</time></trkpt><trkpt lat="42.15720056202653" lon="-7.974564353669521"><ele>679.1666666666666</ele><time>2026-04-30T11:23:34.999Z</time></trkpt><trkpt lat="42.15730828152259" lon="-7.974549030640027"><ele>680.0</ele><time>2026-04-30T11:23:36.999Z</time></trkpt><trkpt lat="42.157384810107246" lon="-7.974538282893117"><ele>680.0</ele><time>2026-04-30T11:23:37.999Z</time></trkpt><trkpt lat="42.157453868637106" lon="-7.97454028526304"><ele>680.0</ele><time>2026-04-30T11:23:38.999Z</time></trkpt><trkpt lat="42.15752825723473" lon="-7.974542079781756"><ele>680.0</ele><time>2026-04-30T11:23:40.999Z</time></trkpt><trkpt lat="42.157600490798536" lon="-7.974529911277092"><ele>680.0</ele><time>2026-04-30T11:23:45Z</time></trkpt><trkpt lat="42.157477993469634" lon="-7.9745756225698905"><ele>680.0</ele><time>2026-04-30T11:23:49Z</time></trkpt><trkpt lat="42.15739212690015" lon="-7.974589913523846"><ele>680.0</ele><time>2026-04-30T11:23:50Z</time></trkpt><trkpt lat="42.15730339585807" lon="-7.974573656219396"><ele>680.8</ele><time>2026-04-30T11:23:51Z</time></trkpt><trkpt lat="42.15739294131521" lon="-7.974520717278416"><ele>681.6</ele><time>2026-04-30T11:23:59Z</time></trkpt><trkpt lat="42.1574916612942" lon="-7.974545010149404"><ele>682.4000000000001</ele><time>2026-04-30T11:24:01Z</time></trkpt><trkpt lat="42.15755457359253" lon="-7.97450115673526"><ele>683.2</ele><time>2026-04-30T11:24:04Z</time></trkpt><trkpt lat="42.15767645793965" lon="-7.974442756490107"><ele>684.0</ele><time>2026-04-30T11:24:06Z</time></trkpt><trkpt lat="42.15778330663541" lon="-7.974452416343885"><ele>684.0</ele><time>2026-04-30T11:24:07Z</time></trkpt><trkpt lat="42.157900190141255" lon="-7.97442971658207"><ele>684.0</ele><time>2026-04-30T11:24:08Z</time></trkpt><trkpt lat="42.158035157261025" lon="-7.974430868942737"><ele>684.0</ele><time>2026-04-30T11:24:09Z</time></trkpt><trkpt lat="42.1581801003878" lon="-7.9744787893075815"><ele>684.0</ele><time>2026-04-30T11:24:10Z</time></trkpt><trkpt lat="42.15829754888107" lon="-7.974523740401927"><ele>683.75</ele><time>2026-04-30T11:24:11Z</time></trkpt><trkpt lat="42.15836773774838" lon="-7.9745693961652035"><ele>683.5</ele><time>2026-04-30T11:24:12Z</time></trkpt><trkpt lat="42.1584370317254" lon="-7.9746100908571425"><ele>683.25</ele><time>2026-04-30T11:24:13Z</time></trkpt><trkpt lat="42.15852449731004" lon="-7.974699166684417"><ele>683.0</ele><time>2026-04-30T11:24:14Z</time></trkpt><trkpt lat="42.15852620385681" lon="-7.974971461076984"><ele>684.25</ele><time>2026-04-30T11:24:15Z</time></trkpt><trkpt lat="42.15859899178655" lon="-7.9751332790590155"><ele>685.5</ele><time>2026-04-30T11:24:16Z</time></trkpt><trkpt lat="42.15860433059254" lon="-7.975248526981913"><ele>686.75</ele><time>2026-04-30T11:24:17Z</time></trkpt><trkpt lat="42.15864308907852" lon="-7.975356224931448"><ele>688.0</ele><time>2026-04-30T11:24:18Z</time></trkpt><trkpt lat="42.159083261641676" lon="-7.975177618209789"><ele>685.5</ele><time>2026-04-30T11:24:20Z</time></trkpt><trkpt lat="42.159197852613325" lon="-7.9750941043713865"><ele>683.0</ele><time>2026-04-30T11:24:21Z</time></trkpt><trkpt lat="42.15934036852132" lon="-7.974981251063018"><ele>680.5</ele><time>2026-04-30T11:24:22Z</time></trkpt><trkpt lat="42.15946380636358" lon="-7.974882368481229"><ele>678.0</ele><time>2026-04-30T11:24:23Z</time></trkpt><trkpt lat="42.15953095219019" lon="-7.974843950894445"><ele>678.0</ele><time>2026-04-30T11:24:24Z</time></trkpt><trkpt lat="42.15960591199348" lon="-7.974936639498879"><ele>678.0</ele><time>2026-04-30T11:24:26Z</time></trkpt><trkpt lat="42.15961864748938" lon="-7.97502751021082"><ele>678.0</ele><time>2026-04-30T11:24:27Z</time></trkpt><trkpt lat="42.15960933583319" lon="-7.975138359964696"><ele>678.0</ele><time>2026-04-30T11:24:28Z</time></trkpt><trkpt lat="42.15962308708316" lon="-7.975274763678609"><ele>678.0</ele><time>2026-04-30T11:24:29Z</time></trkpt><trkpt lat="42.15964344496332" lon="-7.975434472911563"><ele>678.0</ele><time>2026-04-30T11:24:30Z</time></trkpt><trkpt lat="42.15965969601346" lon="-7.9756154163741595"><ele>678.0</ele><time>2026-04-30T11:24:31Z</time></trkpt><trkpt lat="42.159677147615376" lon="-7.975784795734091"><ele>678.0</ele><time>2026-04-30T11:24:32Z</time></trkpt><trkpt lat="42.159695158272605" lon="-7.975933312502744"><ele>678.0</ele><time>2026-04-30T11:24:33Z</time></trkpt><trkpt lat="42.15970768242843" lon="-7.976057361343562"><ele>678.7142857142857</ele><time>2026-04-30T11:24:34Z</time></trkpt><trkpt lat="42.159722321240665" lon="-7.9761573872315354"><ele>679.4285714285714</ele><time>2026-04-30T11:24:35Z</time></trkpt><trkpt lat="42.159734570453665" lon="-7.976241065139245"><ele>680.1428571428571</ele><time>2026-04-30T11:24:36Z</time></trkpt><trkpt lat="42.15975036823359" lon="-7.976362379905184"><ele>680.8571428571429</ele><time>2026-04-30T11:24:38Z</time></trkpt><trkpt lat="42.15976613289788" lon="-7.976450915351116"><ele>681.5714285714286</ele><time>2026-04-30T11:24:41Z</time></trkpt><trkpt lat="42.15979853031548" lon="-7.97637134347194"><ele>682.2857142857143</ele><time>2026-04-30T11:25:36.999Z</time></trkpt><trkpt lat="42.15975562342828" lon="-7.976452121624351"><ele>683.0</ele><time>2026-04-30T11:25:46.999Z</time></trkpt><trkpt lat="42.15974637308071" lon="-7.976340315928376"><ele>683.0</ele><time>2026-04-30T11:39:20Z</time></trkpt><trkpt lat="42.15971547056149" lon="-7.9762637200562345"><ele>683.0</ele><time>2026-04-30T11:41:24Z</time></trkpt><trkpt lat="42.15974021976701" lon="-7.976361384104581"><ele>683.0</ele><time>2026-04-30T11:41:36Z</time></trkpt><trkpt lat="42.15975680516745" lon="-7.97644452493048"><ele>683.0</ele><time>2026-04-30T11:41:39Z</time></trkpt><trkpt lat="42.15976569294773" lon="-7.976531007942492"><ele>683.0</ele><time>2026-04-30T11:41:41Z</time></trkpt><trkpt lat="42.159776874449456" lon="-7.976631357791275"><ele>683.0</ele><time>2026-04-30T11:41:43Z</time></trkpt><trkpt lat="42.159793048257846" lon="-7.97672530745781"><ele>683.0</ele><time>2026-04-30T11:41:45Z</time></trkpt><trkpt lat="42.159804412630315" lon="-7.976837692428888"><ele>683.6666666666666</ele><time>2026-04-30T11:41:48Z</time></trkpt><trkpt lat="42.15987036320136" lon="-7.9768298112344835"><ele>684.3333333333333</ele><time>2026-04-30T11:41:53Z</time></trkpt><trkpt lat="42.159951877705666" lon="-7.976770837894076"><ele>685.0</ele><time>2026-04-30T11:41:55Z</time></trkpt><trkpt lat="42.16005593952471" lon="-7.976687149085924"><ele>685.6666666666666</ele><time>2026-04-30T11:41:57Z</time></trkpt><trkpt lat="42.16010007897745" lon="-7.976604931709334"><ele>686.3333333333334</ele><time>2026-04-30T11:41:58Z</time></trkpt><trkpt lat="42.16015453484483" lon="-7.97654238577765"><ele>687.0</ele><time>2026-04-30T11:41:59Z</time></trkpt><trkpt lat="42.16021043645162" lon="-7.976469895620867"><ele>687.0</ele><time>2026-04-30T11:41:59.999Z</time></trkpt><trkpt lat="42.160249413707156" lon="-7.976377781345659"><ele>687.0</ele><time>2026-04-30T11:42:00.999Z</time></trkpt><trkpt lat="42.160290296591704" lon="-7.976273486794259"><ele>687.0</ele><time>2026-04-30T11:42:01.999Z</time></trkpt><trkpt lat="42.16033192179476" lon="-7.976158266193609"><ele>687.0</ele><time>2026-04-30T11:42:02.999Z</time></trkpt><trkpt lat="42.16037067112043" lon="-7.97603939380092"><ele>687.0</ele><time>2026-04-30T11:42:03.999Z</time></trkpt><trkpt lat="42.16040378558372" lon="-7.975921796223311"><ele>686.3333333333334</ele><time>2026-04-30T11:42:04.999Z</time></trkpt><trkpt lat="42.16043128980621" lon="-7.975795078187676"><ele>685.6666666666666</ele><time>2026-04-30T11:42:05.999Z</time></trkpt><trkpt lat="42.16046016943698" lon="-7.975671659764016"><ele>685.0</ele><time>2026-04-30T11:42:06.999Z</time></trkpt><trkpt lat="42.1604904739764" lon="-7.975561389739829"><ele>684.3333333333333</ele><time>2026-04-30T11:42:07.999Z</time></trkpt><trkpt lat="42.160522205321" lon="-7.975463328174662"><ele>683.6666666666666</ele><time>2026-04-30T11:42:08.999Z</time></trkpt><trkpt lat="42.16057646303755" lon="-7.975385150532334"><ele>683.0</ele><time>2026-04-30T11:42:09.999Z</time></trkpt><trkpt lat="42.1606270377395" lon="-7.975314712192872"><ele>683.0</ele><time>2026-04-30T11:42:10.999Z</time></trkpt><trkpt lat="42.16068560767146" lon="-7.9752507985017855"><ele>683.0</ele><time>2026-04-30T11:42:11.999Z</time></trkpt><trkpt lat="42.16074155528172" lon="-7.9751865107130175"><ele>683.0</ele><time>2026-04-30T11:42:12.999Z</time></trkpt><trkpt lat="42.16079944332161" lon="-7.975126491275418"><ele>683.0</ele><time>2026-04-30T11:42:13.999Z</time></trkpt><trkpt lat="42.16085908759319" lon="-7.975077132132556"><ele>683.0</ele><time>2026-04-30T11:42:14.999Z</time></trkpt><trkpt lat="42.16091997860228" lon="-7.975032008227344"><ele>683.0</ele><time>2026-04-30T11:42:15.999Z</time></trkpt><trkpt lat="42.1610036936536" lon="-7.974965818092484"><ele>682.5</ele><time>2026-04-30T11:42:17.999Z</time></trkpt><trkpt lat="42.16105801228376" lon="-7.974894426752807"><ele>682.0</ele><time>2026-04-30T11:44:59Z</time></trkpt><trkpt lat="42.161146319149324" lon="-7.974934439085792"><ele>681.5</ele><time>2026-04-30T11:45:03Z</time></trkpt><trkpt lat="42.161096863499374" lon="-7.9748714047841105"><ele>681.0</ele><time>2026-04-30T11:45:19Z</time></trkpt><trkpt lat="42.16101685633005" lon="-7.974940198458071"><ele>680.5</ele><time>2026-04-30T11:45:22Z</time></trkpt><trkpt lat="42.160938631098674" lon="-7.975014182070349"><ele>680.0</ele><time>2026-04-30T11:45:24Z</time></trkpt><trkpt lat="42.16084745236324" lon="-7.975085530057248"><ele>680.5</ele><time>2026-04-30T11:45:26Z</time></trkpt><trkpt lat="42.1607415169466" lon="-7.975195421472743"><ele>681.0</ele><time>2026-04-30T11:45:28Z</time></trkpt><trkpt lat="42.16068254930912" lon="-7.97525766708347"><ele>681.5</ele><time>2026-04-30T11:45:29Z</time></trkpt><trkpt lat="42.16062348187785" lon="-7.975326572887105"><ele>682.0</ele><time>2026-04-30T11:45:30Z</time></trkpt><trkpt lat="42.160572347864814" lon="-7.975402593644931"><ele>682.5</ele><time>2026-04-30T11:45:31Z</time></trkpt><trkpt lat="42.1605343218512" lon="-7.975497449650272"><ele>683.0</ele><time>2026-04-30T11:45:32Z</time></trkpt><trkpt lat="42.16050225904115" lon="-7.9756088521916535"><ele>683.0</ele><time>2026-04-30T11:45:33Z</time></trkpt><trkpt lat="42.16047341563793" lon="-7.975726318657523"><ele>683.0</ele><time>2026-04-30T11:45:34Z</time></trkpt><trkpt lat="42.160446406877256" lon="-7.9758501203629"><ele>683.0</ele><time>2026-04-30T11:45:35Z</time></trkpt><trkpt lat="42.16041351951101" lon="-7.975972495673171"><ele>683.0</ele><time>2026-04-30T11:45:36Z</time></trkpt><trkpt lat="42.16037480242742" lon="-7.976093329281857"><ele>683.0</ele><time>2026-04-30T11:45:37Z</time></trkpt><trkpt lat="42.160332664034236" lon="-7.976214004632846"><ele>683.6666666666666</ele><time>2026-04-30T11:45:38Z</time></trkpt><trkpt lat="42.16029420692472" lon="-7.976328781958974"><ele>684.3333333333333</ele><time>2026-04-30T11:45:39Z</time></trkpt><trkpt lat="42.16025226501466" lon="-7.97643394990772"><ele>685.0</ele><time>2026-04-30T11:45:40Z</time></trkpt><trkpt lat="42.160199254829145" lon="-7.976524201097342"><ele>685.6666666666666</ele><time>2026-04-30T11:45:41Z</time></trkpt><trkpt lat="42.16013467124202" lon="-7.9765977438012"><ele>686.3333333333334</ele><time>2026-04-30T11:45:42Z</time></trkpt><trkpt lat="42.160064804835145" lon="-7.976669107234964"><ele>687.0</ele><time>2026-04-30T11:45:43Z</time></trkpt><trkpt lat="42.15999976805704" lon="-7.9767317521049055"><ele>687.1666666666666</ele><time>2026-04-30T11:45:44Z</time></trkpt><trkpt lat="42.15994855884299" lon="-7.976803948995587"><ele>687.3333333333334</ele><time>2026-04-30T11:45:45Z</time></trkpt><trkpt lat="42.15986089457466" lon="-7.976870536314686"><ele>687.5</ele><time>2026-04-30T11:45:47Z</time></trkpt><trkpt lat="42.15978751678277" lon="-7.976820658360787"><ele>687.6666666666667</ele><time>2026-04-30T11:45:49Z</time></trkpt><trkpt lat="42.15977086535768" lon="-7.976727794083181"><ele>687.8333333333334</ele><time>2026-04-30T11:45:50Z</time></trkpt><trkpt lat="42.15974066978486" lon="-7.976580961790175"><ele>688.0</ele><time>2026-04-30T11:45:52Z</time></trkpt><trkpt lat="42.1597214159404" lon="-7.9764316729520885"><ele>683.0</ele><time>2026-04-30T11:45:54Z</time></trkpt><trkpt lat="42.159710672181696" lon="-7.976345471701569"><ele>683.0</ele><time>2026-04-30T11:45:56Z</time></trkpt><trkpt lat="42.15980678881525" lon="-7.9763424932674205"><ele>683.0</ele><time>2026-04-30T11:46:50Z</time></trkpt><trkpt lat="42.159951743709286" lon="-7.976294159896651"><ele>687.0</ele><time>2026-04-30T11:47:03Z</time></trkpt><trkpt lat="42.15983585480566" lon="-7.976291155649062"><ele>683.0</ele><time>2026-04-30T11:47:05Z</time></trkpt></trkseg></trk></gpx>